<?xml version="1.0" encoding="UTF-8" standalone="no" ?>
<gpx xmlns="http://www.topografix.com/GPX/1/1" xmlns:xsi="http://www.w3.org/2001/XMLSchema-instance" xsi:schemaLocation="http://www.topografix.com/GPX/1/1 http://www.topografix.com/GPX/1/1/gpx.xsd" version="1.1" creator="VisuGPX - https://www.visugpx.com">
  <metadata>
    <name>Rando VTT la St Aubin Black (Nocturne)</name>
    <desc><![CDATA[Rando  harde la première partie est à faire de jour par sécurité.]]></desc>
  </metadata>
  <trk>
    <name><![CDATA[Tracé actuel: 16 AVR 2011 17:59]]></name>
    <trkseg>
      <trkpt lat="47.32508" lon="-0.66515">
        <ele>19.36</ele>
        <time>2011-04-16T17:59:32Z</time>
      </trkpt>
      <trkpt lat="47.32509" lon="-0.66515">
        <ele>20.81</ele>
        <time>2011-04-16T17:59:45Z</time>
      </trkpt>
      <trkpt lat="47.32502" lon="-0.66521">
        <ele>19.84</ele>
        <time>2011-04-16T17:59:50Z</time>
      </trkpt>
      <trkpt lat="47.32485" lon="-0.6653">
        <ele>21.77</ele>
        <time>2011-04-16T17:59:57Z</time>
      </trkpt>
      <trkpt lat="47.32477" lon="-0.66532">
        <ele>21.29</ele>
        <time>2011-04-16T18:00:03Z</time>
      </trkpt>
      <trkpt lat="47.32472" lon="-0.66547">
        <ele>21.29</ele>
        <time>2011-04-16T18:00:10Z</time>
      </trkpt>
      <trkpt lat="47.32465" lon="-0.66559">
        <ele>20.81</ele>
        <time>2011-04-16T18:00:15Z</time>
      </trkpt>
      <trkpt lat="47.32455" lon="-0.66562">
        <ele>18.4</ele>
        <time>2011-04-16T18:00:20Z</time>
      </trkpt>
      <trkpt lat="47.32431" lon="-0.66588">
        <ele>19.84</ele>
        <time>2011-04-16T18:00:28Z</time>
      </trkpt>
      <trkpt lat="47.32412" lon="-0.6663">
        <ele>19.84</ele>
        <time>2011-04-16T18:00:36Z</time>
      </trkpt>
      <trkpt lat="47.32406" lon="-0.6664">
        <ele>20.32</ele>
        <time>2011-04-16T18:00:38Z</time>
      </trkpt>
      <trkpt lat="47.32402" lon="-0.66651">
        <ele>19.36</ele>
        <time>2011-04-16T18:00:40Z</time>
      </trkpt>
      <trkpt lat="47.32404" lon="-0.66668">
        <ele>19.36</ele>
        <time>2011-04-16T18:00:43Z</time>
      </trkpt>
      <trkpt lat="47.32407" lon="-0.66674">
        <ele>18.4</ele>
        <time>2011-04-16T18:00:44Z</time>
      </trkpt>
      <trkpt lat="47.32421" lon="-0.66698">
        <ele>19.84</ele>
        <time>2011-04-16T18:00:49Z</time>
      </trkpt>
      <trkpt lat="47.3244" lon="-0.66721">
        <ele>17.92</ele>
        <time>2011-04-16T18:00:55Z</time>
      </trkpt>
      <trkpt lat="47.3245" lon="-0.66755">
        <ele>17.92</ele>
        <time>2011-04-16T18:01:01Z</time>
      </trkpt>
      <trkpt lat="47.32461" lon="-0.66785">
        <ele>18.4</ele>
        <time>2011-04-16T18:01:06Z</time>
      </trkpt>
      <trkpt lat="47.32474" lon="-0.66799">
        <ele>18.4</ele>
        <time>2011-04-16T18:01:10Z</time>
      </trkpt>
      <trkpt lat="47.32498" lon="-0.66818">
        <ele>20.32</ele>
        <time>2011-04-16T18:01:17Z</time>
      </trkpt>
      <trkpt lat="47.325" lon="-0.66822">
        <ele>18.4</ele>
        <time>2011-04-16T18:01:18Z</time>
      </trkpt>
      <trkpt lat="47.32509" lon="-0.66852">
        <ele>18.4</ele>
        <time>2011-04-16T18:01:23Z</time>
      </trkpt>
      <trkpt lat="47.32515" lon="-0.66871">
        <ele>18.88</ele>
        <time>2011-04-16T18:01:26Z</time>
      </trkpt>
      <trkpt lat="47.32519" lon="-0.66883">
        <ele>18.4</ele>
        <time>2011-04-16T18:01:28Z</time>
      </trkpt>
      <trkpt lat="47.32541" lon="-0.66905">
        <ele>18.88</ele>
        <time>2011-04-16T18:01:34Z</time>
      </trkpt>
      <trkpt lat="47.32554" lon="-0.66924">
        <ele>18.4</ele>
        <time>2011-04-16T18:01:38Z</time>
      </trkpt>
      <trkpt lat="47.32556" lon="-0.66929">
        <ele>18.4</ele>
        <time>2011-04-16T18:01:39Z</time>
      </trkpt>
      <trkpt lat="47.32561" lon="-0.66942">
        <ele>18.88</ele>
        <time>2011-04-16T18:01:41Z</time>
      </trkpt>
      <trkpt lat="47.32589" lon="-0.66983">
        <ele>17.92</ele>
        <time>2011-04-16T18:01:50Z</time>
      </trkpt>
      <trkpt lat="47.32614" lon="-0.67019">
        <ele>17.44</ele>
        <time>2011-04-16T18:01:58Z</time>
      </trkpt>
      <trkpt lat="47.32616" lon="-0.67023">
        <ele>17.44</ele>
        <time>2011-04-16T18:01:59Z</time>
      </trkpt>
      <trkpt lat="47.32626" lon="-0.67032">
        <ele>18.88</ele>
        <time>2011-04-16T18:02:02Z</time>
      </trkpt>
      <trkpt lat="47.32651" lon="-0.67047">
        <ele>17.92</ele>
        <time>2011-04-16T18:02:08Z</time>
      </trkpt>
      <trkpt lat="47.32676" lon="-0.67055">
        <ele>18.4</ele>
        <time>2011-04-16T18:02:13Z</time>
      </trkpt>
      <trkpt lat="47.32688" lon="-0.67062">
        <ele>19.36</ele>
        <time>2011-04-16T18:02:16Z</time>
      </trkpt>
      <trkpt lat="47.32715" lon="-0.67099">
        <ele>18.88</ele>
        <time>2011-04-16T18:02:24Z</time>
      </trkpt>
      <trkpt lat="47.32727" lon="-0.67118">
        <ele>17.44</ele>
        <time>2011-04-16T18:02:28Z</time>
      </trkpt>
      <trkpt lat="47.3273" lon="-0.67121">
        <ele>18.4</ele>
        <time>2011-04-16T18:02:29Z</time>
      </trkpt>
      <trkpt lat="47.32752" lon="-0.67145">
        <ele>18.88</ele>
        <time>2011-04-16T18:02:35Z</time>
      </trkpt>
      <trkpt lat="47.32764" lon="-0.67139">
        <ele>18.4</ele>
        <time>2011-04-16T18:02:39Z</time>
      </trkpt>
      <trkpt lat="47.32771" lon="-0.6714">
        <ele>19.36</ele>
        <time>2011-04-16T18:02:41Z</time>
      </trkpt>
      <trkpt lat="47.32785" lon="-0.67151">
        <ele>19.84</ele>
        <time>2011-04-16T18:02:46Z</time>
      </trkpt>
      <trkpt lat="47.3279" lon="-0.67149">
        <ele>19.84</ele>
        <time>2011-04-16T18:02:48Z</time>
      </trkpt>
      <trkpt lat="47.328" lon="-0.67143">
        <ele>19.84</ele>
        <time>2011-04-16T18:02:52Z</time>
      </trkpt>
      <trkpt lat="47.32806" lon="-0.67157">
        <ele>19.36</ele>
        <time>2011-04-16T18:02:55Z</time>
      </trkpt>
      <trkpt lat="47.32807" lon="-0.67163">
        <ele>19.36</ele>
        <time>2011-04-16T18:02:56Z</time>
      </trkpt>
      <trkpt lat="47.32807" lon="-0.67169">
        <ele>20.32</ele>
        <time>2011-04-16T18:02:57Z</time>
      </trkpt>
      <trkpt lat="47.32808" lon="-0.67174">
        <ele>19.36</ele>
        <time>2011-04-16T18:02:58Z</time>
      </trkpt>
      <trkpt lat="47.32811" lon="-0.67179">
        <ele>18.88</ele>
        <time>2011-04-16T18:02:59Z</time>
      </trkpt>
      <trkpt lat="47.32813" lon="-0.67182">
        <ele>19.36</ele>
        <time>2011-04-16T18:03:00Z</time>
      </trkpt>
      <trkpt lat="47.32815" lon="-0.67184">
        <ele>18.88</ele>
        <time>2011-04-16T18:03:01Z</time>
      </trkpt>
      <trkpt lat="47.32818" lon="-0.67186">
        <ele>19.36</ele>
        <time>2011-04-16T18:03:02Z</time>
      </trkpt>
      <trkpt lat="47.3282" lon="-0.6719">
        <ele>19.84</ele>
        <time>2011-04-16T18:03:03Z</time>
      </trkpt>
      <trkpt lat="47.32822" lon="-0.67195">
        <ele>20.32</ele>
        <time>2011-04-16T18:03:04Z</time>
      </trkpt>
      <trkpt lat="47.32824" lon="-0.67201">
        <ele>20.32</ele>
        <time>2011-04-16T18:03:05Z</time>
      </trkpt>
      <trkpt lat="47.32838" lon="-0.67256">
        <ele>20.32</ele>
        <time>2011-04-16T18:03:13Z</time>
      </trkpt>
      <trkpt lat="47.32839" lon="-0.67263">
        <ele>19.84</ele>
        <time>2011-04-16T18:03:14Z</time>
      </trkpt>
      <trkpt lat="47.32842" lon="-0.67286">
        <ele>19.84</ele>
        <time>2011-04-16T18:03:17Z</time>
      </trkpt>
      <trkpt lat="47.32843" lon="-0.67309">
        <ele>20.32</ele>
        <time>2011-04-16T18:03:20Z</time>
      </trkpt>
      <trkpt lat="47.32847" lon="-0.67339">
        <ele>19.84</ele>
        <time>2011-04-16T18:03:24Z</time>
      </trkpt>
      <trkpt lat="47.32847" lon="-0.67346">
        <ele>20.32</ele>
        <time>2011-04-16T18:03:25Z</time>
      </trkpt>
      <trkpt lat="47.32847" lon="-0.67352">
        <ele>20.81</ele>
        <time>2011-04-16T18:03:26Z</time>
      </trkpt>
      <trkpt lat="47.32846" lon="-0.67359">
        <ele>20.81</ele>
        <time>2011-04-16T18:03:27Z</time>
      </trkpt>
      <trkpt lat="47.32846" lon="-0.67365">
        <ele>19.84</ele>
        <time>2011-04-16T18:03:28Z</time>
      </trkpt>
      <trkpt lat="47.32851" lon="-0.67417">
        <ele>22.25</ele>
        <time>2011-04-16T18:03:36Z</time>
      </trkpt>
      <trkpt lat="47.32852" lon="-0.67429">
        <ele>20.81</ele>
        <time>2011-04-16T18:03:38Z</time>
      </trkpt>
      <trkpt lat="47.32851" lon="-0.67436">
        <ele>20.81</ele>
        <time>2011-04-16T18:03:39Z</time>
      </trkpt>
      <trkpt lat="47.32851" lon="-0.67442">
        <ele>21.29</ele>
        <time>2011-04-16T18:03:40Z</time>
      </trkpt>
      <trkpt lat="47.32851" lon="-0.67448">
        <ele>21.29</ele>
        <time>2011-04-16T18:03:41Z</time>
      </trkpt>
      <trkpt lat="47.32851" lon="-0.67454">
        <ele>20.81</ele>
        <time>2011-04-16T18:03:42Z</time>
      </trkpt>
      <trkpt lat="47.32851" lon="-0.6746">
        <ele>21.29</ele>
        <time>2011-04-16T18:03:43Z</time>
      </trkpt>
      <trkpt lat="47.32851" lon="-0.67466">
        <ele>21.77</ele>
        <time>2011-04-16T18:03:44Z</time>
      </trkpt>
      <trkpt lat="47.32851" lon="-0.67471">
        <ele>22.25</ele>
        <time>2011-04-16T18:03:45Z</time>
      </trkpt>
      <trkpt lat="47.32852" lon="-0.67477">
        <ele>21.77</ele>
        <time>2011-04-16T18:03:46Z</time>
      </trkpt>
      <trkpt lat="47.32851" lon="-0.67503">
        <ele>22.25</ele>
        <time>2011-04-16T18:03:50Z</time>
      </trkpt>
      <trkpt lat="47.32852" lon="-0.6751">
        <ele>21.77</ele>
        <time>2011-04-16T18:03:51Z</time>
      </trkpt>
      <trkpt lat="47.32852" lon="-0.67517">
        <ele>21.29</ele>
        <time>2011-04-16T18:03:52Z</time>
      </trkpt>
      <trkpt lat="47.32851" lon="-0.67524">
        <ele>21.77</ele>
        <time>2011-04-16T18:03:53Z</time>
      </trkpt>
      <trkpt lat="47.3285" lon="-0.67531">
        <ele>23.21</ele>
        <time>2011-04-16T18:03:54Z</time>
      </trkpt>
      <trkpt lat="47.32847" lon="-0.67577">
        <ele>23.69</ele>
        <time>2011-04-16T18:04:00Z</time>
      </trkpt>
      <trkpt lat="47.32839" lon="-0.67622">
        <ele>22.73</ele>
        <time>2011-04-16T18:04:06Z</time>
      </trkpt>
      <trkpt lat="47.32837" lon="-0.67637">
        <ele>21.77</ele>
        <time>2011-04-16T18:04:08Z</time>
      </trkpt>
      <trkpt lat="47.32836" lon="-0.67644">
        <ele>24.17</ele>
        <time>2011-04-16T18:04:09Z</time>
      </trkpt>
      <trkpt lat="47.32834" lon="-0.67659">
        <ele>23.21</ele>
        <time>2011-04-16T18:04:11Z</time>
      </trkpt>
      <trkpt lat="47.32832" lon="-0.67666">
        <ele>23.21</ele>
        <time>2011-04-16T18:04:12Z</time>
      </trkpt>
      <trkpt lat="47.3283" lon="-0.6767">
        <ele>24.65</ele>
        <time>2011-04-16T18:04:13Z</time>
      </trkpt>
      <trkpt lat="47.3283" lon="-0.67675">
        <ele>23.69</ele>
        <time>2011-04-16T18:04:14Z</time>
      </trkpt>
      <trkpt lat="47.32829" lon="-0.67678">
        <ele>23.21</ele>
        <time>2011-04-16T18:04:15Z</time>
      </trkpt>
      <trkpt lat="47.32828" lon="-0.67684">
        <ele>21.77</ele>
        <time>2011-04-16T18:04:17Z</time>
      </trkpt>
      <trkpt lat="47.32827" lon="-0.67689">
        <ele>23.21</ele>
        <time>2011-04-16T18:04:19Z</time>
      </trkpt>
      <trkpt lat="47.32827" lon="-0.6769">
        <ele>23.69</ele>
        <time>2011-04-16T18:04:20Z</time>
      </trkpt>
      <trkpt lat="47.32827" lon="-0.67692">
        <ele>23.69</ele>
        <time>2011-04-16T18:04:21Z</time>
      </trkpt>
      <trkpt lat="47.32825" lon="-0.67702">
        <ele>23.21</ele>
        <time>2011-04-16T18:04:26Z</time>
      </trkpt>
      <trkpt lat="47.32823" lon="-0.67713">
        <ele>22.25</ele>
        <time>2011-04-16T18:04:33Z</time>
      </trkpt>
      <trkpt lat="47.32822" lon="-0.67714">
        <ele>22.73</ele>
        <time>2011-04-16T18:04:37Z</time>
      </trkpt>
      <trkpt lat="47.32822" lon="-0.67715">
        <ele>24.17</ele>
        <time>2011-04-16T18:04:39Z</time>
      </trkpt>
      <trkpt lat="47.32822" lon="-0.67721">
        <ele>26.09</ele>
        <time>2011-04-16T18:04:50Z</time>
      </trkpt>
      <trkpt lat="47.32823" lon="-0.67724">
        <ele>23.21</ele>
        <time>2011-04-16T18:04:51Z</time>
      </trkpt>
      <trkpt lat="47.32825" lon="-0.67728">
        <ele>22.25</ele>
        <time>2011-04-16T18:04:53Z</time>
      </trkpt>
      <trkpt lat="47.32826" lon="-0.6773">
        <ele>19.84</ele>
        <time>2011-04-16T18:04:57Z</time>
      </trkpt>
      <trkpt lat="47.32824" lon="-0.67735">
        <ele>18.88</ele>
        <time>2011-04-16T18:05:03Z</time>
      </trkpt>
      <trkpt lat="47.32822" lon="-0.67736">
        <ele>22.25</ele>
        <time>2011-04-16T18:05:06Z</time>
      </trkpt>
      <trkpt lat="47.32822" lon="-0.67738">
        <ele>19.84</ele>
        <time>2011-04-16T18:05:08Z</time>
      </trkpt>
      <trkpt lat="47.32822" lon="-0.67741">
        <ele>23.21</ele>
        <time>2011-04-16T18:05:10Z</time>
      </trkpt>
      <trkpt lat="47.32822" lon="-0.67743">
        <ele>22.25</ele>
        <time>2011-04-16T18:05:11Z</time>
      </trkpt>
      <trkpt lat="47.32821" lon="-0.67746">
        <ele>18.4</ele>
        <time>2011-04-16T18:05:13Z</time>
      </trkpt>
      <trkpt lat="47.32821" lon="-0.6775">
        <ele>22.25</ele>
        <time>2011-04-16T18:05:18Z</time>
      </trkpt>
      <trkpt lat="47.32821" lon="-0.6775">
        <ele>19.36</ele>
        <time>2011-04-16T18:05:19Z</time>
      </trkpt>
      <trkpt lat="47.32818" lon="-0.67751">
        <ele>21.29</ele>
        <time>2011-04-16T18:05:22Z</time>
      </trkpt>
      <trkpt lat="47.32813" lon="-0.67762">
        <ele>24.17</ele>
        <time>2011-04-16T18:05:27Z</time>
      </trkpt>
      <trkpt lat="47.3281" lon="-0.6777">
        <ele>25.13</ele>
        <time>2011-04-16T18:05:34Z</time>
      </trkpt>
      <trkpt lat="47.3281" lon="-0.67772">
        <ele>25.13</ele>
        <time>2011-04-16T18:05:35Z</time>
      </trkpt>
      <trkpt lat="47.3281" lon="-0.67773">
        <ele>28.02</ele>
        <time>2011-04-16T18:05:37Z</time>
      </trkpt>
      <trkpt lat="47.32809" lon="-0.67778">
        <ele>25.13</ele>
        <time>2011-04-16T18:05:41Z</time>
      </trkpt>
      <trkpt lat="47.3281" lon="-0.67782">
        <ele>25.61</ele>
        <time>2011-04-16T18:05:45Z</time>
      </trkpt>
      <trkpt lat="47.32809" lon="-0.67785">
        <ele>30.42</ele>
        <time>2011-04-16T18:05:49Z</time>
      </trkpt>
      <trkpt lat="47.32809" lon="-0.67787">
        <ele>27.05</ele>
        <time>2011-04-16T18:05:51Z</time>
      </trkpt>
      <trkpt lat="47.32808" lon="-0.67788">
        <ele>30.9</ele>
        <time>2011-04-16T18:05:53Z</time>
      </trkpt>
      <trkpt lat="47.32807" lon="-0.67791">
        <ele>27.53</ele>
        <time>2011-04-16T18:05:56Z</time>
      </trkpt>
      <trkpt lat="47.32805" lon="-0.67794">
        <ele>29.94</ele>
        <time>2011-04-16T18:05:59Z</time>
      </trkpt>
      <trkpt lat="47.32805" lon="-0.67798">
        <ele>28.98</ele>
        <time>2011-04-16T18:06:05Z</time>
      </trkpt>
      <trkpt lat="47.32806" lon="-0.67799">
        <ele>33.3</ele>
        <time>2011-04-16T18:06:07Z</time>
      </trkpt>
      <trkpt lat="47.32806" lon="-0.67799">
        <ele>30.42</ele>
        <time>2011-04-16T18:06:08Z</time>
      </trkpt>
      <trkpt lat="47.32809" lon="-0.67805">
        <ele>34.26</ele>
        <time>2011-04-16T18:06:15Z</time>
      </trkpt>
      <trkpt lat="47.32809" lon="-0.67805">
        <ele>32.82</ele>
        <time>2011-04-16T18:06:16Z</time>
      </trkpt>
      <trkpt lat="47.32812" lon="-0.67808">
        <ele>34.26</ele>
        <time>2011-04-16T18:06:20Z</time>
      </trkpt>
      <trkpt lat="47.32812" lon="-0.67817">
        <ele>34.74</ele>
        <time>2011-04-16T18:06:27Z</time>
      </trkpt>
      <trkpt lat="47.3281" lon="-0.67818">
        <ele>36.19</ele>
        <time>2011-04-16T18:06:32Z</time>
      </trkpt>
      <trkpt lat="47.328" lon="-0.67834">
        <ele>35.71</ele>
        <time>2011-04-16T18:06:39Z</time>
      </trkpt>
      <trkpt lat="47.32792" lon="-0.67872">
        <ele>36.67</ele>
        <time>2011-04-16T18:06:46Z</time>
      </trkpt>
      <trkpt lat="47.32785" lon="-0.67896">
        <ele>37.63</ele>
        <time>2011-04-16T18:06:50Z</time>
      </trkpt>
      <trkpt lat="47.32775" lon="-0.67933">
        <ele>37.15</ele>
        <time>2011-04-16T18:06:56Z</time>
      </trkpt>
      <trkpt lat="47.32774" lon="-0.6794">
        <ele>37.63</ele>
        <time>2011-04-16T18:06:57Z</time>
      </trkpt>
      <trkpt lat="47.32775" lon="-0.67947">
        <ele>38.11</ele>
        <time>2011-04-16T18:06:58Z</time>
      </trkpt>
      <trkpt lat="47.32782" lon="-0.67985">
        <ele>40.03</ele>
        <time>2011-04-16T18:07:04Z</time>
      </trkpt>
      <trkpt lat="47.32794" lon="-0.67998">
        <ele>39.07</ele>
        <time>2011-04-16T18:07:08Z</time>
      </trkpt>
      <trkpt lat="47.32806" lon="-0.68006">
        <ele>40.03</ele>
        <time>2011-04-16T18:07:12Z</time>
      </trkpt>
      <trkpt lat="47.32807" lon="-0.68011">
        <ele>40.51</ele>
        <time>2011-04-16T18:07:13Z</time>
      </trkpt>
      <trkpt lat="47.32813" lon="-0.68043">
        <ele>39.55</ele>
        <time>2011-04-16T18:07:18Z</time>
      </trkpt>
      <trkpt lat="47.32815" lon="-0.68063">
        <ele>41.47</ele>
        <time>2011-04-16T18:07:21Z</time>
      </trkpt>
      <trkpt lat="47.32819" lon="-0.68114">
        <ele>42.92</ele>
        <time>2011-04-16T18:07:29Z</time>
      </trkpt>
      <trkpt lat="47.32823" lon="-0.68165">
        <ele>42.44</ele>
        <time>2011-04-16T18:07:37Z</time>
      </trkpt>
      <trkpt lat="47.32824" lon="-0.68171">
        <ele>41.95</ele>
        <time>2011-04-16T18:07:38Z</time>
      </trkpt>
      <trkpt lat="47.32832" lon="-0.68208">
        <ele>43.88</ele>
        <time>2011-04-16T18:07:44Z</time>
      </trkpt>
      <trkpt lat="47.32844" lon="-0.68221">
        <ele>43.88</ele>
        <time>2011-04-16T18:07:48Z</time>
      </trkpt>
      <trkpt lat="47.32851" lon="-0.6822">
        <ele>44.84</ele>
        <time>2011-04-16T18:07:50Z</time>
      </trkpt>
      <trkpt lat="47.32857" lon="-0.68231">
        <ele>44.36</ele>
        <time>2011-04-16T18:07:53Z</time>
      </trkpt>
      <trkpt lat="47.32868" lon="-0.68286">
        <ele>44.36</ele>
        <time>2011-04-16T18:08:02Z</time>
      </trkpt>
      <trkpt lat="47.32874" lon="-0.68319">
        <ele>43.88</ele>
        <time>2011-04-16T18:08:07Z</time>
      </trkpt>
      <trkpt lat="47.32877" lon="-0.68325">
        <ele>43.4</ele>
        <time>2011-04-16T18:08:08Z</time>
      </trkpt>
      <trkpt lat="47.32879" lon="-0.68328">
        <ele>44.84</ele>
        <time>2011-04-16T18:08:09Z</time>
      </trkpt>
      <trkpt lat="47.32881" lon="-0.6833">
        <ele>44.36</ele>
        <time>2011-04-16T18:08:10Z</time>
      </trkpt>
      <trkpt lat="47.32887" lon="-0.6835">
        <ele>43.4</ele>
        <time>2011-04-16T18:08:14Z</time>
      </trkpt>
      <trkpt lat="47.32893" lon="-0.68373">
        <ele>44.36</ele>
        <time>2011-04-16T18:08:18Z</time>
      </trkpt>
      <trkpt lat="47.32894" lon="-0.68379">
        <ele>45.8</ele>
        <time>2011-04-16T18:08:19Z</time>
      </trkpt>
      <trkpt lat="47.32897" lon="-0.68391">
        <ele>43.88</ele>
        <time>2011-04-16T18:08:21Z</time>
      </trkpt>
      <trkpt lat="47.32905" lon="-0.68419">
        <ele>44.84</ele>
        <time>2011-04-16T18:08:27Z</time>
      </trkpt>
      <trkpt lat="47.32904" lon="-0.68422">
        <ele>43.88</ele>
        <time>2011-04-16T18:08:28Z</time>
      </trkpt>
      <trkpt lat="47.32899" lon="-0.68428">
        <ele>45.32</ele>
        <time>2011-04-16T18:08:30Z</time>
      </trkpt>
      <trkpt lat="47.32869" lon="-0.68457">
        <ele>38.59</ele>
        <time>2011-04-16T18:08:36Z</time>
      </trkpt>
      <trkpt lat="47.32857" lon="-0.68469">
        <ele>36.67</ele>
        <time>2011-04-16T18:08:38Z</time>
      </trkpt>
      <trkpt lat="47.32813" lon="-0.68513">
        <ele>30.9</ele>
        <time>2011-04-16T18:08:44Z</time>
      </trkpt>
      <trkpt lat="47.32789" lon="-0.68537">
        <ele>27.53</ele>
        <time>2011-04-16T18:08:47Z</time>
      </trkpt>
      <trkpt lat="47.32781" lon="-0.68547">
        <ele>26.57</ele>
        <time>2011-04-16T18:08:49Z</time>
      </trkpt>
      <trkpt lat="47.32781" lon="-0.68553">
        <ele>27.05</ele>
        <time>2011-04-16T18:08:50Z</time>
      </trkpt>
      <trkpt lat="47.32783" lon="-0.68559">
        <ele>25.61</ele>
        <time>2011-04-16T18:08:51Z</time>
      </trkpt>
      <trkpt lat="47.32786" lon="-0.68565">
        <ele>26.57</ele>
        <time>2011-04-16T18:08:52Z</time>
      </trkpt>
      <trkpt lat="47.32789" lon="-0.68571">
        <ele>26.09</ele>
        <time>2011-04-16T18:08:53Z</time>
      </trkpt>
      <trkpt lat="47.32793" lon="-0.68577">
        <ele>25.13</ele>
        <time>2011-04-16T18:08:54Z</time>
      </trkpt>
      <trkpt lat="47.32797" lon="-0.68583">
        <ele>26.57</ele>
        <time>2011-04-16T18:08:55Z</time>
      </trkpt>
      <trkpt lat="47.3283" lon="-0.68629">
        <ele>24.17</ele>
        <time>2011-04-16T18:09:03Z</time>
      </trkpt>
      <trkpt lat="47.32847" lon="-0.68653">
        <ele>23.69</ele>
        <time>2011-04-16T18:09:07Z</time>
      </trkpt>
      <trkpt lat="47.3287" lon="-0.68693">
        <ele>27.53</ele>
        <time>2011-04-16T18:09:13Z</time>
      </trkpt>
      <trkpt lat="47.32874" lon="-0.68699">
        <ele>24.65</ele>
        <time>2011-04-16T18:09:14Z</time>
      </trkpt>
      <trkpt lat="47.32883" lon="-0.68714">
        <ele>24.65</ele>
        <time>2011-04-16T18:09:17Z</time>
      </trkpt>
      <trkpt lat="47.32886" lon="-0.6872">
        <ele>22.73</ele>
        <time>2011-04-16T18:09:18Z</time>
      </trkpt>
      <trkpt lat="47.32889" lon="-0.68725">
        <ele>22.25</ele>
        <time>2011-04-16T18:09:19Z</time>
      </trkpt>
      <trkpt lat="47.32909" lon="-0.68756">
        <ele>23.69</ele>
        <time>2011-04-16T18:09:24Z</time>
      </trkpt>
      <trkpt lat="47.32919" lon="-0.68767">
        <ele>18.88</ele>
        <time>2011-04-16T18:09:26Z</time>
      </trkpt>
      <trkpt lat="47.32933" lon="-0.68779">
        <ele>23.21</ele>
        <time>2011-04-16T18:09:29Z</time>
      </trkpt>
      <trkpt lat="47.32938" lon="-0.6878">
        <ele>23.69</ele>
        <time>2011-04-16T18:09:30Z</time>
      </trkpt>
      <trkpt lat="47.32942" lon="-0.68779">
        <ele>21.29</ele>
        <time>2011-04-16T18:09:31Z</time>
      </trkpt>
      <trkpt lat="47.32946" lon="-0.68777">
        <ele>20.81</ele>
        <time>2011-04-16T18:09:32Z</time>
      </trkpt>
      <trkpt lat="47.3295" lon="-0.68776">
        <ele>20.81</ele>
        <time>2011-04-16T18:09:33Z</time>
      </trkpt>
      <trkpt lat="47.32954" lon="-0.68776">
        <ele>21.77</ele>
        <time>2011-04-16T18:09:34Z</time>
      </trkpt>
      <trkpt lat="47.32959" lon="-0.68777">
        <ele>23.21</ele>
        <time>2011-04-16T18:09:35Z</time>
      </trkpt>
      <trkpt lat="47.32964" lon="-0.6878">
        <ele>24.17</ele>
        <time>2011-04-16T18:09:36Z</time>
      </trkpt>
      <trkpt lat="47.32969" lon="-0.68782">
        <ele>23.21</ele>
        <time>2011-04-16T18:09:37Z</time>
      </trkpt>
      <trkpt lat="47.32974" lon="-0.68784">
        <ele>23.69</ele>
        <time>2011-04-16T18:09:38Z</time>
      </trkpt>
      <trkpt lat="47.32979" lon="-0.68786">
        <ele>21.77</ele>
        <time>2011-04-16T18:09:39Z</time>
      </trkpt>
      <trkpt lat="47.32985" lon="-0.68788">
        <ele>22.25</ele>
        <time>2011-04-16T18:09:40Z</time>
      </trkpt>
      <trkpt lat="47.32996" lon="-0.68792">
        <ele>21.29</ele>
        <time>2011-04-16T18:09:42Z</time>
      </trkpt>
      <trkpt lat="47.33001" lon="-0.68796">
        <ele>26.09</ele>
        <time>2011-04-16T18:09:43Z</time>
      </trkpt>
      <trkpt lat="47.33006" lon="-0.68799">
        <ele>20.81</ele>
        <time>2011-04-16T18:09:44Z</time>
      </trkpt>
      <trkpt lat="47.33041" lon="-0.68818">
        <ele>23.69</ele>
        <time>2011-04-16T18:09:50Z</time>
      </trkpt>
      <trkpt lat="47.33058" lon="-0.6883">
        <ele>22.25</ele>
        <time>2011-04-16T18:09:53Z</time>
      </trkpt>
      <trkpt lat="47.33087" lon="-0.68848">
        <ele>22.25</ele>
        <time>2011-04-16T18:09:58Z</time>
      </trkpt>
      <trkpt lat="47.33093" lon="-0.68852">
        <ele>18.88</ele>
        <time>2011-04-16T18:09:59Z</time>
      </trkpt>
      <trkpt lat="47.331" lon="-0.68855">
        <ele>20.32</ele>
        <time>2011-04-16T18:10:00Z</time>
      </trkpt>
      <trkpt lat="47.3314" lon="-0.68881">
        <ele>26.57</ele>
        <time>2011-04-16T18:10:07Z</time>
      </trkpt>
      <trkpt lat="47.33145" lon="-0.68883">
        <ele>19.36</ele>
        <time>2011-04-16T18:10:08Z</time>
      </trkpt>
      <trkpt lat="47.33151" lon="-0.68885">
        <ele>20.32</ele>
        <time>2011-04-16T18:10:09Z</time>
      </trkpt>
      <trkpt lat="47.33189" lon="-0.68902">
        <ele>20.32</ele>
        <time>2011-04-16T18:10:15Z</time>
      </trkpt>
      <trkpt lat="47.33235" lon="-0.68928">
        <ele>20.81</ele>
        <time>2011-04-16T18:10:23Z</time>
      </trkpt>
      <trkpt lat="47.33241" lon="-0.68932">
        <ele>16.96</ele>
        <time>2011-04-16T18:10:24Z</time>
      </trkpt>
      <trkpt lat="47.33246" lon="-0.68936">
        <ele>17.44</ele>
        <time>2011-04-16T18:10:25Z</time>
      </trkpt>
      <trkpt lat="47.33257" lon="-0.68944">
        <ele>21.29</ele>
        <time>2011-04-16T18:10:27Z</time>
      </trkpt>
      <trkpt lat="47.33263" lon="-0.68948">
        <ele>19.84</ele>
        <time>2011-04-16T18:10:28Z</time>
      </trkpt>
      <trkpt lat="47.33274" lon="-0.68957">
        <ele>18.4</ele>
        <time>2011-04-16T18:10:30Z</time>
      </trkpt>
      <trkpt lat="47.333" lon="-0.68997">
        <ele>14.56</ele>
        <time>2011-04-16T18:10:36Z</time>
      </trkpt>
      <trkpt lat="47.33304" lon="-0.69003">
        <ele>17.44</ele>
        <time>2011-04-16T18:10:37Z</time>
      </trkpt>
      <trkpt lat="47.33309" lon="-0.6901">
        <ele>13.6</ele>
        <time>2011-04-16T18:10:38Z</time>
      </trkpt>
      <trkpt lat="47.33313" lon="-0.69016">
        <ele>18.4</ele>
        <time>2011-04-16T18:10:39Z</time>
      </trkpt>
      <trkpt lat="47.33324" lon="-0.69027">
        <ele>15.52</ele>
        <time>2011-04-16T18:10:41Z</time>
      </trkpt>
      <trkpt lat="47.33329" lon="-0.6903">
        <ele>15.52</ele>
        <time>2011-04-16T18:10:42Z</time>
      </trkpt>
      <trkpt lat="47.33335" lon="-0.69032">
        <ele>17.44</ele>
        <time>2011-04-16T18:10:43Z</time>
      </trkpt>
      <trkpt lat="47.3334" lon="-0.69034">
        <ele>15.52</ele>
        <time>2011-04-16T18:10:44Z</time>
      </trkpt>
      <trkpt lat="47.33346" lon="-0.69035">
        <ele>16.48</ele>
        <time>2011-04-16T18:10:45Z</time>
      </trkpt>
      <trkpt lat="47.33368" lon="-0.69039">
        <ele>19.84</ele>
        <time>2011-04-16T18:10:49Z</time>
      </trkpt>
      <trkpt lat="47.33379" lon="-0.69042">
        <ele>21.29</ele>
        <time>2011-04-16T18:10:51Z</time>
      </trkpt>
      <trkpt lat="47.33393" lon="-0.69046">
        <ele>23.21</ele>
        <time>2011-04-16T18:10:54Z</time>
      </trkpt>
      <trkpt lat="47.33397" lon="-0.69047">
        <ele>23.21</ele>
        <time>2011-04-16T18:10:55Z</time>
      </trkpt>
      <trkpt lat="47.33406" lon="-0.69052">
        <ele>17.92</ele>
        <time>2011-04-16T18:10:57Z</time>
      </trkpt>
      <trkpt lat="47.3341" lon="-0.69057">
        <ele>22.25</ele>
        <time>2011-04-16T18:10:58Z</time>
      </trkpt>
      <trkpt lat="47.33415" lon="-0.69062">
        <ele>16.96</ele>
        <time>2011-04-16T18:10:59Z</time>
      </trkpt>
      <trkpt lat="47.33423" lon="-0.69072">
        <ele>22.25</ele>
        <time>2011-04-16T18:11:01Z</time>
      </trkpt>
      <trkpt lat="47.33432" lon="-0.69079">
        <ele>13.6</ele>
        <time>2011-04-16T18:11:03Z</time>
      </trkpt>
      <trkpt lat="47.33436" lon="-0.69081">
        <ele>18.4</ele>
        <time>2011-04-16T18:11:04Z</time>
      </trkpt>
      <trkpt lat="47.33441" lon="-0.69084">
        <ele>16.96</ele>
        <time>2011-04-16T18:11:05Z</time>
      </trkpt>
      <trkpt lat="47.33455" lon="-0.69092">
        <ele>15.04</ele>
        <time>2011-04-16T18:11:08Z</time>
      </trkpt>
      <trkpt lat="47.3346" lon="-0.69095">
        <ele>17.92</ele>
        <time>2011-04-16T18:11:09Z</time>
      </trkpt>
      <trkpt lat="47.33475" lon="-0.69103">
        <ele>20.32</ele>
        <time>2011-04-16T18:11:12Z</time>
      </trkpt>
      <trkpt lat="47.33484" lon="-0.69108">
        <ele>22.25</ele>
        <time>2011-04-16T18:11:14Z</time>
      </trkpt>
      <trkpt lat="47.33488" lon="-0.6911">
        <ele>18.88</ele>
        <time>2011-04-16T18:11:15Z</time>
      </trkpt>
      <trkpt lat="47.33496" lon="-0.69115">
        <ele>20.32</ele>
        <time>2011-04-16T18:11:17Z</time>
      </trkpt>
      <trkpt lat="47.33511" lon="-0.69126">
        <ele>24.65</ele>
        <time>2011-04-16T18:11:21Z</time>
      </trkpt>
      <trkpt lat="47.3352" lon="-0.69139">
        <ele>17.92</ele>
        <time>2011-04-16T18:11:24Z</time>
      </trkpt>
      <trkpt lat="47.33531" lon="-0.69157">
        <ele>22.73</ele>
        <time>2011-04-16T18:11:27Z</time>
      </trkpt>
      <trkpt lat="47.33548" lon="-0.69181">
        <ele>16</ele>
        <time>2011-04-16T18:11:31Z</time>
      </trkpt>
      <trkpt lat="47.33552" lon="-0.69187">
        <ele>16.96</ele>
        <time>2011-04-16T18:11:32Z</time>
      </trkpt>
      <trkpt lat="47.33584" lon="-0.69219">
        <ele>18.88</ele>
        <time>2011-04-16T18:11:39Z</time>
      </trkpt>
      <trkpt lat="47.33593" lon="-0.6923">
        <ele>26.57</ele>
        <time>2011-04-16T18:11:41Z</time>
      </trkpt>
      <trkpt lat="47.33597" lon="-0.69236">
        <ele>20.32</ele>
        <time>2011-04-16T18:11:42Z</time>
      </trkpt>
      <trkpt lat="47.33603" lon="-0.69248">
        <ele>18.88</ele>
        <time>2011-04-16T18:11:44Z</time>
      </trkpt>
      <trkpt lat="47.3361" lon="-0.69262">
        <ele>19.84</ele>
        <time>2011-04-16T18:11:46Z</time>
      </trkpt>
      <trkpt lat="47.33617" lon="-0.69275">
        <ele>20.32</ele>
        <time>2011-04-16T18:11:48Z</time>
      </trkpt>
      <trkpt lat="47.33624" lon="-0.69289">
        <ele>15.52</ele>
        <time>2011-04-16T18:11:50Z</time>
      </trkpt>
      <trkpt lat="47.33627" lon="-0.69295">
        <ele>22.73</ele>
        <time>2011-04-16T18:11:51Z</time>
      </trkpt>
      <trkpt lat="47.33632" lon="-0.69301">
        <ele>17.44</ele>
        <time>2011-04-16T18:11:52Z</time>
      </trkpt>
      <trkpt lat="47.33641" lon="-0.69318">
        <ele>20.81</ele>
        <time>2011-04-16T18:11:55Z</time>
      </trkpt>
      <trkpt lat="47.33641" lon="-0.69325">
        <ele>16.48</ele>
        <time>2011-04-16T18:11:56Z</time>
      </trkpt>
      <trkpt lat="47.33635" lon="-0.69354">
        <ele>22.73</ele>
        <time>2011-04-16T18:12:00Z</time>
      </trkpt>
      <trkpt lat="47.33635" lon="-0.69361">
        <ele>22.73</ele>
        <time>2011-04-16T18:12:01Z</time>
      </trkpt>
      <trkpt lat="47.33637" lon="-0.69369">
        <ele>16.48</ele>
        <time>2011-04-16T18:12:02Z</time>
      </trkpt>
      <trkpt lat="47.33643" lon="-0.69399">
        <ele>18.88</ele>
        <time>2011-04-16T18:12:06Z</time>
      </trkpt>
      <trkpt lat="47.33643" lon="-0.69406">
        <ele>16.96</ele>
        <time>2011-04-16T18:12:07Z</time>
      </trkpt>
      <trkpt lat="47.33642" lon="-0.69424">
        <ele>19.84</ele>
        <time>2011-04-16T18:12:10Z</time>
      </trkpt>
      <trkpt lat="47.33643" lon="-0.69431">
        <ele>16.48</ele>
        <time>2011-04-16T18:12:11Z</time>
      </trkpt>
      <trkpt lat="47.33642" lon="-0.69437">
        <ele>14.08</ele>
        <time>2011-04-16T18:12:12Z</time>
      </trkpt>
      <trkpt lat="47.33643" lon="-0.69452">
        <ele>20.32</ele>
        <time>2011-04-16T18:12:14Z</time>
      </trkpt>
      <trkpt lat="47.33646" lon="-0.69457">
        <ele>13.6</ele>
        <time>2011-04-16T18:12:15Z</time>
      </trkpt>
      <trkpt lat="47.33653" lon="-0.6948">
        <ele>19.84</ele>
        <time>2011-04-16T18:12:19Z</time>
      </trkpt>
      <trkpt lat="47.33656" lon="-0.69488">
        <ele>20.32</ele>
        <time>2011-04-16T18:12:21Z</time>
      </trkpt>
      <trkpt lat="47.33658" lon="-0.69492">
        <ele>15.04</ele>
        <time>2011-04-16T18:12:22Z</time>
      </trkpt>
      <trkpt lat="47.33669" lon="-0.69511">
        <ele>13.6</ele>
        <time>2011-04-16T18:12:27Z</time>
      </trkpt>
      <trkpt lat="47.33673" lon="-0.6952">
        <ele>15.52</ele>
        <time>2011-04-16T18:12:29Z</time>
      </trkpt>
      <trkpt lat="47.33678" lon="-0.6953">
        <ele>13.6</ele>
        <time>2011-04-16T18:12:31Z</time>
      </trkpt>
      <trkpt lat="47.33693" lon="-0.69557">
        <ele>14.08</ele>
        <time>2011-04-16T18:12:37Z</time>
      </trkpt>
      <trkpt lat="47.33704" lon="-0.69591">
        <ele>14.08</ele>
        <time>2011-04-16T18:12:43Z</time>
      </trkpt>
      <trkpt lat="47.33707" lon="-0.69598">
        <ele>13.6</ele>
        <time>2011-04-16T18:12:44Z</time>
      </trkpt>
      <trkpt lat="47.33715" lon="-0.69618">
        <ele>13.6</ele>
        <time>2011-04-16T18:12:47Z</time>
      </trkpt>
      <trkpt lat="47.33718" lon="-0.69624">
        <ele>14.08</ele>
        <time>2011-04-16T18:12:48Z</time>
      </trkpt>
      <trkpt lat="47.33721" lon="-0.6963">
        <ele>17.44</ele>
        <time>2011-04-16T18:12:49Z</time>
      </trkpt>
      <trkpt lat="47.33724" lon="-0.69635">
        <ele>20.81</ele>
        <time>2011-04-16T18:12:50Z</time>
      </trkpt>
      <trkpt lat="47.33725" lon="-0.69641">
        <ele>14.56</ele>
        <time>2011-04-16T18:12:51Z</time>
      </trkpt>
      <trkpt lat="47.33734" lon="-0.6966">
        <ele>19.36</ele>
        <time>2011-04-16T18:12:55Z</time>
      </trkpt>
      <trkpt lat="47.33735" lon="-0.69661">
        <ele>16.48</ele>
        <time>2011-04-16T18:12:56Z</time>
      </trkpt>
      <trkpt lat="47.33744" lon="-0.69664">
        <ele>16.96</ele>
        <time>2011-04-16T18:13:02Z</time>
      </trkpt>
      <trkpt lat="47.33751" lon="-0.69683">
        <ele>17.44</ele>
        <time>2011-04-16T18:13:08Z</time>
      </trkpt>
      <trkpt lat="47.3375" lon="-0.69687">
        <ele>16.96</ele>
        <time>2011-04-16T18:13:09Z</time>
      </trkpt>
      <trkpt lat="47.33747" lon="-0.69695">
        <ele>17.44</ele>
        <time>2011-04-16T18:13:11Z</time>
      </trkpt>
      <trkpt lat="47.33745" lon="-0.69704">
        <ele>19.36</ele>
        <time>2011-04-16T18:13:13Z</time>
      </trkpt>
      <trkpt lat="47.33742" lon="-0.6972">
        <ele>24.17</ele>
        <time>2011-04-16T18:13:16Z</time>
      </trkpt>
      <trkpt lat="47.33739" lon="-0.69725">
        <ele>16.48</ele>
        <time>2011-04-16T18:13:17Z</time>
      </trkpt>
      <trkpt lat="47.33736" lon="-0.69739">
        <ele>16</ele>
        <time>2011-04-16T18:13:19Z</time>
      </trkpt>
      <trkpt lat="47.33735" lon="-0.69752">
        <ele>14.08</ele>
        <time>2011-04-16T18:13:21Z</time>
      </trkpt>
      <trkpt lat="47.33729" lon="-0.6977">
        <ele>14.56</ele>
        <time>2011-04-16T18:13:24Z</time>
      </trkpt>
      <trkpt lat="47.33728" lon="-0.69775">
        <ele>19.36</ele>
        <time>2011-04-16T18:13:25Z</time>
      </trkpt>
      <trkpt lat="47.33726" lon="-0.69781">
        <ele>22.73</ele>
        <time>2011-04-16T18:13:26Z</time>
      </trkpt>
      <trkpt lat="47.33725" lon="-0.69786">
        <ele>16</ele>
        <time>2011-04-16T18:13:27Z</time>
      </trkpt>
      <trkpt lat="47.33725" lon="-0.69809">
        <ele>20.32</ele>
        <time>2011-04-16T18:13:31Z</time>
      </trkpt>
      <trkpt lat="47.33726" lon="-0.69821">
        <ele>22.25</ele>
        <time>2011-04-16T18:13:33Z</time>
      </trkpt>
      <trkpt lat="47.33727" lon="-0.69827">
        <ele>16</ele>
        <time>2011-04-16T18:13:34Z</time>
      </trkpt>
      <trkpt lat="47.33727" lon="-0.69833">
        <ele>22.73</ele>
        <time>2011-04-16T18:13:35Z</time>
      </trkpt>
      <trkpt lat="47.33725" lon="-0.6985">
        <ele>17.92</ele>
        <time>2011-04-16T18:13:38Z</time>
      </trkpt>
      <trkpt lat="47.33722" lon="-0.69868">
        <ele>21.77</ele>
        <time>2011-04-16T18:13:41Z</time>
      </trkpt>
      <trkpt lat="47.33722" lon="-0.69873">
        <ele>23.21</ele>
        <time>2011-04-16T18:13:42Z</time>
      </trkpt>
      <trkpt lat="47.33718" lon="-0.69888">
        <ele>16.48</ele>
        <time>2011-04-16T18:13:45Z</time>
      </trkpt>
      <trkpt lat="47.33716" lon="-0.69894">
        <ele>22.25</ele>
        <time>2011-04-16T18:13:46Z</time>
      </trkpt>
      <trkpt lat="47.33714" lon="-0.69906">
        <ele>20.81</ele>
        <time>2011-04-16T18:13:48Z</time>
      </trkpt>
      <trkpt lat="47.33711" lon="-0.69918">
        <ele>15.52</ele>
        <time>2011-04-16T18:13:50Z</time>
      </trkpt>
      <trkpt lat="47.33709" lon="-0.69931">
        <ele>20.32</ele>
        <time>2011-04-16T18:13:52Z</time>
      </trkpt>
      <trkpt lat="47.33709" lon="-0.69936">
        <ele>14.56</ele>
        <time>2011-04-16T18:13:53Z</time>
      </trkpt>
      <trkpt lat="47.33709" lon="-0.69947">
        <ele>20.81</ele>
        <time>2011-04-16T18:13:55Z</time>
      </trkpt>
      <trkpt lat="47.33709" lon="-0.69952">
        <ele>20.32</ele>
        <time>2011-04-16T18:13:56Z</time>
      </trkpt>
      <trkpt lat="47.33707" lon="-0.69965">
        <ele>18.4</ele>
        <time>2011-04-16T18:13:58Z</time>
      </trkpt>
      <trkpt lat="47.33702" lon="-0.69984">
        <ele>18.88</ele>
        <time>2011-04-16T18:14:01Z</time>
      </trkpt>
      <trkpt lat="47.33702" lon="-0.69989">
        <ele>19.36</ele>
        <time>2011-04-16T18:14:02Z</time>
      </trkpt>
      <trkpt lat="47.33698" lon="-0.69998">
        <ele>19.84</ele>
        <time>2011-04-16T18:14:04Z</time>
      </trkpt>
      <trkpt lat="47.33693" lon="-0.70012">
        <ele>23.21</ele>
        <time>2011-04-16T18:14:07Z</time>
      </trkpt>
      <trkpt lat="47.3369" lon="-0.70016">
        <ele>16.48</ele>
        <time>2011-04-16T18:14:08Z</time>
      </trkpt>
      <trkpt lat="47.33683" lon="-0.70027">
        <ele>19.84</ele>
        <time>2011-04-16T18:14:10Z</time>
      </trkpt>
      <trkpt lat="47.3368" lon="-0.70033">
        <ele>15.04</ele>
        <time>2011-04-16T18:14:11Z</time>
      </trkpt>
      <trkpt lat="47.33676" lon="-0.70048">
        <ele>14.56</ele>
        <time>2011-04-16T18:14:13Z</time>
      </trkpt>
      <trkpt lat="47.33675" lon="-0.70062">
        <ele>18.88</ele>
        <time>2011-04-16T18:14:15Z</time>
      </trkpt>
      <trkpt lat="47.33674" lon="-0.70068">
        <ele>16</ele>
        <time>2011-04-16T18:14:16Z</time>
      </trkpt>
      <trkpt lat="47.33672" lon="-0.70074">
        <ele>20.81</ele>
        <time>2011-04-16T18:14:17Z</time>
      </trkpt>
      <trkpt lat="47.33664" lon="-0.70092">
        <ele>16</ele>
        <time>2011-04-16T18:14:20Z</time>
      </trkpt>
      <trkpt lat="47.33662" lon="-0.70099">
        <ele>19.36</ele>
        <time>2011-04-16T18:14:21Z</time>
      </trkpt>
      <trkpt lat="47.33661" lon="-0.70105">
        <ele>18.88</ele>
        <time>2011-04-16T18:14:22Z</time>
      </trkpt>
      <trkpt lat="47.33658" lon="-0.70129">
        <ele>16</ele>
        <time>2011-04-16T18:14:26Z</time>
      </trkpt>
      <trkpt lat="47.33656" lon="-0.70142">
        <ele>20.81</ele>
        <time>2011-04-16T18:14:28Z</time>
      </trkpt>
      <trkpt lat="47.33654" lon="-0.70148">
        <ele>18.4</ele>
        <time>2011-04-16T18:14:29Z</time>
      </trkpt>
      <trkpt lat="47.33652" lon="-0.70158">
        <ele>22.25</ele>
        <time>2011-04-16T18:14:31Z</time>
      </trkpt>
      <trkpt lat="47.33649" lon="-0.70169">
        <ele>16.48</ele>
        <time>2011-04-16T18:14:33Z</time>
      </trkpt>
      <trkpt lat="47.33648" lon="-0.70174">
        <ele>19.84</ele>
        <time>2011-04-16T18:14:34Z</time>
      </trkpt>
      <trkpt lat="47.33637" lon="-0.70187">
        <ele>16.96</ele>
        <time>2011-04-16T18:14:37Z</time>
      </trkpt>
      <trkpt lat="47.33631" lon="-0.70189">
        <ele>13.12</ele>
        <time>2011-04-16T18:14:38Z</time>
      </trkpt>
      <trkpt lat="47.33623" lon="-0.70197">
        <ele>18.4</ele>
        <time>2011-04-16T18:14:40Z</time>
      </trkpt>
      <trkpt lat="47.33619" lon="-0.70202">
        <ele>12.63</ele>
        <time>2011-04-16T18:14:41Z</time>
      </trkpt>
      <trkpt lat="47.33613" lon="-0.70223">
        <ele>13.6</ele>
        <time>2011-04-16T18:14:44Z</time>
      </trkpt>
      <trkpt lat="47.33609" lon="-0.70246">
        <ele>16</ele>
        <time>2011-04-16T18:14:47Z</time>
      </trkpt>
      <trkpt lat="47.33607" lon="-0.70254">
        <ele>12.63</ele>
        <time>2011-04-16T18:14:48Z</time>
      </trkpt>
      <trkpt lat="47.33598" lon="-0.70288">
        <ele>13.12</ele>
        <time>2011-04-16T18:14:53Z</time>
      </trkpt>
      <trkpt lat="47.33586" lon="-0.70312">
        <ele>12.63</ele>
        <time>2011-04-16T18:14:58Z</time>
      </trkpt>
      <trkpt lat="47.33577" lon="-0.70327">
        <ele>16</ele>
        <time>2011-04-16T18:15:02Z</time>
      </trkpt>
      <trkpt lat="47.33574" lon="-0.70333">
        <ele>15.04</ele>
        <time>2011-04-16T18:15:07Z</time>
      </trkpt>
      <trkpt lat="47.33573" lon="-0.70336">
        <ele>14.08</ele>
        <time>2011-04-16T18:15:10Z</time>
      </trkpt>
      <trkpt lat="47.33567" lon="-0.70361">
        <ele>14.08</ele>
        <time>2011-04-16T18:15:15Z</time>
      </trkpt>
      <trkpt lat="47.33565" lon="-0.70366">
        <ele>14.08</ele>
        <time>2011-04-16T18:15:16Z</time>
      </trkpt>
      <trkpt lat="47.33562" lon="-0.70377">
        <ele>16.96</ele>
        <time>2011-04-16T18:15:18Z</time>
      </trkpt>
      <trkpt lat="47.33572" lon="-0.70394">
        <ele>15.52</ele>
        <time>2011-04-16T18:15:23Z</time>
      </trkpt>
      <trkpt lat="47.33567" lon="-0.70411">
        <ele>15.04</ele>
        <time>2011-04-16T18:15:27Z</time>
      </trkpt>
      <trkpt lat="47.3356" lon="-0.70419">
        <ele>18.4</ele>
        <time>2011-04-16T18:15:29Z</time>
      </trkpt>
      <trkpt lat="47.33557" lon="-0.70423">
        <ele>17.44</ele>
        <time>2011-04-16T18:15:30Z</time>
      </trkpt>
      <trkpt lat="47.33553" lon="-0.70428">
        <ele>17.92</ele>
        <time>2011-04-16T18:15:31Z</time>
      </trkpt>
      <trkpt lat="47.33549" lon="-0.70432">
        <ele>14.56</ele>
        <time>2011-04-16T18:15:32Z</time>
      </trkpt>
      <trkpt lat="47.33545" lon="-0.70437">
        <ele>17.44</ele>
        <time>2011-04-16T18:15:33Z</time>
      </trkpt>
      <trkpt lat="47.33532" lon="-0.70453">
        <ele>15.52</ele>
        <time>2011-04-16T18:15:36Z</time>
      </trkpt>
      <trkpt lat="47.3352" lon="-0.70473">
        <ele>14.56</ele>
        <time>2011-04-16T18:15:39Z</time>
      </trkpt>
      <trkpt lat="47.33516" lon="-0.70478">
        <ele>14.08</ele>
        <time>2011-04-16T18:15:40Z</time>
      </trkpt>
      <trkpt lat="47.33512" lon="-0.70483">
        <ele>16.48</ele>
        <time>2011-04-16T18:15:41Z</time>
      </trkpt>
      <trkpt lat="47.33507" lon="-0.70487">
        <ele>15.04</ele>
        <time>2011-04-16T18:15:42Z</time>
      </trkpt>
      <trkpt lat="47.33502" lon="-0.70492">
        <ele>14.08</ele>
        <time>2011-04-16T18:15:43Z</time>
      </trkpt>
      <trkpt lat="47.33498" lon="-0.70496">
        <ele>13.12</ele>
        <time>2011-04-16T18:15:44Z</time>
      </trkpt>
      <trkpt lat="47.33492" lon="-0.70504">
        <ele>13.6</ele>
        <time>2011-04-16T18:15:46Z</time>
      </trkpt>
      <trkpt lat="47.33486" lon="-0.70509">
        <ele>14.56</ele>
        <time>2011-04-16T18:15:48Z</time>
      </trkpt>
      <trkpt lat="47.33468" lon="-0.70523">
        <ele>15.52</ele>
        <time>2011-04-16T18:15:52Z</time>
      </trkpt>
      <trkpt lat="47.33458" lon="-0.70532">
        <ele>16</ele>
        <time>2011-04-16T18:15:54Z</time>
      </trkpt>
      <trkpt lat="47.33447" lon="-0.70538">
        <ele>12.63</ele>
        <time>2011-04-16T18:15:56Z</time>
      </trkpt>
      <trkpt lat="47.33431" lon="-0.70551">
        <ele>15.04</ele>
        <time>2011-04-16T18:15:59Z</time>
      </trkpt>
      <trkpt lat="47.33403" lon="-0.70573">
        <ele>12.63</ele>
        <time>2011-04-16T18:16:05Z</time>
      </trkpt>
      <trkpt lat="47.33382" lon="-0.70588">
        <ele>13.6</ele>
        <time>2011-04-16T18:16:09Z</time>
      </trkpt>
      <trkpt lat="47.33352" lon="-0.70605">
        <ele>13.12</ele>
        <time>2011-04-16T18:16:15Z</time>
      </trkpt>
      <trkpt lat="47.33318" lon="-0.70621">
        <ele>13.12</ele>
        <time>2011-04-16T18:16:21Z</time>
      </trkpt>
      <trkpt lat="47.33313" lon="-0.70622">
        <ele>12.63</ele>
        <time>2011-04-16T18:16:22Z</time>
      </trkpt>
      <trkpt lat="47.33298" lon="-0.7063">
        <ele>12.63</ele>
        <time>2011-04-16T18:16:25Z</time>
      </trkpt>
      <trkpt lat="47.33283" lon="-0.7064">
        <ele>12.63</ele>
        <time>2011-04-16T18:16:28Z</time>
      </trkpt>
      <trkpt lat="47.33258" lon="-0.70657">
        <ele>14.08</ele>
        <time>2011-04-16T18:16:33Z</time>
      </trkpt>
      <trkpt lat="47.33223" lon="-0.70676">
        <ele>13.12</ele>
        <time>2011-04-16T18:16:40Z</time>
      </trkpt>
      <trkpt lat="47.33199" lon="-0.70687">
        <ele>13.12</ele>
        <time>2011-04-16T18:16:45Z</time>
      </trkpt>
      <trkpt lat="47.33185" lon="-0.70693">
        <ele>13.12</ele>
        <time>2011-04-16T18:16:48Z</time>
      </trkpt>
      <trkpt lat="47.33175" lon="-0.70695">
        <ele>14.08</ele>
        <time>2011-04-16T18:16:50Z</time>
      </trkpt>
      <trkpt lat="47.33165" lon="-0.70697">
        <ele>13.6</ele>
        <time>2011-04-16T18:16:52Z</time>
      </trkpt>
      <trkpt lat="47.33156" lon="-0.70701">
        <ele>14.08</ele>
        <time>2011-04-16T18:16:54Z</time>
      </trkpt>
      <trkpt lat="47.33137" lon="-0.70709">
        <ele>14.56</ele>
        <time>2011-04-16T18:16:58Z</time>
      </trkpt>
      <trkpt lat="47.3312" lon="-0.70709">
        <ele>14.08</ele>
        <time>2011-04-16T18:17:02Z</time>
      </trkpt>
      <trkpt lat="47.3308" lon="-0.70716">
        <ele>14.56</ele>
        <time>2011-04-16T18:17:10Z</time>
      </trkpt>
      <trkpt lat="47.33064" lon="-0.7072">
        <ele>15.52</ele>
        <time>2011-04-16T18:17:13Z</time>
      </trkpt>
      <trkpt lat="47.33032" lon="-0.70728">
        <ele>13.12</ele>
        <time>2011-04-16T18:17:18Z</time>
      </trkpt>
      <trkpt lat="47.33004" lon="-0.70741">
        <ele>12.15</ele>
        <time>2011-04-16T18:17:23Z</time>
      </trkpt>
      <trkpt lat="47.32999" lon="-0.70744">
        <ele>12.15</ele>
        <time>2011-04-16T18:17:24Z</time>
      </trkpt>
      <trkpt lat="47.32963" lon="-0.70766">
        <ele>12.15</ele>
        <time>2011-04-16T18:17:31Z</time>
      </trkpt>
      <trkpt lat="47.3294" lon="-0.70784">
        <ele>12.63</ele>
        <time>2011-04-16T18:17:36Z</time>
      </trkpt>
      <trkpt lat="47.3292" lon="-0.70798">
        <ele>14.08</ele>
        <time>2011-04-16T18:17:40Z</time>
      </trkpt>
      <trkpt lat="47.32872" lon="-0.70818">
        <ele>13.12</ele>
        <time>2011-04-16T18:17:49Z</time>
      </trkpt>
      <trkpt lat="47.32862" lon="-0.70826">
        <ele>13.6</ele>
        <time>2011-04-16T18:17:51Z</time>
      </trkpt>
      <trkpt lat="47.32857" lon="-0.70829">
        <ele>12.63</ele>
        <time>2011-04-16T18:17:52Z</time>
      </trkpt>
      <trkpt lat="47.32852" lon="-0.70833">
        <ele>14.08</ele>
        <time>2011-04-16T18:17:53Z</time>
      </trkpt>
      <trkpt lat="47.32847" lon="-0.70836">
        <ele>12.15</ele>
        <time>2011-04-16T18:17:54Z</time>
      </trkpt>
      <trkpt lat="47.32842" lon="-0.70838">
        <ele>12.15</ele>
        <time>2011-04-16T18:17:55Z</time>
      </trkpt>
      <trkpt lat="47.3282" lon="-0.70848">
        <ele>11.67</ele>
        <time>2011-04-16T18:17:59Z</time>
      </trkpt>
      <trkpt lat="47.32816" lon="-0.70851">
        <ele>12.15</ele>
        <time>2011-04-16T18:18:00Z</time>
      </trkpt>
      <trkpt lat="47.32811" lon="-0.70856">
        <ele>12.15</ele>
        <time>2011-04-16T18:18:01Z</time>
      </trkpt>
      <trkpt lat="47.32807" lon="-0.70861">
        <ele>14.08</ele>
        <time>2011-04-16T18:18:02Z</time>
      </trkpt>
      <trkpt lat="47.32802" lon="-0.70864">
        <ele>13.6</ele>
        <time>2011-04-16T18:18:03Z</time>
      </trkpt>
      <trkpt lat="47.3278" lon="-0.70881">
        <ele>12.15</ele>
        <time>2011-04-16T18:18:08Z</time>
      </trkpt>
      <trkpt lat="47.32765" lon="-0.70892">
        <ele>12.15</ele>
        <time>2011-04-16T18:18:11Z</time>
      </trkpt>
      <trkpt lat="47.3276" lon="-0.70896">
        <ele>13.6</ele>
        <time>2011-04-16T18:18:12Z</time>
      </trkpt>
      <trkpt lat="47.32756" lon="-0.709">
        <ele>14.08</ele>
        <time>2011-04-16T18:18:13Z</time>
      </trkpt>
      <trkpt lat="47.32752" lon="-0.70904">
        <ele>13.12</ele>
        <time>2011-04-16T18:18:14Z</time>
      </trkpt>
      <trkpt lat="47.32747" lon="-0.70908">
        <ele>13.6</ele>
        <time>2011-04-16T18:18:15Z</time>
      </trkpt>
      <trkpt lat="47.3272" lon="-0.70931">
        <ele>14.56</ele>
        <time>2011-04-16T18:18:21Z</time>
      </trkpt>
      <trkpt lat="47.32715" lon="-0.70935">
        <ele>15.04</ele>
        <time>2011-04-16T18:18:22Z</time>
      </trkpt>
      <trkpt lat="47.32702" lon="-0.70947">
        <ele>13.12</ele>
        <time>2011-04-16T18:18:25Z</time>
      </trkpt>
      <trkpt lat="47.32698" lon="-0.70951">
        <ele>13.12</ele>
        <time>2011-04-16T18:18:26Z</time>
      </trkpt>
      <trkpt lat="47.32676" lon="-0.70975">
        <ele>15.52</ele>
        <time>2011-04-16T18:18:32Z</time>
      </trkpt>
      <trkpt lat="47.32672" lon="-0.70982">
        <ele>15.52</ele>
        <time>2011-04-16T18:18:34Z</time>
      </trkpt>
      <trkpt lat="47.32672" lon="-0.70985">
        <ele>16</ele>
        <time>2011-04-16T18:18:35Z</time>
      </trkpt>
      <trkpt lat="47.32673" lon="-0.70986">
        <ele>15.52</ele>
        <time>2011-04-16T18:18:36Z</time>
      </trkpt>
      <trkpt lat="47.32674" lon="-0.70986">
        <ele>16.96</ele>
        <time>2011-04-16T18:18:37Z</time>
      </trkpt>
      <trkpt lat="47.32675" lon="-0.70985">
        <ele>16.48</ele>
        <time>2011-04-16T18:18:38Z</time>
      </trkpt>
      <trkpt lat="47.32678" lon="-0.70983">
        <ele>16.48</ele>
        <time>2011-04-16T18:18:39Z</time>
      </trkpt>
      <trkpt lat="47.3268" lon="-0.70981">
        <ele>16.96</ele>
        <time>2011-04-16T18:18:40Z</time>
      </trkpt>
      <trkpt lat="47.32683" lon="-0.70979">
        <ele>17.92</ele>
        <time>2011-04-16T18:18:41Z</time>
      </trkpt>
      <trkpt lat="47.32699" lon="-0.70968">
        <ele>18.4</ele>
        <time>2011-04-16T18:18:47Z</time>
      </trkpt>
      <trkpt lat="47.32717" lon="-0.70954">
        <ele>19.84</ele>
        <time>2011-04-16T18:18:53Z</time>
      </trkpt>
      <trkpt lat="47.32721" lon="-0.70952">
        <ele>19.84</ele>
        <time>2011-04-16T18:18:54Z</time>
      </trkpt>
      <trkpt lat="47.32755" lon="-0.70931">
        <ele>21.29</ele>
        <time>2011-04-16T18:19:04Z</time>
      </trkpt>
      <trkpt lat="47.32769" lon="-0.70923">
        <ele>22.25</ele>
        <time>2011-04-16T18:19:08Z</time>
      </trkpt>
      <trkpt lat="47.32802" lon="-0.70906">
        <ele>24.17</ele>
        <time>2011-04-16T18:19:18Z</time>
      </trkpt>
      <trkpt lat="47.3282" lon="-0.70897">
        <ele>25.13</ele>
        <time>2011-04-16T18:19:24Z</time>
      </trkpt>
      <trkpt lat="47.32826" lon="-0.70895">
        <ele>26.09</ele>
        <time>2011-04-16T18:19:26Z</time>
      </trkpt>
      <trkpt lat="47.32851" lon="-0.70886">
        <ele>27.05</ele>
        <time>2011-04-16T18:19:33Z</time>
      </trkpt>
      <trkpt lat="47.32859" lon="-0.70885">
        <ele>28.5</ele>
        <time>2011-04-16T18:19:35Z</time>
      </trkpt>
      <trkpt lat="47.32886" lon="-0.70879">
        <ele>30.42</ele>
        <time>2011-04-16T18:19:42Z</time>
      </trkpt>
      <trkpt lat="47.32913" lon="-0.70878">
        <ele>29.46</ele>
        <time>2011-04-16T18:19:49Z</time>
      </trkpt>
      <trkpt lat="47.32917" lon="-0.7088">
        <ele>32.34</ele>
        <time>2011-04-16T18:19:50Z</time>
      </trkpt>
      <trkpt lat="47.32921" lon="-0.70882">
        <ele>32.34</ele>
        <time>2011-04-16T18:19:51Z</time>
      </trkpt>
      <trkpt lat="47.32958" lon="-0.70905">
        <ele>33.3</ele>
        <time>2011-04-16T18:20:02Z</time>
      </trkpt>
      <trkpt lat="47.3298" lon="-0.70913">
        <ele>35.23</ele>
        <time>2011-04-16T18:20:09Z</time>
      </trkpt>
      <trkpt lat="47.32998" lon="-0.7091">
        <ele>37.15</ele>
        <time>2011-04-16T18:20:15Z</time>
      </trkpt>
      <trkpt lat="47.33011" lon="-0.70919">
        <ele>38.11</ele>
        <time>2011-04-16T18:20:21Z</time>
      </trkpt>
      <trkpt lat="47.33024" lon="-0.70933">
        <ele>40.99</ele>
        <time>2011-04-16T18:20:28Z</time>
      </trkpt>
      <trkpt lat="47.33034" lon="-0.70942">
        <ele>42.44</ele>
        <time>2011-04-16T18:20:33Z</time>
      </trkpt>
      <trkpt lat="47.33052" lon="-0.70957">
        <ele>43.88</ele>
        <time>2011-04-16T18:20:42Z</time>
      </trkpt>
      <trkpt lat="47.33073" lon="-0.70972">
        <ele>45.32</ele>
        <time>2011-04-16T18:20:52Z</time>
      </trkpt>
      <trkpt lat="47.33078" lon="-0.70977">
        <ele>47.24</ele>
        <time>2011-04-16T18:20:55Z</time>
      </trkpt>
      <trkpt lat="47.33092" lon="-0.70985">
        <ele>50.13</ele>
        <time>2011-04-16T18:21:02Z</time>
      </trkpt>
      <trkpt lat="47.33094" lon="-0.70987">
        <ele>49.65</ele>
        <time>2011-04-16T18:21:03Z</time>
      </trkpt>
      <trkpt lat="47.33114" lon="-0.70994">
        <ele>52.05</ele>
        <time>2011-04-16T18:21:12Z</time>
      </trkpt>
      <trkpt lat="47.33133" lon="-0.71005">
        <ele>54.45</ele>
        <time>2011-04-16T18:21:21Z</time>
      </trkpt>
      <trkpt lat="47.33149" lon="-0.7102">
        <ele>55.89</ele>
        <time>2011-04-16T18:21:29Z</time>
      </trkpt>
      <trkpt lat="47.33157" lon="-0.71028">
        <ele>56.37</ele>
        <time>2011-04-16T18:21:33Z</time>
      </trkpt>
      <trkpt lat="47.33172" lon="-0.71033">
        <ele>57.82</ele>
        <time>2011-04-16T18:21:40Z</time>
      </trkpt>
      <trkpt lat="47.3319" lon="-0.71023">
        <ele>59.74</ele>
        <time>2011-04-16T18:21:48Z</time>
      </trkpt>
      <trkpt lat="47.33211" lon="-0.71007">
        <ele>61.18</ele>
        <time>2011-04-16T18:21:57Z</time>
      </trkpt>
      <trkpt lat="47.33228" lon="-0.70994">
        <ele>63.1</ele>
        <time>2011-04-16T18:22:04Z</time>
      </trkpt>
      <trkpt lat="47.33253" lon="-0.70976">
        <ele>63.58</ele>
        <time>2011-04-16T18:22:13Z</time>
      </trkpt>
      <trkpt lat="47.33281" lon="-0.70956">
        <ele>63.58</ele>
        <time>2011-04-16T18:22:22Z</time>
      </trkpt>
      <trkpt lat="47.33302" lon="-0.70942">
        <ele>63.58</ele>
        <time>2011-04-16T18:22:31Z</time>
      </trkpt>
      <trkpt lat="47.33324" lon="-0.70927">
        <ele>64.55</ele>
        <time>2011-04-16T18:22:39Z</time>
      </trkpt>
      <trkpt lat="47.33346" lon="-0.70918">
        <ele>63.58</ele>
        <time>2011-04-16T18:22:47Z</time>
      </trkpt>
      <trkpt lat="47.33363" lon="-0.70913">
        <ele>65.03</ele>
        <time>2011-04-16T18:22:53Z</time>
      </trkpt>
      <trkpt lat="47.33386" lon="-0.70908">
        <ele>65.03</ele>
        <time>2011-04-16T18:23:01Z</time>
      </trkpt>
      <trkpt lat="47.33397" lon="-0.70907">
        <ele>63.58</ele>
        <time>2011-04-16T18:23:05Z</time>
      </trkpt>
      <trkpt lat="47.33404" lon="-0.70909">
        <ele>64.07</ele>
        <time>2011-04-16T18:23:08Z</time>
      </trkpt>
      <trkpt lat="47.33405" lon="-0.70911">
        <ele>63.1</ele>
        <time>2011-04-16T18:23:09Z</time>
      </trkpt>
      <trkpt lat="47.33403" lon="-0.70914">
        <ele>63.58</ele>
        <time>2011-04-16T18:23:10Z</time>
      </trkpt>
      <trkpt lat="47.33401" lon="-0.70916">
        <ele>63.1</ele>
        <time>2011-04-16T18:23:11Z</time>
      </trkpt>
      <trkpt lat="47.33398" lon="-0.70917">
        <ele>62.62</ele>
        <time>2011-04-16T18:23:12Z</time>
      </trkpt>
      <trkpt lat="47.33378" lon="-0.7093">
        <ele>61.18</ele>
        <time>2011-04-16T18:23:19Z</time>
      </trkpt>
      <trkpt lat="47.33363" lon="-0.7094">
        <ele>60.22</ele>
        <time>2011-04-16T18:23:24Z</time>
      </trkpt>
      <trkpt lat="47.33362" lon="-0.70944">
        <ele>60.7</ele>
        <time>2011-04-16T18:23:25Z</time>
      </trkpt>
      <trkpt lat="47.33363" lon="-0.70949">
        <ele>59.74</ele>
        <time>2011-04-16T18:23:26Z</time>
      </trkpt>
      <trkpt lat="47.33364" lon="-0.70955">
        <ele>59.74</ele>
        <time>2011-04-16T18:23:27Z</time>
      </trkpt>
      <trkpt lat="47.33365" lon="-0.70961">
        <ele>58.3</ele>
        <time>2011-04-16T18:23:28Z</time>
      </trkpt>
      <trkpt lat="47.33368" lon="-0.70974">
        <ele>59.74</ele>
        <time>2011-04-16T18:23:31Z</time>
      </trkpt>
      <trkpt lat="47.33367" lon="-0.70976">
        <ele>58.78</ele>
        <time>2011-04-16T18:23:32Z</time>
      </trkpt>
      <trkpt lat="47.33365" lon="-0.70978">
        <ele>58.78</ele>
        <time>2011-04-16T18:23:33Z</time>
      </trkpt>
      <trkpt lat="47.33363" lon="-0.70981">
        <ele>56.86</ele>
        <time>2011-04-16T18:23:34Z</time>
      </trkpt>
      <trkpt lat="47.33361" lon="-0.70983">
        <ele>56.86</ele>
        <time>2011-04-16T18:23:35Z</time>
      </trkpt>
      <trkpt lat="47.33359" lon="-0.70985">
        <ele>56.86</ele>
        <time>2011-04-16T18:23:36Z</time>
      </trkpt>
      <trkpt lat="47.33348" lon="-0.71">
        <ele>54.93</ele>
        <time>2011-04-16T18:23:43Z</time>
      </trkpt>
      <trkpt lat="47.33341" lon="-0.71008">
        <ele>53.97</ele>
        <time>2011-04-16T18:23:45Z</time>
      </trkpt>
      <trkpt lat="47.33318" lon="-0.71044">
        <ele>50.61</ele>
        <time>2011-04-16T18:23:50Z</time>
      </trkpt>
      <trkpt lat="47.33302" lon="-0.71067">
        <ele>46.28</ele>
        <time>2011-04-16T18:23:53Z</time>
      </trkpt>
      <trkpt lat="47.33296" lon="-0.71074">
        <ele>46.28</ele>
        <time>2011-04-16T18:23:54Z</time>
      </trkpt>
      <trkpt lat="47.3328" lon="-0.71097">
        <ele>42.44</ele>
        <time>2011-04-16T18:23:57Z</time>
      </trkpt>
      <trkpt lat="47.33275" lon="-0.71105">
        <ele>42.44</ele>
        <time>2011-04-16T18:23:58Z</time>
      </trkpt>
      <trkpt lat="47.33246" lon="-0.71139">
        <ele>39.07</ele>
        <time>2011-04-16T18:24:03Z</time>
      </trkpt>
      <trkpt lat="47.3324" lon="-0.71145">
        <ele>37.63</ele>
        <time>2011-04-16T18:24:04Z</time>
      </trkpt>
      <trkpt lat="47.33234" lon="-0.71151">
        <ele>36.19</ele>
        <time>2011-04-16T18:24:05Z</time>
      </trkpt>
      <trkpt lat="47.33228" lon="-0.71158">
        <ele>37.15</ele>
        <time>2011-04-16T18:24:06Z</time>
      </trkpt>
      <trkpt lat="47.33212" lon="-0.71176">
        <ele>33.78</ele>
        <time>2011-04-16T18:24:09Z</time>
      </trkpt>
      <trkpt lat="47.33208" lon="-0.71184">
        <ele>32.82</ele>
        <time>2011-04-16T18:24:10Z</time>
      </trkpt>
      <trkpt lat="47.33205" lon="-0.71193">
        <ele>32.82</ele>
        <time>2011-04-16T18:24:11Z</time>
      </trkpt>
      <trkpt lat="47.33197" lon="-0.71223">
        <ele>29.46</ele>
        <time>2011-04-16T18:24:14Z</time>
      </trkpt>
      <trkpt lat="47.33194" lon="-0.71244">
        <ele>28.98</ele>
        <time>2011-04-16T18:24:16Z</time>
      </trkpt>
      <trkpt lat="47.33185" lon="-0.71301">
        <ele>25.61</ele>
        <time>2011-04-16T18:24:21Z</time>
      </trkpt>
      <trkpt lat="47.33183" lon="-0.71349">
        <ele>24.17</ele>
        <time>2011-04-16T18:24:25Z</time>
      </trkpt>
      <trkpt lat="47.33181" lon="-0.71388">
        <ele>22.73</ele>
        <time>2011-04-16T18:24:29Z</time>
      </trkpt>
      <trkpt lat="47.33183" lon="-0.71395">
        <ele>23.21</ele>
        <time>2011-04-16T18:24:30Z</time>
      </trkpt>
      <trkpt lat="47.33187" lon="-0.71401">
        <ele>21.77</ele>
        <time>2011-04-16T18:24:31Z</time>
      </trkpt>
      <trkpt lat="47.33195" lon="-0.71407">
        <ele>22.25</ele>
        <time>2011-04-16T18:24:33Z</time>
      </trkpt>
      <trkpt lat="47.33228" lon="-0.71418">
        <ele>25.61</ele>
        <time>2011-04-16T18:24:42Z</time>
      </trkpt>
      <trkpt lat="47.33251" lon="-0.71422">
        <ele>26.57</ele>
        <time>2011-04-16T18:24:50Z</time>
      </trkpt>
      <trkpt lat="47.3327" lon="-0.71428">
        <ele>27.53</ele>
        <time>2011-04-16T18:24:56Z</time>
      </trkpt>
      <trkpt lat="47.333" lon="-0.71435">
        <ele>28.98</ele>
        <time>2011-04-16T18:25:06Z</time>
      </trkpt>
      <trkpt lat="47.33321" lon="-0.71436">
        <ele>29.94</ele>
        <time>2011-04-16T18:25:13Z</time>
      </trkpt>
      <trkpt lat="47.33329" lon="-0.71432">
        <ele>31.38</ele>
        <time>2011-04-16T18:25:16Z</time>
      </trkpt>
      <trkpt lat="47.33338" lon="-0.71425">
        <ele>32.34</ele>
        <time>2011-04-16T18:25:20Z</time>
      </trkpt>
      <trkpt lat="47.33344" lon="-0.71414">
        <ele>33.3</ele>
        <time>2011-04-16T18:25:24Z</time>
      </trkpt>
      <trkpt lat="47.33357" lon="-0.71393">
        <ele>36.67</ele>
        <time>2011-04-16T18:25:33Z</time>
      </trkpt>
      <trkpt lat="47.33371" lon="-0.71374">
        <ele>38.11</ele>
        <time>2011-04-16T18:25:42Z</time>
      </trkpt>
      <trkpt lat="47.33378" lon="-0.71366">
        <ele>40.99</ele>
        <time>2011-04-16T18:25:46Z</time>
      </trkpt>
      <trkpt lat="47.33391" lon="-0.71353">
        <ele>42.92</ele>
        <time>2011-04-16T18:25:53Z</time>
      </trkpt>
      <trkpt lat="47.33402" lon="-0.71341">
        <ele>44.84</ele>
        <time>2011-04-16T18:26:00Z</time>
      </trkpt>
      <trkpt lat="47.33415" lon="-0.71331">
        <ele>45.8</ele>
        <time>2011-04-16T18:26:07Z</time>
      </trkpt>
      <trkpt lat="47.33429" lon="-0.71325">
        <ele>48.2</ele>
        <time>2011-04-16T18:26:14Z</time>
      </trkpt>
      <trkpt lat="47.33443" lon="-0.71315">
        <ele>50.61</ele>
        <time>2011-04-16T18:26:22Z</time>
      </trkpt>
      <trkpt lat="47.33446" lon="-0.71312">
        <ele>51.57</ele>
        <time>2011-04-16T18:26:24Z</time>
      </trkpt>
      <trkpt lat="47.33453" lon="-0.71308">
        <ele>52.53</ele>
        <time>2011-04-16T18:26:28Z</time>
      </trkpt>
      <trkpt lat="47.33462" lon="-0.71301">
        <ele>54.45</ele>
        <time>2011-04-16T18:26:33Z</time>
      </trkpt>
      <trkpt lat="47.33473" lon="-0.71288">
        <ele>55.41</ele>
        <time>2011-04-16T18:26:42Z</time>
      </trkpt>
      <trkpt lat="47.3348" lon="-0.71284">
        <ele>58.78</ele>
        <time>2011-04-16T18:26:47Z</time>
      </trkpt>
      <trkpt lat="47.33494" lon="-0.71281">
        <ele>59.26</ele>
        <time>2011-04-16T18:26:55Z</time>
      </trkpt>
      <trkpt lat="47.33499" lon="-0.7128">
        <ele>60.7</ele>
        <time>2011-04-16T18:26:58Z</time>
      </trkpt>
      <trkpt lat="47.33505" lon="-0.71285">
        <ele>60.7</ele>
        <time>2011-04-16T18:27:03Z</time>
      </trkpt>
      <trkpt lat="47.33507" lon="-0.71294">
        <ele>62.62</ele>
        <time>2011-04-16T18:27:09Z</time>
      </trkpt>
      <trkpt lat="47.33507" lon="-0.71303">
        <ele>64.55</ele>
        <time>2011-04-16T18:27:15Z</time>
      </trkpt>
      <trkpt lat="47.33501" lon="-0.71312">
        <ele>64.07</ele>
        <time>2011-04-16T18:27:21Z</time>
      </trkpt>
      <trkpt lat="47.3349" lon="-0.7133">
        <ele>63.1</ele>
        <time>2011-04-16T18:27:27Z</time>
      </trkpt>
      <trkpt lat="47.33489" lon="-0.71335">
        <ele>63.58</ele>
        <time>2011-04-16T18:27:28Z</time>
      </trkpt>
      <trkpt lat="47.33491" lon="-0.71345">
        <ele>63.58</ele>
        <time>2011-04-16T18:27:31Z</time>
      </trkpt>
      <trkpt lat="47.33491" lon="-0.71357">
        <ele>64.07</ele>
        <time>2011-04-16T18:27:36Z</time>
      </trkpt>
      <trkpt lat="47.33494" lon="-0.71378">
        <ele>65.51</ele>
        <time>2011-04-16T18:27:43Z</time>
      </trkpt>
      <trkpt lat="47.33501" lon="-0.71385">
        <ele>66.47</ele>
        <time>2011-04-16T18:27:48Z</time>
      </trkpt>
      <trkpt lat="47.33497" lon="-0.71401">
        <ele>65.51</ele>
        <time>2011-04-16T18:27:55Z</time>
      </trkpt>
      <trkpt lat="47.33495" lon="-0.71403">
        <ele>65.51</ele>
        <time>2011-04-16T18:27:56Z</time>
      </trkpt>
      <trkpt lat="47.33471" lon="-0.71434">
        <ele>65.03</ele>
        <time>2011-04-16T18:28:04Z</time>
      </trkpt>
      <trkpt lat="47.33468" lon="-0.7144">
        <ele>64.07</ele>
        <time>2011-04-16T18:28:05Z</time>
      </trkpt>
      <trkpt lat="47.33462" lon="-0.71453">
        <ele>63.1</ele>
        <time>2011-04-16T18:28:07Z</time>
      </trkpt>
      <trkpt lat="47.33456" lon="-0.71466">
        <ele>64.07</ele>
        <time>2011-04-16T18:28:09Z</time>
      </trkpt>
      <trkpt lat="47.33453" lon="-0.71471">
        <ele>62.14</ele>
        <time>2011-04-16T18:28:10Z</time>
      </trkpt>
      <trkpt lat="47.33448" lon="-0.71476">
        <ele>61.66</ele>
        <time>2011-04-16T18:28:11Z</time>
      </trkpt>
      <trkpt lat="47.33442" lon="-0.71478">
        <ele>62.14</ele>
        <time>2011-04-16T18:28:12Z</time>
      </trkpt>
      <trkpt lat="47.33436" lon="-0.71479">
        <ele>60.22</ele>
        <time>2011-04-16T18:28:13Z</time>
      </trkpt>
      <trkpt lat="47.33429" lon="-0.71481">
        <ele>60.22</ele>
        <time>2011-04-16T18:28:14Z</time>
      </trkpt>
      <trkpt lat="47.33423" lon="-0.71484">
        <ele>60.7</ele>
        <time>2011-04-16T18:28:15Z</time>
      </trkpt>
      <trkpt lat="47.33417" lon="-0.71487">
        <ele>60.7</ele>
        <time>2011-04-16T18:28:16Z</time>
      </trkpt>
      <trkpt lat="47.33413" lon="-0.7149">
        <ele>58.78</ele>
        <time>2011-04-16T18:28:17Z</time>
      </trkpt>
      <trkpt lat="47.33409" lon="-0.71495">
        <ele>58.3</ele>
        <time>2011-04-16T18:28:18Z</time>
      </trkpt>
      <trkpt lat="47.33407" lon="-0.71502">
        <ele>58.3</ele>
        <time>2011-04-16T18:28:19Z</time>
      </trkpt>
      <trkpt lat="47.33406" lon="-0.71509">
        <ele>57.82</ele>
        <time>2011-04-16T18:28:20Z</time>
      </trkpt>
      <trkpt lat="47.33406" lon="-0.71515">
        <ele>56.86</ele>
        <time>2011-04-16T18:28:21Z</time>
      </trkpt>
      <trkpt lat="47.33404" lon="-0.71521">
        <ele>56.86</ele>
        <time>2011-04-16T18:28:22Z</time>
      </trkpt>
      <trkpt lat="47.33402" lon="-0.71527">
        <ele>57.82</ele>
        <time>2011-04-16T18:28:23Z</time>
      </trkpt>
      <trkpt lat="47.334" lon="-0.71534">
        <ele>57.34</ele>
        <time>2011-04-16T18:28:24Z</time>
      </trkpt>
      <trkpt lat="47.33396" lon="-0.71547">
        <ele>56.86</ele>
        <time>2011-04-16T18:28:26Z</time>
      </trkpt>
      <trkpt lat="47.33395" lon="-0.71554">
        <ele>55.89</ele>
        <time>2011-04-16T18:28:27Z</time>
      </trkpt>
      <trkpt lat="47.33396" lon="-0.71559">
        <ele>57.34</ele>
        <time>2011-04-16T18:28:28Z</time>
      </trkpt>
      <trkpt lat="47.33397" lon="-0.71564">
        <ele>57.82</ele>
        <time>2011-04-16T18:28:29Z</time>
      </trkpt>
      <trkpt lat="47.33398" lon="-0.71567">
        <ele>57.34</ele>
        <time>2011-04-16T18:28:30Z</time>
      </trkpt>
      <trkpt lat="47.33398" lon="-0.71572">
        <ele>57.82</ele>
        <time>2011-04-16T18:28:31Z</time>
      </trkpt>
      <trkpt lat="47.33397" lon="-0.71576">
        <ele>59.26</ele>
        <time>2011-04-16T18:28:32Z</time>
      </trkpt>
      <trkpt lat="47.33396" lon="-0.7158">
        <ele>59.26</ele>
        <time>2011-04-16T18:28:33Z</time>
      </trkpt>
      <trkpt lat="47.33386" lon="-0.71616">
        <ele>57.82</ele>
        <time>2011-04-16T18:28:39Z</time>
      </trkpt>
      <trkpt lat="47.33381" lon="-0.71633">
        <ele>56.37</ele>
        <time>2011-04-16T18:28:41Z</time>
      </trkpt>
      <trkpt lat="47.3338" lon="-0.71642">
        <ele>55.41</ele>
        <time>2011-04-16T18:28:42Z</time>
      </trkpt>
      <trkpt lat="47.3338" lon="-0.7165">
        <ele>54.45</ele>
        <time>2011-04-16T18:28:43Z</time>
      </trkpt>
      <trkpt lat="47.33382" lon="-0.71655">
        <ele>53.97</ele>
        <time>2011-04-16T18:28:44Z</time>
      </trkpt>
      <trkpt lat="47.33385" lon="-0.71656">
        <ele>53.49</ele>
        <time>2011-04-16T18:28:45Z</time>
      </trkpt>
      <trkpt lat="47.33386" lon="-0.71656">
        <ele>54.93</ele>
        <time>2011-04-16T18:28:46Z</time>
      </trkpt>
      <trkpt lat="47.33388" lon="-0.71655">
        <ele>54.45</ele>
        <time>2011-04-16T18:28:47Z</time>
      </trkpt>
      <trkpt lat="47.3339" lon="-0.71653">
        <ele>54.45</ele>
        <time>2011-04-16T18:28:48Z</time>
      </trkpt>
      <trkpt lat="47.33391" lon="-0.7165">
        <ele>54.93</ele>
        <time>2011-04-16T18:28:49Z</time>
      </trkpt>
      <trkpt lat="47.33394" lon="-0.71648">
        <ele>56.37</ele>
        <time>2011-04-16T18:28:50Z</time>
      </trkpt>
      <trkpt lat="47.33411" lon="-0.71626">
        <ele>57.34</ele>
        <time>2011-04-16T18:28:57Z</time>
      </trkpt>
      <trkpt lat="47.33425" lon="-0.71606">
        <ele>56.86</ele>
        <time>2011-04-16T18:29:03Z</time>
      </trkpt>
      <trkpt lat="47.33429" lon="-0.71605">
        <ele>57.34</ele>
        <time>2011-04-16T18:29:04Z</time>
      </trkpt>
      <trkpt lat="47.33432" lon="-0.71606">
        <ele>57.82</ele>
        <time>2011-04-16T18:29:05Z</time>
      </trkpt>
      <trkpt lat="47.33435" lon="-0.71609">
        <ele>57.82</ele>
        <time>2011-04-16T18:29:06Z</time>
      </trkpt>
      <trkpt lat="47.33438" lon="-0.71611">
        <ele>57.82</ele>
        <time>2011-04-16T18:29:07Z</time>
      </trkpt>
      <trkpt lat="47.33461" lon="-0.71635">
        <ele>58.78</ele>
        <time>2011-04-16T18:29:15Z</time>
      </trkpt>
      <trkpt lat="47.3348" lon="-0.71662">
        <ele>60.7</ele>
        <time>2011-04-16T18:29:23Z</time>
      </trkpt>
      <trkpt lat="47.33484" lon="-0.71677">
        <ele>60.7</ele>
        <time>2011-04-16T18:29:27Z</time>
      </trkpt>
      <trkpt lat="47.33483" lon="-0.7168">
        <ele>60.22</ele>
        <time>2011-04-16T18:29:28Z</time>
      </trkpt>
      <trkpt lat="47.33482" lon="-0.71683">
        <ele>60.22</ele>
        <time>2011-04-16T18:29:29Z</time>
      </trkpt>
      <trkpt lat="47.3348" lon="-0.71687">
        <ele>59.74</ele>
        <time>2011-04-16T18:29:30Z</time>
      </trkpt>
      <trkpt lat="47.33478" lon="-0.71691">
        <ele>60.7</ele>
        <time>2011-04-16T18:29:31Z</time>
      </trkpt>
      <trkpt lat="47.33476" lon="-0.71695">
        <ele>59.74</ele>
        <time>2011-04-16T18:29:32Z</time>
      </trkpt>
      <trkpt lat="47.33473" lon="-0.71699">
        <ele>59.74</ele>
        <time>2011-04-16T18:29:33Z</time>
      </trkpt>
      <trkpt lat="47.33471" lon="-0.71704">
        <ele>59.74</ele>
        <time>2011-04-16T18:29:34Z</time>
      </trkpt>
      <trkpt lat="47.33469" lon="-0.71709">
        <ele>60.7</ele>
        <time>2011-04-16T18:29:35Z</time>
      </trkpt>
      <trkpt lat="47.33456" lon="-0.71741">
        <ele>59.26</ele>
        <time>2011-04-16T18:29:42Z</time>
      </trkpt>
      <trkpt lat="47.33453" lon="-0.71749">
        <ele>58.78</ele>
        <time>2011-04-16T18:29:46Z</time>
      </trkpt>
      <trkpt lat="47.33453" lon="-0.71749">
        <ele>58.3</ele>
        <time>2011-04-16T18:29:51Z</time>
      </trkpt>
      <trkpt lat="47.33454" lon="-0.71746">
        <ele>57.82</ele>
        <time>2011-04-16T18:29:52Z</time>
      </trkpt>
      <trkpt lat="47.33454" lon="-0.71745">
        <ele>58.78</ele>
        <time>2011-04-16T18:29:56Z</time>
      </trkpt>
      <trkpt lat="47.33453" lon="-0.71746">
        <ele>58.3</ele>
        <time>2011-04-16T18:31:49Z</time>
      </trkpt>
      <trkpt lat="47.33453" lon="-0.71745">
        <ele>58.3</ele>
        <time>2011-04-16T18:31:53Z</time>
      </trkpt>
      <trkpt lat="47.33452" lon="-0.71747">
        <ele>57.82</ele>
        <time>2011-04-16T18:31:54Z</time>
      </trkpt>
      <trkpt lat="47.3345" lon="-0.71749">
        <ele>58.78</ele>
        <time>2011-04-16T18:31:55Z</time>
      </trkpt>
      <trkpt lat="47.33439" lon="-0.71765">
        <ele>58.78</ele>
        <time>2011-04-16T18:31:59Z</time>
      </trkpt>
      <trkpt lat="47.33423" lon="-0.71787">
        <ele>57.34</ele>
        <time>2011-04-16T18:32:03Z</time>
      </trkpt>
      <trkpt lat="47.3342" lon="-0.71795">
        <ele>56.86</ele>
        <time>2011-04-16T18:32:04Z</time>
      </trkpt>
      <trkpt lat="47.3342" lon="-0.71801">
        <ele>56.37</ele>
        <time>2011-04-16T18:32:05Z</time>
      </trkpt>
      <trkpt lat="47.33421" lon="-0.71806">
        <ele>56.37</ele>
        <time>2011-04-16T18:32:06Z</time>
      </trkpt>
      <trkpt lat="47.33423" lon="-0.7181">
        <ele>58.3</ele>
        <time>2011-04-16T18:32:07Z</time>
      </trkpt>
      <trkpt lat="47.33425" lon="-0.71813">
        <ele>58.3</ele>
        <time>2011-04-16T18:32:08Z</time>
      </trkpt>
      <trkpt lat="47.33428" lon="-0.71816">
        <ele>59.26</ele>
        <time>2011-04-16T18:32:09Z</time>
      </trkpt>
      <trkpt lat="47.33431" lon="-0.71819">
        <ele>59.74</ele>
        <time>2011-04-16T18:32:10Z</time>
      </trkpt>
      <trkpt lat="47.3345" lon="-0.71844">
        <ele>61.18</ele>
        <time>2011-04-16T18:32:17Z</time>
      </trkpt>
      <trkpt lat="47.33452" lon="-0.71849">
        <ele>61.18</ele>
        <time>2011-04-16T18:32:18Z</time>
      </trkpt>
      <trkpt lat="47.33455" lon="-0.71855">
        <ele>61.18</ele>
        <time>2011-04-16T18:32:19Z</time>
      </trkpt>
      <trkpt lat="47.33458" lon="-0.71861">
        <ele>61.66</ele>
        <time>2011-04-16T18:32:20Z</time>
      </trkpt>
      <trkpt lat="47.33461" lon="-0.71867">
        <ele>61.66</ele>
        <time>2011-04-16T18:32:21Z</time>
      </trkpt>
      <trkpt lat="47.33464" lon="-0.71874">
        <ele>60.7</ele>
        <time>2011-04-16T18:32:22Z</time>
      </trkpt>
      <trkpt lat="47.33471" lon="-0.71889">
        <ele>59.74</ele>
        <time>2011-04-16T18:32:24Z</time>
      </trkpt>
      <trkpt lat="47.33485" lon="-0.71919">
        <ele>57.34</ele>
        <time>2011-04-16T18:32:28Z</time>
      </trkpt>
      <trkpt lat="47.33491" lon="-0.71931">
        <ele>53.97</ele>
        <time>2011-04-16T18:32:30Z</time>
      </trkpt>
      <trkpt lat="47.33497" lon="-0.71939">
        <ele>53.01</ele>
        <time>2011-04-16T18:32:32Z</time>
      </trkpt>
      <trkpt lat="47.33503" lon="-0.71932">
        <ele>51.09</ele>
        <time>2011-04-16T18:32:35Z</time>
      </trkpt>
      <trkpt lat="47.33507" lon="-0.71921">
        <ele>52.53</ele>
        <time>2011-04-16T18:32:38Z</time>
      </trkpt>
      <trkpt lat="47.33515" lon="-0.71903">
        <ele>53.97</ele>
        <time>2011-04-16T18:32:43Z</time>
      </trkpt>
      <trkpt lat="47.33533" lon="-0.71883">
        <ele>55.41</ele>
        <time>2011-04-16T18:32:50Z</time>
      </trkpt>
      <trkpt lat="47.3356" lon="-0.71874">
        <ele>54.93</ele>
        <time>2011-04-16T18:32:57Z</time>
      </trkpt>
      <trkpt lat="47.3358" lon="-0.71861">
        <ele>53.97</ele>
        <time>2011-04-16T18:33:01Z</time>
      </trkpt>
      <trkpt lat="47.33617" lon="-0.71824">
        <ele>55.89</ele>
        <time>2011-04-16T18:33:10Z</time>
      </trkpt>
      <trkpt lat="47.33627" lon="-0.71814">
        <ele>57.34</ele>
        <time>2011-04-16T18:33:13Z</time>
      </trkpt>
      <trkpt lat="47.33629" lon="-0.71811">
        <ele>57.34</ele>
        <time>2011-04-16T18:33:14Z</time>
      </trkpt>
      <trkpt lat="47.33635" lon="-0.71821">
        <ele>56.37</ele>
        <time>2011-04-16T18:33:19Z</time>
      </trkpt>
      <trkpt lat="47.33642" lon="-0.71833">
        <ele>53.49</ele>
        <time>2011-04-16T18:33:23Z</time>
      </trkpt>
      <trkpt lat="47.33649" lon="-0.7184">
        <ele>51.09</ele>
        <time>2011-04-16T18:33:25Z</time>
      </trkpt>
      <trkpt lat="47.33651" lon="-0.71845">
        <ele>51.57</ele>
        <time>2011-04-16T18:33:26Z</time>
      </trkpt>
      <trkpt lat="47.33653" lon="-0.71851">
        <ele>50.13</ele>
        <time>2011-04-16T18:33:27Z</time>
      </trkpt>
      <trkpt lat="47.33659" lon="-0.71868">
        <ele>49.65</ele>
        <time>2011-04-16T18:33:30Z</time>
      </trkpt>
      <trkpt lat="47.33667" lon="-0.71868">
        <ele>49.16</ele>
        <time>2011-04-16T18:33:33Z</time>
      </trkpt>
      <trkpt lat="47.33675" lon="-0.71878">
        <ele>50.61</ele>
        <time>2011-04-16T18:33:39Z</time>
      </trkpt>
      <trkpt lat="47.33675" lon="-0.71881">
        <ele>51.09</ele>
        <time>2011-04-16T18:33:40Z</time>
      </trkpt>
      <trkpt lat="47.3367" lon="-0.71895">
        <ele>53.49</ele>
        <time>2011-04-16T18:33:47Z</time>
      </trkpt>
      <trkpt lat="47.33666" lon="-0.71905">
        <ele>55.89</ele>
        <time>2011-04-16T18:33:51Z</time>
      </trkpt>
      <trkpt lat="47.33661" lon="-0.71916">
        <ele>56.86</ele>
        <time>2011-04-16T18:33:56Z</time>
      </trkpt>
      <trkpt lat="47.33656" lon="-0.71935">
        <ele>58.78</ele>
        <time>2011-04-16T18:34:04Z</time>
      </trkpt>
      <trkpt lat="47.33649" lon="-0.71948">
        <ele>60.7</ele>
        <time>2011-04-16T18:34:10Z</time>
      </trkpt>
      <trkpt lat="47.33633" lon="-0.71963">
        <ele>60.22</ele>
        <time>2011-04-16T18:34:17Z</time>
      </trkpt>
      <trkpt lat="47.33617" lon="-0.71985">
        <ele>60.22</ele>
        <time>2011-04-16T18:34:25Z</time>
      </trkpt>
      <trkpt lat="47.33611" lon="-0.72002">
        <ele>60.22</ele>
        <time>2011-04-16T18:34:28Z</time>
      </trkpt>
      <trkpt lat="47.33608" lon="-0.72017">
        <ele>58.3</ele>
        <time>2011-04-16T18:34:30Z</time>
      </trkpt>
      <trkpt lat="47.33609" lon="-0.72035">
        <ele>56.86</ele>
        <time>2011-04-16T18:34:32Z</time>
      </trkpt>
      <trkpt lat="47.33611" lon="-0.72052">
        <ele>57.82</ele>
        <time>2011-04-16T18:34:34Z</time>
      </trkpt>
      <trkpt lat="47.33604" lon="-0.72085">
        <ele>56.37</ele>
        <time>2011-04-16T18:34:39Z</time>
      </trkpt>
      <trkpt lat="47.33591" lon="-0.72103">
        <ele>55.89</ele>
        <time>2011-04-16T18:34:43Z</time>
      </trkpt>
      <trkpt lat="47.3359" lon="-0.72129">
        <ele>55.41</ele>
        <time>2011-04-16T18:34:48Z</time>
      </trkpt>
      <trkpt lat="47.336" lon="-0.72154">
        <ele>55.89</ele>
        <time>2011-04-16T18:34:55Z</time>
      </trkpt>
      <trkpt lat="47.33599" lon="-0.72163">
        <ele>55.41</ele>
        <time>2011-04-16T18:34:57Z</time>
      </trkpt>
      <trkpt lat="47.336" lon="-0.72191">
        <ele>53.49</ele>
        <time>2011-04-16T18:35:02Z</time>
      </trkpt>
      <trkpt lat="47.33604" lon="-0.72194">
        <ele>53.97</ele>
        <time>2011-04-16T18:35:03Z</time>
      </trkpt>
      <trkpt lat="47.33629" lon="-0.72197">
        <ele>54.45</ele>
        <time>2011-04-16T18:35:10Z</time>
      </trkpt>
      <trkpt lat="47.33645" lon="-0.72188">
        <ele>57.82</ele>
        <time>2011-04-16T18:35:17Z</time>
      </trkpt>
      <trkpt lat="47.33663" lon="-0.72184">
        <ele>59.26</ele>
        <time>2011-04-16T18:35:24Z</time>
      </trkpt>
      <trkpt lat="47.33682" lon="-0.72186">
        <ele>61.18</ele>
        <time>2011-04-16T18:35:31Z</time>
      </trkpt>
      <trkpt lat="47.33698" lon="-0.72207">
        <ele>61.18</ele>
        <time>2011-04-16T18:35:39Z</time>
      </trkpt>
      <trkpt lat="47.33699" lon="-0.72214">
        <ele>61.18</ele>
        <time>2011-04-16T18:35:41Z</time>
      </trkpt>
      <trkpt lat="47.33695" lon="-0.72223">
        <ele>60.22</ele>
        <time>2011-04-16T18:35:47Z</time>
      </trkpt>
      <trkpt lat="47.33695" lon="-0.72223">
        <ele>59.74</ele>
        <time>2011-04-16T18:36:09Z</time>
      </trkpt>
      <trkpt lat="47.33688" lon="-0.72229">
        <ele>60.22</ele>
        <time>2011-04-16T18:36:15Z</time>
      </trkpt>
      <trkpt lat="47.33681" lon="-0.7222">
        <ele>56.86</ele>
        <time>2011-04-16T18:36:18Z</time>
      </trkpt>
      <trkpt lat="47.33678" lon="-0.72215">
        <ele>56.37</ele>
        <time>2011-04-16T18:36:19Z</time>
      </trkpt>
      <trkpt lat="47.33668" lon="-0.7221">
        <ele>54.45</ele>
        <time>2011-04-16T18:36:24Z</time>
      </trkpt>
      <trkpt lat="47.33669" lon="-0.72216">
        <ele>54.45</ele>
        <time>2011-04-16T18:36:25Z</time>
      </trkpt>
      <trkpt lat="47.33679" lon="-0.72232">
        <ele>55.89</ele>
        <time>2011-04-16T18:36:30Z</time>
      </trkpt>
      <trkpt lat="47.33681" lon="-0.72236">
        <ele>57.34</ele>
        <time>2011-04-16T18:36:32Z</time>
      </trkpt>
      <trkpt lat="47.33677" lon="-0.72243">
        <ele>55.89</ele>
        <time>2011-04-16T18:36:36Z</time>
      </trkpt>
      <trkpt lat="47.33665" lon="-0.7223">
        <ele>53.01</ele>
        <time>2011-04-16T18:36:41Z</time>
      </trkpt>
      <trkpt lat="47.33662" lon="-0.72224">
        <ele>52.53</ele>
        <time>2011-04-16T18:36:42Z</time>
      </trkpt>
      <trkpt lat="47.33651" lon="-0.72203">
        <ele>52.53</ele>
        <time>2011-04-16T18:36:46Z</time>
      </trkpt>
      <trkpt lat="47.33649" lon="-0.722">
        <ele>53.97</ele>
        <time>2011-04-16T18:36:48Z</time>
      </trkpt>
      <trkpt lat="47.33644" lon="-0.72205">
        <ele>52.05</ele>
        <time>2011-04-16T18:36:53Z</time>
      </trkpt>
      <trkpt lat="47.33653" lon="-0.72229">
        <ele>49.65</ele>
        <time>2011-04-16T18:36:57Z</time>
      </trkpt>
      <trkpt lat="47.33663" lon="-0.72242">
        <ele>51.57</ele>
        <time>2011-04-16T18:37:01Z</time>
      </trkpt>
      <trkpt lat="47.33672" lon="-0.72248">
        <ele>54.45</ele>
        <time>2011-04-16T18:37:17Z</time>
      </trkpt>
      <trkpt lat="47.33672" lon="-0.7225">
        <ele>54.45</ele>
        <time>2011-04-16T18:37:22Z</time>
      </trkpt>
      <trkpt lat="47.33673" lon="-0.7225">
        <ele>54.45</ele>
        <time>2011-04-16T18:37:28Z</time>
      </trkpt>
      <trkpt lat="47.33671" lon="-0.72255">
        <ele>53.97</ele>
        <time>2011-04-16T18:37:36Z</time>
      </trkpt>
      <trkpt lat="47.33669" lon="-0.72258">
        <ele>52.05</ele>
        <time>2011-04-16T18:37:39Z</time>
      </trkpt>
      <trkpt lat="47.33665" lon="-0.72257">
        <ele>52.53</ele>
        <time>2011-04-16T18:37:44Z</time>
      </trkpt>
      <trkpt lat="47.33662" lon="-0.72255">
        <ele>51.09</ele>
        <time>2011-04-16T18:37:47Z</time>
      </trkpt>
      <trkpt lat="47.33661" lon="-0.72253">
        <ele>51.57</ele>
        <time>2011-04-16T18:37:55Z</time>
      </trkpt>
      <trkpt lat="47.33655" lon="-0.72245">
        <ele>50.13</ele>
        <time>2011-04-16T18:37:58Z</time>
      </trkpt>
      <trkpt lat="47.33652" lon="-0.7224">
        <ele>49.16</ele>
        <time>2011-04-16T18:37:59Z</time>
      </trkpt>
      <trkpt lat="47.33641" lon="-0.72222">
        <ele>46.76</ele>
        <time>2011-04-16T18:38:02Z</time>
      </trkpt>
      <trkpt lat="47.33637" lon="-0.72229">
        <ele>44.36</ele>
        <time>2011-04-16T18:38:05Z</time>
      </trkpt>
      <trkpt lat="47.33639" lon="-0.72235">
        <ele>43.88</ele>
        <time>2011-04-16T18:38:07Z</time>
      </trkpt>
      <trkpt lat="47.3363" lon="-0.72248">
        <ele>39.07</ele>
        <time>2011-04-16T18:38:12Z</time>
      </trkpt>
      <trkpt lat="47.33623" lon="-0.72252">
        <ele>37.63</ele>
        <time>2011-04-16T18:38:14Z</time>
      </trkpt>
      <trkpt lat="47.33611" lon="-0.72249">
        <ele>38.59</ele>
        <time>2011-04-16T18:38:19Z</time>
      </trkpt>
      <trkpt lat="47.33609" lon="-0.72248">
        <ele>40.99</ele>
        <time>2011-04-16T18:38:21Z</time>
      </trkpt>
      <trkpt lat="47.33606" lon="-0.72249">
        <ele>40.51</ele>
        <time>2011-04-16T18:38:23Z</time>
      </trkpt>
      <trkpt lat="47.336" lon="-0.72265">
        <ele>37.15</ele>
        <time>2011-04-16T18:38:29Z</time>
      </trkpt>
      <trkpt lat="47.33601" lon="-0.72269">
        <ele>36.19</ele>
        <time>2011-04-16T18:38:31Z</time>
      </trkpt>
      <trkpt lat="47.33603" lon="-0.72274">
        <ele>34.74</ele>
        <time>2011-04-16T18:38:33Z</time>
      </trkpt>
      <trkpt lat="47.33606" lon="-0.72278">
        <ele>33.3</ele>
        <time>2011-04-16T18:38:35Z</time>
      </trkpt>
      <trkpt lat="47.33611" lon="-0.72287">
        <ele>30.9</ele>
        <time>2011-04-16T18:38:38Z</time>
      </trkpt>
      <trkpt lat="47.33608" lon="-0.72305">
        <ele>24.17</ele>
        <time>2011-04-16T18:38:43Z</time>
      </trkpt>
      <trkpt lat="47.33608" lon="-0.72309">
        <ele>23.69</ele>
        <time>2011-04-16T18:38:44Z</time>
      </trkpt>
      <trkpt lat="47.33609" lon="-0.72315">
        <ele>21.77</ele>
        <time>2011-04-16T18:38:46Z</time>
      </trkpt>
      <trkpt lat="47.3361" lon="-0.72318">
        <ele>20.81</ele>
        <time>2011-04-16T18:38:47Z</time>
      </trkpt>
      <trkpt lat="47.33608" lon="-0.72338">
        <ele>16.48</ele>
        <time>2011-04-16T18:38:53Z</time>
      </trkpt>
      <trkpt lat="47.3361" lon="-0.72341">
        <ele>17.44</ele>
        <time>2011-04-16T18:38:54Z</time>
      </trkpt>
      <trkpt lat="47.33624" lon="-0.72349">
        <ele>17.92</ele>
        <time>2011-04-16T18:39:01Z</time>
      </trkpt>
      <trkpt lat="47.3363" lon="-0.72362">
        <ele>16.96</ele>
        <time>2011-04-16T18:39:06Z</time>
      </trkpt>
      <trkpt lat="47.33637" lon="-0.72373">
        <ele>16</ele>
        <time>2011-04-16T18:39:11Z</time>
      </trkpt>
      <trkpt lat="47.3364" lon="-0.72371">
        <ele>16.96</ele>
        <time>2011-04-16T18:39:13Z</time>
      </trkpt>
      <trkpt lat="47.33643" lon="-0.7237">
        <ele>17.92</ele>
        <time>2011-04-16T18:39:17Z</time>
      </trkpt>
      <trkpt lat="47.3365" lon="-0.72377">
        <ele>18.88</ele>
        <time>2011-04-16T18:39:22Z</time>
      </trkpt>
      <trkpt lat="47.33662" lon="-0.7239">
        <ele>17.44</ele>
        <time>2011-04-16T18:39:28Z</time>
      </trkpt>
      <trkpt lat="47.3368" lon="-0.72404">
        <ele>18.4</ele>
        <time>2011-04-16T18:39:34Z</time>
      </trkpt>
      <trkpt lat="47.33684" lon="-0.72408">
        <ele>17.44</ele>
        <time>2011-04-16T18:39:35Z</time>
      </trkpt>
      <trkpt lat="47.33698" lon="-0.72417">
        <ele>17.44</ele>
        <time>2011-04-16T18:39:40Z</time>
      </trkpt>
      <trkpt lat="47.337" lon="-0.72419">
        <ele>16.96</ele>
        <time>2011-04-16T18:39:41Z</time>
      </trkpt>
      <trkpt lat="47.33698" lon="-0.7243">
        <ele>15.04</ele>
        <time>2011-04-16T18:39:45Z</time>
      </trkpt>
      <trkpt lat="47.33703" lon="-0.72439">
        <ele>11.19</ele>
        <time>2011-04-16T18:39:49Z</time>
      </trkpt>
      <trkpt lat="47.33711" lon="-0.72436">
        <ele>13.12</ele>
        <time>2011-04-16T18:39:54Z</time>
      </trkpt>
      <trkpt lat="47.33716" lon="-0.72431">
        <ele>14.56</ele>
        <time>2011-04-16T18:40:00Z</time>
      </trkpt>
      <trkpt lat="47.33721" lon="-0.72432">
        <ele>15.04</ele>
        <time>2011-04-16T18:40:03Z</time>
      </trkpt>
      <trkpt lat="47.33726" lon="-0.72435">
        <ele>15.04</ele>
        <time>2011-04-16T18:40:07Z</time>
      </trkpt>
      <trkpt lat="47.3372" lon="-0.72445">
        <ele>12.63</ele>
        <time>2011-04-16T18:40:12Z</time>
      </trkpt>
      <trkpt lat="47.33727" lon="-0.72454">
        <ele>11.67</ele>
        <time>2011-04-16T18:40:15Z</time>
      </trkpt>
      <trkpt lat="47.33729" lon="-0.72454">
        <ele>11.67</ele>
        <time>2011-04-16T18:40:16Z</time>
      </trkpt>
      <trkpt lat="47.33738" lon="-0.72457">
        <ele>12.63</ele>
        <time>2011-04-16T18:40:19Z</time>
      </trkpt>
      <trkpt lat="47.33746" lon="-0.72447">
        <ele>12.63</ele>
        <time>2011-04-16T18:40:24Z</time>
      </trkpt>
      <trkpt lat="47.33749" lon="-0.7244">
        <ele>13.12</ele>
        <time>2011-04-16T18:40:28Z</time>
      </trkpt>
      <trkpt lat="47.33765" lon="-0.72445">
        <ele>12.63</ele>
        <time>2011-04-16T18:40:35Z</time>
      </trkpt>
      <trkpt lat="47.33775" lon="-0.72453">
        <ele>11.67</ele>
        <time>2011-04-16T18:40:41Z</time>
      </trkpt>
      <trkpt lat="47.33787" lon="-0.72457">
        <ele>10.71</ele>
        <time>2011-04-16T18:40:45Z</time>
      </trkpt>
      <trkpt lat="47.33796" lon="-0.72454">
        <ele>12.63</ele>
        <time>2011-04-16T18:40:51Z</time>
      </trkpt>
      <trkpt lat="47.33797" lon="-0.72443">
        <ele>13.6</ele>
        <time>2011-04-16T18:40:56Z</time>
      </trkpt>
      <trkpt lat="47.338" lon="-0.72429">
        <ele>15.52</ele>
        <time>2011-04-16T18:41:03Z</time>
      </trkpt>
      <trkpt lat="47.33803" lon="-0.72422">
        <ele>18.4</ele>
        <time>2011-04-16T18:41:07Z</time>
      </trkpt>
      <trkpt lat="47.33805" lon="-0.72416">
        <ele>17.92</ele>
        <time>2011-04-16T18:41:10Z</time>
      </trkpt>
      <trkpt lat="47.33806" lon="-0.72409">
        <ele>19.84</ele>
        <time>2011-04-16T18:41:14Z</time>
      </trkpt>
      <trkpt lat="47.3381" lon="-0.72405">
        <ele>19.36</ele>
        <time>2011-04-16T18:41:16Z</time>
      </trkpt>
      <trkpt lat="47.33814" lon="-0.72394">
        <ele>21.77</ele>
        <time>2011-04-16T18:41:22Z</time>
      </trkpt>
      <trkpt lat="47.33817" lon="-0.72389">
        <ele>21.77</ele>
        <time>2011-04-16T18:41:25Z</time>
      </trkpt>
      <trkpt lat="47.33824" lon="-0.72387">
        <ele>22.73</ele>
        <time>2011-04-16T18:41:30Z</time>
      </trkpt>
      <trkpt lat="47.3384" lon="-0.72384">
        <ele>24.17</ele>
        <time>2011-04-16T18:41:38Z</time>
      </trkpt>
      <trkpt lat="47.33845" lon="-0.72384">
        <ele>24.65</ele>
        <time>2011-04-16T18:41:40Z</time>
      </trkpt>
      <trkpt lat="47.33867" lon="-0.72379">
        <ele>24.17</ele>
        <time>2011-04-16T18:41:48Z</time>
      </trkpt>
      <trkpt lat="47.33881" lon="-0.72375">
        <ele>24.17</ele>
        <time>2011-04-16T18:41:54Z</time>
      </trkpt>
      <trkpt lat="47.33883" lon="-0.72377">
        <ele>23.69</ele>
        <time>2011-04-16T18:42:00Z</time>
      </trkpt>
      <trkpt lat="47.33882" lon="-0.72382">
        <ele>23.21</ele>
        <time>2011-04-16T18:42:03Z</time>
      </trkpt>
      <trkpt lat="47.33884" lon="-0.72388">
        <ele>20.32</ele>
        <time>2011-04-16T18:42:10Z</time>
      </trkpt>
      <trkpt lat="47.33884" lon="-0.72394">
        <ele>20.32</ele>
        <time>2011-04-16T18:42:17Z</time>
      </trkpt>
      <trkpt lat="47.33884" lon="-0.72397">
        <ele>19.84</ele>
        <time>2011-04-16T18:42:25Z</time>
      </trkpt>
      <trkpt lat="47.33884" lon="-0.72397">
        <ele>20.32</ele>
        <time>2011-04-16T18:42:55Z</time>
      </trkpt>
      <trkpt lat="47.33883" lon="-0.72397">
        <ele>20.32</ele>
        <time>2011-04-16T18:43:15Z</time>
      </trkpt>
      <trkpt lat="47.33883" lon="-0.72397">
        <ele>19.84</ele>
        <time>2011-04-16T18:43:33Z</time>
      </trkpt>
      <trkpt lat="47.33884" lon="-0.72397">
        <ele>19.84</ele>
        <time>2011-04-16T18:43:52Z</time>
      </trkpt>
      <trkpt lat="47.33884" lon="-0.72397">
        <ele>19.36</ele>
        <time>2011-04-16T18:44:13Z</time>
      </trkpt>
      <trkpt lat="47.33884" lon="-0.72397">
        <ele>19.84</ele>
        <time>2011-04-16T18:44:34Z</time>
      </trkpt>
      <trkpt lat="47.33884" lon="-0.72397">
        <ele>20.81</ele>
        <time>2011-04-16T18:45:24Z</time>
      </trkpt>
      <trkpt lat="47.33883" lon="-0.72397">
        <ele>19.36</ele>
        <time>2011-04-16T18:45:51Z</time>
      </trkpt>
      <trkpt lat="47.33884" lon="-0.72396">
        <ele>19.84</ele>
        <time>2011-04-16T18:46:49Z</time>
      </trkpt>
      <trkpt lat="47.33884" lon="-0.72397">
        <ele>19.84</ele>
        <time>2011-04-16T18:47:38Z</time>
      </trkpt>
      <trkpt lat="47.33884" lon="-0.72396">
        <ele>19.84</ele>
        <time>2011-04-16T18:48:31Z</time>
      </trkpt>
      <trkpt lat="47.33884" lon="-0.72396">
        <ele>20.32</ele>
        <time>2011-04-16T18:49:14Z</time>
      </trkpt>
      <trkpt lat="47.33884" lon="-0.72396">
        <ele>20.32</ele>
        <time>2011-04-16T18:49:58Z</time>
      </trkpt>
      <trkpt lat="47.33884" lon="-0.72396">
        <ele>21.29</ele>
        <time>2011-04-16T18:50:56Z</time>
      </trkpt>
      <trkpt lat="47.33885" lon="-0.72395">
        <ele>20.32</ele>
        <time>2011-04-16T18:51:34Z</time>
      </trkpt>
      <trkpt lat="47.33885" lon="-0.72395">
        <ele>19.84</ele>
        <time>2011-04-16T18:51:46Z</time>
      </trkpt>
      <trkpt lat="47.33885" lon="-0.72396">
        <ele>20.81</ele>
        <time>2011-04-16T18:52:02Z</time>
      </trkpt>
      <trkpt lat="47.33886" lon="-0.72405">
        <ele>19.36</ele>
        <time>2011-04-16T18:52:07Z</time>
      </trkpt>
      <trkpt lat="47.33883" lon="-0.72415">
        <ele>17.92</ele>
        <time>2011-04-16T18:52:09Z</time>
      </trkpt>
      <trkpt lat="47.3387" lon="-0.72455">
        <ele>15.52</ele>
        <time>2011-04-16T18:52:14Z</time>
      </trkpt>
      <trkpt lat="47.33861" lon="-0.72483">
        <ele>12.15</ele>
        <time>2011-04-16T18:52:17Z</time>
      </trkpt>
      <trkpt lat="47.33853" lon="-0.72509">
        <ele>10.23</ele>
        <time>2011-04-16T18:52:22Z</time>
      </trkpt>
      <trkpt lat="47.3385" lon="-0.72511">
        <ele>11.19</ele>
        <time>2011-04-16T18:52:23Z</time>
      </trkpt>
      <trkpt lat="47.33847" lon="-0.72511">
        <ele>9.75</ele>
        <time>2011-04-16T18:52:24Z</time>
      </trkpt>
      <trkpt lat="47.33844" lon="-0.7251">
        <ele>10.23</ele>
        <time>2011-04-16T18:52:25Z</time>
      </trkpt>
      <trkpt lat="47.33841" lon="-0.72509">
        <ele>10.23</ele>
        <time>2011-04-16T18:52:26Z</time>
      </trkpt>
      <trkpt lat="47.33838" lon="-0.72508">
        <ele>9.75</ele>
        <time>2011-04-16T18:52:27Z</time>
      </trkpt>
      <trkpt lat="47.33812" lon="-0.72499">
        <ele>10.23</ele>
        <time>2011-04-16T18:52:34Z</time>
      </trkpt>
      <trkpt lat="47.33808" lon="-0.72498">
        <ele>9.75</ele>
        <time>2011-04-16T18:52:35Z</time>
      </trkpt>
      <trkpt lat="47.33765" lon="-0.72486">
        <ele>10.71</ele>
        <time>2011-04-16T18:52:46Z</time>
      </trkpt>
      <trkpt lat="47.33734" lon="-0.72476">
        <ele>10.23</ele>
        <time>2011-04-16T18:52:54Z</time>
      </trkpt>
      <trkpt lat="47.33719" lon="-0.72469">
        <ele>10.23</ele>
        <time>2011-04-16T18:52:58Z</time>
      </trkpt>
      <trkpt lat="47.33716" lon="-0.72467">
        <ele>10.23</ele>
        <time>2011-04-16T18:52:59Z</time>
      </trkpt>
      <trkpt lat="47.33694" lon="-0.72456">
        <ele>10.23</ele>
        <time>2011-04-16T18:53:05Z</time>
      </trkpt>
      <trkpt lat="47.3366" lon="-0.72439">
        <ele>9.75</ele>
        <time>2011-04-16T18:53:14Z</time>
      </trkpt>
      <trkpt lat="47.33644" lon="-0.72426">
        <ele>10.23</ele>
        <time>2011-04-16T18:53:19Z</time>
      </trkpt>
      <trkpt lat="47.33634" lon="-0.72417">
        <ele>9.75</ele>
        <time>2011-04-16T18:53:22Z</time>
      </trkpt>
      <trkpt lat="47.3363" lon="-0.72415">
        <ele>10.71</ele>
        <time>2011-04-16T18:53:23Z</time>
      </trkpt>
      <trkpt lat="47.33627" lon="-0.72412">
        <ele>10.23</ele>
        <time>2011-04-16T18:53:24Z</time>
      </trkpt>
      <trkpt lat="47.3361" lon="-0.72395">
        <ele>10.71</ele>
        <time>2011-04-16T18:53:29Z</time>
      </trkpt>
      <trkpt lat="47.33607" lon="-0.72392">
        <ele>10.23</ele>
        <time>2011-04-16T18:53:30Z</time>
      </trkpt>
      <trkpt lat="47.33604" lon="-0.72388">
        <ele>10.23</ele>
        <time>2011-04-16T18:53:31Z</time>
      </trkpt>
      <trkpt lat="47.33601" lon="-0.72384">
        <ele>9.75</ele>
        <time>2011-04-16T18:53:32Z</time>
      </trkpt>
      <trkpt lat="47.33598" lon="-0.7238">
        <ele>9.27</ele>
        <time>2011-04-16T18:53:33Z</time>
      </trkpt>
      <trkpt lat="47.33596" lon="-0.72375">
        <ele>10.71</ele>
        <time>2011-04-16T18:53:34Z</time>
      </trkpt>
      <trkpt lat="47.33584" lon="-0.72344">
        <ele>10.71</ele>
        <time>2011-04-16T18:53:40Z</time>
      </trkpt>
      <trkpt lat="47.33573" lon="-0.72312">
        <ele>10.23</ele>
        <time>2011-04-16T18:53:47Z</time>
      </trkpt>
      <trkpt lat="47.3357" lon="-0.72312">
        <ele>10.23</ele>
        <time>2011-04-16T18:53:48Z</time>
      </trkpt>
      <trkpt lat="47.33566" lon="-0.72313">
        <ele>9.75</ele>
        <time>2011-04-16T18:53:49Z</time>
      </trkpt>
      <trkpt lat="47.33539" lon="-0.72324">
        <ele>9.75</ele>
        <time>2011-04-16T18:53:55Z</time>
      </trkpt>
      <trkpt lat="47.33521" lon="-0.72334">
        <ele>8.79</ele>
        <time>2011-04-16T18:54:00Z</time>
      </trkpt>
      <trkpt lat="47.33498" lon="-0.72346">
        <ele>9.27</ele>
        <time>2011-04-16T18:54:06Z</time>
      </trkpt>
      <trkpt lat="47.33475" lon="-0.7236">
        <ele>8.79</ele>
        <time>2011-04-16T18:54:12Z</time>
      </trkpt>
      <trkpt lat="47.3346" lon="-0.72368">
        <ele>8.79</ele>
        <time>2011-04-16T18:54:17Z</time>
      </trkpt>
      <trkpt lat="47.33455" lon="-0.7237">
        <ele>9.27</ele>
        <time>2011-04-16T18:54:19Z</time>
      </trkpt>
      <trkpt lat="47.33453" lon="-0.72373">
        <ele>10.23</ele>
        <time>2011-04-16T18:54:20Z</time>
      </trkpt>
      <trkpt lat="47.33451" lon="-0.72376">
        <ele>9.75</ele>
        <time>2011-04-16T18:54:21Z</time>
      </trkpt>
      <trkpt lat="47.33449" lon="-0.72379">
        <ele>9.75</ele>
        <time>2011-04-16T18:54:22Z</time>
      </trkpt>
      <trkpt lat="47.33448" lon="-0.72381">
        <ele>10.71</ele>
        <time>2011-04-16T18:54:23Z</time>
      </trkpt>
      <trkpt lat="47.33446" lon="-0.72385">
        <ele>10.23</ele>
        <time>2011-04-16T18:54:24Z</time>
      </trkpt>
      <trkpt lat="47.33444" lon="-0.72388">
        <ele>9.75</ele>
        <time>2011-04-16T18:54:25Z</time>
      </trkpt>
      <trkpt lat="47.33443" lon="-0.7239">
        <ele>11.19</ele>
        <time>2011-04-16T18:54:26Z</time>
      </trkpt>
      <trkpt lat="47.33442" lon="-0.72393">
        <ele>10.23</ele>
        <time>2011-04-16T18:54:27Z</time>
      </trkpt>
      <trkpt lat="47.3344" lon="-0.72396">
        <ele>10.23</ele>
        <time>2011-04-16T18:54:28Z</time>
      </trkpt>
      <trkpt lat="47.33439" lon="-0.72398">
        <ele>10.23</ele>
        <time>2011-04-16T18:54:29Z</time>
      </trkpt>
      <trkpt lat="47.33436" lon="-0.72405">
        <ele>10.71</ele>
        <time>2011-04-16T18:54:31Z</time>
      </trkpt>
      <trkpt lat="47.3342" lon="-0.72434">
        <ele>11.19</ele>
        <time>2011-04-16T18:54:37Z</time>
      </trkpt>
      <trkpt lat="47.33418" lon="-0.72439">
        <ele>10.71</ele>
        <time>2011-04-16T18:54:38Z</time>
      </trkpt>
      <trkpt lat="47.33416" lon="-0.72444">
        <ele>10.71</ele>
        <time>2011-04-16T18:54:39Z</time>
      </trkpt>
      <trkpt lat="47.33413" lon="-0.72448">
        <ele>10.23</ele>
        <time>2011-04-16T18:54:40Z</time>
      </trkpt>
      <trkpt lat="47.3341" lon="-0.72452">
        <ele>10.71</ele>
        <time>2011-04-16T18:54:41Z</time>
      </trkpt>
      <trkpt lat="47.33407" lon="-0.72456">
        <ele>10.71</ele>
        <time>2011-04-16T18:54:42Z</time>
      </trkpt>
      <trkpt lat="47.33395" lon="-0.72473">
        <ele>11.19</ele>
        <time>2011-04-16T18:54:47Z</time>
      </trkpt>
      <trkpt lat="47.33394" lon="-0.72476">
        <ele>11.19</ele>
        <time>2011-04-16T18:54:48Z</time>
      </trkpt>
      <trkpt lat="47.33393" lon="-0.7248">
        <ele>11.19</ele>
        <time>2011-04-16T18:54:49Z</time>
      </trkpt>
      <trkpt lat="47.33394" lon="-0.72484">
        <ele>12.15</ele>
        <time>2011-04-16T18:54:50Z</time>
      </trkpt>
      <trkpt lat="47.33394" lon="-0.72488">
        <ele>11.67</ele>
        <time>2011-04-16T18:54:51Z</time>
      </trkpt>
      <trkpt lat="47.33393" lon="-0.72498">
        <ele>11.67</ele>
        <time>2011-04-16T18:54:54Z</time>
      </trkpt>
      <trkpt lat="47.33392" lon="-0.725">
        <ele>11.67</ele>
        <time>2011-04-16T18:54:55Z</time>
      </trkpt>
      <trkpt lat="47.33389" lon="-0.72501">
        <ele>11.67</ele>
        <time>2011-04-16T18:54:57Z</time>
      </trkpt>
      <trkpt lat="47.33387" lon="-0.72501">
        <ele>11.67</ele>
        <time>2011-04-16T18:54:58Z</time>
      </trkpt>
      <trkpt lat="47.33383" lon="-0.72501">
        <ele>11.67</ele>
        <time>2011-04-16T18:54:59Z</time>
      </trkpt>
      <trkpt lat="47.3338" lon="-0.72502">
        <ele>12.15</ele>
        <time>2011-04-16T18:55:00Z</time>
      </trkpt>
      <trkpt lat="47.33378" lon="-0.72504">
        <ele>11.67</ele>
        <time>2011-04-16T18:55:01Z</time>
      </trkpt>
      <trkpt lat="47.33376" lon="-0.72507">
        <ele>12.15</ele>
        <time>2011-04-16T18:55:02Z</time>
      </trkpt>
      <trkpt lat="47.33374" lon="-0.7251">
        <ele>12.63</ele>
        <time>2011-04-16T18:55:03Z</time>
      </trkpt>
      <trkpt lat="47.33374" lon="-0.72514">
        <ele>12.15</ele>
        <time>2011-04-16T18:55:04Z</time>
      </trkpt>
      <trkpt lat="47.33374" lon="-0.72519">
        <ele>12.63</ele>
        <time>2011-04-16T18:55:05Z</time>
      </trkpt>
      <trkpt lat="47.33374" lon="-0.72524">
        <ele>13.12</ele>
        <time>2011-04-16T18:55:06Z</time>
      </trkpt>
      <trkpt lat="47.33375" lon="-0.72529">
        <ele>13.12</ele>
        <time>2011-04-16T18:55:07Z</time>
      </trkpt>
      <trkpt lat="47.33383" lon="-0.72561">
        <ele>13.12</ele>
        <time>2011-04-16T18:55:14Z</time>
      </trkpt>
      <trkpt lat="47.33394" lon="-0.72593">
        <ele>13.6</ele>
        <time>2011-04-16T18:55:22Z</time>
      </trkpt>
      <trkpt lat="47.33404" lon="-0.7262">
        <ele>14.08</ele>
        <time>2011-04-16T18:55:29Z</time>
      </trkpt>
      <trkpt lat="47.33412" lon="-0.72648">
        <ele>15.04</ele>
        <time>2011-04-16T18:55:35Z</time>
      </trkpt>
      <trkpt lat="47.33413" lon="-0.72654">
        <ele>14.56</ele>
        <time>2011-04-16T18:55:37Z</time>
      </trkpt>
      <trkpt lat="47.33414" lon="-0.72659">
        <ele>14.56</ele>
        <time>2011-04-16T18:55:38Z</time>
      </trkpt>
      <trkpt lat="47.33416" lon="-0.72663">
        <ele>15.04</ele>
        <time>2011-04-16T18:55:39Z</time>
      </trkpt>
      <trkpt lat="47.33417" lon="-0.72667">
        <ele>14.56</ele>
        <time>2011-04-16T18:55:40Z</time>
      </trkpt>
      <trkpt lat="47.33418" lon="-0.72672">
        <ele>15.04</ele>
        <time>2011-04-16T18:55:41Z</time>
      </trkpt>
      <trkpt lat="47.33419" lon="-0.72675">
        <ele>15.52</ele>
        <time>2011-04-16T18:55:42Z</time>
      </trkpt>
      <trkpt lat="47.3342" lon="-0.72679">
        <ele>13.6</ele>
        <time>2011-04-16T18:55:43Z</time>
      </trkpt>
      <trkpt lat="47.33422" lon="-0.72692">
        <ele>15.04</ele>
        <time>2011-04-16T18:55:46Z</time>
      </trkpt>
      <trkpt lat="47.33425" lon="-0.72697">
        <ele>15.04</ele>
        <time>2011-04-16T18:55:47Z</time>
      </trkpt>
      <trkpt lat="47.33426" lon="-0.72702">
        <ele>15.04</ele>
        <time>2011-04-16T18:55:48Z</time>
      </trkpt>
      <trkpt lat="47.33428" lon="-0.72706">
        <ele>15.04</ele>
        <time>2011-04-16T18:55:49Z</time>
      </trkpt>
      <trkpt lat="47.3343" lon="-0.72711">
        <ele>15.52</ele>
        <time>2011-04-16T18:55:50Z</time>
      </trkpt>
      <trkpt lat="47.33432" lon="-0.72717">
        <ele>15.04</ele>
        <time>2011-04-16T18:55:51Z</time>
      </trkpt>
      <trkpt lat="47.3344" lon="-0.72742">
        <ele>16.96</ele>
        <time>2011-04-16T18:55:56Z</time>
      </trkpt>
      <trkpt lat="47.33442" lon="-0.72745">
        <ele>16</ele>
        <time>2011-04-16T18:55:57Z</time>
      </trkpt>
      <trkpt lat="47.33444" lon="-0.72748">
        <ele>16</ele>
        <time>2011-04-16T18:55:58Z</time>
      </trkpt>
      <trkpt lat="47.33447" lon="-0.72752">
        <ele>15.52</ele>
        <time>2011-04-16T18:55:59Z</time>
      </trkpt>
      <trkpt lat="47.33449" lon="-0.72757">
        <ele>15.52</ele>
        <time>2011-04-16T18:56:00Z</time>
      </trkpt>
      <trkpt lat="47.33451" lon="-0.72763">
        <ele>16</ele>
        <time>2011-04-16T18:56:01Z</time>
      </trkpt>
      <trkpt lat="47.33453" lon="-0.72768">
        <ele>15.04</ele>
        <time>2011-04-16T18:56:02Z</time>
      </trkpt>
      <trkpt lat="47.33455" lon="-0.72775">
        <ele>15.04</ele>
        <time>2011-04-16T18:56:03Z</time>
      </trkpt>
      <trkpt lat="47.33458" lon="-0.72781">
        <ele>16</ele>
        <time>2011-04-16T18:56:04Z</time>
      </trkpt>
      <trkpt lat="47.3346" lon="-0.72787">
        <ele>15.52</ele>
        <time>2011-04-16T18:56:05Z</time>
      </trkpt>
      <trkpt lat="47.33475" lon="-0.7282">
        <ele>15.52</ele>
        <time>2011-04-16T18:56:11Z</time>
      </trkpt>
      <trkpt lat="47.33491" lon="-0.72854">
        <ele>15.52</ele>
        <time>2011-04-16T18:56:17Z</time>
      </trkpt>
      <trkpt lat="47.33493" lon="-0.7286">
        <ele>14.08</ele>
        <time>2011-04-16T18:56:18Z</time>
      </trkpt>
      <trkpt lat="47.33494" lon="-0.72866">
        <ele>14.08</ele>
        <time>2011-04-16T18:56:19Z</time>
      </trkpt>
      <trkpt lat="47.33495" lon="-0.72872">
        <ele>14.08</ele>
        <time>2011-04-16T18:56:20Z</time>
      </trkpt>
      <trkpt lat="47.33496" lon="-0.72878">
        <ele>15.04</ele>
        <time>2011-04-16T18:56:21Z</time>
      </trkpt>
      <trkpt lat="47.33497" lon="-0.72884">
        <ele>15.04</ele>
        <time>2011-04-16T18:56:22Z</time>
      </trkpt>
      <trkpt lat="47.33498" lon="-0.72889">
        <ele>14.56</ele>
        <time>2011-04-16T18:56:23Z</time>
      </trkpt>
      <trkpt lat="47.33499" lon="-0.72919">
        <ele>14.56</ele>
        <time>2011-04-16T18:56:28Z</time>
      </trkpt>
      <trkpt lat="47.33487" lon="-0.72956">
        <ele>16.48</ele>
        <time>2011-04-16T18:56:36Z</time>
      </trkpt>
      <trkpt lat="47.33476" lon="-0.72981">
        <ele>17.92</ele>
        <time>2011-04-16T18:56:42Z</time>
      </trkpt>
      <trkpt lat="47.33462" lon="-0.73009">
        <ele>19.36</ele>
        <time>2011-04-16T18:56:50Z</time>
      </trkpt>
      <trkpt lat="47.3345" lon="-0.73034">
        <ele>19.84</ele>
        <time>2011-04-16T18:56:57Z</time>
      </trkpt>
      <trkpt lat="47.33439" lon="-0.7306">
        <ele>20.81</ele>
        <time>2011-04-16T18:57:04Z</time>
      </trkpt>
      <trkpt lat="47.33421" lon="-0.73105">
        <ele>21.77</ele>
        <time>2011-04-16T18:57:14Z</time>
      </trkpt>
      <trkpt lat="47.33412" lon="-0.73123">
        <ele>22.25</ele>
        <time>2011-04-16T18:57:20Z</time>
      </trkpt>
      <trkpt lat="47.33391" lon="-0.73146">
        <ele>21.77</ele>
        <time>2011-04-16T18:57:28Z</time>
      </trkpt>
      <trkpt lat="47.33371" lon="-0.73163">
        <ele>21.77</ele>
        <time>2011-04-16T18:57:34Z</time>
      </trkpt>
      <trkpt lat="47.33346" lon="-0.73185">
        <ele>19.84</ele>
        <time>2011-04-16T18:57:40Z</time>
      </trkpt>
      <trkpt lat="47.33327" lon="-0.73207">
        <ele>17.44</ele>
        <time>2011-04-16T18:57:44Z</time>
      </trkpt>
      <trkpt lat="47.33294" lon="-0.73258">
        <ele>15.52</ele>
        <time>2011-04-16T18:57:51Z</time>
      </trkpt>
      <trkpt lat="47.33257" lon="-0.73303">
        <ele>13.6</ele>
        <time>2011-04-16T18:57:58Z</time>
      </trkpt>
      <trkpt lat="47.33234" lon="-0.73323">
        <ele>13.6</ele>
        <time>2011-04-16T18:58:02Z</time>
      </trkpt>
      <trkpt lat="47.33222" lon="-0.73331">
        <ele>13.6</ele>
        <time>2011-04-16T18:58:04Z</time>
      </trkpt>
      <trkpt lat="47.33206" lon="-0.73345">
        <ele>12.15</ele>
        <time>2011-04-16T18:58:07Z</time>
      </trkpt>
      <trkpt lat="47.33195" lon="-0.73353">
        <ele>12.15</ele>
        <time>2011-04-16T18:58:09Z</time>
      </trkpt>
      <trkpt lat="47.33161" lon="-0.73384">
        <ele>10.23</ele>
        <time>2011-04-16T18:58:16Z</time>
      </trkpt>
      <trkpt lat="47.33157" lon="-0.73389">
        <ele>10.71</ele>
        <time>2011-04-16T18:58:17Z</time>
      </trkpt>
      <trkpt lat="47.3315" lon="-0.73401">
        <ele>10.23</ele>
        <time>2011-04-16T18:58:19Z</time>
      </trkpt>
      <trkpt lat="47.33147" lon="-0.73407">
        <ele>9.75</ele>
        <time>2011-04-16T18:58:20Z</time>
      </trkpt>
      <trkpt lat="47.33138" lon="-0.73425">
        <ele>9.27</ele>
        <time>2011-04-16T18:58:23Z</time>
      </trkpt>
      <trkpt lat="47.3313" lon="-0.73442">
        <ele>10.23</ele>
        <time>2011-04-16T18:58:26Z</time>
      </trkpt>
      <trkpt lat="47.33127" lon="-0.73447">
        <ele>10.71</ele>
        <time>2011-04-16T18:58:27Z</time>
      </trkpt>
      <trkpt lat="47.33123" lon="-0.73452">
        <ele>9.75</ele>
        <time>2011-04-16T18:58:28Z</time>
      </trkpt>
      <trkpt lat="47.33119" lon="-0.73456">
        <ele>8.79</ele>
        <time>2011-04-16T18:58:29Z</time>
      </trkpt>
      <trkpt lat="47.33115" lon="-0.7346">
        <ele>9.75</ele>
        <time>2011-04-16T18:58:30Z</time>
      </trkpt>
      <trkpt lat="47.3311" lon="-0.73464">
        <ele>9.75</ele>
        <time>2011-04-16T18:58:31Z</time>
      </trkpt>
      <trkpt lat="47.33106" lon="-0.73466">
        <ele>10.71</ele>
        <time>2011-04-16T18:58:32Z</time>
      </trkpt>
      <trkpt lat="47.33101" lon="-0.73468">
        <ele>9.27</ele>
        <time>2011-04-16T18:58:33Z</time>
      </trkpt>
      <trkpt lat="47.33061" lon="-0.73476">
        <ele>8.31</ele>
        <time>2011-04-16T18:58:41Z</time>
      </trkpt>
      <trkpt lat="47.33041" lon="-0.7348">
        <ele>9.27</ele>
        <time>2011-04-16T18:58:45Z</time>
      </trkpt>
      <trkpt lat="47.32997" lon="-0.7349">
        <ele>8.79</ele>
        <time>2011-04-16T18:58:54Z</time>
      </trkpt>
      <trkpt lat="47.32992" lon="-0.73492">
        <ele>9.27</ele>
        <time>2011-04-16T18:58:55Z</time>
      </trkpt>
      <trkpt lat="47.32969" lon="-0.73505">
        <ele>9.27</ele>
        <time>2011-04-16T18:59:00Z</time>
      </trkpt>
      <trkpt lat="47.32929" lon="-0.7353">
        <ele>9.75</ele>
        <time>2011-04-16T18:59:09Z</time>
      </trkpt>
      <trkpt lat="47.32893" lon="-0.73548">
        <ele>10.23</ele>
        <time>2011-04-16T18:59:17Z</time>
      </trkpt>
      <trkpt lat="47.32854" lon="-0.73566">
        <ele>10.23</ele>
        <time>2011-04-16T18:59:26Z</time>
      </trkpt>
      <trkpt lat="47.32811" lon="-0.73583">
        <ele>11.19</ele>
        <time>2011-04-16T18:59:36Z</time>
      </trkpt>
      <trkpt lat="47.32776" lon="-0.73596">
        <ele>11.67</ele>
        <time>2011-04-16T18:59:44Z</time>
      </trkpt>
      <trkpt lat="47.32747" lon="-0.73595">
        <ele>13.12</ele>
        <time>2011-04-16T18:59:52Z</time>
      </trkpt>
      <trkpt lat="47.32719" lon="-0.73596">
        <ele>14.56</ele>
        <time>2011-04-16T19:00:00Z</time>
      </trkpt>
      <trkpt lat="47.32714" lon="-0.73598">
        <ele>14.56</ele>
        <time>2011-04-16T19:00:01Z</time>
      </trkpt>
      <trkpt lat="47.32711" lon="-0.736">
        <ele>14.08</ele>
        <time>2011-04-16T19:00:02Z</time>
      </trkpt>
      <trkpt lat="47.32707" lon="-0.73604">
        <ele>14.08</ele>
        <time>2011-04-16T19:00:03Z</time>
      </trkpt>
      <trkpt lat="47.32703" lon="-0.73608">
        <ele>14.08</ele>
        <time>2011-04-16T19:00:04Z</time>
      </trkpt>
      <trkpt lat="47.327" lon="-0.73612">
        <ele>13.6</ele>
        <time>2011-04-16T19:00:05Z</time>
      </trkpt>
      <trkpt lat="47.32665" lon="-0.73662">
        <ele>13.12</ele>
        <time>2011-04-16T19:00:16Z</time>
      </trkpt>
      <trkpt lat="47.32651" lon="-0.73684">
        <ele>13.6</ele>
        <time>2011-04-16T19:00:21Z</time>
      </trkpt>
      <trkpt lat="47.32648" lon="-0.73688">
        <ele>13.6</ele>
        <time>2011-04-16T19:00:22Z</time>
      </trkpt>
      <trkpt lat="47.32645" lon="-0.73692">
        <ele>14.08</ele>
        <time>2011-04-16T19:00:23Z</time>
      </trkpt>
      <trkpt lat="47.32621" lon="-0.73728">
        <ele>13.12</ele>
        <time>2011-04-16T19:00:31Z</time>
      </trkpt>
      <trkpt lat="47.32603" lon="-0.73754">
        <ele>13.12</ele>
        <time>2011-04-16T19:00:36Z</time>
      </trkpt>
      <trkpt lat="47.32568" lon="-0.73806">
        <ele>13.12</ele>
        <time>2011-04-16T19:00:45Z</time>
      </trkpt>
      <trkpt lat="47.32549" lon="-0.73843">
        <ele>13.12</ele>
        <time>2011-04-16T19:00:51Z</time>
      </trkpt>
      <trkpt lat="47.32546" lon="-0.7385">
        <ele>12.63</ele>
        <time>2011-04-16T19:00:52Z</time>
      </trkpt>
      <trkpt lat="47.32543" lon="-0.73857">
        <ele>12.63</ele>
        <time>2011-04-16T19:00:53Z</time>
      </trkpt>
      <trkpt lat="47.32542" lon="-0.73864">
        <ele>12.63</ele>
        <time>2011-04-16T19:00:54Z</time>
      </trkpt>
      <trkpt lat="47.3254" lon="-0.73871">
        <ele>12.63</ele>
        <time>2011-04-16T19:00:55Z</time>
      </trkpt>
      <trkpt lat="47.32538" lon="-0.73878">
        <ele>12.15</ele>
        <time>2011-04-16T19:00:56Z</time>
      </trkpt>
      <trkpt lat="47.32527" lon="-0.73915">
        <ele>13.6</ele>
        <time>2011-04-16T19:01:01Z</time>
      </trkpt>
      <trkpt lat="47.32525" lon="-0.73922">
        <ele>12.63</ele>
        <time>2011-04-16T19:01:02Z</time>
      </trkpt>
      <trkpt lat="47.32522" lon="-0.73929">
        <ele>13.6</ele>
        <time>2011-04-16T19:01:03Z</time>
      </trkpt>
      <trkpt lat="47.32506" lon="-0.73986">
        <ele>13.12</ele>
        <time>2011-04-16T19:01:11Z</time>
      </trkpt>
      <trkpt lat="47.32504" lon="-0.73992">
        <ele>13.12</ele>
        <time>2011-04-16T19:01:12Z</time>
      </trkpt>
      <trkpt lat="47.32502" lon="-0.73998">
        <ele>12.15</ele>
        <time>2011-04-16T19:01:13Z</time>
      </trkpt>
      <trkpt lat="47.32501" lon="-0.74004">
        <ele>12.15</ele>
        <time>2011-04-16T19:01:14Z</time>
      </trkpt>
      <trkpt lat="47.325" lon="-0.7401">
        <ele>12.63</ele>
        <time>2011-04-16T19:01:15Z</time>
      </trkpt>
      <trkpt lat="47.32499" lon="-0.74015">
        <ele>12.63</ele>
        <time>2011-04-16T19:01:16Z</time>
      </trkpt>
      <trkpt lat="47.32498" lon="-0.7402">
        <ele>12.63</ele>
        <time>2011-04-16T19:01:17Z</time>
      </trkpt>
      <trkpt lat="47.32498" lon="-0.74025">
        <ele>13.12</ele>
        <time>2011-04-16T19:01:18Z</time>
      </trkpt>
      <trkpt lat="47.32497" lon="-0.7403">
        <ele>14.08</ele>
        <time>2011-04-16T19:01:19Z</time>
      </trkpt>
      <trkpt lat="47.32496" lon="-0.74035">
        <ele>13.6</ele>
        <time>2011-04-16T19:01:20Z</time>
      </trkpt>
      <trkpt lat="47.32496" lon="-0.7404">
        <ele>13.12</ele>
        <time>2011-04-16T19:01:21Z</time>
      </trkpt>
      <trkpt lat="47.32496" lon="-0.74046">
        <ele>13.12</ele>
        <time>2011-04-16T19:01:22Z</time>
      </trkpt>
      <trkpt lat="47.32497" lon="-0.74052">
        <ele>12.15</ele>
        <time>2011-04-16T19:01:23Z</time>
      </trkpt>
      <trkpt lat="47.32501" lon="-0.74056">
        <ele>12.63</ele>
        <time>2011-04-16T19:01:24Z</time>
      </trkpt>
      <trkpt lat="47.32506" lon="-0.7406">
        <ele>11.67</ele>
        <time>2011-04-16T19:01:25Z</time>
      </trkpt>
      <trkpt lat="47.3251" lon="-0.74064">
        <ele>11.67</ele>
        <time>2011-04-16T19:01:26Z</time>
      </trkpt>
      <trkpt lat="47.32515" lon="-0.74068">
        <ele>11.19</ele>
        <time>2011-04-16T19:01:27Z</time>
      </trkpt>
      <trkpt lat="47.32519" lon="-0.74074">
        <ele>11.19</ele>
        <time>2011-04-16T19:01:28Z</time>
      </trkpt>
      <trkpt lat="47.32522" lon="-0.74081">
        <ele>11.19</ele>
        <time>2011-04-16T19:01:29Z</time>
      </trkpt>
      <trkpt lat="47.32524" lon="-0.74089">
        <ele>10.71</ele>
        <time>2011-04-16T19:01:30Z</time>
      </trkpt>
      <trkpt lat="47.32526" lon="-0.74097">
        <ele>11.19</ele>
        <time>2011-04-16T19:01:31Z</time>
      </trkpt>
      <trkpt lat="47.32528" lon="-0.74105">
        <ele>10.23</ele>
        <time>2011-04-16T19:01:32Z</time>
      </trkpt>
      <trkpt lat="47.32541" lon="-0.74174">
        <ele>10.71</ele>
        <time>2011-04-16T19:01:40Z</time>
      </trkpt>
      <trkpt lat="47.32554" lon="-0.74248">
        <ele>10.71</ele>
        <time>2011-04-16T19:01:49Z</time>
      </trkpt>
      <trkpt lat="47.32557" lon="-0.74289">
        <ele>10.71</ele>
        <time>2011-04-16T19:01:54Z</time>
      </trkpt>
      <trkpt lat="47.32557" lon="-0.7433">
        <ele>10.71</ele>
        <time>2011-04-16T19:01:59Z</time>
      </trkpt>
      <trkpt lat="47.32557" lon="-0.74338">
        <ele>11.19</ele>
        <time>2011-04-16T19:02:00Z</time>
      </trkpt>
      <trkpt lat="47.32557" lon="-0.74346">
        <ele>10.71</ele>
        <time>2011-04-16T19:02:01Z</time>
      </trkpt>
      <trkpt lat="47.32556" lon="-0.74361">
        <ele>10.71</ele>
        <time>2011-04-16T19:02:03Z</time>
      </trkpt>
      <trkpt lat="47.32555" lon="-0.74376">
        <ele>11.19</ele>
        <time>2011-04-16T19:02:05Z</time>
      </trkpt>
      <trkpt lat="47.32543" lon="-0.74436">
        <ele>10.71</ele>
        <time>2011-04-16T19:02:13Z</time>
      </trkpt>
      <trkpt lat="47.32531" lon="-0.74479">
        <ele>11.67</ele>
        <time>2011-04-16T19:02:19Z</time>
      </trkpt>
      <trkpt lat="47.3251" lon="-0.74532">
        <ele>10.71</ele>
        <time>2011-04-16T19:02:27Z</time>
      </trkpt>
      <trkpt lat="47.32508" lon="-0.74538">
        <ele>11.67</ele>
        <time>2011-04-16T19:02:28Z</time>
      </trkpt>
      <trkpt lat="47.32506" lon="-0.74544">
        <ele>11.19</ele>
        <time>2011-04-16T19:02:29Z</time>
      </trkpt>
      <trkpt lat="47.32503" lon="-0.7455">
        <ele>11.67</ele>
        <time>2011-04-16T19:02:30Z</time>
      </trkpt>
      <trkpt lat="47.32489" lon="-0.74593">
        <ele>11.19</ele>
        <time>2011-04-16T19:02:37Z</time>
      </trkpt>
      <trkpt lat="47.32485" lon="-0.74598">
        <ele>11.19</ele>
        <time>2011-04-16T19:02:38Z</time>
      </trkpt>
      <trkpt lat="47.32481" lon="-0.74604">
        <ele>11.67</ele>
        <time>2011-04-16T19:02:39Z</time>
      </trkpt>
      <trkpt lat="47.32478" lon="-0.74609">
        <ele>11.67</ele>
        <time>2011-04-16T19:02:40Z</time>
      </trkpt>
      <trkpt lat="47.32474" lon="-0.74614">
        <ele>11.19</ele>
        <time>2011-04-16T19:02:41Z</time>
      </trkpt>
      <trkpt lat="47.3247" lon="-0.74619">
        <ele>10.71</ele>
        <time>2011-04-16T19:02:42Z</time>
      </trkpt>
      <trkpt lat="47.32465" lon="-0.74624">
        <ele>11.19</ele>
        <time>2011-04-16T19:02:43Z</time>
      </trkpt>
      <trkpt lat="47.32436" lon="-0.74658">
        <ele>12.63</ele>
        <time>2011-04-16T19:02:50Z</time>
      </trkpt>
      <trkpt lat="47.32417" lon="-0.7468">
        <ele>14.08</ele>
        <time>2011-04-16T19:02:56Z</time>
      </trkpt>
      <trkpt lat="47.32402" lon="-0.74702">
        <ele>13.12</ele>
        <time>2011-04-16T19:03:01Z</time>
      </trkpt>
      <trkpt lat="47.32399" lon="-0.74707">
        <ele>13.6</ele>
        <time>2011-04-16T19:03:02Z</time>
      </trkpt>
      <trkpt lat="47.32396" lon="-0.74711">
        <ele>14.08</ele>
        <time>2011-04-16T19:03:03Z</time>
      </trkpt>
      <trkpt lat="47.32365" lon="-0.74752">
        <ele>13.12</ele>
        <time>2011-04-16T19:03:11Z</time>
      </trkpt>
      <trkpt lat="47.32345" lon="-0.74777">
        <ele>13.6</ele>
        <time>2011-04-16T19:03:16Z</time>
      </trkpt>
      <trkpt lat="47.32339" lon="-0.74789">
        <ele>14.56</ele>
        <time>2011-04-16T19:03:18Z</time>
      </trkpt>
      <trkpt lat="47.32318" lon="-0.74837">
        <ele>13.6</ele>
        <time>2011-04-16T19:03:25Z</time>
      </trkpt>
      <trkpt lat="47.32314" lon="-0.74844">
        <ele>12.63</ele>
        <time>2011-04-16T19:03:26Z</time>
      </trkpt>
      <trkpt lat="47.32307" lon="-0.74857">
        <ele>13.12</ele>
        <time>2011-04-16T19:03:28Z</time>
      </trkpt>
      <trkpt lat="47.32299" lon="-0.74869">
        <ele>13.12</ele>
        <time>2011-04-16T19:03:30Z</time>
      </trkpt>
      <trkpt lat="47.32292" lon="-0.74879">
        <ele>13.6</ele>
        <time>2011-04-16T19:03:32Z</time>
      </trkpt>
      <trkpt lat="47.32285" lon="-0.74888">
        <ele>13.6</ele>
        <time>2011-04-16T19:03:34Z</time>
      </trkpt>
      <trkpt lat="47.32269" lon="-0.74906">
        <ele>13.6</ele>
        <time>2011-04-16T19:03:38Z</time>
      </trkpt>
      <trkpt lat="47.3226" lon="-0.74915">
        <ele>13.6</ele>
        <time>2011-04-16T19:03:40Z</time>
      </trkpt>
      <trkpt lat="47.32231" lon="-0.74949">
        <ele>12.63</ele>
        <time>2011-04-16T19:03:47Z</time>
      </trkpt>
      <trkpt lat="47.32205" lon="-0.74986">
        <ele>13.12</ele>
        <time>2011-04-16T19:03:54Z</time>
      </trkpt>
      <trkpt lat="47.32203" lon="-0.74993">
        <ele>12.63</ele>
        <time>2011-04-16T19:03:55Z</time>
      </trkpt>
      <trkpt lat="47.32199" lon="-0.75009">
        <ele>14.08</ele>
        <time>2011-04-16T19:03:57Z</time>
      </trkpt>
      <trkpt lat="47.32199" lon="-0.75017">
        <ele>14.08</ele>
        <time>2011-04-16T19:03:58Z</time>
      </trkpt>
      <trkpt lat="47.322" lon="-0.75025">
        <ele>14.08</ele>
        <time>2011-04-16T19:03:59Z</time>
      </trkpt>
      <trkpt lat="47.32201" lon="-0.75032">
        <ele>14.08</ele>
        <time>2011-04-16T19:04:00Z</time>
      </trkpt>
      <trkpt lat="47.32203" lon="-0.75039">
        <ele>13.12</ele>
        <time>2011-04-16T19:04:01Z</time>
      </trkpt>
      <trkpt lat="47.32206" lon="-0.75046">
        <ele>13.12</ele>
        <time>2011-04-16T19:04:02Z</time>
      </trkpt>
      <trkpt lat="47.32209" lon="-0.75052">
        <ele>13.6</ele>
        <time>2011-04-16T19:04:03Z</time>
      </trkpt>
      <trkpt lat="47.32215" lon="-0.75065">
        <ele>13.12</ele>
        <time>2011-04-16T19:04:05Z</time>
      </trkpt>
      <trkpt lat="47.32237" lon="-0.75123">
        <ele>12.15</ele>
        <time>2011-04-16T19:04:13Z</time>
      </trkpt>
      <trkpt lat="47.32241" lon="-0.75129">
        <ele>12.15</ele>
        <time>2011-04-16T19:04:14Z</time>
      </trkpt>
      <trkpt lat="47.32245" lon="-0.75134">
        <ele>11.67</ele>
        <time>2011-04-16T19:04:15Z</time>
      </trkpt>
      <trkpt lat="47.32249" lon="-0.75138">
        <ele>11.67</ele>
        <time>2011-04-16T19:04:16Z</time>
      </trkpt>
      <trkpt lat="47.32253" lon="-0.7514">
        <ele>12.15</ele>
        <time>2011-04-16T19:04:17Z</time>
      </trkpt>
      <trkpt lat="47.32258" lon="-0.75143">
        <ele>11.67</ele>
        <time>2011-04-16T19:04:18Z</time>
      </trkpt>
      <trkpt lat="47.32264" lon="-0.75145">
        <ele>11.19</ele>
        <time>2011-04-16T19:04:19Z</time>
      </trkpt>
      <trkpt lat="47.32274" lon="-0.75148">
        <ele>11.67</ele>
        <time>2011-04-16T19:04:21Z</time>
      </trkpt>
      <trkpt lat="47.32279" lon="-0.75151">
        <ele>11.67</ele>
        <time>2011-04-16T19:04:22Z</time>
      </trkpt>
      <trkpt lat="47.32284" lon="-0.75155">
        <ele>11.67</ele>
        <time>2011-04-16T19:04:23Z</time>
      </trkpt>
      <trkpt lat="47.32298" lon="-0.75165">
        <ele>12.15</ele>
        <time>2011-04-16T19:04:26Z</time>
      </trkpt>
      <trkpt lat="47.32303" lon="-0.75168">
        <ele>12.63</ele>
        <time>2011-04-16T19:04:27Z</time>
      </trkpt>
      <trkpt lat="47.32307" lon="-0.75171">
        <ele>11.67</ele>
        <time>2011-04-16T19:04:28Z</time>
      </trkpt>
      <trkpt lat="47.32311" lon="-0.75174">
        <ele>13.12</ele>
        <time>2011-04-16T19:04:29Z</time>
      </trkpt>
      <trkpt lat="47.32316" lon="-0.75176">
        <ele>14.08</ele>
        <time>2011-04-16T19:04:30Z</time>
      </trkpt>
      <trkpt lat="47.3232" lon="-0.75177">
        <ele>13.12</ele>
        <time>2011-04-16T19:04:31Z</time>
      </trkpt>
      <trkpt lat="47.32325" lon="-0.75178">
        <ele>13.6</ele>
        <time>2011-04-16T19:04:32Z</time>
      </trkpt>
      <trkpt lat="47.32329" lon="-0.7518">
        <ele>12.63</ele>
        <time>2011-04-16T19:04:33Z</time>
      </trkpt>
      <trkpt lat="47.32348" lon="-0.75194">
        <ele>13.12</ele>
        <time>2011-04-16T19:04:38Z</time>
      </trkpt>
      <trkpt lat="47.32352" lon="-0.75197">
        <ele>14.08</ele>
        <time>2011-04-16T19:04:39Z</time>
      </trkpt>
      <trkpt lat="47.32367" lon="-0.75217">
        <ele>12.63</ele>
        <time>2011-04-16T19:04:45Z</time>
      </trkpt>
      <trkpt lat="47.32368" lon="-0.75228">
        <ele>12.63</ele>
        <time>2011-04-16T19:04:49Z</time>
      </trkpt>
      <trkpt lat="47.32369" lon="-0.7523">
        <ele>12.63</ele>
        <time>2011-04-16T19:04:50Z</time>
      </trkpt>
      <trkpt lat="47.3237" lon="-0.75232">
        <ele>12.15</ele>
        <time>2011-04-16T19:04:51Z</time>
      </trkpt>
      <trkpt lat="47.32372" lon="-0.75233">
        <ele>13.12</ele>
        <time>2011-04-16T19:04:55Z</time>
      </trkpt>
      <trkpt lat="47.32372" lon="-0.75234">
        <ele>11.67</ele>
        <time>2011-04-16T19:05:03Z</time>
      </trkpt>
      <trkpt lat="47.32372" lon="-0.75234">
        <ele>12.15</ele>
        <time>2011-04-16T19:05:18Z</time>
      </trkpt>
      <trkpt lat="47.32373" lon="-0.75233">
        <ele>12.15</ele>
        <time>2011-04-16T19:06:02Z</time>
      </trkpt>
      <trkpt lat="47.32373" lon="-0.75235">
        <ele>12.15</ele>
        <time>2011-04-16T19:06:34Z</time>
      </trkpt>
      <trkpt lat="47.32374" lon="-0.75236">
        <ele>12.15</ele>
        <time>2011-04-16T19:06:35Z</time>
      </trkpt>
      <trkpt lat="47.32376" lon="-0.75239">
        <ele>12.15</ele>
        <time>2011-04-16T19:06:38Z</time>
      </trkpt>
      <trkpt lat="47.32377" lon="-0.75239">
        <ele>11.19</ele>
        <time>2011-04-16T19:06:39Z</time>
      </trkpt>
      <trkpt lat="47.32379" lon="-0.7524">
        <ele>11.19</ele>
        <time>2011-04-16T19:06:40Z</time>
      </trkpt>
      <trkpt lat="47.32381" lon="-0.75242">
        <ele>11.19</ele>
        <time>2011-04-16T19:06:46Z</time>
      </trkpt>
      <trkpt lat="47.32384" lon="-0.75243">
        <ele>11.67</ele>
        <time>2011-04-16T19:06:52Z</time>
      </trkpt>
      <trkpt lat="47.32385" lon="-0.75246">
        <ele>11.67</ele>
        <time>2011-04-16T19:06:57Z</time>
      </trkpt>
      <trkpt lat="47.32384" lon="-0.75249">
        <ele>11.67</ele>
        <time>2011-04-16T19:07:05Z</time>
      </trkpt>
      <trkpt lat="47.32384" lon="-0.7525">
        <ele>11.67</ele>
        <time>2011-04-16T19:07:10Z</time>
      </trkpt>
      <trkpt lat="47.32383" lon="-0.7525">
        <ele>11.67</ele>
        <time>2011-04-16T19:07:17Z</time>
      </trkpt>
      <trkpt lat="47.32383" lon="-0.75252">
        <ele>11.67</ele>
        <time>2011-04-16T19:07:21Z</time>
      </trkpt>
      <trkpt lat="47.32383" lon="-0.75256">
        <ele>12.15</ele>
        <time>2011-04-16T19:07:23Z</time>
      </trkpt>
      <trkpt lat="47.32383" lon="-0.75259">
        <ele>12.15</ele>
        <time>2011-04-16T19:07:24Z</time>
      </trkpt>
      <trkpt lat="47.32382" lon="-0.75262">
        <ele>11.19</ele>
        <time>2011-04-16T19:07:25Z</time>
      </trkpt>
      <trkpt lat="47.32382" lon="-0.75265">
        <ele>11.67</ele>
        <time>2011-04-16T19:07:26Z</time>
      </trkpt>
      <trkpt lat="47.32382" lon="-0.75268">
        <ele>12.15</ele>
        <time>2011-04-16T19:07:27Z</time>
      </trkpt>
      <trkpt lat="47.32381" lon="-0.75271">
        <ele>11.67</ele>
        <time>2011-04-16T19:07:28Z</time>
      </trkpt>
      <trkpt lat="47.3238" lon="-0.75275">
        <ele>11.19</ele>
        <time>2011-04-16T19:07:29Z</time>
      </trkpt>
      <trkpt lat="47.32378" lon="-0.75298">
        <ele>10.71</ele>
        <time>2011-04-16T19:07:35Z</time>
      </trkpt>
      <trkpt lat="47.32381" lon="-0.75314">
        <ele>11.19</ele>
        <time>2011-04-16T19:07:41Z</time>
      </trkpt>
      <trkpt lat="47.32384" lon="-0.75319">
        <ele>11.67</ele>
        <time>2011-04-16T19:07:43Z</time>
      </trkpt>
      <trkpt lat="47.32386" lon="-0.7532">
        <ele>12.15</ele>
        <time>2011-04-16T19:07:44Z</time>
      </trkpt>
      <trkpt lat="47.32388" lon="-0.75322">
        <ele>12.63</ele>
        <time>2011-04-16T19:07:45Z</time>
      </trkpt>
      <trkpt lat="47.3239" lon="-0.75323">
        <ele>13.12</ele>
        <time>2011-04-16T19:07:46Z</time>
      </trkpt>
      <trkpt lat="47.32392" lon="-0.75325">
        <ele>13.12</ele>
        <time>2011-04-16T19:07:47Z</time>
      </trkpt>
      <trkpt lat="47.32394" lon="-0.75327">
        <ele>14.08</ele>
        <time>2011-04-16T19:07:48Z</time>
      </trkpt>
      <trkpt lat="47.32396" lon="-0.75329">
        <ele>13.6</ele>
        <time>2011-04-16T19:07:49Z</time>
      </trkpt>
      <trkpt lat="47.32398" lon="-0.75331">
        <ele>14.56</ele>
        <time>2011-04-16T19:07:50Z</time>
      </trkpt>
      <trkpt lat="47.324" lon="-0.75331">
        <ele>14.56</ele>
        <time>2011-04-16T19:07:51Z</time>
      </trkpt>
      <trkpt lat="47.32412" lon="-0.7534">
        <ele>16.48</ele>
        <time>2011-04-16T19:07:58Z</time>
      </trkpt>
      <trkpt lat="47.32416" lon="-0.75342">
        <ele>17.44</ele>
        <time>2011-04-16T19:08:00Z</time>
      </trkpt>
      <trkpt lat="47.32418" lon="-0.75343">
        <ele>17.44</ele>
        <time>2011-04-16T19:08:01Z</time>
      </trkpt>
      <trkpt lat="47.3242" lon="-0.75344">
        <ele>17.44</ele>
        <time>2011-04-16T19:08:02Z</time>
      </trkpt>
      <trkpt lat="47.32422" lon="-0.75344">
        <ele>17.44</ele>
        <time>2011-04-16T19:08:03Z</time>
      </trkpt>
      <trkpt lat="47.32424" lon="-0.75345">
        <ele>17.44</ele>
        <time>2011-04-16T19:08:04Z</time>
      </trkpt>
      <trkpt lat="47.32426" lon="-0.75346">
        <ele>17.92</ele>
        <time>2011-04-16T19:08:05Z</time>
      </trkpt>
      <trkpt lat="47.32428" lon="-0.75346">
        <ele>18.4</ele>
        <time>2011-04-16T19:08:06Z</time>
      </trkpt>
      <trkpt lat="47.32429" lon="-0.75346">
        <ele>18.4</ele>
        <time>2011-04-16T19:08:07Z</time>
      </trkpt>
      <trkpt lat="47.32431" lon="-0.75347">
        <ele>18.88</ele>
        <time>2011-04-16T19:08:08Z</time>
      </trkpt>
      <trkpt lat="47.32433" lon="-0.75348">
        <ele>18.88</ele>
        <time>2011-04-16T19:08:09Z</time>
      </trkpt>
      <trkpt lat="47.32435" lon="-0.75348">
        <ele>18.88</ele>
        <time>2011-04-16T19:08:10Z</time>
      </trkpt>
      <trkpt lat="47.32447" lon="-0.75353">
        <ele>20.32</ele>
        <time>2011-04-16T19:08:17Z</time>
      </trkpt>
      <trkpt lat="47.32459" lon="-0.75358">
        <ele>21.77</ele>
        <time>2011-04-16T19:08:23Z</time>
      </trkpt>
      <trkpt lat="47.32474" lon="-0.75367">
        <ele>23.69</ele>
        <time>2011-04-16T19:08:31Z</time>
      </trkpt>
      <trkpt lat="47.32476" lon="-0.75369">
        <ele>23.69</ele>
        <time>2011-04-16T19:08:32Z</time>
      </trkpt>
      <trkpt lat="47.32477" lon="-0.75371">
        <ele>23.69</ele>
        <time>2011-04-16T19:08:33Z</time>
      </trkpt>
      <trkpt lat="47.32489" lon="-0.75377">
        <ele>23.69</ele>
        <time>2011-04-16T19:08:39Z</time>
      </trkpt>
      <trkpt lat="47.32499" lon="-0.75382">
        <ele>25.13</ele>
        <time>2011-04-16T19:08:44Z</time>
      </trkpt>
      <trkpt lat="47.32501" lon="-0.75383">
        <ele>25.61</ele>
        <time>2011-04-16T19:08:45Z</time>
      </trkpt>
      <trkpt lat="47.32503" lon="-0.75385">
        <ele>26.09</ele>
        <time>2011-04-16T19:08:46Z</time>
      </trkpt>
      <trkpt lat="47.32506" lon="-0.75387">
        <ele>26.57</ele>
        <time>2011-04-16T19:08:48Z</time>
      </trkpt>
      <trkpt lat="47.32509" lon="-0.75387">
        <ele>27.53</ele>
        <time>2011-04-16T19:08:49Z</time>
      </trkpt>
      <trkpt lat="47.32511" lon="-0.75386">
        <ele>28.02</ele>
        <time>2011-04-16T19:08:50Z</time>
      </trkpt>
      <trkpt lat="47.32527" lon="-0.75381">
        <ele>29.46</ele>
        <time>2011-04-16T19:08:58Z</time>
      </trkpt>
      <trkpt lat="47.32535" lon="-0.75377">
        <ele>30.9</ele>
        <time>2011-04-16T19:09:02Z</time>
      </trkpt>
      <trkpt lat="47.3255" lon="-0.75374">
        <ele>31.86</ele>
        <time>2011-04-16T19:09:09Z</time>
      </trkpt>
      <trkpt lat="47.32566" lon="-0.75369">
        <ele>33.3</ele>
        <time>2011-04-16T19:09:17Z</time>
      </trkpt>
      <trkpt lat="47.32578" lon="-0.75364">
        <ele>34.74</ele>
        <time>2011-04-16T19:09:23Z</time>
      </trkpt>
      <trkpt lat="47.32592" lon="-0.75356">
        <ele>35.71</ele>
        <time>2011-04-16T19:09:30Z</time>
      </trkpt>
      <trkpt lat="47.32606" lon="-0.75348">
        <ele>38.11</ele>
        <time>2011-04-16T19:09:37Z</time>
      </trkpt>
      <trkpt lat="47.3261" lon="-0.75345">
        <ele>38.59</ele>
        <time>2011-04-16T19:09:41Z</time>
      </trkpt>
      <trkpt lat="47.32616" lon="-0.75339">
        <ele>40.51</ele>
        <time>2011-04-16T19:09:46Z</time>
      </trkpt>
      <trkpt lat="47.32626" lon="-0.75329">
        <ele>41.95</ele>
        <time>2011-04-16T19:09:54Z</time>
      </trkpt>
      <trkpt lat="47.32637" lon="-0.75318">
        <ele>44.36</ele>
        <time>2011-04-16T19:10:01Z</time>
      </trkpt>
      <trkpt lat="47.32639" lon="-0.75314">
        <ele>45.32</ele>
        <time>2011-04-16T19:10:03Z</time>
      </trkpt>
      <trkpt lat="47.32651" lon="-0.75302">
        <ele>47.72</ele>
        <time>2011-04-16T19:10:11Z</time>
      </trkpt>
      <trkpt lat="47.32662" lon="-0.75289">
        <ele>50.13</ele>
        <time>2011-04-16T19:10:19Z</time>
      </trkpt>
      <trkpt lat="47.32673" lon="-0.75281">
        <ele>52.53</ele>
        <time>2011-04-16T19:10:26Z</time>
      </trkpt>
      <trkpt lat="47.32685" lon="-0.75285">
        <ele>54.45</ele>
        <time>2011-04-16T19:10:33Z</time>
      </trkpt>
      <trkpt lat="47.32698" lon="-0.75294">
        <ele>56.37</ele>
        <time>2011-04-16T19:10:41Z</time>
      </trkpt>
      <trkpt lat="47.32713" lon="-0.75303">
        <ele>57.82</ele>
        <time>2011-04-16T19:10:49Z</time>
      </trkpt>
      <trkpt lat="47.32719" lon="-0.75307">
        <ele>59.74</ele>
        <time>2011-04-16T19:10:53Z</time>
      </trkpt>
      <trkpt lat="47.32733" lon="-0.75315">
        <ele>61.18</ele>
        <time>2011-04-16T19:11:01Z</time>
      </trkpt>
      <trkpt lat="47.32749" lon="-0.75327">
        <ele>62.14</ele>
        <time>2011-04-16T19:11:09Z</time>
      </trkpt>
      <trkpt lat="47.32764" lon="-0.75345">
        <ele>63.1</ele>
        <time>2011-04-16T19:11:17Z</time>
      </trkpt>
      <trkpt lat="47.32764" lon="-0.75348">
        <ele>64.55</ele>
        <time>2011-04-16T19:11:18Z</time>
      </trkpt>
      <trkpt lat="47.32753" lon="-0.75373">
        <ele>65.51</ele>
        <time>2011-04-16T19:11:25Z</time>
      </trkpt>
      <trkpt lat="47.32726" lon="-0.75416">
        <ele>65.51</ele>
        <time>2011-04-16T19:11:35Z</time>
      </trkpt>
      <trkpt lat="47.32723" lon="-0.75421">
        <ele>65.03</ele>
        <time>2011-04-16T19:11:36Z</time>
      </trkpt>
      <trkpt lat="47.32712" lon="-0.75474">
        <ele>64.55</ele>
        <time>2011-04-16T19:11:44Z</time>
      </trkpt>
      <trkpt lat="47.32704" lon="-0.75537">
        <ele>62.62</ele>
        <time>2011-04-16T19:11:51Z</time>
      </trkpt>
      <trkpt lat="47.32704" lon="-0.75546">
        <ele>62.62</ele>
        <time>2011-04-16T19:11:52Z</time>
      </trkpt>
      <trkpt lat="47.32705" lon="-0.75623">
        <ele>63.1</ele>
        <time>2011-04-16T19:12:01Z</time>
      </trkpt>
      <trkpt lat="47.32705" lon="-0.75645">
        <ele>63.58</ele>
        <time>2011-04-16T19:12:04Z</time>
      </trkpt>
      <trkpt lat="47.32703" lon="-0.75652">
        <ele>64.55</ele>
        <time>2011-04-16T19:12:05Z</time>
      </trkpt>
      <trkpt lat="47.32701" lon="-0.75658">
        <ele>64.55</ele>
        <time>2011-04-16T19:12:06Z</time>
      </trkpt>
      <trkpt lat="47.32699" lon="-0.75664">
        <ele>64.55</ele>
        <time>2011-04-16T19:12:07Z</time>
      </trkpt>
      <trkpt lat="47.32696" lon="-0.75668">
        <ele>64.07</ele>
        <time>2011-04-16T19:12:08Z</time>
      </trkpt>
      <trkpt lat="47.32692" lon="-0.75673">
        <ele>64.55</ele>
        <time>2011-04-16T19:12:09Z</time>
      </trkpt>
      <trkpt lat="47.3269" lon="-0.75678">
        <ele>64.55</ele>
        <time>2011-04-16T19:12:10Z</time>
      </trkpt>
      <trkpt lat="47.32688" lon="-0.75684">
        <ele>64.55</ele>
        <time>2011-04-16T19:12:11Z</time>
      </trkpt>
      <trkpt lat="47.32687" lon="-0.75691">
        <ele>64.55</ele>
        <time>2011-04-16T19:12:12Z</time>
      </trkpt>
      <trkpt lat="47.32687" lon="-0.75698">
        <ele>64.07</ele>
        <time>2011-04-16T19:12:13Z</time>
      </trkpt>
      <trkpt lat="47.32687" lon="-0.75705">
        <ele>65.03</ele>
        <time>2011-04-16T19:12:14Z</time>
      </trkpt>
      <trkpt lat="47.32684" lon="-0.75761">
        <ele>65.51</ele>
        <time>2011-04-16T19:12:22Z</time>
      </trkpt>
      <trkpt lat="47.32683" lon="-0.75774">
        <ele>64.55</ele>
        <time>2011-04-16T19:12:24Z</time>
      </trkpt>
      <trkpt lat="47.3268" lon="-0.7578">
        <ele>65.51</ele>
        <time>2011-04-16T19:12:25Z</time>
      </trkpt>
      <trkpt lat="47.32677" lon="-0.75785">
        <ele>65.51</ele>
        <time>2011-04-16T19:12:26Z</time>
      </trkpt>
      <trkpt lat="47.32661" lon="-0.75804">
        <ele>64.55</ele>
        <time>2011-04-16T19:12:30Z</time>
      </trkpt>
      <trkpt lat="47.32658" lon="-0.75809">
        <ele>64.55</ele>
        <time>2011-04-16T19:12:31Z</time>
      </trkpt>
      <trkpt lat="47.32637" lon="-0.75833">
        <ele>65.03</ele>
        <time>2011-04-16T19:12:36Z</time>
      </trkpt>
      <trkpt lat="47.32634" lon="-0.75838">
        <ele>64.55</ele>
        <time>2011-04-16T19:12:37Z</time>
      </trkpt>
      <trkpt lat="47.32633" lon="-0.75845">
        <ele>65.03</ele>
        <time>2011-04-16T19:12:38Z</time>
      </trkpt>
      <trkpt lat="47.32633" lon="-0.75852">
        <ele>65.03</ele>
        <time>2011-04-16T19:12:39Z</time>
      </trkpt>
      <trkpt lat="47.32634" lon="-0.75859">
        <ele>64.55</ele>
        <time>2011-04-16T19:12:40Z</time>
      </trkpt>
      <trkpt lat="47.32636" lon="-0.75865">
        <ele>65.03</ele>
        <time>2011-04-16T19:12:41Z</time>
      </trkpt>
      <trkpt lat="47.32638" lon="-0.75872">
        <ele>65.51</ele>
        <time>2011-04-16T19:12:42Z</time>
      </trkpt>
      <trkpt lat="47.32641" lon="-0.75878">
        <ele>65.51</ele>
        <time>2011-04-16T19:12:43Z</time>
      </trkpt>
      <trkpt lat="47.32652" lon="-0.75916">
        <ele>65.99</ele>
        <time>2011-04-16T19:12:49Z</time>
      </trkpt>
      <trkpt lat="47.32655" lon="-0.7593">
        <ele>66.47</ele>
        <time>2011-04-16T19:12:51Z</time>
      </trkpt>
      <trkpt lat="47.32656" lon="-0.75937">
        <ele>65.99</ele>
        <time>2011-04-16T19:12:52Z</time>
      </trkpt>
      <trkpt lat="47.32657" lon="-0.75991">
        <ele>67.91</ele>
        <time>2011-04-16T19:13:00Z</time>
      </trkpt>
      <trkpt lat="47.32667" lon="-0.76035">
        <ele>67.91</ele>
        <time>2011-04-16T19:13:07Z</time>
      </trkpt>
      <trkpt lat="47.32669" lon="-0.76048">
        <ele>68.87</ele>
        <time>2011-04-16T19:13:09Z</time>
      </trkpt>
      <trkpt lat="47.32671" lon="-0.7606">
        <ele>68.87</ele>
        <time>2011-04-16T19:13:11Z</time>
      </trkpt>
      <trkpt lat="47.32672" lon="-0.76066">
        <ele>68.87</ele>
        <time>2011-04-16T19:13:12Z</time>
      </trkpt>
      <trkpt lat="47.32674" lon="-0.76086">
        <ele>69.35</ele>
        <time>2011-04-16T19:13:15Z</time>
      </trkpt>
      <trkpt lat="47.32675" lon="-0.76092">
        <ele>69.35</ele>
        <time>2011-04-16T19:13:16Z</time>
      </trkpt>
      <trkpt lat="47.32678" lon="-0.76104">
        <ele>70.31</ele>
        <time>2011-04-16T19:13:18Z</time>
      </trkpt>
      <trkpt lat="47.3268" lon="-0.7611">
        <ele>70.31</ele>
        <time>2011-04-16T19:13:19Z</time>
      </trkpt>
      <trkpt lat="47.32683" lon="-0.76115">
        <ele>70.31</ele>
        <time>2011-04-16T19:13:20Z</time>
      </trkpt>
      <trkpt lat="47.32689" lon="-0.76123">
        <ele>71.27</ele>
        <time>2011-04-16T19:13:22Z</time>
      </trkpt>
      <trkpt lat="47.32692" lon="-0.76127">
        <ele>71.76</ele>
        <time>2011-04-16T19:13:23Z</time>
      </trkpt>
      <trkpt lat="47.32715" lon="-0.76155">
        <ele>73.68</ele>
        <time>2011-04-16T19:13:31Z</time>
      </trkpt>
      <trkpt lat="47.32731" lon="-0.76181">
        <ele>74.64</ele>
        <time>2011-04-16T19:13:38Z</time>
      </trkpt>
      <trkpt lat="47.32745" lon="-0.76206">
        <ele>77.04</ele>
        <time>2011-04-16T19:13:45Z</time>
      </trkpt>
      <trkpt lat="47.32758" lon="-0.76239">
        <ele>79.45</ele>
        <time>2011-04-16T19:13:54Z</time>
      </trkpt>
      <trkpt lat="47.32772" lon="-0.7626">
        <ele>80.41</ele>
        <time>2011-04-16T19:14:00Z</time>
      </trkpt>
      <trkpt lat="47.32793" lon="-0.76292">
        <ele>80.89</ele>
        <time>2011-04-16T19:14:08Z</time>
      </trkpt>
      <trkpt lat="47.32812" lon="-0.76322">
        <ele>81.37</ele>
        <time>2011-04-16T19:14:15Z</time>
      </trkpt>
      <trkpt lat="47.32819" lon="-0.76331">
        <ele>80.89</ele>
        <time>2011-04-16T19:14:17Z</time>
      </trkpt>
      <trkpt lat="47.32847" lon="-0.76379">
        <ele>80.89</ele>
        <time>2011-04-16T19:14:26Z</time>
      </trkpt>
      <trkpt lat="47.32881" lon="-0.76449">
        <ele>80.41</ele>
        <time>2011-04-16T19:14:37Z</time>
      </trkpt>
      <trkpt lat="47.32891" lon="-0.76471">
        <ele>79.45</ele>
        <time>2011-04-16T19:14:40Z</time>
      </trkpt>
      <trkpt lat="47.32894" lon="-0.76479">
        <ele>79.45</ele>
        <time>2011-04-16T19:14:41Z</time>
      </trkpt>
      <trkpt lat="47.32896" lon="-0.76488">
        <ele>78.48</ele>
        <time>2011-04-16T19:14:42Z</time>
      </trkpt>
      <trkpt lat="47.32903" lon="-0.76514">
        <ele>78.97</ele>
        <time>2011-04-16T19:14:45Z</time>
      </trkpt>
      <trkpt lat="47.32906" lon="-0.76522">
        <ele>78.48</ele>
        <time>2011-04-16T19:14:46Z</time>
      </trkpt>
      <trkpt lat="47.32927" lon="-0.76563">
        <ele>78.97</ele>
        <time>2011-04-16T19:14:52Z</time>
      </trkpt>
      <trkpt lat="47.3293" lon="-0.76569">
        <ele>79.93</ele>
        <time>2011-04-16T19:14:53Z</time>
      </trkpt>
      <trkpt lat="47.32932" lon="-0.76575">
        <ele>79.45</ele>
        <time>2011-04-16T19:14:54Z</time>
      </trkpt>
      <trkpt lat="47.32933" lon="-0.76581">
        <ele>79.93</ele>
        <time>2011-04-16T19:14:55Z</time>
      </trkpt>
      <trkpt lat="47.32935" lon="-0.76587">
        <ele>79.93</ele>
        <time>2011-04-16T19:14:56Z</time>
      </trkpt>
      <trkpt lat="47.32937" lon="-0.76593">
        <ele>80.41</ele>
        <time>2011-04-16T19:14:57Z</time>
      </trkpt>
      <trkpt lat="47.32938" lon="-0.76599">
        <ele>80.89</ele>
        <time>2011-04-16T19:14:58Z</time>
      </trkpt>
      <trkpt lat="47.3294" lon="-0.76612">
        <ele>81.37</ele>
        <time>2011-04-16T19:15:00Z</time>
      </trkpt>
      <trkpt lat="47.32942" lon="-0.76618">
        <ele>80.89</ele>
        <time>2011-04-16T19:15:01Z</time>
      </trkpt>
      <trkpt lat="47.32945" lon="-0.76624">
        <ele>80.89</ele>
        <time>2011-04-16T19:15:02Z</time>
      </trkpt>
      <trkpt lat="47.32953" lon="-0.76639">
        <ele>81.37</ele>
        <time>2011-04-16T19:15:05Z</time>
      </trkpt>
      <trkpt lat="47.3296" lon="-0.76655">
        <ele>82.81</ele>
        <time>2011-04-16T19:15:08Z</time>
      </trkpt>
      <trkpt lat="47.32962" lon="-0.7666">
        <ele>82.81</ele>
        <time>2011-04-16T19:15:09Z</time>
      </trkpt>
      <trkpt lat="47.32964" lon="-0.76666">
        <ele>83.29</ele>
        <time>2011-04-16T19:15:10Z</time>
      </trkpt>
      <trkpt lat="47.32969" lon="-0.76684">
        <ele>83.77</ele>
        <time>2011-04-16T19:15:13Z</time>
      </trkpt>
      <trkpt lat="47.32971" lon="-0.7669">
        <ele>83.29</ele>
        <time>2011-04-16T19:15:14Z</time>
      </trkpt>
      <trkpt lat="47.32984" lon="-0.7676">
        <ele>85.21</ele>
        <time>2011-04-16T19:15:25Z</time>
      </trkpt>
      <trkpt lat="47.32987" lon="-0.76781">
        <ele>85.21</ele>
        <time>2011-04-16T19:15:28Z</time>
      </trkpt>
      <trkpt lat="47.3299" lon="-0.76828">
        <ele>85.69</ele>
        <time>2011-04-16T19:15:36Z</time>
      </trkpt>
      <trkpt lat="47.3299" lon="-0.76854">
        <ele>85.21</ele>
        <time>2011-04-16T19:15:40Z</time>
      </trkpt>
      <trkpt lat="47.32987" lon="-0.76859">
        <ele>85.21</ele>
        <time>2011-04-16T19:15:41Z</time>
      </trkpt>
      <trkpt lat="47.32984" lon="-0.76863">
        <ele>85.69</ele>
        <time>2011-04-16T19:15:42Z</time>
      </trkpt>
      <trkpt lat="47.32981" lon="-0.76867">
        <ele>84.73</ele>
        <time>2011-04-16T19:15:43Z</time>
      </trkpt>
      <trkpt lat="47.32979" lon="-0.76872">
        <ele>85.21</ele>
        <time>2011-04-16T19:15:44Z</time>
      </trkpt>
      <trkpt lat="47.32979" lon="-0.76878">
        <ele>84.73</ele>
        <time>2011-04-16T19:15:45Z</time>
      </trkpt>
      <trkpt lat="47.3298" lon="-0.76884">
        <ele>85.21</ele>
        <time>2011-04-16T19:15:46Z</time>
      </trkpt>
      <trkpt lat="47.32982" lon="-0.7689">
        <ele>85.21</ele>
        <time>2011-04-16T19:15:47Z</time>
      </trkpt>
      <trkpt lat="47.32995" lon="-0.76943">
        <ele>85.21</ele>
        <time>2011-04-16T19:15:54Z</time>
      </trkpt>
      <trkpt lat="47.33009" lon="-0.77005">
        <ele>83.77</ele>
        <time>2011-04-16T19:16:01Z</time>
      </trkpt>
      <trkpt lat="47.33009" lon="-0.77014">
        <ele>83.29</ele>
        <time>2011-04-16T19:16:02Z</time>
      </trkpt>
      <trkpt lat="47.33004" lon="-0.77049">
        <ele>82.33</ele>
        <time>2011-04-16T19:16:06Z</time>
      </trkpt>
      <trkpt lat="47.33006" lon="-0.77057">
        <ele>82.33</ele>
        <time>2011-04-16T19:16:07Z</time>
      </trkpt>
      <trkpt lat="47.33009" lon="-0.77066">
        <ele>82.81</ele>
        <time>2011-04-16T19:16:08Z</time>
      </trkpt>
      <trkpt lat="47.33012" lon="-0.77074">
        <ele>82.81</ele>
        <time>2011-04-16T19:16:09Z</time>
      </trkpt>
      <trkpt lat="47.33022" lon="-0.771">
        <ele>81.37</ele>
        <time>2011-04-16T19:16:12Z</time>
      </trkpt>
      <trkpt lat="47.33028" lon="-0.77125">
        <ele>79.93</ele>
        <time>2011-04-16T19:16:16Z</time>
      </trkpt>
      <trkpt lat="47.33029" lon="-0.77126">
        <ele>79.93</ele>
        <time>2011-04-16T19:16:17Z</time>
      </trkpt>
      <trkpt lat="47.33031" lon="-0.77127">
        <ele>79.93</ele>
        <time>2011-04-16T19:16:18Z</time>
      </trkpt>
      <trkpt lat="47.33033" lon="-0.77127">
        <ele>79.93</ele>
        <time>2011-04-16T19:16:19Z</time>
      </trkpt>
      <trkpt lat="47.33044" lon="-0.77128">
        <ele>78.97</ele>
        <time>2011-04-16T19:16:22Z</time>
      </trkpt>
      <trkpt lat="47.33052" lon="-0.77126">
        <ele>78.48</ele>
        <time>2011-04-16T19:16:24Z</time>
      </trkpt>
      <trkpt lat="47.3306" lon="-0.77121">
        <ele>78.97</ele>
        <time>2011-04-16T19:16:26Z</time>
      </trkpt>
      <trkpt lat="47.33065" lon="-0.7712">
        <ele>78.48</ele>
        <time>2011-04-16T19:16:27Z</time>
      </trkpt>
      <trkpt lat="47.33069" lon="-0.7712">
        <ele>78.48</ele>
        <time>2011-04-16T19:16:28Z</time>
      </trkpt>
      <trkpt lat="47.33074" lon="-0.7712">
        <ele>78.48</ele>
        <time>2011-04-16T19:16:29Z</time>
      </trkpt>
      <trkpt lat="47.33077" lon="-0.7712">
        <ele>78</ele>
        <time>2011-04-16T19:16:30Z</time>
      </trkpt>
      <trkpt lat="47.33079" lon="-0.7712">
        <ele>78</ele>
        <time>2011-04-16T19:16:31Z</time>
      </trkpt>
      <trkpt lat="47.3308" lon="-0.77119">
        <ele>77.52</ele>
        <time>2011-04-16T19:16:38Z</time>
      </trkpt>
      <trkpt lat="47.3308" lon="-0.7712">
        <ele>78</ele>
        <time>2011-04-16T19:17:17Z</time>
      </trkpt>
      <trkpt lat="47.3308" lon="-0.7712">
        <ele>78</ele>
        <time>2011-04-16T19:17:36Z</time>
      </trkpt>
      <trkpt lat="47.3308" lon="-0.77118">
        <ele>78</ele>
        <time>2011-04-16T19:18:12Z</time>
      </trkpt>
      <trkpt lat="47.33078" lon="-0.77118">
        <ele>78</ele>
        <time>2011-04-16T19:18:14Z</time>
      </trkpt>
      <trkpt lat="47.33077" lon="-0.77118">
        <ele>78</ele>
        <time>2011-04-16T19:18:15Z</time>
      </trkpt>
      <trkpt lat="47.33075" lon="-0.77118">
        <ele>78</ele>
        <time>2011-04-16T19:18:16Z</time>
      </trkpt>
      <trkpt lat="47.33074" lon="-0.77119">
        <ele>78.48</ele>
        <time>2011-04-16T19:18:17Z</time>
      </trkpt>
      <trkpt lat="47.33072" lon="-0.77119">
        <ele>78.48</ele>
        <time>2011-04-16T19:18:18Z</time>
      </trkpt>
      <trkpt lat="47.3307" lon="-0.7712">
        <ele>77.52</ele>
        <time>2011-04-16T19:18:19Z</time>
      </trkpt>
      <trkpt lat="47.33068" lon="-0.77121">
        <ele>78.48</ele>
        <time>2011-04-16T19:18:20Z</time>
      </trkpt>
      <trkpt lat="47.33053" lon="-0.77128">
        <ele>78.97</ele>
        <time>2011-04-16T19:18:25Z</time>
      </trkpt>
      <trkpt lat="47.33038" lon="-0.77135">
        <ele>79.45</ele>
        <time>2011-04-16T19:18:31Z</time>
      </trkpt>
      <trkpt lat="47.33034" lon="-0.77137">
        <ele>79.45</ele>
        <time>2011-04-16T19:18:33Z</time>
      </trkpt>
      <trkpt lat="47.33033" lon="-0.77136">
        <ele>79.45</ele>
        <time>2011-04-16T19:18:34Z</time>
      </trkpt>
      <trkpt lat="47.33033" lon="-0.77133">
        <ele>79.93</ele>
        <time>2011-04-16T19:18:35Z</time>
      </trkpt>
      <trkpt lat="47.33033" lon="-0.77132">
        <ele>79.93</ele>
        <time>2011-04-16T19:18:36Z</time>
      </trkpt>
      <trkpt lat="47.33035" lon="-0.77131">
        <ele>79.45</ele>
        <time>2011-04-16T19:18:37Z</time>
      </trkpt>
      <trkpt lat="47.33037" lon="-0.7713">
        <ele>79.45</ele>
        <time>2011-04-16T19:18:38Z</time>
      </trkpt>
      <trkpt lat="47.33059" lon="-0.77123">
        <ele>78.48</ele>
        <time>2011-04-16T19:18:44Z</time>
      </trkpt>
      <trkpt lat="47.33067" lon="-0.7712">
        <ele>78.97</ele>
        <time>2011-04-16T19:18:46Z</time>
      </trkpt>
      <trkpt lat="47.33071" lon="-0.77118">
        <ele>78</ele>
        <time>2011-04-16T19:18:47Z</time>
      </trkpt>
      <trkpt lat="47.33076" lon="-0.77117">
        <ele>78</ele>
        <time>2011-04-16T19:18:48Z</time>
      </trkpt>
      <trkpt lat="47.33081" lon="-0.77115">
        <ele>78.97</ele>
        <time>2011-04-16T19:18:49Z</time>
      </trkpt>
      <trkpt lat="47.33084" lon="-0.77112">
        <ele>78.48</ele>
        <time>2011-04-16T19:18:50Z</time>
      </trkpt>
      <trkpt lat="47.33088" lon="-0.77108">
        <ele>78.97</ele>
        <time>2011-04-16T19:18:51Z</time>
      </trkpt>
      <trkpt lat="47.33092" lon="-0.77104">
        <ele>78</ele>
        <time>2011-04-16T19:18:52Z</time>
      </trkpt>
      <trkpt lat="47.33095" lon="-0.771">
        <ele>78</ele>
        <time>2011-04-16T19:18:53Z</time>
      </trkpt>
      <trkpt lat="47.33098" lon="-0.77098">
        <ele>77.52</ele>
        <time>2011-04-16T19:18:54Z</time>
      </trkpt>
      <trkpt lat="47.331" lon="-0.77097">
        <ele>77.52</ele>
        <time>2011-04-16T19:18:55Z</time>
      </trkpt>
      <trkpt lat="47.33101" lon="-0.77099">
        <ele>78</ele>
        <time>2011-04-16T19:18:56Z</time>
      </trkpt>
      <trkpt lat="47.33103" lon="-0.77101">
        <ele>77.52</ele>
        <time>2011-04-16T19:18:57Z</time>
      </trkpt>
      <trkpt lat="47.33105" lon="-0.77103">
        <ele>77.04</ele>
        <time>2011-04-16T19:18:58Z</time>
      </trkpt>
      <trkpt lat="47.33107" lon="-0.77105">
        <ele>77.52</ele>
        <time>2011-04-16T19:18:59Z</time>
      </trkpt>
      <trkpt lat="47.33109" lon="-0.77108">
        <ele>77.04</ele>
        <time>2011-04-16T19:19:00Z</time>
      </trkpt>
      <trkpt lat="47.33111" lon="-0.77112">
        <ele>77.52</ele>
        <time>2011-04-16T19:19:01Z</time>
      </trkpt>
      <trkpt lat="47.33113" lon="-0.77117">
        <ele>77.04</ele>
        <time>2011-04-16T19:19:02Z</time>
      </trkpt>
      <trkpt lat="47.33114" lon="-0.77123">
        <ele>77.04</ele>
        <time>2011-04-16T19:19:03Z</time>
      </trkpt>
      <trkpt lat="47.33119" lon="-0.77144">
        <ele>75.6</ele>
        <time>2011-04-16T19:19:06Z</time>
      </trkpt>
      <trkpt lat="47.3312" lon="-0.77151">
        <ele>75.12</ele>
        <time>2011-04-16T19:19:07Z</time>
      </trkpt>
      <trkpt lat="47.33132" lon="-0.77196">
        <ele>73.68</ele>
        <time>2011-04-16T19:19:12Z</time>
      </trkpt>
      <trkpt lat="47.33134" lon="-0.77206">
        <ele>72.72</ele>
        <time>2011-04-16T19:19:13Z</time>
      </trkpt>
      <trkpt lat="47.33143" lon="-0.77239">
        <ele>68.87</ele>
        <time>2011-04-16T19:19:17Z</time>
      </trkpt>
      <trkpt lat="47.33148" lon="-0.77243">
        <ele>68.39</ele>
        <time>2011-04-16T19:19:18Z</time>
      </trkpt>
      <trkpt lat="47.33154" lon="-0.77247">
        <ele>67.91</ele>
        <time>2011-04-16T19:19:19Z</time>
      </trkpt>
      <trkpt lat="47.3316" lon="-0.7725">
        <ele>67.91</ele>
        <time>2011-04-16T19:19:20Z</time>
      </trkpt>
      <trkpt lat="47.33166" lon="-0.77253">
        <ele>67.43</ele>
        <time>2011-04-16T19:19:21Z</time>
      </trkpt>
      <trkpt lat="47.33172" lon="-0.77256">
        <ele>66.95</ele>
        <time>2011-04-16T19:19:22Z</time>
      </trkpt>
      <trkpt lat="47.33179" lon="-0.77259">
        <ele>66.95</ele>
        <time>2011-04-16T19:19:23Z</time>
      </trkpt>
      <trkpt lat="47.33196" lon="-0.77273">
        <ele>65.51</ele>
        <time>2011-04-16T19:19:26Z</time>
      </trkpt>
      <trkpt lat="47.33219" lon="-0.77294">
        <ele>64.07</ele>
        <time>2011-04-16T19:19:30Z</time>
      </trkpt>
      <trkpt lat="47.33224" lon="-0.77298">
        <ele>63.58</ele>
        <time>2011-04-16T19:19:31Z</time>
      </trkpt>
      <trkpt lat="47.3323" lon="-0.77299">
        <ele>63.1</ele>
        <time>2011-04-16T19:19:32Z</time>
      </trkpt>
      <trkpt lat="47.33243" lon="-0.77301">
        <ele>62.14</ele>
        <time>2011-04-16T19:19:34Z</time>
      </trkpt>
      <trkpt lat="47.3325" lon="-0.77301">
        <ele>61.18</ele>
        <time>2011-04-16T19:19:35Z</time>
      </trkpt>
      <trkpt lat="47.33265" lon="-0.77299">
        <ele>60.22</ele>
        <time>2011-04-16T19:19:37Z</time>
      </trkpt>
      <trkpt lat="47.3331" lon="-0.77302">
        <ele>57.34</ele>
        <time>2011-04-16T19:19:43Z</time>
      </trkpt>
      <trkpt lat="47.33326" lon="-0.77306">
        <ele>56.37</ele>
        <time>2011-04-16T19:19:45Z</time>
      </trkpt>
      <trkpt lat="47.33348" lon="-0.77309">
        <ele>54.93</ele>
        <time>2011-04-16T19:19:48Z</time>
      </trkpt>
      <trkpt lat="47.33363" lon="-0.77311">
        <ele>53.97</ele>
        <time>2011-04-16T19:19:50Z</time>
      </trkpt>
      <trkpt lat="47.33377" lon="-0.77314">
        <ele>53.49</ele>
        <time>2011-04-16T19:19:52Z</time>
      </trkpt>
      <trkpt lat="47.33383" lon="-0.77317">
        <ele>53.49</ele>
        <time>2011-04-16T19:19:53Z</time>
      </trkpt>
      <trkpt lat="47.33389" lon="-0.77321">
        <ele>52.05</ele>
        <time>2011-04-16T19:19:54Z</time>
      </trkpt>
      <trkpt lat="47.33395" lon="-0.77326">
        <ele>51.57</ele>
        <time>2011-04-16T19:19:55Z</time>
      </trkpt>
      <trkpt lat="47.33401" lon="-0.77332">
        <ele>51.09</ele>
        <time>2011-04-16T19:19:56Z</time>
      </trkpt>
      <trkpt lat="47.33407" lon="-0.77337">
        <ele>50.61</ele>
        <time>2011-04-16T19:19:57Z</time>
      </trkpt>
      <trkpt lat="47.33425" lon="-0.77354">
        <ele>49.16</ele>
        <time>2011-04-16T19:20:00Z</time>
      </trkpt>
      <trkpt lat="47.33432" lon="-0.7736">
        <ele>48.68</ele>
        <time>2011-04-16T19:20:01Z</time>
      </trkpt>
      <trkpt lat="47.33439" lon="-0.77365">
        <ele>48.2</ele>
        <time>2011-04-16T19:20:02Z</time>
      </trkpt>
      <trkpt lat="47.33445" lon="-0.77369">
        <ele>47.24</ele>
        <time>2011-04-16T19:20:03Z</time>
      </trkpt>
      <trkpt lat="47.3345" lon="-0.77373">
        <ele>47.24</ele>
        <time>2011-04-16T19:20:04Z</time>
      </trkpt>
      <trkpt lat="47.33455" lon="-0.77378">
        <ele>47.24</ele>
        <time>2011-04-16T19:20:05Z</time>
      </trkpt>
      <trkpt lat="47.33459" lon="-0.77384">
        <ele>46.28</ele>
        <time>2011-04-16T19:20:06Z</time>
      </trkpt>
      <trkpt lat="47.33462" lon="-0.7739">
        <ele>46.76</ele>
        <time>2011-04-16T19:20:07Z</time>
      </trkpt>
      <trkpt lat="47.33465" lon="-0.77398">
        <ele>45.8</ele>
        <time>2011-04-16T19:20:08Z</time>
      </trkpt>
      <trkpt lat="47.33473" lon="-0.77421">
        <ele>43.88</ele>
        <time>2011-04-16T19:20:11Z</time>
      </trkpt>
      <trkpt lat="47.33475" lon="-0.77429">
        <ele>42.92</ele>
        <time>2011-04-16T19:20:12Z</time>
      </trkpt>
      <trkpt lat="47.33478" lon="-0.77437">
        <ele>41.95</ele>
        <time>2011-04-16T19:20:13Z</time>
      </trkpt>
      <trkpt lat="47.33482" lon="-0.77445">
        <ele>40.99</ele>
        <time>2011-04-16T19:20:14Z</time>
      </trkpt>
      <trkpt lat="47.33485" lon="-0.77453">
        <ele>40.51</ele>
        <time>2011-04-16T19:20:15Z</time>
      </trkpt>
      <trkpt lat="47.33488" lon="-0.77461">
        <ele>40.51</ele>
        <time>2011-04-16T19:20:16Z</time>
      </trkpt>
      <trkpt lat="47.33491" lon="-0.7747">
        <ele>39.55</ele>
        <time>2011-04-16T19:20:17Z</time>
      </trkpt>
      <trkpt lat="47.33494" lon="-0.77478">
        <ele>39.07</ele>
        <time>2011-04-16T19:20:18Z</time>
      </trkpt>
      <trkpt lat="47.33496" lon="-0.77487">
        <ele>38.59</ele>
        <time>2011-04-16T19:20:19Z</time>
      </trkpt>
      <trkpt lat="47.33497" lon="-0.77495">
        <ele>38.11</ele>
        <time>2011-04-16T19:20:20Z</time>
      </trkpt>
      <trkpt lat="47.33499" lon="-0.77501">
        <ele>36.67</ele>
        <time>2011-04-16T19:20:21Z</time>
      </trkpt>
      <trkpt lat="47.33503" lon="-0.77509">
        <ele>35.71</ele>
        <time>2011-04-16T19:20:22Z</time>
      </trkpt>
      <trkpt lat="47.33508" lon="-0.77514">
        <ele>35.23</ele>
        <time>2011-04-16T19:20:23Z</time>
      </trkpt>
      <trkpt lat="47.33514" lon="-0.7752">
        <ele>35.23</ele>
        <time>2011-04-16T19:20:24Z</time>
      </trkpt>
      <trkpt lat="47.33521" lon="-0.77525">
        <ele>34.74</ele>
        <time>2011-04-16T19:20:25Z</time>
      </trkpt>
      <trkpt lat="47.33529" lon="-0.7753">
        <ele>33.78</ele>
        <time>2011-04-16T19:20:26Z</time>
      </trkpt>
      <trkpt lat="47.33539" lon="-0.77536">
        <ele>32.34</ele>
        <time>2011-04-16T19:20:27Z</time>
      </trkpt>
      <trkpt lat="47.33547" lon="-0.77544">
        <ele>32.34</ele>
        <time>2011-04-16T19:20:28Z</time>
      </trkpt>
      <trkpt lat="47.33554" lon="-0.77553">
        <ele>31.38</ele>
        <time>2011-04-16T19:20:29Z</time>
      </trkpt>
      <trkpt lat="47.33561" lon="-0.77561">
        <ele>31.38</ele>
        <time>2011-04-16T19:20:30Z</time>
      </trkpt>
      <trkpt lat="47.33574" lon="-0.77577">
        <ele>30.9</ele>
        <time>2011-04-16T19:20:32Z</time>
      </trkpt>
      <trkpt lat="47.3358" lon="-0.77584">
        <ele>30.9</ele>
        <time>2011-04-16T19:20:33Z</time>
      </trkpt>
      <trkpt lat="47.33587" lon="-0.7759">
        <ele>30.42</ele>
        <time>2011-04-16T19:20:34Z</time>
      </trkpt>
      <trkpt lat="47.33593" lon="-0.77596">
        <ele>30.42</ele>
        <time>2011-04-16T19:20:35Z</time>
      </trkpt>
      <trkpt lat="47.336" lon="-0.77605">
        <ele>29.94</ele>
        <time>2011-04-16T19:20:36Z</time>
      </trkpt>
      <trkpt lat="47.33611" lon="-0.7762">
        <ele>28.5</ele>
        <time>2011-04-16T19:20:38Z</time>
      </trkpt>
      <trkpt lat="47.33624" lon="-0.77634">
        <ele>28.5</ele>
        <time>2011-04-16T19:20:40Z</time>
      </trkpt>
      <trkpt lat="47.33638" lon="-0.77659">
        <ele>26.09</ele>
        <time>2011-04-16T19:20:44Z</time>
      </trkpt>
      <trkpt lat="47.33641" lon="-0.77666">
        <ele>25.61</ele>
        <time>2011-04-16T19:20:45Z</time>
      </trkpt>
      <trkpt lat="47.33644" lon="-0.77671">
        <ele>25.13</ele>
        <time>2011-04-16T19:20:46Z</time>
      </trkpt>
      <trkpt lat="47.33647" lon="-0.77677">
        <ele>24.17</ele>
        <time>2011-04-16T19:20:47Z</time>
      </trkpt>
      <trkpt lat="47.3365" lon="-0.77683">
        <ele>24.17</ele>
        <time>2011-04-16T19:20:48Z</time>
      </trkpt>
      <trkpt lat="47.33651" lon="-0.7769">
        <ele>23.21</ele>
        <time>2011-04-16T19:20:49Z</time>
      </trkpt>
      <trkpt lat="47.33651" lon="-0.77696">
        <ele>23.21</ele>
        <time>2011-04-16T19:20:50Z</time>
      </trkpt>
      <trkpt lat="47.33649" lon="-0.777">
        <ele>22.73</ele>
        <time>2011-04-16T19:20:51Z</time>
      </trkpt>
      <trkpt lat="47.3365" lon="-0.77705">
        <ele>22.25</ele>
        <time>2011-04-16T19:20:52Z</time>
      </trkpt>
      <trkpt lat="47.33653" lon="-0.77707">
        <ele>22.73</ele>
        <time>2011-04-16T19:20:53Z</time>
      </trkpt>
      <trkpt lat="47.3365" lon="-0.7771">
        <ele>22.25</ele>
        <time>2011-04-16T19:20:54Z</time>
      </trkpt>
      <trkpt lat="47.33646" lon="-0.77711">
        <ele>22.73</ele>
        <time>2011-04-16T19:20:55Z</time>
      </trkpt>
      <trkpt lat="47.33623" lon="-0.77716">
        <ele>22.73</ele>
        <time>2011-04-16T19:21:00Z</time>
      </trkpt>
      <trkpt lat="47.33619" lon="-0.77717">
        <ele>22.73</ele>
        <time>2011-04-16T19:21:01Z</time>
      </trkpt>
      <trkpt lat="47.33615" lon="-0.77718">
        <ele>23.21</ele>
        <time>2011-04-16T19:21:02Z</time>
      </trkpt>
      <trkpt lat="47.3361" lon="-0.77721">
        <ele>22.73</ele>
        <time>2011-04-16T19:21:03Z</time>
      </trkpt>
      <trkpt lat="47.33606" lon="-0.77725">
        <ele>23.21</ele>
        <time>2011-04-16T19:21:04Z</time>
      </trkpt>
      <trkpt lat="47.33602" lon="-0.77728">
        <ele>22.73</ele>
        <time>2011-04-16T19:21:05Z</time>
      </trkpt>
      <trkpt lat="47.33597" lon="-0.7773">
        <ele>23.21</ele>
        <time>2011-04-16T19:21:06Z</time>
      </trkpt>
      <trkpt lat="47.33583" lon="-0.7774">
        <ele>22.73</ele>
        <time>2011-04-16T19:21:09Z</time>
      </trkpt>
      <trkpt lat="47.33578" lon="-0.77742">
        <ele>23.21</ele>
        <time>2011-04-16T19:21:10Z</time>
      </trkpt>
      <trkpt lat="47.33555" lon="-0.77756">
        <ele>23.69</ele>
        <time>2011-04-16T19:21:15Z</time>
      </trkpt>
      <trkpt lat="47.33544" lon="-0.77765">
        <ele>23.21</ele>
        <time>2011-04-16T19:21:18Z</time>
      </trkpt>
      <trkpt lat="47.33542" lon="-0.7777">
        <ele>23.21</ele>
        <time>2011-04-16T19:21:19Z</time>
      </trkpt>
      <trkpt lat="47.33539" lon="-0.77777">
        <ele>22.73</ele>
        <time>2011-04-16T19:21:20Z</time>
      </trkpt>
      <trkpt lat="47.33536" lon="-0.77786">
        <ele>22.25</ele>
        <time>2011-04-16T19:21:21Z</time>
      </trkpt>
      <trkpt lat="47.33533" lon="-0.77793">
        <ele>22.73</ele>
        <time>2011-04-16T19:21:22Z</time>
      </trkpt>
      <trkpt lat="47.3353" lon="-0.77799">
        <ele>22.73</ele>
        <time>2011-04-16T19:21:23Z</time>
      </trkpt>
      <trkpt lat="47.33526" lon="-0.77805">
        <ele>22.25</ele>
        <time>2011-04-16T19:21:24Z</time>
      </trkpt>
      <trkpt lat="47.33522" lon="-0.77812">
        <ele>22.73</ele>
        <time>2011-04-16T19:21:25Z</time>
      </trkpt>
      <trkpt lat="47.33514" lon="-0.7783">
        <ele>22.73</ele>
        <time>2011-04-16T19:21:28Z</time>
      </trkpt>
      <trkpt lat="47.33509" lon="-0.77833">
        <ele>22.73</ele>
        <time>2011-04-16T19:21:29Z</time>
      </trkpt>
      <trkpt lat="47.33501" lon="-0.77848">
        <ele>23.21</ele>
        <time>2011-04-16T19:21:32Z</time>
      </trkpt>
      <trkpt lat="47.33507" lon="-0.77861">
        <ele>24.65</ele>
        <time>2011-04-16T19:21:38Z</time>
      </trkpt>
      <trkpt lat="47.33508" lon="-0.7786">
        <ele>25.61</ele>
        <time>2011-04-16T19:21:39Z</time>
      </trkpt>
      <trkpt lat="47.33527" lon="-0.77846">
        <ele>28.02</ele>
        <time>2011-04-16T19:21:50Z</time>
      </trkpt>
      <trkpt lat="47.3355" lon="-0.77837">
        <ele>29.46</ele>
        <time>2011-04-16T19:21:58Z</time>
      </trkpt>
      <trkpt lat="47.33569" lon="-0.77834">
        <ele>31.38</ele>
        <time>2011-04-16T19:22:05Z</time>
      </trkpt>
      <trkpt lat="47.33579" lon="-0.77833">
        <ele>31.86</ele>
        <time>2011-04-16T19:22:09Z</time>
      </trkpt>
      <trkpt lat="47.3359" lon="-0.77833">
        <ele>32.82</ele>
        <time>2011-04-16T19:22:14Z</time>
      </trkpt>
      <trkpt lat="47.33601" lon="-0.77837">
        <ele>34.26</ele>
        <time>2011-04-16T19:22:20Z</time>
      </trkpt>
      <trkpt lat="47.33602" lon="-0.77837">
        <ele>34.74</ele>
        <time>2011-04-16T19:22:21Z</time>
      </trkpt>
      <trkpt lat="47.33612" lon="-0.77842">
        <ele>36.67</ele>
        <time>2011-04-16T19:22:28Z</time>
      </trkpt>
      <trkpt lat="47.33614" lon="-0.77845">
        <ele>37.63</ele>
        <time>2011-04-16T19:22:30Z</time>
      </trkpt>
      <trkpt lat="47.33621" lon="-0.77852">
        <ele>39.55</ele>
        <time>2011-04-16T19:22:36Z</time>
      </trkpt>
      <trkpt lat="47.33623" lon="-0.77859">
        <ele>40.51</ele>
        <time>2011-04-16T19:22:40Z</time>
      </trkpt>
      <trkpt lat="47.33619" lon="-0.77867">
        <ele>42.92</ele>
        <time>2011-04-16T19:22:46Z</time>
      </trkpt>
      <trkpt lat="47.33612" lon="-0.77877">
        <ele>44.36</ele>
        <time>2011-04-16T19:22:53Z</time>
      </trkpt>
      <trkpt lat="47.33604" lon="-0.77889">
        <ele>45.32</ele>
        <time>2011-04-16T19:23:00Z</time>
      </trkpt>
      <trkpt lat="47.33595" lon="-0.77904">
        <ele>47.24</ele>
        <time>2011-04-16T19:23:08Z</time>
      </trkpt>
      <trkpt lat="47.33598" lon="-0.77915">
        <ele>47.72</ele>
        <time>2011-04-16T19:23:13Z</time>
      </trkpt>
      <trkpt lat="47.33601" lon="-0.77932">
        <ele>46.76</ele>
        <time>2011-04-16T19:23:17Z</time>
      </trkpt>
      <trkpt lat="47.33602" lon="-0.77938">
        <ele>46.28</ele>
        <time>2011-04-16T19:23:18Z</time>
      </trkpt>
      <trkpt lat="47.33603" lon="-0.77944">
        <ele>46.28</ele>
        <time>2011-04-16T19:23:19Z</time>
      </trkpt>
      <trkpt lat="47.33604" lon="-0.77949">
        <ele>45.32</ele>
        <time>2011-04-16T19:23:20Z</time>
      </trkpt>
      <trkpt lat="47.33605" lon="-0.77953">
        <ele>44.84</ele>
        <time>2011-04-16T19:23:21Z</time>
      </trkpt>
      <trkpt lat="47.33605" lon="-0.77958">
        <ele>44.36</ele>
        <time>2011-04-16T19:23:22Z</time>
      </trkpt>
      <trkpt lat="47.33606" lon="-0.77962">
        <ele>42.92</ele>
        <time>2011-04-16T19:23:23Z</time>
      </trkpt>
      <trkpt lat="47.33606" lon="-0.77967">
        <ele>42.92</ele>
        <time>2011-04-16T19:23:24Z</time>
      </trkpt>
      <trkpt lat="47.33608" lon="-0.77971">
        <ele>41.95</ele>
        <time>2011-04-16T19:23:26Z</time>
      </trkpt>
      <trkpt lat="47.33609" lon="-0.7797">
        <ele>41.47</ele>
        <time>2011-04-16T19:23:27Z</time>
      </trkpt>
      <trkpt lat="47.33609" lon="-0.77968">
        <ele>40.99</ele>
        <time>2011-04-16T19:23:28Z</time>
      </trkpt>
      <trkpt lat="47.3361" lon="-0.77966">
        <ele>40.03</ele>
        <time>2011-04-16T19:23:29Z</time>
      </trkpt>
      <trkpt lat="47.33612" lon="-0.77961">
        <ele>38.59</ele>
        <time>2011-04-16T19:23:30Z</time>
      </trkpt>
      <trkpt lat="47.33613" lon="-0.77956">
        <ele>38.11</ele>
        <time>2011-04-16T19:23:31Z</time>
      </trkpt>
      <trkpt lat="47.33614" lon="-0.77951">
        <ele>38.11</ele>
        <time>2011-04-16T19:23:32Z</time>
      </trkpt>
      <trkpt lat="47.33615" lon="-0.77946">
        <ele>37.15</ele>
        <time>2011-04-16T19:23:33Z</time>
      </trkpt>
      <trkpt lat="47.33616" lon="-0.77941">
        <ele>36.67</ele>
        <time>2011-04-16T19:23:34Z</time>
      </trkpt>
      <trkpt lat="47.33619" lon="-0.77937">
        <ele>36.19</ele>
        <time>2011-04-16T19:23:35Z</time>
      </trkpt>
      <trkpt lat="47.33621" lon="-0.77935">
        <ele>34.74</ele>
        <time>2011-04-16T19:23:36Z</time>
      </trkpt>
      <trkpt lat="47.33622" lon="-0.77935">
        <ele>33.3</ele>
        <time>2011-04-16T19:23:37Z</time>
      </trkpt>
      <trkpt lat="47.33623" lon="-0.77936">
        <ele>32.82</ele>
        <time>2011-04-16T19:23:38Z</time>
      </trkpt>
      <trkpt lat="47.33625" lon="-0.77939">
        <ele>32.82</ele>
        <time>2011-04-16T19:23:39Z</time>
      </trkpt>
      <trkpt lat="47.33627" lon="-0.77943">
        <ele>32.34</ele>
        <time>2011-04-16T19:23:40Z</time>
      </trkpt>
      <trkpt lat="47.33629" lon="-0.77948">
        <ele>30.9</ele>
        <time>2011-04-16T19:23:41Z</time>
      </trkpt>
      <trkpt lat="47.3363" lon="-0.77955">
        <ele>30.42</ele>
        <time>2011-04-16T19:23:42Z</time>
      </trkpt>
      <trkpt lat="47.33631" lon="-0.77962">
        <ele>29.94</ele>
        <time>2011-04-16T19:23:43Z</time>
      </trkpt>
      <trkpt lat="47.33632" lon="-0.7797">
        <ele>28.98</ele>
        <time>2011-04-16T19:23:44Z</time>
      </trkpt>
      <trkpt lat="47.33634" lon="-0.77976">
        <ele>28.5</ele>
        <time>2011-04-16T19:23:45Z</time>
      </trkpt>
      <trkpt lat="47.33637" lon="-0.7798">
        <ele>28.5</ele>
        <time>2011-04-16T19:23:46Z</time>
      </trkpt>
      <trkpt lat="47.3364" lon="-0.77982">
        <ele>27.53</ele>
        <time>2011-04-16T19:23:47Z</time>
      </trkpt>
      <trkpt lat="47.33644" lon="-0.77982">
        <ele>27.05</ele>
        <time>2011-04-16T19:23:48Z</time>
      </trkpt>
      <trkpt lat="47.33649" lon="-0.7798">
        <ele>25.61</ele>
        <time>2011-04-16T19:23:49Z</time>
      </trkpt>
      <trkpt lat="47.33657" lon="-0.77967">
        <ele>24.17</ele>
        <time>2011-04-16T19:23:51Z</time>
      </trkpt>
      <trkpt lat="47.3366" lon="-0.7796">
        <ele>23.21</ele>
        <time>2011-04-16T19:23:52Z</time>
      </trkpt>
      <trkpt lat="47.33661" lon="-0.77952">
        <ele>23.21</ele>
        <time>2011-04-16T19:23:53Z</time>
      </trkpt>
      <trkpt lat="47.33661" lon="-0.77943">
        <ele>21.77</ele>
        <time>2011-04-16T19:23:54Z</time>
      </trkpt>
      <trkpt lat="47.33662" lon="-0.77935">
        <ele>21.77</ele>
        <time>2011-04-16T19:23:55Z</time>
      </trkpt>
      <trkpt lat="47.33664" lon="-0.77916">
        <ele>19.84</ele>
        <time>2011-04-16T19:23:58Z</time>
      </trkpt>
      <trkpt lat="47.33671" lon="-0.77904">
        <ele>17.92</ele>
        <time>2011-04-16T19:24:01Z</time>
      </trkpt>
      <trkpt lat="47.33675" lon="-0.77904">
        <ele>17.44</ele>
        <time>2011-04-16T19:24:02Z</time>
      </trkpt>
      <trkpt lat="47.33693" lon="-0.77909">
        <ele>17.44</ele>
        <time>2011-04-16T19:24:06Z</time>
      </trkpt>
      <trkpt lat="47.33698" lon="-0.77908">
        <ele>17.44</ele>
        <time>2011-04-16T19:24:07Z</time>
      </trkpt>
      <trkpt lat="47.33714" lon="-0.77899">
        <ele>20.32</ele>
        <time>2011-04-16T19:24:12Z</time>
      </trkpt>
      <trkpt lat="47.33722" lon="-0.77888">
        <ele>22.25</ele>
        <time>2011-04-16T19:24:18Z</time>
      </trkpt>
      <trkpt lat="47.33725" lon="-0.77885">
        <ele>22.25</ele>
        <time>2011-04-16T19:24:20Z</time>
      </trkpt>
      <trkpt lat="47.33726" lon="-0.77883">
        <ele>22.73</ele>
        <time>2011-04-16T19:24:21Z</time>
      </trkpt>
      <trkpt lat="47.33729" lon="-0.77879">
        <ele>23.21</ele>
        <time>2011-04-16T19:24:23Z</time>
      </trkpt>
      <trkpt lat="47.3373" lon="-0.77876">
        <ele>23.21</ele>
        <time>2011-04-16T19:24:24Z</time>
      </trkpt>
      <trkpt lat="47.33731" lon="-0.77873">
        <ele>22.73</ele>
        <time>2011-04-16T19:24:25Z</time>
      </trkpt>
      <trkpt lat="47.33733" lon="-0.77867">
        <ele>23.69</ele>
        <time>2011-04-16T19:24:27Z</time>
      </trkpt>
      <trkpt lat="47.33733" lon="-0.77865">
        <ele>23.21</ele>
        <time>2011-04-16T19:24:28Z</time>
      </trkpt>
      <trkpt lat="47.33733" lon="-0.77862">
        <ele>22.73</ele>
        <time>2011-04-16T19:24:29Z</time>
      </trkpt>
      <trkpt lat="47.33733" lon="-0.77859">
        <ele>23.21</ele>
        <time>2011-04-16T19:24:30Z</time>
      </trkpt>
      <trkpt lat="47.33735" lon="-0.77855">
        <ele>23.21</ele>
        <time>2011-04-16T19:24:31Z</time>
      </trkpt>
      <trkpt lat="47.33738" lon="-0.77849">
        <ele>23.69</ele>
        <time>2011-04-16T19:24:32Z</time>
      </trkpt>
      <trkpt lat="47.3374" lon="-0.77844">
        <ele>23.21</ele>
        <time>2011-04-16T19:24:33Z</time>
      </trkpt>
      <trkpt lat="47.33745" lon="-0.77833">
        <ele>23.69</ele>
        <time>2011-04-16T19:24:35Z</time>
      </trkpt>
      <trkpt lat="47.33748" lon="-0.77826">
        <ele>23.21</ele>
        <time>2011-04-16T19:24:36Z</time>
      </trkpt>
      <trkpt lat="47.3375" lon="-0.77821">
        <ele>22.73</ele>
        <time>2011-04-16T19:24:37Z</time>
      </trkpt>
      <trkpt lat="47.33757" lon="-0.77805">
        <ele>22.73</ele>
        <time>2011-04-16T19:24:40Z</time>
      </trkpt>
      <trkpt lat="47.3376" lon="-0.77798">
        <ele>22.25</ele>
        <time>2011-04-16T19:24:41Z</time>
      </trkpt>
      <trkpt lat="47.33762" lon="-0.77792">
        <ele>22.73</ele>
        <time>2011-04-16T19:24:42Z</time>
      </trkpt>
      <trkpt lat="47.33769" lon="-0.77768">
        <ele>21.77</ele>
        <time>2011-04-16T19:24:46Z</time>
      </trkpt>
      <trkpt lat="47.33771" lon="-0.77763">
        <ele>22.25</ele>
        <time>2011-04-16T19:24:47Z</time>
      </trkpt>
      <trkpt lat="47.33773" lon="-0.77758">
        <ele>21.77</ele>
        <time>2011-04-16T19:24:48Z</time>
      </trkpt>
      <trkpt lat="47.33774" lon="-0.77753">
        <ele>22.25</ele>
        <time>2011-04-16T19:24:49Z</time>
      </trkpt>
      <trkpt lat="47.33777" lon="-0.77747">
        <ele>21.77</ele>
        <time>2011-04-16T19:24:50Z</time>
      </trkpt>
      <trkpt lat="47.33779" lon="-0.77742">
        <ele>21.77</ele>
        <time>2011-04-16T19:24:51Z</time>
      </trkpt>
      <trkpt lat="47.3378" lon="-0.77736">
        <ele>21.77</ele>
        <time>2011-04-16T19:24:52Z</time>
      </trkpt>
      <trkpt lat="47.33783" lon="-0.77731">
        <ele>21.29</ele>
        <time>2011-04-16T19:24:53Z</time>
      </trkpt>
      <trkpt lat="47.33786" lon="-0.77725">
        <ele>21.29</ele>
        <time>2011-04-16T19:24:54Z</time>
      </trkpt>
      <trkpt lat="47.33793" lon="-0.77708">
        <ele>20.81</ele>
        <time>2011-04-16T19:24:57Z</time>
      </trkpt>
      <trkpt lat="47.33796" lon="-0.77703">
        <ele>21.77</ele>
        <time>2011-04-16T19:24:58Z</time>
      </trkpt>
      <trkpt lat="47.33799" lon="-0.77697">
        <ele>20.81</ele>
        <time>2011-04-16T19:24:59Z</time>
      </trkpt>
      <trkpt lat="47.33802" lon="-0.77692">
        <ele>21.29</ele>
        <time>2011-04-16T19:25:00Z</time>
      </trkpt>
      <trkpt lat="47.33804" lon="-0.77688">
        <ele>21.29</ele>
        <time>2011-04-16T19:25:01Z</time>
      </trkpt>
      <trkpt lat="47.33806" lon="-0.77684">
        <ele>21.29</ele>
        <time>2011-04-16T19:25:02Z</time>
      </trkpt>
      <trkpt lat="47.33808" lon="-0.77678">
        <ele>21.29</ele>
        <time>2011-04-16T19:25:04Z</time>
      </trkpt>
      <trkpt lat="47.33813" lon="-0.7767">
        <ele>20.81</ele>
        <time>2011-04-16T19:25:10Z</time>
      </trkpt>
      <trkpt lat="47.33816" lon="-0.77672">
        <ele>20.81</ele>
        <time>2011-04-16T19:25:19Z</time>
      </trkpt>
      <trkpt lat="47.33818" lon="-0.77675">
        <ele>20.81</ele>
        <time>2011-04-16T19:25:25Z</time>
      </trkpt>
      <trkpt lat="47.33819" lon="-0.77672">
        <ele>20.32</ele>
        <time>2011-04-16T19:25:29Z</time>
      </trkpt>
      <trkpt lat="47.33818" lon="-0.77671">
        <ele>20.81</ele>
        <time>2011-04-16T19:25:30Z</time>
      </trkpt>
      <trkpt lat="47.33817" lon="-0.77669">
        <ele>21.29</ele>
        <time>2011-04-16T19:25:32Z</time>
      </trkpt>
      <trkpt lat="47.33817" lon="-0.77667">
        <ele>20.81</ele>
        <time>2011-04-16T19:25:33Z</time>
      </trkpt>
      <trkpt lat="47.33815" lon="-0.77663">
        <ele>18.4</ele>
        <time>2011-04-16T19:25:36Z</time>
      </trkpt>
      <trkpt lat="47.33807" lon="-0.77655">
        <ele>16.96</ele>
        <time>2011-04-16T19:25:38Z</time>
      </trkpt>
      <trkpt lat="47.33802" lon="-0.77652">
        <ele>15.52</ele>
        <time>2011-04-16T19:25:39Z</time>
      </trkpt>
      <trkpt lat="47.33798" lon="-0.77649">
        <ele>15.52</ele>
        <time>2011-04-16T19:25:40Z</time>
      </trkpt>
      <trkpt lat="47.33782" lon="-0.77642">
        <ele>15.04</ele>
        <time>2011-04-16T19:25:44Z</time>
      </trkpt>
      <trkpt lat="47.33769" lon="-0.77638">
        <ele>15.04</ele>
        <time>2011-04-16T19:25:48Z</time>
      </trkpt>
      <trkpt lat="47.33771" lon="-0.77632">
        <ele>15.04</ele>
        <time>2011-04-16T19:25:49Z</time>
      </trkpt>
      <trkpt lat="47.33773" lon="-0.77629">
        <ele>15.52</ele>
        <time>2011-04-16T19:25:50Z</time>
      </trkpt>
      <trkpt lat="47.33775" lon="-0.77626">
        <ele>15.04</ele>
        <time>2011-04-16T19:25:51Z</time>
      </trkpt>
      <trkpt lat="47.33778" lon="-0.77622">
        <ele>15.52</ele>
        <time>2011-04-16T19:25:52Z</time>
      </trkpt>
      <trkpt lat="47.33781" lon="-0.77617">
        <ele>15.52</ele>
        <time>2011-04-16T19:25:53Z</time>
      </trkpt>
      <trkpt lat="47.33784" lon="-0.77613">
        <ele>15.52</ele>
        <time>2011-04-16T19:25:54Z</time>
      </trkpt>
      <trkpt lat="47.33786" lon="-0.77609">
        <ele>15.04</ele>
        <time>2011-04-16T19:25:55Z</time>
      </trkpt>
      <trkpt lat="47.33789" lon="-0.77604">
        <ele>16</ele>
        <time>2011-04-16T19:25:56Z</time>
      </trkpt>
      <trkpt lat="47.33792" lon="-0.77601">
        <ele>15.04</ele>
        <time>2011-04-16T19:25:57Z</time>
      </trkpt>
      <trkpt lat="47.33793" lon="-0.77599">
        <ele>15.04</ele>
        <time>2011-04-16T19:25:58Z</time>
      </trkpt>
      <trkpt lat="47.33796" lon="-0.77596">
        <ele>15.04</ele>
        <time>2011-04-16T19:25:59Z</time>
      </trkpt>
      <trkpt lat="47.3381" lon="-0.77576">
        <ele>16</ele>
        <time>2011-04-16T19:26:04Z</time>
      </trkpt>
      <trkpt lat="47.33816" lon="-0.77564">
        <ele>17.44</ele>
        <time>2011-04-16T19:26:09Z</time>
      </trkpt>
      <trkpt lat="47.33821" lon="-0.77559">
        <ele>15.52</ele>
        <time>2011-04-16T19:26:12Z</time>
      </trkpt>
      <trkpt lat="47.33824" lon="-0.77558">
        <ele>15.52</ele>
        <time>2011-04-16T19:26:13Z</time>
      </trkpt>
      <trkpt lat="47.33829" lon="-0.77557">
        <ele>15.04</ele>
        <time>2011-04-16T19:26:14Z</time>
      </trkpt>
      <trkpt lat="47.33832" lon="-0.77555">
        <ele>15.04</ele>
        <time>2011-04-16T19:26:15Z</time>
      </trkpt>
      <trkpt lat="47.33834" lon="-0.77552">
        <ele>14.08</ele>
        <time>2011-04-16T19:26:16Z</time>
      </trkpt>
      <trkpt lat="47.33836" lon="-0.7755">
        <ele>14.56</ele>
        <time>2011-04-16T19:26:17Z</time>
      </trkpt>
      <trkpt lat="47.33845" lon="-0.77538">
        <ele>15.04</ele>
        <time>2011-04-16T19:26:21Z</time>
      </trkpt>
      <trkpt lat="47.33851" lon="-0.77529">
        <ele>16.48</ele>
        <time>2011-04-16T19:26:25Z</time>
      </trkpt>
      <trkpt lat="47.33861" lon="-0.77519">
        <ele>16.48</ele>
        <time>2011-04-16T19:26:29Z</time>
      </trkpt>
      <trkpt lat="47.33871" lon="-0.77513">
        <ele>15.04</ele>
        <time>2011-04-16T19:26:32Z</time>
      </trkpt>
      <trkpt lat="47.33876" lon="-0.7751">
        <ele>15.04</ele>
        <time>2011-04-16T19:26:33Z</time>
      </trkpt>
      <trkpt lat="47.33884" lon="-0.77505">
        <ele>14.56</ele>
        <time>2011-04-16T19:26:36Z</time>
      </trkpt>
      <trkpt lat="47.33898" lon="-0.77495">
        <ele>15.04</ele>
        <time>2011-04-16T19:26:41Z</time>
      </trkpt>
      <trkpt lat="47.33915" lon="-0.77481">
        <ele>16.48</ele>
        <time>2011-04-16T19:26:46Z</time>
      </trkpt>
      <trkpt lat="47.33932" lon="-0.77469">
        <ele>16.96</ele>
        <time>2011-04-16T19:26:51Z</time>
      </trkpt>
      <trkpt lat="47.33945" lon="-0.77459">
        <ele>18.4</ele>
        <time>2011-04-16T19:26:56Z</time>
      </trkpt>
      <trkpt lat="47.33961" lon="-0.77447">
        <ele>17.44</ele>
        <time>2011-04-16T19:27:02Z</time>
      </trkpt>
      <trkpt lat="47.33973" lon="-0.77437">
        <ele>16.96</ele>
        <time>2011-04-16T19:27:06Z</time>
      </trkpt>
      <trkpt lat="47.33976" lon="-0.77435">
        <ele>17.44</ele>
        <time>2011-04-16T19:27:07Z</time>
      </trkpt>
      <trkpt lat="47.33986" lon="-0.77433">
        <ele>16.96</ele>
        <time>2011-04-16T19:27:10Z</time>
      </trkpt>
      <trkpt lat="47.33992" lon="-0.7743">
        <ele>16.96</ele>
        <time>2011-04-16T19:27:11Z</time>
      </trkpt>
      <trkpt lat="47.33997" lon="-0.77427">
        <ele>16.48</ele>
        <time>2011-04-16T19:27:12Z</time>
      </trkpt>
      <trkpt lat="47.34003" lon="-0.77423">
        <ele>16.48</ele>
        <time>2011-04-16T19:27:13Z</time>
      </trkpt>
      <trkpt lat="47.34009" lon="-0.77418">
        <ele>16</ele>
        <time>2011-04-16T19:27:14Z</time>
      </trkpt>
      <trkpt lat="47.34016" lon="-0.77411">
        <ele>15.04</ele>
        <time>2011-04-16T19:27:15Z</time>
      </trkpt>
      <trkpt lat="47.34022" lon="-0.77403">
        <ele>15.04</ele>
        <time>2011-04-16T19:27:16Z</time>
      </trkpt>
      <trkpt lat="47.34032" lon="-0.7739">
        <ele>15.04</ele>
        <time>2011-04-16T19:27:18Z</time>
      </trkpt>
      <trkpt lat="47.34036" lon="-0.77384">
        <ele>15.52</ele>
        <time>2011-04-16T19:27:19Z</time>
      </trkpt>
      <trkpt lat="47.3404" lon="-0.77377">
        <ele>14.56</ele>
        <time>2011-04-16T19:27:20Z</time>
      </trkpt>
      <trkpt lat="47.34044" lon="-0.77369">
        <ele>14.08</ele>
        <time>2011-04-16T19:27:21Z</time>
      </trkpt>
      <trkpt lat="47.34047" lon="-0.77361">
        <ele>14.56</ele>
        <time>2011-04-16T19:27:22Z</time>
      </trkpt>
      <trkpt lat="47.34049" lon="-0.77354">
        <ele>13.6</ele>
        <time>2011-04-16T19:27:23Z</time>
      </trkpt>
      <trkpt lat="47.3405" lon="-0.77347">
        <ele>13.6</ele>
        <time>2011-04-16T19:27:24Z</time>
      </trkpt>
      <trkpt lat="47.34052" lon="-0.7734">
        <ele>14.56</ele>
        <time>2011-04-16T19:27:25Z</time>
      </trkpt>
      <trkpt lat="47.34055" lon="-0.77331">
        <ele>14.08</ele>
        <time>2011-04-16T19:27:27Z</time>
      </trkpt>
      <trkpt lat="47.34058" lon="-0.7733">
        <ele>13.6</ele>
        <time>2011-04-16T19:27:28Z</time>
      </trkpt>
      <trkpt lat="47.3406" lon="-0.77329">
        <ele>13.6</ele>
        <time>2011-04-16T19:27:29Z</time>
      </trkpt>
      <trkpt lat="47.34061" lon="-0.77329">
        <ele>13.6</ele>
        <time>2011-04-16T19:27:34Z</time>
      </trkpt>
      <trkpt lat="47.34062" lon="-0.77333">
        <ele>13.12</ele>
        <time>2011-04-16T19:27:40Z</time>
      </trkpt>
      <trkpt lat="47.34062" lon="-0.77334">
        <ele>12.15</ele>
        <time>2011-04-16T19:27:47Z</time>
      </trkpt>
      <trkpt lat="47.34062" lon="-0.77335">
        <ele>13.6</ele>
        <time>2011-04-16T19:29:57Z</time>
      </trkpt>
      <trkpt lat="47.34061" lon="-0.77331">
        <ele>14.56</ele>
        <time>2011-04-16T19:37:57Z</time>
      </trkpt>
      <trkpt lat="47.34061" lon="-0.7733">
        <ele>14.56</ele>
        <time>2011-04-16T19:37:59Z</time>
      </trkpt>
      <trkpt lat="47.34059" lon="-0.77327">
        <ele>14.56</ele>
        <time>2011-04-16T19:38:02Z</time>
      </trkpt>
      <trkpt lat="47.34058" lon="-0.77325">
        <ele>14.56</ele>
        <time>2011-04-16T19:38:03Z</time>
      </trkpt>
      <trkpt lat="47.34057" lon="-0.77323">
        <ele>14.08</ele>
        <time>2011-04-16T19:38:04Z</time>
      </trkpt>
      <trkpt lat="47.34057" lon="-0.7732">
        <ele>14.56</ele>
        <time>2011-04-16T19:38:05Z</time>
      </trkpt>
      <trkpt lat="47.34058" lon="-0.77316">
        <ele>14.56</ele>
        <time>2011-04-16T19:38:06Z</time>
      </trkpt>
      <trkpt lat="47.34059" lon="-0.77313">
        <ele>14.56</ele>
        <time>2011-04-16T19:38:07Z</time>
      </trkpt>
      <trkpt lat="47.34059" lon="-0.77309">
        <ele>15.04</ele>
        <time>2011-04-16T19:38:08Z</time>
      </trkpt>
      <trkpt lat="47.3406" lon="-0.77283">
        <ele>16</ele>
        <time>2011-04-16T19:38:14Z</time>
      </trkpt>
      <trkpt lat="47.34051" lon="-0.7725">
        <ele>16</ele>
        <time>2011-04-16T19:38:21Z</time>
      </trkpt>
      <trkpt lat="47.34042" lon="-0.77218">
        <ele>16</ele>
        <time>2011-04-16T19:38:28Z</time>
      </trkpt>
      <trkpt lat="47.34039" lon="-0.77207">
        <ele>15.04</ele>
        <time>2011-04-16T19:38:30Z</time>
      </trkpt>
      <trkpt lat="47.34024" lon="-0.77166">
        <ele>15.04</ele>
        <time>2011-04-16T19:38:38Z</time>
      </trkpt>
      <trkpt lat="47.34013" lon="-0.77132">
        <ele>15.04</ele>
        <time>2011-04-16T19:38:45Z</time>
      </trkpt>
      <trkpt lat="47.34008" lon="-0.77104">
        <ele>16</ele>
        <time>2011-04-16T19:38:51Z</time>
      </trkpt>
      <trkpt lat="47.3401" lon="-0.77072">
        <ele>15.52</ele>
        <time>2011-04-16T19:38:57Z</time>
      </trkpt>
      <trkpt lat="47.34019" lon="-0.77055">
        <ele>14.08</ele>
        <time>2011-04-16T19:39:01Z</time>
      </trkpt>
      <trkpt lat="47.34044" lon="-0.77028">
        <ele>13.6</ele>
        <time>2011-04-16T19:39:08Z</time>
      </trkpt>
      <trkpt lat="47.34052" lon="-0.7702">
        <ele>13.6</ele>
        <time>2011-04-16T19:39:10Z</time>
      </trkpt>
      <trkpt lat="47.3406" lon="-0.77011">
        <ele>13.6</ele>
        <time>2011-04-16T19:39:12Z</time>
      </trkpt>
      <trkpt lat="47.34086" lon="-0.76985">
        <ele>12.63</ele>
        <time>2011-04-16T19:39:19Z</time>
      </trkpt>
      <trkpt lat="47.34096" lon="-0.76976">
        <ele>12.63</ele>
        <time>2011-04-16T19:39:22Z</time>
      </trkpt>
      <trkpt lat="47.341" lon="-0.76972">
        <ele>12.15</ele>
        <time>2011-04-16T19:39:23Z</time>
      </trkpt>
      <trkpt lat="47.34121" lon="-0.76949">
        <ele>12.15</ele>
        <time>2011-04-16T19:39:29Z</time>
      </trkpt>
      <trkpt lat="47.34143" lon="-0.7692">
        <ele>12.15</ele>
        <time>2011-04-16T19:39:36Z</time>
      </trkpt>
      <trkpt lat="47.34156" lon="-0.769">
        <ele>12.15</ele>
        <time>2011-04-16T19:39:41Z</time>
      </trkpt>
      <trkpt lat="47.34166" lon="-0.76871">
        <ele>13.12</ele>
        <time>2011-04-16T19:39:47Z</time>
      </trkpt>
      <trkpt lat="47.34167" lon="-0.76864">
        <ele>13.12</ele>
        <time>2011-04-16T19:39:49Z</time>
      </trkpt>
      <trkpt lat="47.34166" lon="-0.76858">
        <ele>13.6</ele>
        <time>2011-04-16T19:39:50Z</time>
      </trkpt>
      <trkpt lat="47.34165" lon="-0.76855">
        <ele>13.12</ele>
        <time>2011-04-16T19:39:51Z</time>
      </trkpt>
      <trkpt lat="47.34162" lon="-0.76853">
        <ele>15.04</ele>
        <time>2011-04-16T19:39:56Z</time>
      </trkpt>
      <trkpt lat="47.34161" lon="-0.76853">
        <ele>15.04</ele>
        <time>2011-04-16T19:39:57Z</time>
      </trkpt>
      <trkpt lat="47.34158" lon="-0.76856">
        <ele>16</ele>
        <time>2011-04-16T19:40:01Z</time>
      </trkpt>
      <trkpt lat="47.34153" lon="-0.76859">
        <ele>17.44</ele>
        <time>2011-04-16T19:40:06Z</time>
      </trkpt>
      <trkpt lat="47.34147" lon="-0.76861">
        <ele>19.36</ele>
        <time>2011-04-16T19:40:12Z</time>
      </trkpt>
      <trkpt lat="47.34145" lon="-0.76861">
        <ele>19.36</ele>
        <time>2011-04-16T19:40:14Z</time>
      </trkpt>
      <trkpt lat="47.34139" lon="-0.76864">
        <ele>20.81</ele>
        <time>2011-04-16T19:40:19Z</time>
      </trkpt>
      <trkpt lat="47.34138" lon="-0.76864">
        <ele>20.32</ele>
        <time>2011-04-16T19:40:21Z</time>
      </trkpt>
      <trkpt lat="47.34137" lon="-0.76865">
        <ele>21.29</ele>
        <time>2011-04-16T19:40:22Z</time>
      </trkpt>
      <trkpt lat="47.34135" lon="-0.76866">
        <ele>20.81</ele>
        <time>2011-04-16T19:40:23Z</time>
      </trkpt>
      <trkpt lat="47.34132" lon="-0.76869">
        <ele>22.73</ele>
        <time>2011-04-16T19:40:26Z</time>
      </trkpt>
      <trkpt lat="47.34129" lon="-0.76872">
        <ele>23.69</ele>
        <time>2011-04-16T19:40:30Z</time>
      </trkpt>
      <trkpt lat="47.34127" lon="-0.76873">
        <ele>23.69</ele>
        <time>2011-04-16T19:40:31Z</time>
      </trkpt>
      <trkpt lat="47.34118" lon="-0.76879">
        <ele>25.61</ele>
        <time>2011-04-16T19:40:39Z</time>
      </trkpt>
      <trkpt lat="47.34115" lon="-0.76883">
        <ele>27.53</ele>
        <time>2011-04-16T19:40:44Z</time>
      </trkpt>
      <trkpt lat="47.3411" lon="-0.76886">
        <ele>28.5</ele>
        <time>2011-04-16T19:40:52Z</time>
      </trkpt>
      <trkpt lat="47.34102" lon="-0.76886">
        <ele>29.46</ele>
        <time>2011-04-16T19:41:00Z</time>
      </trkpt>
      <trkpt lat="47.34099" lon="-0.76888">
        <ele>29.94</ele>
        <time>2011-04-16T19:41:07Z</time>
      </trkpt>
      <trkpt lat="47.34098" lon="-0.76888">
        <ele>30.9</ele>
        <time>2011-04-16T19:41:14Z</time>
      </trkpt>
      <trkpt lat="47.34092" lon="-0.76892">
        <ele>31.86</ele>
        <time>2011-04-16T19:41:21Z</time>
      </trkpt>
      <trkpt lat="47.34085" lon="-0.76895">
        <ele>33.3</ele>
        <time>2011-04-16T19:41:28Z</time>
      </trkpt>
      <trkpt lat="47.34081" lon="-0.76896">
        <ele>34.26</ele>
        <time>2011-04-16T19:41:32Z</time>
      </trkpt>
      <trkpt lat="47.34077" lon="-0.76897">
        <ele>35.23</ele>
        <time>2011-04-16T19:41:38Z</time>
      </trkpt>
      <trkpt lat="47.34071" lon="-0.76899">
        <ele>36.67</ele>
        <time>2011-04-16T19:41:44Z</time>
      </trkpt>
      <trkpt lat="47.34068" lon="-0.76901">
        <ele>37.15</ele>
        <time>2011-04-16T19:41:50Z</time>
      </trkpt>
      <trkpt lat="47.34066" lon="-0.769">
        <ele>37.15</ele>
        <time>2011-04-16T19:41:55Z</time>
      </trkpt>
      <trkpt lat="47.34065" lon="-0.769">
        <ele>37.15</ele>
        <time>2011-04-16T19:41:56Z</time>
      </trkpt>
      <trkpt lat="47.34063" lon="-0.769">
        <ele>37.63</ele>
        <time>2011-04-16T19:41:57Z</time>
      </trkpt>
      <trkpt lat="47.34062" lon="-0.76899">
        <ele>38.59</ele>
        <time>2011-04-16T19:41:58Z</time>
      </trkpt>
      <trkpt lat="47.3406" lon="-0.76898">
        <ele>38.11</ele>
        <time>2011-04-16T19:41:59Z</time>
      </trkpt>
      <trkpt lat="47.34059" lon="-0.76897">
        <ele>38.11</ele>
        <time>2011-04-16T19:42:00Z</time>
      </trkpt>
      <trkpt lat="47.34056" lon="-0.76895">
        <ele>39.07</ele>
        <time>2011-04-16T19:42:03Z</time>
      </trkpt>
      <trkpt lat="47.34045" lon="-0.76892">
        <ele>40.99</ele>
        <time>2011-04-16T19:42:10Z</time>
      </trkpt>
      <trkpt lat="47.34043" lon="-0.76892">
        <ele>41.47</ele>
        <time>2011-04-16T19:42:11Z</time>
      </trkpt>
      <trkpt lat="47.34042" lon="-0.76892">
        <ele>41.47</ele>
        <time>2011-04-16T19:42:12Z</time>
      </trkpt>
      <trkpt lat="47.34041" lon="-0.76892">
        <ele>41.95</ele>
        <time>2011-04-16T19:42:13Z</time>
      </trkpt>
      <trkpt lat="47.3404" lon="-0.76891">
        <ele>41.95</ele>
        <time>2011-04-16T19:42:14Z</time>
      </trkpt>
      <trkpt lat="47.34029" lon="-0.76887">
        <ele>43.4</ele>
        <time>2011-04-16T19:42:21Z</time>
      </trkpt>
      <trkpt lat="47.34023" lon="-0.76885">
        <ele>44.84</ele>
        <time>2011-04-16T19:42:26Z</time>
      </trkpt>
      <trkpt lat="47.34021" lon="-0.76885">
        <ele>45.32</ele>
        <time>2011-04-16T19:42:27Z</time>
      </trkpt>
      <trkpt lat="47.3402" lon="-0.76884">
        <ele>45.8</ele>
        <time>2011-04-16T19:42:28Z</time>
      </trkpt>
      <trkpt lat="47.34018" lon="-0.76884">
        <ele>45.8</ele>
        <time>2011-04-16T19:42:29Z</time>
      </trkpt>
      <trkpt lat="47.34017" lon="-0.76883">
        <ele>45.8</ele>
        <time>2011-04-16T19:42:30Z</time>
      </trkpt>
      <trkpt lat="47.34016" lon="-0.76883">
        <ele>45.8</ele>
        <time>2011-04-16T19:42:31Z</time>
      </trkpt>
      <trkpt lat="47.34014" lon="-0.76883">
        <ele>46.28</ele>
        <time>2011-04-16T19:42:32Z</time>
      </trkpt>
      <trkpt lat="47.34013" lon="-0.76883">
        <ele>46.28</ele>
        <time>2011-04-16T19:42:33Z</time>
      </trkpt>
      <trkpt lat="47.34012" lon="-0.76884">
        <ele>46.76</ele>
        <time>2011-04-16T19:42:34Z</time>
      </trkpt>
      <trkpt lat="47.34011" lon="-0.76885">
        <ele>47.72</ele>
        <time>2011-04-16T19:42:35Z</time>
      </trkpt>
      <trkpt lat="47.3401" lon="-0.76886">
        <ele>46.76</ele>
        <time>2011-04-16T19:42:36Z</time>
      </trkpt>
      <trkpt lat="47.34008" lon="-0.76886">
        <ele>47.24</ele>
        <time>2011-04-16T19:42:37Z</time>
      </trkpt>
      <trkpt lat="47.34007" lon="-0.76886">
        <ele>47.72</ele>
        <time>2011-04-16T19:42:38Z</time>
      </trkpt>
      <trkpt lat="47.34005" lon="-0.76886">
        <ele>47.24</ele>
        <time>2011-04-16T19:42:39Z</time>
      </trkpt>
      <trkpt lat="47.34004" lon="-0.76887">
        <ele>47.72</ele>
        <time>2011-04-16T19:42:40Z</time>
      </trkpt>
      <trkpt lat="47.34003" lon="-0.76887">
        <ele>47.72</ele>
        <time>2011-04-16T19:42:41Z</time>
      </trkpt>
      <trkpt lat="47.34001" lon="-0.76887">
        <ele>47.72</ele>
        <time>2011-04-16T19:42:42Z</time>
      </trkpt>
      <trkpt lat="47.34" lon="-0.76886">
        <ele>48.2</ele>
        <time>2011-04-16T19:42:43Z</time>
      </trkpt>
      <trkpt lat="47.33999" lon="-0.76885">
        <ele>48.2</ele>
        <time>2011-04-16T19:42:44Z</time>
      </trkpt>
      <trkpt lat="47.33997" lon="-0.76885">
        <ele>48.68</ele>
        <time>2011-04-16T19:42:45Z</time>
      </trkpt>
      <trkpt lat="47.33994" lon="-0.76884">
        <ele>48.68</ele>
        <time>2011-04-16T19:42:47Z</time>
      </trkpt>
      <trkpt lat="47.33982" lon="-0.76879">
        <ele>49.65</ele>
        <time>2011-04-16T19:42:54Z</time>
      </trkpt>
      <trkpt lat="47.33968" lon="-0.76879">
        <ele>52.05</ele>
        <time>2011-04-16T19:43:01Z</time>
      </trkpt>
      <trkpt lat="47.33952" lon="-0.7687">
        <ele>53.49</ele>
        <time>2011-04-16T19:43:09Z</time>
      </trkpt>
      <trkpt lat="47.33935" lon="-0.76858">
        <ele>54.45</ele>
        <time>2011-04-16T19:43:17Z</time>
      </trkpt>
      <trkpt lat="47.33913" lon="-0.76842">
        <ele>56.37</ele>
        <time>2011-04-16T19:43:27Z</time>
      </trkpt>
      <trkpt lat="47.33891" lon="-0.76828">
        <ele>57.82</ele>
        <time>2011-04-16T19:43:36Z</time>
      </trkpt>
      <trkpt lat="47.33865" lon="-0.76819">
        <ele>59.74</ele>
        <time>2011-04-16T19:43:46Z</time>
      </trkpt>
      <trkpt lat="47.33835" lon="-0.76815">
        <ele>61.18</ele>
        <time>2011-04-16T19:43:57Z</time>
      </trkpt>
      <trkpt lat="47.33808" lon="-0.76814">
        <ele>63.1</ele>
        <time>2011-04-16T19:44:07Z</time>
      </trkpt>
      <trkpt lat="47.33782" lon="-0.76819">
        <ele>64.55</ele>
        <time>2011-04-16T19:44:16Z</time>
      </trkpt>
      <trkpt lat="47.33761" lon="-0.76825">
        <ele>66.47</ele>
        <time>2011-04-16T19:44:23Z</time>
      </trkpt>
      <trkpt lat="47.33736" lon="-0.76828">
        <ele>67.91</ele>
        <time>2011-04-16T19:44:31Z</time>
      </trkpt>
      <trkpt lat="47.33709" lon="-0.76826">
        <ele>69.83</ele>
        <time>2011-04-16T19:44:40Z</time>
      </trkpt>
      <trkpt lat="47.33683" lon="-0.76827">
        <ele>71.27</ele>
        <time>2011-04-16T19:44:49Z</time>
      </trkpt>
      <trkpt lat="47.33657" lon="-0.7683">
        <ele>73.2</ele>
        <time>2011-04-16T19:44:58Z</time>
      </trkpt>
      <trkpt lat="47.33628" lon="-0.76834">
        <ele>74.64</ele>
        <time>2011-04-16T19:45:08Z</time>
      </trkpt>
      <trkpt lat="47.33604" lon="-0.76841">
        <ele>76.08</ele>
        <time>2011-04-16T19:45:17Z</time>
      </trkpt>
      <trkpt lat="47.33573" lon="-0.76844">
        <ele>77.52</ele>
        <time>2011-04-16T19:45:28Z</time>
      </trkpt>
      <trkpt lat="47.33553" lon="-0.76853">
        <ele>78.48</ele>
        <time>2011-04-16T19:45:36Z</time>
      </trkpt>
      <trkpt lat="47.33552" lon="-0.76853">
        <ele>78.48</ele>
        <time>2011-04-16T19:45:41Z</time>
      </trkpt>
      <trkpt lat="47.33552" lon="-0.76853">
        <ele>78.97</ele>
        <time>2011-04-16T19:46:19Z</time>
      </trkpt>
      <trkpt lat="47.33542" lon="-0.76859">
        <ele>79.45</ele>
        <time>2011-04-16T19:46:24Z</time>
      </trkpt>
      <trkpt lat="47.33517" lon="-0.76873">
        <ele>80.41</ele>
        <time>2011-04-16T19:46:33Z</time>
      </trkpt>
      <trkpt lat="47.33496" lon="-0.76883">
        <ele>80.89</ele>
        <time>2011-04-16T19:46:40Z</time>
      </trkpt>
      <trkpt lat="47.33474" lon="-0.76893">
        <ele>81.37</ele>
        <time>2011-04-16T19:46:47Z</time>
      </trkpt>
      <trkpt lat="47.33443" lon="-0.76908">
        <ele>81.85</ele>
        <time>2011-04-16T19:46:56Z</time>
      </trkpt>
      <trkpt lat="47.33416" lon="-0.76925">
        <ele>81.37</ele>
        <time>2011-04-16T19:47:04Z</time>
      </trkpt>
      <trkpt lat="47.33389" lon="-0.76947">
        <ele>81.37</ele>
        <time>2011-04-16T19:47:13Z</time>
      </trkpt>
      <trkpt lat="47.33367" lon="-0.76955">
        <ele>80.89</ele>
        <time>2011-04-16T19:47:19Z</time>
      </trkpt>
      <trkpt lat="47.33363" lon="-0.76956">
        <ele>80.41</ele>
        <time>2011-04-16T19:47:20Z</time>
      </trkpt>
      <trkpt lat="47.33359" lon="-0.76955">
        <ele>80.89</ele>
        <time>2011-04-16T19:47:21Z</time>
      </trkpt>
      <trkpt lat="47.33347" lon="-0.76954">
        <ele>80.89</ele>
        <time>2011-04-16T19:47:24Z</time>
      </trkpt>
      <trkpt lat="47.33343" lon="-0.76952">
        <ele>80.41</ele>
        <time>2011-04-16T19:47:25Z</time>
      </trkpt>
      <trkpt lat="47.333" lon="-0.76941">
        <ele>81.37</ele>
        <time>2011-04-16T19:47:36Z</time>
      </trkpt>
      <trkpt lat="47.33286" lon="-0.76926">
        <ele>81.85</ele>
        <time>2011-04-16T19:47:41Z</time>
      </trkpt>
      <trkpt lat="47.33273" lon="-0.76893">
        <ele>82.33</ele>
        <time>2011-04-16T19:47:48Z</time>
      </trkpt>
      <trkpt lat="47.33269" lon="-0.76877">
        <ele>83.77</ele>
        <time>2011-04-16T19:47:51Z</time>
      </trkpt>
      <trkpt lat="47.33255" lon="-0.7682">
        <ele>83.77</ele>
        <time>2011-04-16T19:48:01Z</time>
      </trkpt>
      <trkpt lat="47.3325" lon="-0.76778">
        <ele>84.25</ele>
        <time>2011-04-16T19:48:09Z</time>
      </trkpt>
      <trkpt lat="47.33252" lon="-0.76774">
        <ele>84.73</ele>
        <time>2011-04-16T19:48:10Z</time>
      </trkpt>
      <trkpt lat="47.33256" lon="-0.7677">
        <ele>83.77</ele>
        <time>2011-04-16T19:48:11Z</time>
      </trkpt>
      <trkpt lat="47.33259" lon="-0.76766">
        <ele>84.25</ele>
        <time>2011-04-16T19:48:12Z</time>
      </trkpt>
      <trkpt lat="47.33263" lon="-0.76764">
        <ele>84.73</ele>
        <time>2011-04-16T19:48:13Z</time>
      </trkpt>
      <trkpt lat="47.33266" lon="-0.76761">
        <ele>84.25</ele>
        <time>2011-04-16T19:48:14Z</time>
      </trkpt>
      <trkpt lat="47.3328" lon="-0.7675">
        <ele>80.89</ele>
        <time>2011-04-16T19:48:18Z</time>
      </trkpt>
      <trkpt lat="47.33289" lon="-0.76741">
        <ele>84.25</ele>
        <time>2011-04-16T19:48:21Z</time>
      </trkpt>
      <trkpt lat="47.33307" lon="-0.76725">
        <ele>83.29</ele>
        <time>2011-04-16T19:48:27Z</time>
      </trkpt>
      <trkpt lat="47.3334" lon="-0.76693">
        <ele>82.33</ele>
        <time>2011-04-16T19:48:37Z</time>
      </trkpt>
      <trkpt lat="47.33371" lon="-0.76663">
        <ele>81.37</ele>
        <time>2011-04-16T19:48:45Z</time>
      </trkpt>
      <trkpt lat="47.33413" lon="-0.76627">
        <ele>80.41</ele>
        <time>2011-04-16T19:48:54Z</time>
      </trkpt>
      <trkpt lat="47.33451" lon="-0.766">
        <ele>79.45</ele>
        <time>2011-04-16T19:49:02Z</time>
      </trkpt>
      <trkpt lat="47.33495" lon="-0.76578">
        <ele>79.45</ele>
        <time>2011-04-16T19:49:11Z</time>
      </trkpt>
      <trkpt lat="47.33523" lon="-0.76562">
        <ele>78.97</ele>
        <time>2011-04-16T19:49:17Z</time>
      </trkpt>
      <trkpt lat="47.33539" lon="-0.7655">
        <ele>78.48</ele>
        <time>2011-04-16T19:49:21Z</time>
      </trkpt>
      <trkpt lat="47.33541" lon="-0.76545">
        <ele>78</ele>
        <time>2011-04-16T19:49:22Z</time>
      </trkpt>
      <trkpt lat="47.33543" lon="-0.76539">
        <ele>78.48</ele>
        <time>2011-04-16T19:49:23Z</time>
      </trkpt>
      <trkpt lat="47.33543" lon="-0.76533">
        <ele>78.48</ele>
        <time>2011-04-16T19:49:24Z</time>
      </trkpt>
      <trkpt lat="47.33542" lon="-0.76527">
        <ele>78.48</ele>
        <time>2011-04-16T19:49:25Z</time>
      </trkpt>
      <trkpt lat="47.33542" lon="-0.76521">
        <ele>78.48</ele>
        <time>2011-04-16T19:49:26Z</time>
      </trkpt>
      <trkpt lat="47.3354" lon="-0.76496">
        <ele>78.48</ele>
        <time>2011-04-16T19:49:30Z</time>
      </trkpt>
      <trkpt lat="47.3354" lon="-0.7649">
        <ele>78.48</ele>
        <time>2011-04-16T19:49:31Z</time>
      </trkpt>
      <trkpt lat="47.33543" lon="-0.76462">
        <ele>77.52</ele>
        <time>2011-04-16T19:49:35Z</time>
      </trkpt>
      <trkpt lat="47.33545" lon="-0.76455">
        <ele>77.52</ele>
        <time>2011-04-16T19:49:36Z</time>
      </trkpt>
      <trkpt lat="47.33552" lon="-0.76433">
        <ele>76.56</ele>
        <time>2011-04-16T19:49:39Z</time>
      </trkpt>
      <trkpt lat="47.33554" lon="-0.76426">
        <ele>77.04</ele>
        <time>2011-04-16T19:49:40Z</time>
      </trkpt>
      <trkpt lat="47.3356" lon="-0.76403">
        <ele>75.6</ele>
        <time>2011-04-16T19:49:44Z</time>
      </trkpt>
      <trkpt lat="47.33559" lon="-0.76397">
        <ele>75.6</ele>
        <time>2011-04-16T19:49:45Z</time>
      </trkpt>
      <trkpt lat="47.33557" lon="-0.76391">
        <ele>76.08</ele>
        <time>2011-04-16T19:49:46Z</time>
      </trkpt>
      <trkpt lat="47.33533" lon="-0.76351">
        <ele>76.08</ele>
        <time>2011-04-16T19:49:53Z</time>
      </trkpt>
      <trkpt lat="47.33512" lon="-0.76316">
        <ele>73.2</ele>
        <time>2011-04-16T19:49:59Z</time>
      </trkpt>
      <trkpt lat="47.33508" lon="-0.76313">
        <ele>72.24</ele>
        <time>2011-04-16T19:50:00Z</time>
      </trkpt>
      <trkpt lat="47.33504" lon="-0.76309">
        <ele>72.24</ele>
        <time>2011-04-16T19:50:01Z</time>
      </trkpt>
      <trkpt lat="47.33499" lon="-0.76306">
        <ele>71.76</ele>
        <time>2011-04-16T19:50:02Z</time>
      </trkpt>
      <trkpt lat="47.33494" lon="-0.76302">
        <ele>71.27</ele>
        <time>2011-04-16T19:50:03Z</time>
      </trkpt>
      <trkpt lat="47.33475" lon="-0.76284">
        <ele>66.95</ele>
        <time>2011-04-16T19:50:06Z</time>
      </trkpt>
      <trkpt lat="47.33467" lon="-0.76271">
        <ele>65.51</ele>
        <time>2011-04-16T19:50:08Z</time>
      </trkpt>
      <trkpt lat="47.33463" lon="-0.76265">
        <ele>64.55</ele>
        <time>2011-04-16T19:50:09Z</time>
      </trkpt>
      <trkpt lat="47.33459" lon="-0.76259">
        <ele>64.07</ele>
        <time>2011-04-16T19:50:10Z</time>
      </trkpt>
      <trkpt lat="47.33454" lon="-0.76254">
        <ele>63.1</ele>
        <time>2011-04-16T19:50:11Z</time>
      </trkpt>
      <trkpt lat="47.33449" lon="-0.76249">
        <ele>63.58</ele>
        <time>2011-04-16T19:50:12Z</time>
      </trkpt>
      <trkpt lat="47.33444" lon="-0.76244">
        <ele>64.07</ele>
        <time>2011-04-16T19:50:13Z</time>
      </trkpt>
      <trkpt lat="47.33427" lon="-0.7623">
        <ele>65.51</ele>
        <time>2011-04-16T19:50:16Z</time>
      </trkpt>
      <trkpt lat="47.33422" lon="-0.76228">
        <ele>65.03</ele>
        <time>2011-04-16T19:50:17Z</time>
      </trkpt>
      <trkpt lat="47.33416" lon="-0.76226">
        <ele>65.99</ele>
        <time>2011-04-16T19:50:18Z</time>
      </trkpt>
      <trkpt lat="47.33389" lon="-0.76219">
        <ele>68.87</ele>
        <time>2011-04-16T19:50:24Z</time>
      </trkpt>
      <trkpt lat="47.33361" lon="-0.76207">
        <ele>68.87</ele>
        <time>2011-04-16T19:50:31Z</time>
      </trkpt>
      <trkpt lat="47.33321" lon="-0.76192">
        <ele>68.39</ele>
        <time>2011-04-16T19:50:41Z</time>
      </trkpt>
      <trkpt lat="47.33294" lon="-0.7618">
        <ele>66.47</ele>
        <time>2011-04-16T19:50:46Z</time>
      </trkpt>
      <trkpt lat="47.33287" lon="-0.76178">
        <ele>65.99</ele>
        <time>2011-04-16T19:50:47Z</time>
      </trkpt>
      <trkpt lat="47.33229" lon="-0.76171">
        <ele>63.1</ele>
        <time>2011-04-16T19:50:55Z</time>
      </trkpt>
      <trkpt lat="47.33204" lon="-0.76167">
        <ele>62.14</ele>
        <time>2011-04-16T19:50:59Z</time>
      </trkpt>
      <trkpt lat="47.33198" lon="-0.76168">
        <ele>63.1</ele>
        <time>2011-04-16T19:51:00Z</time>
      </trkpt>
      <trkpt lat="47.33192" lon="-0.7617">
        <ele>63.58</ele>
        <time>2011-04-16T19:51:01Z</time>
      </trkpt>
      <trkpt lat="47.33187" lon="-0.76172">
        <ele>63.58</ele>
        <time>2011-04-16T19:51:02Z</time>
      </trkpt>
      <trkpt lat="47.33182" lon="-0.76175">
        <ele>63.1</ele>
        <time>2011-04-16T19:51:03Z</time>
      </trkpt>
      <trkpt lat="47.33177" lon="-0.76178">
        <ele>63.58</ele>
        <time>2011-04-16T19:51:04Z</time>
      </trkpt>
      <trkpt lat="47.33164" lon="-0.76188">
        <ele>64.55</ele>
        <time>2011-04-16T19:51:07Z</time>
      </trkpt>
      <trkpt lat="47.33136" lon="-0.762">
        <ele>65.51</ele>
        <time>2011-04-16T19:51:14Z</time>
      </trkpt>
      <trkpt lat="47.33112" lon="-0.76199">
        <ele>67.91</ele>
        <time>2011-04-16T19:51:21Z</time>
      </trkpt>
      <trkpt lat="47.331" lon="-0.76189">
        <ele>70.79</ele>
        <time>2011-04-16T19:51:26Z</time>
      </trkpt>
      <trkpt lat="47.33088" lon="-0.7617">
        <ele>72.24</ele>
        <time>2011-04-16T19:51:34Z</time>
      </trkpt>
      <trkpt lat="47.33088" lon="-0.76166">
        <ele>72.24</ele>
        <time>2011-04-16T19:51:35Z</time>
      </trkpt>
      <trkpt lat="47.33089" lon="-0.76163">
        <ele>71.76</ele>
        <time>2011-04-16T19:51:36Z</time>
      </trkpt>
      <trkpt lat="47.331" lon="-0.7613">
        <ele>71.76</ele>
        <time>2011-04-16T19:51:44Z</time>
      </trkpt>
      <trkpt lat="47.33117" lon="-0.76099">
        <ele>72.24</ele>
        <time>2011-04-16T19:51:51Z</time>
      </trkpt>
      <trkpt lat="47.33141" lon="-0.76066">
        <ele>70.79</ele>
        <time>2011-04-16T19:51:58Z</time>
      </trkpt>
      <trkpt lat="47.33156" lon="-0.76048">
        <ele>70.31</ele>
        <time>2011-04-16T19:52:02Z</time>
      </trkpt>
      <trkpt lat="47.3316" lon="-0.76042">
        <ele>70.31</ele>
        <time>2011-04-16T19:52:03Z</time>
      </trkpt>
      <trkpt lat="47.33166" lon="-0.76031">
        <ele>70.31</ele>
        <time>2011-04-16T19:52:05Z</time>
      </trkpt>
      <trkpt lat="47.33168" lon="-0.76025">
        <ele>70.31</ele>
        <time>2011-04-16T19:52:06Z</time>
      </trkpt>
      <trkpt lat="47.3317" lon="-0.76019">
        <ele>70.31</ele>
        <time>2011-04-16T19:52:07Z</time>
      </trkpt>
      <trkpt lat="47.33176" lon="-0.76001">
        <ele>70.79</ele>
        <time>2011-04-16T19:52:10Z</time>
      </trkpt>
      <trkpt lat="47.33177" lon="-0.75996">
        <ele>71.27</ele>
        <time>2011-04-16T19:52:11Z</time>
      </trkpt>
      <trkpt lat="47.33189" lon="-0.75949">
        <ele>72.24</ele>
        <time>2011-04-16T19:52:20Z</time>
      </trkpt>
      <trkpt lat="47.33198" lon="-0.75915">
        <ele>72.24</ele>
        <time>2011-04-16T19:52:27Z</time>
      </trkpt>
      <trkpt lat="47.33198" lon="-0.75868">
        <ele>71.76</ele>
        <time>2011-04-16T19:52:35Z</time>
      </trkpt>
      <trkpt lat="47.33192" lon="-0.75814">
        <ele>70.79</ele>
        <time>2011-04-16T19:52:42Z</time>
      </trkpt>
      <trkpt lat="47.3319" lon="-0.75806">
        <ele>70.79</ele>
        <time>2011-04-16T19:52:43Z</time>
      </trkpt>
      <trkpt lat="47.33187" lon="-0.75791">
        <ele>71.27</ele>
        <time>2011-04-16T19:52:45Z</time>
      </trkpt>
      <trkpt lat="47.33187" lon="-0.75784">
        <ele>70.79</ele>
        <time>2011-04-16T19:52:46Z</time>
      </trkpt>
      <trkpt lat="47.33188" lon="-0.75777">
        <ele>70.79</ele>
        <time>2011-04-16T19:52:47Z</time>
      </trkpt>
      <trkpt lat="47.33189" lon="-0.7577">
        <ele>70.31</ele>
        <time>2011-04-16T19:52:48Z</time>
      </trkpt>
      <trkpt lat="47.3319" lon="-0.75762">
        <ele>69.83</ele>
        <time>2011-04-16T19:52:49Z</time>
      </trkpt>
      <trkpt lat="47.33191" lon="-0.75754">
        <ele>69.83</ele>
        <time>2011-04-16T19:52:50Z</time>
      </trkpt>
      <trkpt lat="47.33191" lon="-0.75746">
        <ele>69.35</ele>
        <time>2011-04-16T19:52:51Z</time>
      </trkpt>
      <trkpt lat="47.33186" lon="-0.75665">
        <ele>67.43</ele>
        <time>2011-04-16T19:53:00Z</time>
      </trkpt>
      <trkpt lat="47.33176" lon="-0.75608">
        <ele>67.91</ele>
        <time>2011-04-16T19:53:07Z</time>
      </trkpt>
      <trkpt lat="47.33166" lon="-0.75572">
        <ele>67.91</ele>
        <time>2011-04-16T19:53:12Z</time>
      </trkpt>
      <trkpt lat="47.33166" lon="-0.75565">
        <ele>67.91</ele>
        <time>2011-04-16T19:53:13Z</time>
      </trkpt>
      <trkpt lat="47.33166" lon="-0.75558">
        <ele>68.39</ele>
        <time>2011-04-16T19:53:14Z</time>
      </trkpt>
      <trkpt lat="47.33168" lon="-0.75551">
        <ele>67.91</ele>
        <time>2011-04-16T19:53:15Z</time>
      </trkpt>
      <trkpt lat="47.33171" lon="-0.75545">
        <ele>67.91</ele>
        <time>2011-04-16T19:53:16Z</time>
      </trkpt>
      <trkpt lat="47.33174" lon="-0.75539">
        <ele>68.39</ele>
        <time>2011-04-16T19:53:17Z</time>
      </trkpt>
      <trkpt lat="47.33201" lon="-0.75493">
        <ele>66.47</ele>
        <time>2011-04-16T19:53:25Z</time>
      </trkpt>
      <trkpt lat="47.33205" lon="-0.75491">
        <ele>65.99</ele>
        <time>2011-04-16T19:53:26Z</time>
      </trkpt>
      <trkpt lat="47.33209" lon="-0.7549">
        <ele>66.47</ele>
        <time>2011-04-16T19:53:27Z</time>
      </trkpt>
      <trkpt lat="47.33213" lon="-0.75492">
        <ele>65.99</ele>
        <time>2011-04-16T19:53:28Z</time>
      </trkpt>
      <trkpt lat="47.33216" lon="-0.75496">
        <ele>66.47</ele>
        <time>2011-04-16T19:53:29Z</time>
      </trkpt>
      <trkpt lat="47.33219" lon="-0.75499">
        <ele>65.99</ele>
        <time>2011-04-16T19:53:30Z</time>
      </trkpt>
      <trkpt lat="47.3323" lon="-0.75512">
        <ele>65.51</ele>
        <time>2011-04-16T19:53:33Z</time>
      </trkpt>
      <trkpt lat="47.33233" lon="-0.75516">
        <ele>65.03</ele>
        <time>2011-04-16T19:53:34Z</time>
      </trkpt>
      <trkpt lat="47.33259" lon="-0.75555">
        <ele>64.55</ele>
        <time>2011-04-16T19:53:42Z</time>
      </trkpt>
      <trkpt lat="47.3327" lon="-0.75576">
        <ele>64.07</ele>
        <time>2011-04-16T19:53:46Z</time>
      </trkpt>
      <trkpt lat="47.33275" lon="-0.75586">
        <ele>64.55</ele>
        <time>2011-04-16T19:53:48Z</time>
      </trkpt>
      <trkpt lat="47.33278" lon="-0.7559">
        <ele>63.58</ele>
        <time>2011-04-16T19:53:49Z</time>
      </trkpt>
      <trkpt lat="47.33282" lon="-0.75595">
        <ele>64.07</ele>
        <time>2011-04-16T19:53:50Z</time>
      </trkpt>
      <trkpt lat="47.33285" lon="-0.75598">
        <ele>63.1</ele>
        <time>2011-04-16T19:53:51Z</time>
      </trkpt>
      <trkpt lat="47.3329" lon="-0.75602">
        <ele>63.58</ele>
        <time>2011-04-16T19:53:52Z</time>
      </trkpt>
      <trkpt lat="47.33294" lon="-0.75605">
        <ele>63.1</ele>
        <time>2011-04-16T19:53:53Z</time>
      </trkpt>
      <trkpt lat="47.33309" lon="-0.75615">
        <ele>61.66</ele>
        <time>2011-04-16T19:53:56Z</time>
      </trkpt>
      <trkpt lat="47.33325" lon="-0.75625">
        <ele>59.74</ele>
        <time>2011-04-16T19:53:59Z</time>
      </trkpt>
      <trkpt lat="47.3333" lon="-0.75627">
        <ele>59.74</ele>
        <time>2011-04-16T19:54:00Z</time>
      </trkpt>
      <trkpt lat="47.33361" lon="-0.75645">
        <ele>56.86</ele>
        <time>2011-04-16T19:54:07Z</time>
      </trkpt>
      <trkpt lat="47.33368" lon="-0.75652">
        <ele>56.37</ele>
        <time>2011-04-16T19:54:09Z</time>
      </trkpt>
      <trkpt lat="47.33371" lon="-0.75656">
        <ele>55.89</ele>
        <time>2011-04-16T19:54:10Z</time>
      </trkpt>
      <trkpt lat="47.33374" lon="-0.75661">
        <ele>54.45</ele>
        <time>2011-04-16T19:54:11Z</time>
      </trkpt>
      <trkpt lat="47.33376" lon="-0.75665">
        <ele>54.45</ele>
        <time>2011-04-16T19:54:12Z</time>
      </trkpt>
      <trkpt lat="47.33379" lon="-0.75669">
        <ele>53.49</ele>
        <time>2011-04-16T19:54:13Z</time>
      </trkpt>
      <trkpt lat="47.33382" lon="-0.75673">
        <ele>53.49</ele>
        <time>2011-04-16T19:54:14Z</time>
      </trkpt>
      <trkpt lat="47.33386" lon="-0.75677">
        <ele>53.49</ele>
        <time>2011-04-16T19:54:15Z</time>
      </trkpt>
      <trkpt lat="47.3339" lon="-0.7568">
        <ele>52.53</ele>
        <time>2011-04-16T19:54:16Z</time>
      </trkpt>
      <trkpt lat="47.33395" lon="-0.75683">
        <ele>53.01</ele>
        <time>2011-04-16T19:54:17Z</time>
      </trkpt>
      <trkpt lat="47.33399" lon="-0.75688">
        <ele>53.01</ele>
        <time>2011-04-16T19:54:18Z</time>
      </trkpt>
      <trkpt lat="47.33402" lon="-0.75693">
        <ele>52.05</ele>
        <time>2011-04-16T19:54:19Z</time>
      </trkpt>
      <trkpt lat="47.33403" lon="-0.75697">
        <ele>52.05</ele>
        <time>2011-04-16T19:54:20Z</time>
      </trkpt>
      <trkpt lat="47.33403" lon="-0.75702">
        <ele>52.05</ele>
        <time>2011-04-16T19:54:21Z</time>
      </trkpt>
      <trkpt lat="47.33403" lon="-0.75708">
        <ele>52.05</ele>
        <time>2011-04-16T19:54:22Z</time>
      </trkpt>
      <trkpt lat="47.33403" lon="-0.75713">
        <ele>51.57</ele>
        <time>2011-04-16T19:54:23Z</time>
      </trkpt>
      <trkpt lat="47.33411" lon="-0.75736">
        <ele>53.97</ele>
        <time>2011-04-16T19:54:28Z</time>
      </trkpt>
      <trkpt lat="47.33419" lon="-0.75747">
        <ele>53.97</ele>
        <time>2011-04-16T19:54:31Z</time>
      </trkpt>
      <trkpt lat="47.33451" lon="-0.75775">
        <ele>53.01</ele>
        <time>2011-04-16T19:54:40Z</time>
      </trkpt>
      <trkpt lat="47.33471" lon="-0.7579">
        <ele>52.05</ele>
        <time>2011-04-16T19:54:45Z</time>
      </trkpt>
      <trkpt lat="47.33474" lon="-0.75794">
        <ele>51.09</ele>
        <time>2011-04-16T19:54:46Z</time>
      </trkpt>
      <trkpt lat="47.33484" lon="-0.75807">
        <ele>48.2</ele>
        <time>2011-04-16T19:54:49Z</time>
      </trkpt>
      <trkpt lat="47.33494" lon="-0.75818">
        <ele>44.84</ele>
        <time>2011-04-16T19:54:52Z</time>
      </trkpt>
      <trkpt lat="47.33501" lon="-0.75827">
        <ele>42.92</ele>
        <time>2011-04-16T19:54:54Z</time>
      </trkpt>
      <trkpt lat="47.33504" lon="-0.75832">
        <ele>41.95</ele>
        <time>2011-04-16T19:54:55Z</time>
      </trkpt>
      <trkpt lat="47.33507" lon="-0.75837">
        <ele>41.47</ele>
        <time>2011-04-16T19:54:56Z</time>
      </trkpt>
      <trkpt lat="47.33511" lon="-0.75841">
        <ele>41.95</ele>
        <time>2011-04-16T19:54:57Z</time>
      </trkpt>
      <trkpt lat="47.33513" lon="-0.75845">
        <ele>41.95</ele>
        <time>2011-04-16T19:54:58Z</time>
      </trkpt>
      <trkpt lat="47.33516" lon="-0.75849">
        <ele>43.4</ele>
        <time>2011-04-16T19:54:59Z</time>
      </trkpt>
      <trkpt lat="47.33527" lon="-0.7586">
        <ele>44.36</ele>
        <time>2011-04-16T19:55:04Z</time>
      </trkpt>
      <trkpt lat="47.33541" lon="-0.75871">
        <ele>46.76</ele>
        <time>2011-04-16T19:55:11Z</time>
      </trkpt>
      <trkpt lat="47.33556" lon="-0.75876">
        <ele>49.16</ele>
        <time>2011-04-16T19:55:18Z</time>
      </trkpt>
      <trkpt lat="47.33557" lon="-0.75877">
        <ele>49.16</ele>
        <time>2011-04-16T19:55:19Z</time>
      </trkpt>
      <trkpt lat="47.3356" lon="-0.75878">
        <ele>49.65</ele>
        <time>2011-04-16T19:55:20Z</time>
      </trkpt>
      <trkpt lat="47.33561" lon="-0.75879">
        <ele>49.65</ele>
        <time>2011-04-16T19:55:21Z</time>
      </trkpt>
      <trkpt lat="47.33563" lon="-0.7588">
        <ele>49.65</ele>
        <time>2011-04-16T19:55:22Z</time>
      </trkpt>
      <trkpt lat="47.33564" lon="-0.7588">
        <ele>50.61</ele>
        <time>2011-04-16T19:55:23Z</time>
      </trkpt>
      <trkpt lat="47.33575" lon="-0.75882">
        <ele>52.05</ele>
        <time>2011-04-16T19:55:29Z</time>
      </trkpt>
      <trkpt lat="47.33586" lon="-0.75884">
        <ele>53.97</ele>
        <time>2011-04-16T19:55:35Z</time>
      </trkpt>
      <trkpt lat="47.33602" lon="-0.7589">
        <ele>55.89</ele>
        <time>2011-04-16T19:55:42Z</time>
      </trkpt>
      <trkpt lat="47.33622" lon="-0.75899">
        <ele>57.82</ele>
        <time>2011-04-16T19:55:50Z</time>
      </trkpt>
      <trkpt lat="47.33643" lon="-0.75913">
        <ele>59.26</ele>
        <time>2011-04-16T19:55:58Z</time>
      </trkpt>
      <trkpt lat="47.33666" lon="-0.75931">
        <ele>60.22</ele>
        <time>2011-04-16T19:56:07Z</time>
      </trkpt>
      <trkpt lat="47.33689" lon="-0.75952">
        <ele>61.18</ele>
        <time>2011-04-16T19:56:16Z</time>
      </trkpt>
      <trkpt lat="47.3372" lon="-0.75975">
        <ele>62.14</ele>
        <time>2011-04-16T19:56:26Z</time>
      </trkpt>
      <trkpt lat="47.33744" lon="-0.75978">
        <ele>63.58</ele>
        <time>2011-04-16T19:56:33Z</time>
      </trkpt>
      <trkpt lat="47.33779" lon="-0.75977">
        <ele>64.07</ele>
        <time>2011-04-16T19:56:43Z</time>
      </trkpt>
      <trkpt lat="47.33801" lon="-0.75993">
        <ele>64.55</ele>
        <time>2011-04-16T19:56:50Z</time>
      </trkpt>
      <trkpt lat="47.33838" lon="-0.76031">
        <ele>65.03</ele>
        <time>2011-04-16T19:57:01Z</time>
      </trkpt>
      <trkpt lat="47.33848" lon="-0.76044">
        <ele>64.55</ele>
        <time>2011-04-16T19:57:05Z</time>
      </trkpt>
      <trkpt lat="47.3385" lon="-0.76044">
        <ele>64.07</ele>
        <time>2011-04-16T19:57:10Z</time>
      </trkpt>
      <trkpt lat="47.3385" lon="-0.76044">
        <ele>64.07</ele>
        <time>2011-04-16T19:57:19Z</time>
      </trkpt>
      <trkpt lat="47.33851" lon="-0.76041">
        <ele>63.58</ele>
        <time>2011-04-16T19:57:20Z</time>
      </trkpt>
      <trkpt lat="47.33853" lon="-0.76038">
        <ele>64.07</ele>
        <time>2011-04-16T19:57:21Z</time>
      </trkpt>
      <trkpt lat="47.33855" lon="-0.76034">
        <ele>64.07</ele>
        <time>2011-04-16T19:57:22Z</time>
      </trkpt>
      <trkpt lat="47.33858" lon="-0.76031">
        <ele>63.58</ele>
        <time>2011-04-16T19:57:23Z</time>
      </trkpt>
      <trkpt lat="47.3386" lon="-0.76028">
        <ele>63.58</ele>
        <time>2011-04-16T19:57:24Z</time>
      </trkpt>
      <trkpt lat="47.33885" lon="-0.75997">
        <ele>61.66</ele>
        <time>2011-04-16T19:57:31Z</time>
      </trkpt>
      <trkpt lat="47.33901" lon="-0.75973">
        <ele>59.74</ele>
        <time>2011-04-16T19:57:36Z</time>
      </trkpt>
      <trkpt lat="47.33904" lon="-0.75972">
        <ele>59.26</ele>
        <time>2011-04-16T19:57:37Z</time>
      </trkpt>
      <trkpt lat="47.33914" lon="-0.75983">
        <ele>59.74</ele>
        <time>2011-04-16T19:57:42Z</time>
      </trkpt>
      <trkpt lat="47.33918" lon="-0.75988">
        <ele>60.22</ele>
        <time>2011-04-16T19:57:44Z</time>
      </trkpt>
      <trkpt lat="47.33931" lon="-0.75985">
        <ele>58.3</ele>
        <time>2011-04-16T19:57:50Z</time>
      </trkpt>
      <trkpt lat="47.33939" lon="-0.75976">
        <ele>56.86</ele>
        <time>2011-04-16T19:57:53Z</time>
      </trkpt>
      <trkpt lat="47.33955" lon="-0.75956">
        <ele>53.97</ele>
        <time>2011-04-16T19:57:59Z</time>
      </trkpt>
      <trkpt lat="47.33958" lon="-0.75952">
        <ele>53.49</ele>
        <time>2011-04-16T19:58:00Z</time>
      </trkpt>
      <trkpt lat="47.33984" lon="-0.75924">
        <ele>50.13</ele>
        <time>2011-04-16T19:58:08Z</time>
      </trkpt>
      <trkpt lat="47.34009" lon="-0.75899">
        <ele>46.28</ele>
        <time>2011-04-16T19:58:15Z</time>
      </trkpt>
      <trkpt lat="47.34022" lon="-0.75883">
        <ele>42.92</ele>
        <time>2011-04-16T19:58:19Z</time>
      </trkpt>
      <trkpt lat="47.34025" lon="-0.75879">
        <ele>42.44</ele>
        <time>2011-04-16T19:58:20Z</time>
      </trkpt>
      <trkpt lat="47.34041" lon="-0.75858">
        <ele>39.07</ele>
        <time>2011-04-16T19:58:24Z</time>
      </trkpt>
      <trkpt lat="47.34053" lon="-0.75844">
        <ele>37.63</ele>
        <time>2011-04-16T19:58:27Z</time>
      </trkpt>
      <trkpt lat="47.34061" lon="-0.75835">
        <ele>36.19</ele>
        <time>2011-04-16T19:58:29Z</time>
      </trkpt>
      <trkpt lat="47.3408" lon="-0.75813">
        <ele>33.78</ele>
        <time>2011-04-16T19:58:34Z</time>
      </trkpt>
      <trkpt lat="47.34093" lon="-0.75819">
        <ele>32.82</ele>
        <time>2011-04-16T19:58:39Z</time>
      </trkpt>
      <trkpt lat="47.34101" lon="-0.75838">
        <ele>32.34</ele>
        <time>2011-04-16T19:58:43Z</time>
      </trkpt>
      <trkpt lat="47.3412" lon="-0.75874">
        <ele>33.3</ele>
        <time>2011-04-16T19:58:51Z</time>
      </trkpt>
      <trkpt lat="47.34138" lon="-0.75918">
        <ele>33.3</ele>
        <time>2011-04-16T19:59:00Z</time>
      </trkpt>
      <trkpt lat="47.34153" lon="-0.75956">
        <ele>34.74</ele>
        <time>2011-04-16T19:59:08Z</time>
      </trkpt>
      <trkpt lat="47.34164" lon="-0.75985">
        <ele>36.67</ele>
        <time>2011-04-16T19:59:15Z</time>
      </trkpt>
      <trkpt lat="47.34172" lon="-0.75999">
        <ele>37.15</ele>
        <time>2011-04-16T19:59:20Z</time>
      </trkpt>
      <trkpt lat="47.34174" lon="-0.76">
        <ele>37.63</ele>
        <time>2011-04-16T19:59:21Z</time>
      </trkpt>
      <trkpt lat="47.34177" lon="-0.75999">
        <ele>37.15</ele>
        <time>2011-04-16T19:59:22Z</time>
      </trkpt>
      <trkpt lat="47.34204" lon="-0.75989">
        <ele>37.15</ele>
        <time>2011-04-16T19:59:32Z</time>
      </trkpt>
      <trkpt lat="47.34213" lon="-0.75992">
        <ele>37.63</ele>
        <time>2011-04-16T19:59:36Z</time>
      </trkpt>
      <trkpt lat="47.34214" lon="-0.75991">
        <ele>37.63</ele>
        <time>2011-04-16T19:59:37Z</time>
      </trkpt>
      <trkpt lat="47.34217" lon="-0.75991">
        <ele>38.11</ele>
        <time>2011-04-16T19:59:38Z</time>
      </trkpt>
      <trkpt lat="47.34219" lon="-0.75991">
        <ele>37.15</ele>
        <time>2011-04-16T19:59:39Z</time>
      </trkpt>
      <trkpt lat="47.34222" lon="-0.75991">
        <ele>37.15</ele>
        <time>2011-04-16T19:59:40Z</time>
      </trkpt>
      <trkpt lat="47.34241" lon="-0.75996">
        <ele>35.71</ele>
        <time>2011-04-16T19:59:48Z</time>
      </trkpt>
      <trkpt lat="47.34258" lon="-0.76">
        <ele>35.23</ele>
        <time>2011-04-16T19:59:54Z</time>
      </trkpt>
      <trkpt lat="47.34292" lon="-0.76006">
        <ele>32.82</ele>
        <time>2011-04-16T20:00:02Z</time>
      </trkpt>
      <trkpt lat="47.34328" lon="-0.76003">
        <ele>30.9</ele>
        <time>2011-04-16T20:00:08Z</time>
      </trkpt>
      <trkpt lat="47.34334" lon="-0.76">
        <ele>30.9</ele>
        <time>2011-04-16T20:00:09Z</time>
      </trkpt>
      <trkpt lat="47.34356" lon="-0.75995">
        <ele>28.98</ele>
        <time>2011-04-16T20:00:14Z</time>
      </trkpt>
      <trkpt lat="47.34361" lon="-0.76">
        <ele>28.98</ele>
        <time>2011-04-16T20:00:17Z</time>
      </trkpt>
      <trkpt lat="47.34361" lon="-0.76002">
        <ele>28.98</ele>
        <time>2011-04-16T20:00:18Z</time>
      </trkpt>
      <trkpt lat="47.34367" lon="-0.76007">
        <ele>28.98</ele>
        <time>2011-04-16T20:00:22Z</time>
      </trkpt>
      <trkpt lat="47.34388" lon="-0.76016">
        <ele>26.57</ele>
        <time>2011-04-16T20:00:28Z</time>
      </trkpt>
      <trkpt lat="47.34413" lon="-0.76026">
        <ele>23.69</ele>
        <time>2011-04-16T20:00:33Z</time>
      </trkpt>
      <trkpt lat="47.34436" lon="-0.76037">
        <ele>20.32</ele>
        <time>2011-04-16T20:00:36Z</time>
      </trkpt>
      <trkpt lat="47.34474" lon="-0.76056">
        <ele>18.4</ele>
        <time>2011-04-16T20:00:41Z</time>
      </trkpt>
      <trkpt lat="47.3448" lon="-0.76059">
        <ele>17.92</ele>
        <time>2011-04-16T20:00:42Z</time>
      </trkpt>
      <trkpt lat="47.34484" lon="-0.76063">
        <ele>17.44</ele>
        <time>2011-04-16T20:00:43Z</time>
      </trkpt>
      <trkpt lat="47.34487" lon="-0.76067">
        <ele>16.48</ele>
        <time>2011-04-16T20:00:44Z</time>
      </trkpt>
      <trkpt lat="47.34489" lon="-0.76073">
        <ele>16</ele>
        <time>2011-04-16T20:00:45Z</time>
      </trkpt>
      <trkpt lat="47.34488" lon="-0.76079">
        <ele>16</ele>
        <time>2011-04-16T20:00:46Z</time>
      </trkpt>
      <trkpt lat="47.34486" lon="-0.76084">
        <ele>16.48</ele>
        <time>2011-04-16T20:00:47Z</time>
      </trkpt>
      <trkpt lat="47.34484" lon="-0.76089">
        <ele>16</ele>
        <time>2011-04-16T20:00:48Z</time>
      </trkpt>
      <trkpt lat="47.34482" lon="-0.76094">
        <ele>16</ele>
        <time>2011-04-16T20:00:49Z</time>
      </trkpt>
      <trkpt lat="47.34481" lon="-0.76099">
        <ele>15.52</ele>
        <time>2011-04-16T20:00:50Z</time>
      </trkpt>
      <trkpt lat="47.34482" lon="-0.76104">
        <ele>16</ele>
        <time>2011-04-16T20:00:51Z</time>
      </trkpt>
      <trkpt lat="47.34484" lon="-0.76108">
        <ele>16</ele>
        <time>2011-04-16T20:00:52Z</time>
      </trkpt>
      <trkpt lat="47.34487" lon="-0.76111">
        <ele>16</ele>
        <time>2011-04-16T20:00:53Z</time>
      </trkpt>
      <trkpt lat="47.3449" lon="-0.76114">
        <ele>16</ele>
        <time>2011-04-16T20:00:54Z</time>
      </trkpt>
      <trkpt lat="47.34493" lon="-0.76117">
        <ele>16</ele>
        <time>2011-04-16T20:00:55Z</time>
      </trkpt>
      <trkpt lat="47.34497" lon="-0.7612">
        <ele>16</ele>
        <time>2011-04-16T20:00:56Z</time>
      </trkpt>
      <trkpt lat="47.345" lon="-0.76124">
        <ele>15.52</ele>
        <time>2011-04-16T20:00:57Z</time>
      </trkpt>
      <trkpt lat="47.34503" lon="-0.76127">
        <ele>14.56</ele>
        <time>2011-04-16T20:00:58Z</time>
      </trkpt>
      <trkpt lat="47.34507" lon="-0.76129">
        <ele>15.04</ele>
        <time>2011-04-16T20:00:59Z</time>
      </trkpt>
      <trkpt lat="47.34511" lon="-0.76129">
        <ele>15.04</ele>
        <time>2011-04-16T20:01:00Z</time>
      </trkpt>
      <trkpt lat="47.34514" lon="-0.76127">
        <ele>15.52</ele>
        <time>2011-04-16T20:01:01Z</time>
      </trkpt>
      <trkpt lat="47.34516" lon="-0.76123">
        <ele>15.04</ele>
        <time>2011-04-16T20:01:02Z</time>
      </trkpt>
      <trkpt lat="47.34518" lon="-0.76119">
        <ele>15.52</ele>
        <time>2011-04-16T20:01:03Z</time>
      </trkpt>
      <trkpt lat="47.34526" lon="-0.7609">
        <ele>15.52</ele>
        <time>2011-04-16T20:01:10Z</time>
      </trkpt>
      <trkpt lat="47.34542" lon="-0.7608">
        <ele>15.52</ele>
        <time>2011-04-16T20:01:15Z</time>
      </trkpt>
      <trkpt lat="47.34555" lon="-0.76079">
        <ele>15.04</ele>
        <time>2011-04-16T20:01:18Z</time>
      </trkpt>
      <trkpt lat="47.3456" lon="-0.76078">
        <ele>15.04</ele>
        <time>2011-04-16T20:01:19Z</time>
      </trkpt>
      <trkpt lat="47.34568" lon="-0.76072">
        <ele>14.08</ele>
        <time>2011-04-16T20:01:21Z</time>
      </trkpt>
      <trkpt lat="47.34599" lon="-0.76042">
        <ele>14.08</ele>
        <time>2011-04-16T20:01:29Z</time>
      </trkpt>
      <trkpt lat="47.34637" lon="-0.76005">
        <ele>13.6</ele>
        <time>2011-04-16T20:01:38Z</time>
      </trkpt>
      <trkpt lat="47.3468" lon="-0.75964">
        <ele>13.12</ele>
        <time>2011-04-16T20:01:46Z</time>
      </trkpt>
      <trkpt lat="47.34737" lon="-0.75912">
        <ele>13.6</ele>
        <time>2011-04-16T20:01:56Z</time>
      </trkpt>
      <trkpt lat="47.34759" lon="-0.75883">
        <ele>13.12</ele>
        <time>2011-04-16T20:02:01Z</time>
      </trkpt>
      <trkpt lat="47.34761" lon="-0.75877">
        <ele>13.12</ele>
        <time>2011-04-16T20:02:02Z</time>
      </trkpt>
      <trkpt lat="47.34764" lon="-0.7586">
        <ele>12.63</ele>
        <time>2011-04-16T20:02:05Z</time>
      </trkpt>
      <trkpt lat="47.34765" lon="-0.75853">
        <ele>11.67</ele>
        <time>2011-04-16T20:02:06Z</time>
      </trkpt>
      <trkpt lat="47.34766" lon="-0.75846">
        <ele>13.12</ele>
        <time>2011-04-16T20:02:07Z</time>
      </trkpt>
      <trkpt lat="47.34768" lon="-0.75784">
        <ele>13.12</ele>
        <time>2011-04-16T20:02:15Z</time>
      </trkpt>
      <trkpt lat="47.34766" lon="-0.75715">
        <ele>13.6</ele>
        <time>2011-04-16T20:02:23Z</time>
      </trkpt>
      <trkpt lat="47.34758" lon="-0.75638">
        <ele>13.12</ele>
        <time>2011-04-16T20:02:32Z</time>
      </trkpt>
      <trkpt lat="47.34751" lon="-0.75606">
        <ele>13.6</ele>
        <time>2011-04-16T20:02:36Z</time>
      </trkpt>
      <trkpt lat="47.34749" lon="-0.75598">
        <ele>12.63</ele>
        <time>2011-04-16T20:02:37Z</time>
      </trkpt>
      <trkpt lat="47.34747" lon="-0.7559">
        <ele>13.12</ele>
        <time>2011-04-16T20:02:38Z</time>
      </trkpt>
      <trkpt lat="47.34728" lon="-0.75536">
        <ele>13.6</ele>
        <time>2011-04-16T20:02:45Z</time>
      </trkpt>
      <trkpt lat="47.34705" lon="-0.75495">
        <ele>13.12</ele>
        <time>2011-04-16T20:02:51Z</time>
      </trkpt>
      <trkpt lat="47.34685" lon="-0.75461">
        <ele>12.63</ele>
        <time>2011-04-16T20:02:56Z</time>
      </trkpt>
      <trkpt lat="47.34683" lon="-0.75454">
        <ele>12.63</ele>
        <time>2011-04-16T20:02:57Z</time>
      </trkpt>
      <trkpt lat="47.34683" lon="-0.75447">
        <ele>13.12</ele>
        <time>2011-04-16T20:02:58Z</time>
      </trkpt>
      <trkpt lat="47.34683" lon="-0.7544">
        <ele>13.12</ele>
        <time>2011-04-16T20:02:59Z</time>
      </trkpt>
      <trkpt lat="47.34684" lon="-0.75434">
        <ele>12.63</ele>
        <time>2011-04-16T20:03:00Z</time>
      </trkpt>
      <trkpt lat="47.34686" lon="-0.75429">
        <ele>12.63</ele>
        <time>2011-04-16T20:03:01Z</time>
      </trkpt>
      <trkpt lat="47.34688" lon="-0.75423">
        <ele>13.12</ele>
        <time>2011-04-16T20:03:02Z</time>
      </trkpt>
      <trkpt lat="47.347" lon="-0.75395">
        <ele>12.63</ele>
        <time>2011-04-16T20:03:08Z</time>
      </trkpt>
      <trkpt lat="47.34702" lon="-0.75389">
        <ele>13.12</ele>
        <time>2011-04-16T20:03:10Z</time>
      </trkpt>
      <trkpt lat="47.34701" lon="-0.75387">
        <ele>12.15</ele>
        <time>2011-04-16T20:03:11Z</time>
      </trkpt>
      <trkpt lat="47.34699" lon="-0.75385">
        <ele>11.67</ele>
        <time>2011-04-16T20:03:12Z</time>
      </trkpt>
      <trkpt lat="47.34696" lon="-0.75387">
        <ele>11.67</ele>
        <time>2011-04-16T20:03:13Z</time>
      </trkpt>
      <trkpt lat="47.34694" lon="-0.7539">
        <ele>11.19</ele>
        <time>2011-04-16T20:03:14Z</time>
      </trkpt>
      <trkpt lat="47.34691" lon="-0.75393">
        <ele>11.19</ele>
        <time>2011-04-16T20:03:15Z</time>
      </trkpt>
      <trkpt lat="47.34687" lon="-0.75395">
        <ele>10.23</ele>
        <time>2011-04-16T20:03:16Z</time>
      </trkpt>
      <trkpt lat="47.34684" lon="-0.75396">
        <ele>8.79</ele>
        <time>2011-04-16T20:03:17Z</time>
      </trkpt>
      <trkpt lat="47.3468" lon="-0.75395">
        <ele>8.79</ele>
        <time>2011-04-16T20:03:18Z</time>
      </trkpt>
      <trkpt lat="47.34676" lon="-0.75394">
        <ele>8.79</ele>
        <time>2011-04-16T20:03:19Z</time>
      </trkpt>
      <trkpt lat="47.34666" lon="-0.75385">
        <ele>7.83</ele>
        <time>2011-04-16T20:03:22Z</time>
      </trkpt>
      <trkpt lat="47.34656" lon="-0.75371">
        <ele>8.31</ele>
        <time>2011-04-16T20:03:25Z</time>
      </trkpt>
      <trkpt lat="47.34651" lon="-0.75368">
        <ele>8.31</ele>
        <time>2011-04-16T20:03:26Z</time>
      </trkpt>
      <trkpt lat="47.34638" lon="-0.75358">
        <ele>8.31</ele>
        <time>2011-04-16T20:03:29Z</time>
      </trkpt>
      <trkpt lat="47.34633" lon="-0.75355">
        <ele>8.31</ele>
        <time>2011-04-16T20:03:30Z</time>
      </trkpt>
      <trkpt lat="47.34595" lon="-0.75324">
        <ele>8.31</ele>
        <time>2011-04-16T20:03:37Z</time>
      </trkpt>
      <trkpt lat="47.3456" lon="-0.75296">
        <ele>8.31</ele>
        <time>2011-04-16T20:03:44Z</time>
      </trkpt>
      <trkpt lat="47.34545" lon="-0.75284">
        <ele>8.31</ele>
        <time>2011-04-16T20:03:47Z</time>
      </trkpt>
      <trkpt lat="47.34541" lon="-0.7528">
        <ele>8.31</ele>
        <time>2011-04-16T20:03:48Z</time>
      </trkpt>
      <trkpt lat="47.34536" lon="-0.75276">
        <ele>8.31</ele>
        <time>2011-04-16T20:03:49Z</time>
      </trkpt>
      <trkpt lat="47.34517" lon="-0.7526">
        <ele>8.31</ele>
        <time>2011-04-16T20:03:53Z</time>
      </trkpt>
      <trkpt lat="47.34504" lon="-0.75247">
        <ele>8.31</ele>
        <time>2011-04-16T20:03:56Z</time>
      </trkpt>
      <trkpt lat="47.34499" lon="-0.75243">
        <ele>8.79</ele>
        <time>2011-04-16T20:03:57Z</time>
      </trkpt>
      <trkpt lat="47.34462" lon="-0.75213">
        <ele>8.31</ele>
        <time>2011-04-16T20:04:05Z</time>
      </trkpt>
      <trkpt lat="47.34438" lon="-0.75197">
        <ele>8.31</ele>
        <time>2011-04-16T20:04:10Z</time>
      </trkpt>
      <trkpt lat="47.34414" lon="-0.75177">
        <ele>8.31</ele>
        <time>2011-04-16T20:04:15Z</time>
      </trkpt>
      <trkpt lat="47.34404" lon="-0.75171">
        <ele>7.83</ele>
        <time>2011-04-16T20:04:17Z</time>
      </trkpt>
      <trkpt lat="47.34389" lon="-0.75164">
        <ele>8.31</ele>
        <time>2011-04-16T20:04:20Z</time>
      </trkpt>
      <trkpt lat="47.34384" lon="-0.75162">
        <ele>8.79</ele>
        <time>2011-04-16T20:04:21Z</time>
      </trkpt>
      <trkpt lat="47.34323" lon="-0.75132">
        <ele>7.83</ele>
        <time>2011-04-16T20:04:32Z</time>
      </trkpt>
      <trkpt lat="47.34296" lon="-0.75126">
        <ele>8.79</ele>
        <time>2011-04-16T20:04:37Z</time>
      </trkpt>
      <trkpt lat="47.34291" lon="-0.75125">
        <ele>8.79</ele>
        <time>2011-04-16T20:04:38Z</time>
      </trkpt>
      <trkpt lat="47.34286" lon="-0.75125">
        <ele>8.31</ele>
        <time>2011-04-16T20:04:39Z</time>
      </trkpt>
      <trkpt lat="47.34255" lon="-0.75123">
        <ele>8.31</ele>
        <time>2011-04-16T20:04:45Z</time>
      </trkpt>
      <trkpt lat="47.34239" lon="-0.7512">
        <ele>8.79</ele>
        <time>2011-04-16T20:04:48Z</time>
      </trkpt>
      <trkpt lat="47.34234" lon="-0.75119">
        <ele>8.79</ele>
        <time>2011-04-16T20:04:49Z</time>
      </trkpt>
      <trkpt lat="47.342" lon="-0.7511">
        <ele>8.79</ele>
        <time>2011-04-16T20:04:56Z</time>
      </trkpt>
      <trkpt lat="47.34157" lon="-0.75099">
        <ele>9.75</ele>
        <time>2011-04-16T20:05:05Z</time>
      </trkpt>
      <trkpt lat="47.34119" lon="-0.75084">
        <ele>10.23</ele>
        <time>2011-04-16T20:05:13Z</time>
      </trkpt>
      <trkpt lat="47.34104" lon="-0.7508">
        <ele>11.19</ele>
        <time>2011-04-16T20:05:18Z</time>
      </trkpt>
      <trkpt lat="47.34093" lon="-0.75077">
        <ele>11.67</ele>
        <time>2011-04-16T20:05:23Z</time>
      </trkpt>
      <trkpt lat="47.34091" lon="-0.75075">
        <ele>12.15</ele>
        <time>2011-04-16T20:05:24Z</time>
      </trkpt>
      <trkpt lat="47.34089" lon="-0.75073">
        <ele>11.67</ele>
        <time>2011-04-16T20:05:25Z</time>
      </trkpt>
      <trkpt lat="47.34088" lon="-0.75071">
        <ele>12.63</ele>
        <time>2011-04-16T20:05:26Z</time>
      </trkpt>
      <trkpt lat="47.34085" lon="-0.75068">
        <ele>12.15</ele>
        <time>2011-04-16T20:05:27Z</time>
      </trkpt>
      <trkpt lat="47.34071" lon="-0.75046">
        <ele>11.67</ele>
        <time>2011-04-16T20:05:33Z</time>
      </trkpt>
      <trkpt lat="47.34054" lon="-0.75004">
        <ele>12.63</ele>
        <time>2011-04-16T20:05:41Z</time>
      </trkpt>
      <trkpt lat="47.34047" lon="-0.74988">
        <ele>11.67</ele>
        <time>2011-04-16T20:05:44Z</time>
      </trkpt>
      <trkpt lat="47.34045" lon="-0.74982">
        <ele>11.67</ele>
        <time>2011-04-16T20:05:45Z</time>
      </trkpt>
      <trkpt lat="47.34043" lon="-0.74977">
        <ele>11.67</ele>
        <time>2011-04-16T20:05:46Z</time>
      </trkpt>
      <trkpt lat="47.34034" lon="-0.74954">
        <ele>12.63</ele>
        <time>2011-04-16T20:05:50Z</time>
      </trkpt>
      <trkpt lat="47.34008" lon="-0.74899">
        <ele>12.63</ele>
        <time>2011-04-16T20:06:00Z</time>
      </trkpt>
      <trkpt lat="47.34002" lon="-0.74888">
        <ele>12.63</ele>
        <time>2011-04-16T20:06:02Z</time>
      </trkpt>
      <trkpt lat="47.33983" lon="-0.74843">
        <ele>12.63</ele>
        <time>2011-04-16T20:06:10Z</time>
      </trkpt>
      <trkpt lat="47.33981" lon="-0.74838">
        <ele>13.12</ele>
        <time>2011-04-16T20:06:11Z</time>
      </trkpt>
      <trkpt lat="47.3398" lon="-0.74832">
        <ele>12.15</ele>
        <time>2011-04-16T20:06:12Z</time>
      </trkpt>
      <trkpt lat="47.33981" lon="-0.74826">
        <ele>12.15</ele>
        <time>2011-04-16T20:06:13Z</time>
      </trkpt>
      <trkpt lat="47.33982" lon="-0.74821">
        <ele>12.63</ele>
        <time>2011-04-16T20:06:14Z</time>
      </trkpt>
      <trkpt lat="47.33982" lon="-0.74809">
        <ele>13.12</ele>
        <time>2011-04-16T20:06:16Z</time>
      </trkpt>
      <trkpt lat="47.3398" lon="-0.74791">
        <ele>11.19</ele>
        <time>2011-04-16T20:06:19Z</time>
      </trkpt>
      <trkpt lat="47.3398" lon="-0.74784">
        <ele>11.67</ele>
        <time>2011-04-16T20:06:20Z</time>
      </trkpt>
      <trkpt lat="47.33983" lon="-0.74754">
        <ele>10.71</ele>
        <time>2011-04-16T20:06:24Z</time>
      </trkpt>
      <trkpt lat="47.33986" lon="-0.74748">
        <ele>10.23</ele>
        <time>2011-04-16T20:06:25Z</time>
      </trkpt>
      <trkpt lat="47.33991" lon="-0.74743">
        <ele>10.23</ele>
        <time>2011-04-16T20:06:26Z</time>
      </trkpt>
      <trkpt lat="47.33996" lon="-0.7474">
        <ele>9.75</ele>
        <time>2011-04-16T20:06:27Z</time>
      </trkpt>
      <trkpt lat="47.34001" lon="-0.74738">
        <ele>9.27</ele>
        <time>2011-04-16T20:06:28Z</time>
      </trkpt>
      <trkpt lat="47.34007" lon="-0.74735">
        <ele>9.27</ele>
        <time>2011-04-16T20:06:29Z</time>
      </trkpt>
      <trkpt lat="47.34014" lon="-0.74732">
        <ele>8.79</ele>
        <time>2011-04-16T20:06:30Z</time>
      </trkpt>
      <trkpt lat="47.34019" lon="-0.74728">
        <ele>8.79</ele>
        <time>2011-04-16T20:06:31Z</time>
      </trkpt>
      <trkpt lat="47.34043" lon="-0.74708">
        <ele>8.31</ele>
        <time>2011-04-16T20:06:36Z</time>
      </trkpt>
      <trkpt lat="47.34048" lon="-0.74704">
        <ele>7.83</ele>
        <time>2011-04-16T20:06:37Z</time>
      </trkpt>
      <trkpt lat="47.34056" lon="-0.74697">
        <ele>8.31</ele>
        <time>2011-04-16T20:06:39Z</time>
      </trkpt>
      <trkpt lat="47.3407" lon="-0.74687">
        <ele>7.83</ele>
        <time>2011-04-16T20:06:42Z</time>
      </trkpt>
      <trkpt lat="47.34074" lon="-0.74685">
        <ele>7.83</ele>
        <time>2011-04-16T20:06:43Z</time>
      </trkpt>
      <trkpt lat="47.34079" lon="-0.74688">
        <ele>7.35</ele>
        <time>2011-04-16T20:06:44Z</time>
      </trkpt>
      <trkpt lat="47.34083" lon="-0.74693">
        <ele>7.83</ele>
        <time>2011-04-16T20:06:45Z</time>
      </trkpt>
      <trkpt lat="47.34087" lon="-0.74699">
        <ele>7.35</ele>
        <time>2011-04-16T20:06:46Z</time>
      </trkpt>
      <trkpt lat="47.34108" lon="-0.74727">
        <ele>7.83</ele>
        <time>2011-04-16T20:06:51Z</time>
      </trkpt>
      <trkpt lat="47.34149" lon="-0.7477">
        <ele>7.35</ele>
        <time>2011-04-16T20:06:59Z</time>
      </trkpt>
      <trkpt lat="47.34183" lon="-0.74795">
        <ele>7.35</ele>
        <time>2011-04-16T20:07:06Z</time>
      </trkpt>
      <trkpt lat="47.34187" lon="-0.74796">
        <ele>7.83</ele>
        <time>2011-04-16T20:07:07Z</time>
      </trkpt>
      <trkpt lat="47.3419" lon="-0.74794">
        <ele>7.35</ele>
        <time>2011-04-16T20:07:08Z</time>
      </trkpt>
      <trkpt lat="47.34192" lon="-0.7479">
        <ele>7.35</ele>
        <time>2011-04-16T20:07:09Z</time>
      </trkpt>
      <trkpt lat="47.34194" lon="-0.74785">
        <ele>7.83</ele>
        <time>2011-04-16T20:07:10Z</time>
      </trkpt>
      <trkpt lat="47.34196" lon="-0.7478">
        <ele>7.83</ele>
        <time>2011-04-16T20:07:11Z</time>
      </trkpt>
      <trkpt lat="47.34197" lon="-0.74775">
        <ele>7.35</ele>
        <time>2011-04-16T20:07:12Z</time>
      </trkpt>
      <trkpt lat="47.342" lon="-0.74769">
        <ele>7.83</ele>
        <time>2011-04-16T20:07:13Z</time>
      </trkpt>
      <trkpt lat="47.34202" lon="-0.74763">
        <ele>7.35</ele>
        <time>2011-04-16T20:07:14Z</time>
      </trkpt>
      <trkpt lat="47.34204" lon="-0.74753">
        <ele>7.83</ele>
        <time>2011-04-16T20:07:16Z</time>
      </trkpt>
      <trkpt lat="47.34204" lon="-0.74748">
        <ele>7.35</ele>
        <time>2011-04-16T20:07:17Z</time>
      </trkpt>
      <trkpt lat="47.34201" lon="-0.74745">
        <ele>6.87</ele>
        <time>2011-04-16T20:07:18Z</time>
      </trkpt>
      <trkpt lat="47.3419" lon="-0.74744">
        <ele>6.87</ele>
        <time>2011-04-16T20:07:23Z</time>
      </trkpt>
      <trkpt lat="47.34187" lon="-0.74743">
        <ele>6.87</ele>
        <time>2011-04-16T20:07:24Z</time>
      </trkpt>
      <trkpt lat="47.3417" lon="-0.7473">
        <ele>6.39</ele>
        <time>2011-04-16T20:07:30Z</time>
      </trkpt>
      <trkpt lat="47.34149" lon="-0.74704">
        <ele>6.87</ele>
        <time>2011-04-16T20:07:38Z</time>
      </trkpt>
      <trkpt lat="47.34126" lon="-0.74675">
        <ele>7.35</ele>
        <time>2011-04-16T20:07:47Z</time>
      </trkpt>
      <trkpt lat="47.34115" lon="-0.74652">
        <ele>6.87</ele>
        <time>2011-04-16T20:07:53Z</time>
      </trkpt>
      <trkpt lat="47.34114" lon="-0.74649">
        <ele>7.35</ele>
        <time>2011-04-16T20:07:54Z</time>
      </trkpt>
      <trkpt lat="47.34103" lon="-0.74628">
        <ele>7.83</ele>
        <time>2011-04-16T20:07:59Z</time>
      </trkpt>
      <trkpt lat="47.34087" lon="-0.74611">
        <ele>6.87</ele>
        <time>2011-04-16T20:08:04Z</time>
      </trkpt>
      <trkpt lat="47.34084" lon="-0.74607">
        <ele>6.87</ele>
        <time>2011-04-16T20:08:05Z</time>
      </trkpt>
      <trkpt lat="47.34073" lon="-0.74594">
        <ele>6.87</ele>
        <time>2011-04-16T20:08:08Z</time>
      </trkpt>
      <trkpt lat="47.34069" lon="-0.74591">
        <ele>6.87</ele>
        <time>2011-04-16T20:08:09Z</time>
      </trkpt>
      <trkpt lat="47.34065" lon="-0.74588">
        <ele>7.35</ele>
        <time>2011-04-16T20:08:10Z</time>
      </trkpt>
      <trkpt lat="47.34061" lon="-0.74586">
        <ele>6.87</ele>
        <time>2011-04-16T20:08:11Z</time>
      </trkpt>
      <trkpt lat="47.34056" lon="-0.74585">
        <ele>7.35</ele>
        <time>2011-04-16T20:08:12Z</time>
      </trkpt>
      <trkpt lat="47.34029" lon="-0.74579">
        <ele>7.35</ele>
        <time>2011-04-16T20:08:19Z</time>
      </trkpt>
      <trkpt lat="47.33995" lon="-0.74568">
        <ele>6.87</ele>
        <time>2011-04-16T20:08:28Z</time>
      </trkpt>
      <trkpt lat="47.33988" lon="-0.74563">
        <ele>7.35</ele>
        <time>2011-04-16T20:08:30Z</time>
      </trkpt>
      <trkpt lat="47.33982" lon="-0.74555">
        <ele>7.35</ele>
        <time>2011-04-16T20:08:32Z</time>
      </trkpt>
      <trkpt lat="47.33979" lon="-0.74551">
        <ele>6.39</ele>
        <time>2011-04-16T20:08:33Z</time>
      </trkpt>
      <trkpt lat="47.33968" lon="-0.7453">
        <ele>7.35</ele>
        <time>2011-04-16T20:08:37Z</time>
      </trkpt>
      <trkpt lat="47.33964" lon="-0.7452">
        <ele>7.35</ele>
        <time>2011-04-16T20:08:39Z</time>
      </trkpt>
      <trkpt lat="47.33963" lon="-0.74513">
        <ele>7.35</ele>
        <time>2011-04-16T20:08:40Z</time>
      </trkpt>
      <trkpt lat="47.33962" lon="-0.74507">
        <ele>6.39</ele>
        <time>2011-04-16T20:08:41Z</time>
      </trkpt>
      <trkpt lat="47.3396" lon="-0.74487">
        <ele>6.87</ele>
        <time>2011-04-16T20:08:44Z</time>
      </trkpt>
      <trkpt lat="47.33953" lon="-0.74424">
        <ele>7.35</ele>
        <time>2011-04-16T20:08:54Z</time>
      </trkpt>
      <trkpt lat="47.33951" lon="-0.74398">
        <ele>7.35</ele>
        <time>2011-04-16T20:08:58Z</time>
      </trkpt>
      <trkpt lat="47.33952" lon="-0.74344">
        <ele>7.35</ele>
        <time>2011-04-16T20:09:06Z</time>
      </trkpt>
      <trkpt lat="47.33959" lon="-0.74277">
        <ele>7.35</ele>
        <time>2011-04-16T20:09:16Z</time>
      </trkpt>
      <trkpt lat="47.3396" lon="-0.7427">
        <ele>7.35</ele>
        <time>2011-04-16T20:09:17Z</time>
      </trkpt>
      <trkpt lat="47.33973" lon="-0.74193">
        <ele>7.35</ele>
        <time>2011-04-16T20:09:29Z</time>
      </trkpt>
      <trkpt lat="47.33985" lon="-0.74136">
        <ele>7.35</ele>
        <time>2011-04-16T20:09:38Z</time>
      </trkpt>
      <trkpt lat="47.34001" lon="-0.74068">
        <ele>6.87</ele>
        <time>2011-04-16T20:09:48Z</time>
      </trkpt>
      <trkpt lat="47.34005" lon="-0.74058">
        <ele>7.35</ele>
        <time>2011-04-16T20:09:50Z</time>
      </trkpt>
      <trkpt lat="47.34008" lon="-0.74054">
        <ele>7.35</ele>
        <time>2011-04-16T20:09:51Z</time>
      </trkpt>
      <trkpt lat="47.34043" lon="-0.74007">
        <ele>7.35</ele>
        <time>2011-04-16T20:10:02Z</time>
      </trkpt>
      <trkpt lat="47.34072" lon="-0.73968">
        <ele>7.83</ele>
        <time>2011-04-16T20:10:11Z</time>
      </trkpt>
      <trkpt lat="47.3408" lon="-0.73961">
        <ele>7.83</ele>
        <time>2011-04-16T20:10:13Z</time>
      </trkpt>
      <trkpt lat="47.34084" lon="-0.7396">
        <ele>7.35</ele>
        <time>2011-04-16T20:10:14Z</time>
      </trkpt>
      <trkpt lat="47.34088" lon="-0.7396">
        <ele>7.83</ele>
        <time>2011-04-16T20:10:15Z</time>
      </trkpt>
      <trkpt lat="47.3411" lon="-0.73966">
        <ele>7.35</ele>
        <time>2011-04-16T20:10:20Z</time>
      </trkpt>
      <trkpt lat="47.34146" lon="-0.73979">
        <ele>7.83</ele>
        <time>2011-04-16T20:10:28Z</time>
      </trkpt>
      <trkpt lat="47.34159" lon="-0.73985">
        <ele>7.83</ele>
        <time>2011-04-16T20:10:31Z</time>
      </trkpt>
      <trkpt lat="47.3418" lon="-0.73995">
        <ele>8.79</ele>
        <time>2011-04-16T20:10:37Z</time>
      </trkpt>
      <trkpt lat="47.34188" lon="-0.73991">
        <ele>8.31</ele>
        <time>2011-04-16T20:10:39Z</time>
      </trkpt>
      <trkpt lat="47.34193" lon="-0.73991">
        <ele>8.79</ele>
        <time>2011-04-16T20:10:40Z</time>
      </trkpt>
      <trkpt lat="47.3423" lon="-0.73991">
        <ele>8.31</ele>
        <time>2011-04-16T20:10:48Z</time>
      </trkpt>
      <trkpt lat="47.34267" lon="-0.73994">
        <ele>8.31</ele>
        <time>2011-04-16T20:10:56Z</time>
      </trkpt>
      <trkpt lat="47.34305" lon="-0.73994">
        <ele>7.35</ele>
        <time>2011-04-16T20:11:04Z</time>
      </trkpt>
      <trkpt lat="47.34327" lon="-0.73986">
        <ele>7.35</ele>
        <time>2011-04-16T20:11:09Z</time>
      </trkpt>
      <trkpt lat="47.34332" lon="-0.73985">
        <ele>7.35</ele>
        <time>2011-04-16T20:11:10Z</time>
      </trkpt>
      <trkpt lat="47.34336" lon="-0.73984">
        <ele>7.83</ele>
        <time>2011-04-16T20:11:11Z</time>
      </trkpt>
      <trkpt lat="47.34341" lon="-0.73984">
        <ele>7.83</ele>
        <time>2011-04-16T20:11:12Z</time>
      </trkpt>
      <trkpt lat="47.34345" lon="-0.73983">
        <ele>7.35</ele>
        <time>2011-04-16T20:11:13Z</time>
      </trkpt>
      <trkpt lat="47.3435" lon="-0.73982">
        <ele>7.35</ele>
        <time>2011-04-16T20:11:14Z</time>
      </trkpt>
      <trkpt lat="47.34382" lon="-0.73977">
        <ele>7.35</ele>
        <time>2011-04-16T20:11:21Z</time>
      </trkpt>
      <trkpt lat="47.3441" lon="-0.73968">
        <ele>7.83</ele>
        <time>2011-04-16T20:11:27Z</time>
      </trkpt>
      <trkpt lat="47.34449" lon="-0.73956">
        <ele>7.83</ele>
        <time>2011-04-16T20:11:36Z</time>
      </trkpt>
      <trkpt lat="47.34479" lon="-0.73943">
        <ele>8.31</ele>
        <time>2011-04-16T20:11:43Z</time>
      </trkpt>
      <trkpt lat="47.34483" lon="-0.73941">
        <ele>8.31</ele>
        <time>2011-04-16T20:11:44Z</time>
      </trkpt>
      <trkpt lat="47.34514" lon="-0.73927">
        <ele>8.31</ele>
        <time>2011-04-16T20:11:51Z</time>
      </trkpt>
      <trkpt lat="47.34541" lon="-0.739">
        <ele>8.31</ele>
        <time>2011-04-16T20:11:58Z</time>
      </trkpt>
      <trkpt lat="47.34548" lon="-0.73891">
        <ele>8.79</ele>
        <time>2011-04-16T20:12:00Z</time>
      </trkpt>
      <trkpt lat="47.34552" lon="-0.73887">
        <ele>8.79</ele>
        <time>2011-04-16T20:12:01Z</time>
      </trkpt>
      <trkpt lat="47.34575" lon="-0.73849">
        <ele>7.83</ele>
        <time>2011-04-16T20:12:08Z</time>
      </trkpt>
      <trkpt lat="47.34595" lon="-0.73817">
        <ele>8.31</ele>
        <time>2011-04-16T20:12:14Z</time>
      </trkpt>
      <trkpt lat="47.34598" lon="-0.73811">
        <ele>8.31</ele>
        <time>2011-04-16T20:12:15Z</time>
      </trkpt>
      <trkpt lat="47.34609" lon="-0.7379">
        <ele>8.79</ele>
        <time>2011-04-16T20:12:19Z</time>
      </trkpt>
      <trkpt lat="47.34612" lon="-0.73784">
        <ele>8.31</ele>
        <time>2011-04-16T20:12:20Z</time>
      </trkpt>
      <trkpt lat="47.34614" lon="-0.73778">
        <ele>8.79</ele>
        <time>2011-04-16T20:12:21Z</time>
      </trkpt>
      <trkpt lat="47.34624" lon="-0.73755">
        <ele>8.79</ele>
        <time>2011-04-16T20:12:25Z</time>
      </trkpt>
      <trkpt lat="47.34627" lon="-0.73748">
        <ele>8.79</ele>
        <time>2011-04-16T20:12:26Z</time>
      </trkpt>
      <trkpt lat="47.34638" lon="-0.73725">
        <ele>8.79</ele>
        <time>2011-04-16T20:12:30Z</time>
      </trkpt>
      <trkpt lat="47.3466" lon="-0.7367">
        <ele>8.31</ele>
        <time>2011-04-16T20:12:38Z</time>
      </trkpt>
      <trkpt lat="47.34673" lon="-0.73622">
        <ele>7.83</ele>
        <time>2011-04-16T20:12:44Z</time>
      </trkpt>
      <trkpt lat="47.34684" lon="-0.73598">
        <ele>7.83</ele>
        <time>2011-04-16T20:12:48Z</time>
      </trkpt>
      <trkpt lat="47.34706" lon="-0.73561">
        <ele>8.79</ele>
        <time>2011-04-16T20:12:55Z</time>
      </trkpt>
      <trkpt lat="47.34709" lon="-0.73548">
        <ele>8.79</ele>
        <time>2011-04-16T20:12:57Z</time>
      </trkpt>
      <trkpt lat="47.3471" lon="-0.73541">
        <ele>8.31</ele>
        <time>2011-04-16T20:12:58Z</time>
      </trkpt>
      <trkpt lat="47.34711" lon="-0.73525">
        <ele>8.31</ele>
        <time>2011-04-16T20:13:00Z</time>
      </trkpt>
      <trkpt lat="47.34704" lon="-0.73454">
        <ele>8.31</ele>
        <time>2011-04-16T20:13:09Z</time>
      </trkpt>
      <trkpt lat="47.34699" lon="-0.73409">
        <ele>7.83</ele>
        <time>2011-04-16T20:13:15Z</time>
      </trkpt>
      <trkpt lat="47.34696" lon="-0.73387">
        <ele>7.83</ele>
        <time>2011-04-16T20:13:18Z</time>
      </trkpt>
      <trkpt lat="47.34693" lon="-0.73381">
        <ele>8.79</ele>
        <time>2011-04-16T20:13:19Z</time>
      </trkpt>
      <trkpt lat="47.34692" lon="-0.73374">
        <ele>8.31</ele>
        <time>2011-04-16T20:13:20Z</time>
      </trkpt>
      <trkpt lat="47.34691" lon="-0.73347">
        <ele>8.79</ele>
        <time>2011-04-16T20:13:24Z</time>
      </trkpt>
      <trkpt lat="47.34691" lon="-0.7334">
        <ele>9.27</ele>
        <time>2011-04-16T20:13:25Z</time>
      </trkpt>
      <trkpt lat="47.34691" lon="-0.73334">
        <ele>9.75</ele>
        <time>2011-04-16T20:13:26Z</time>
      </trkpt>
      <trkpt lat="47.34692" lon="-0.73328">
        <ele>9.75</ele>
        <time>2011-04-16T20:13:27Z</time>
      </trkpt>
      <trkpt lat="47.34693" lon="-0.73323">
        <ele>10.71</ele>
        <time>2011-04-16T20:13:28Z</time>
      </trkpt>
      <trkpt lat="47.34695" lon="-0.73294">
        <ele>11.67</ele>
        <time>2011-04-16T20:13:33Z</time>
      </trkpt>
      <trkpt lat="47.34696" lon="-0.73282">
        <ele>12.63</ele>
        <time>2011-04-16T20:13:36Z</time>
      </trkpt>
      <trkpt lat="47.34694" lon="-0.73277">
        <ele>11.67</ele>
        <time>2011-04-16T20:13:37Z</time>
      </trkpt>
      <trkpt lat="47.3469" lon="-0.73266">
        <ele>11.19</ele>
        <time>2011-04-16T20:13:39Z</time>
      </trkpt>
      <trkpt lat="47.34671" lon="-0.73216">
        <ele>10.23</ele>
        <time>2011-04-16T20:13:46Z</time>
      </trkpt>
      <trkpt lat="47.3464" lon="-0.73142">
        <ele>10.23</ele>
        <time>2011-04-16T20:13:56Z</time>
      </trkpt>
      <trkpt lat="47.34605" lon="-0.73086">
        <ele>9.75</ele>
        <time>2011-04-16T20:14:05Z</time>
      </trkpt>
      <trkpt lat="47.34601" lon="-0.7308">
        <ele>9.75</ele>
        <time>2011-04-16T20:14:06Z</time>
      </trkpt>
      <trkpt lat="47.34592" lon="-0.73071">
        <ele>10.23</ele>
        <time>2011-04-16T20:14:08Z</time>
      </trkpt>
      <trkpt lat="47.34546" lon="-0.73025">
        <ele>10.23</ele>
        <time>2011-04-16T20:14:18Z</time>
      </trkpt>
      <trkpt lat="47.34542" lon="-0.7302">
        <ele>10.23</ele>
        <time>2011-04-16T20:14:19Z</time>
      </trkpt>
      <trkpt lat="47.34507" lon="-0.72977">
        <ele>10.23</ele>
        <time>2011-04-16T20:14:27Z</time>
      </trkpt>
      <trkpt lat="47.34477" lon="-0.72937">
        <ele>10.23</ele>
        <time>2011-04-16T20:14:34Z</time>
      </trkpt>
      <trkpt lat="47.34444" lon="-0.72898">
        <ele>9.75</ele>
        <time>2011-04-16T20:14:42Z</time>
      </trkpt>
      <trkpt lat="47.34416" lon="-0.72871">
        <ele>10.23</ele>
        <time>2011-04-16T20:14:48Z</time>
      </trkpt>
      <trkpt lat="47.34411" lon="-0.72866">
        <ele>9.75</ele>
        <time>2011-04-16T20:14:49Z</time>
      </trkpt>
      <trkpt lat="47.34378" lon="-0.72829">
        <ele>9.75</ele>
        <time>2011-04-16T20:14:57Z</time>
      </trkpt>
      <trkpt lat="47.34375" lon="-0.72823">
        <ele>9.27</ele>
        <time>2011-04-16T20:14:58Z</time>
      </trkpt>
      <trkpt lat="47.34374" lon="-0.72817">
        <ele>9.75</ele>
        <time>2011-04-16T20:14:59Z</time>
      </trkpt>
      <trkpt lat="47.34374" lon="-0.7281">
        <ele>9.75</ele>
        <time>2011-04-16T20:15:00Z</time>
      </trkpt>
      <trkpt lat="47.34374" lon="-0.72796">
        <ele>9.27</ele>
        <time>2011-04-16T20:15:02Z</time>
      </trkpt>
      <trkpt lat="47.34373" lon="-0.72789">
        <ele>9.27</ele>
        <time>2011-04-16T20:15:03Z</time>
      </trkpt>
      <trkpt lat="47.34367" lon="-0.72769">
        <ele>10.71</ele>
        <time>2011-04-16T20:15:06Z</time>
      </trkpt>
      <trkpt lat="47.3435" lon="-0.72708">
        <ele>10.23</ele>
        <time>2011-04-16T20:15:15Z</time>
      </trkpt>
      <trkpt lat="47.34346" lon="-0.72696">
        <ele>10.71</ele>
        <time>2011-04-16T20:15:17Z</time>
      </trkpt>
      <trkpt lat="47.34337" lon="-0.72681">
        <ele>11.19</ele>
        <time>2011-04-16T20:15:20Z</time>
      </trkpt>
      <trkpt lat="47.3433" lon="-0.72672">
        <ele>11.67</ele>
        <time>2011-04-16T20:15:22Z</time>
      </trkpt>
      <trkpt lat="47.34306" lon="-0.72644">
        <ele>12.15</ele>
        <time>2011-04-16T20:15:29Z</time>
      </trkpt>
      <trkpt lat="47.34305" lon="-0.72638">
        <ele>11.19</ele>
        <time>2011-04-16T20:15:30Z</time>
      </trkpt>
      <trkpt lat="47.34306" lon="-0.72633">
        <ele>11.67</ele>
        <time>2011-04-16T20:15:31Z</time>
      </trkpt>
      <trkpt lat="47.34307" lon="-0.72629">
        <ele>11.67</ele>
        <time>2011-04-16T20:15:32Z</time>
      </trkpt>
      <trkpt lat="47.34309" lon="-0.72624">
        <ele>12.63</ele>
        <time>2011-04-16T20:15:33Z</time>
      </trkpt>
      <trkpt lat="47.34311" lon="-0.72621">
        <ele>12.63</ele>
        <time>2011-04-16T20:15:34Z</time>
      </trkpt>
      <trkpt lat="47.34313" lon="-0.72617">
        <ele>12.63</ele>
        <time>2011-04-16T20:15:35Z</time>
      </trkpt>
      <trkpt lat="47.34322" lon="-0.72591">
        <ele>14.08</ele>
        <time>2011-04-16T20:15:41Z</time>
      </trkpt>
      <trkpt lat="47.3432" lon="-0.72551">
        <ele>16</ele>
        <time>2011-04-16T20:15:49Z</time>
      </trkpt>
      <trkpt lat="47.34314" lon="-0.72507">
        <ele>17.44</ele>
        <time>2011-04-16T20:15:58Z</time>
      </trkpt>
      <trkpt lat="47.34307" lon="-0.7247">
        <ele>18.88</ele>
        <time>2011-04-16T20:16:06Z</time>
      </trkpt>
      <trkpt lat="47.34296" lon="-0.72432">
        <ele>20.32</ele>
        <time>2011-04-16T20:16:15Z</time>
      </trkpt>
      <trkpt lat="47.34279" lon="-0.7241">
        <ele>22.25</ele>
        <time>2011-04-16T20:16:22Z</time>
      </trkpt>
      <trkpt lat="47.34249" lon="-0.72387">
        <ele>21.29</ele>
        <time>2011-04-16T20:16:31Z</time>
      </trkpt>
      <trkpt lat="47.34219" lon="-0.72364">
        <ele>21.77</ele>
        <time>2011-04-16T20:16:39Z</time>
      </trkpt>
      <trkpt lat="47.34195" lon="-0.72347">
        <ele>23.21</ele>
        <time>2011-04-16T20:16:47Z</time>
      </trkpt>
      <trkpt lat="47.34175" lon="-0.72334">
        <ele>26.57</ele>
        <time>2011-04-16T20:16:54Z</time>
      </trkpt>
      <trkpt lat="47.34161" lon="-0.72326">
        <ele>29.46</ele>
        <time>2011-04-16T20:17:00Z</time>
      </trkpt>
      <trkpt lat="47.34155" lon="-0.72321">
        <ele>30.9</ele>
        <time>2011-04-16T20:17:03Z</time>
      </trkpt>
      <trkpt lat="47.34144" lon="-0.72314">
        <ele>32.82</ele>
        <time>2011-04-16T20:17:08Z</time>
      </trkpt>
      <trkpt lat="47.34126" lon="-0.72302">
        <ele>35.23</ele>
        <time>2011-04-16T20:17:16Z</time>
      </trkpt>
      <trkpt lat="47.34109" lon="-0.72294">
        <ele>36.67</ele>
        <time>2011-04-16T20:17:23Z</time>
      </trkpt>
      <trkpt lat="47.34094" lon="-0.72286">
        <ele>39.07</ele>
        <time>2011-04-16T20:17:30Z</time>
      </trkpt>
      <trkpt lat="47.3408" lon="-0.7228">
        <ele>40.03</ele>
        <time>2011-04-16T20:17:36Z</time>
      </trkpt>
      <trkpt lat="47.34075" lon="-0.72276">
        <ele>40.99</ele>
        <time>2011-04-16T20:17:38Z</time>
      </trkpt>
      <trkpt lat="47.34058" lon="-0.72253">
        <ele>42.92</ele>
        <time>2011-04-16T20:17:47Z</time>
      </trkpt>
      <trkpt lat="47.34048" lon="-0.72231">
        <ele>43.88</ele>
        <time>2011-04-16T20:17:54Z</time>
      </trkpt>
      <trkpt lat="47.34037" lon="-0.72203">
        <ele>45.8</ele>
        <time>2011-04-16T20:18:03Z</time>
      </trkpt>
      <trkpt lat="47.34028" lon="-0.7218">
        <ele>48.2</ele>
        <time>2011-04-16T20:18:11Z</time>
      </trkpt>
      <trkpt lat="47.34024" lon="-0.72159">
        <ele>49.16</ele>
        <time>2011-04-16T20:18:18Z</time>
      </trkpt>
      <trkpt lat="47.34016" lon="-0.72134">
        <ele>51.57</ele>
        <time>2011-04-16T20:18:27Z</time>
      </trkpt>
      <trkpt lat="47.34007" lon="-0.72119">
        <ele>52.53</ele>
        <time>2011-04-16T20:18:33Z</time>
      </trkpt>
      <trkpt lat="47.34006" lon="-0.72117">
        <ele>53.01</ele>
        <time>2011-04-16T20:18:34Z</time>
      </trkpt>
      <trkpt lat="47.34004" lon="-0.72114">
        <ele>53.49</ele>
        <time>2011-04-16T20:18:35Z</time>
      </trkpt>
      <trkpt lat="47.34003" lon="-0.72112">
        <ele>53.49</ele>
        <time>2011-04-16T20:18:36Z</time>
      </trkpt>
      <trkpt lat="47.34001" lon="-0.72109">
        <ele>53.01</ele>
        <time>2011-04-16T20:18:37Z</time>
      </trkpt>
      <trkpt lat="47.3399" lon="-0.7209">
        <ele>55.41</ele>
        <time>2011-04-16T20:18:45Z</time>
      </trkpt>
      <trkpt lat="47.33981" lon="-0.72071">
        <ele>57.34</ele>
        <time>2011-04-16T20:18:53Z</time>
      </trkpt>
      <trkpt lat="47.33973" lon="-0.72053">
        <ele>59.26</ele>
        <time>2011-04-16T20:19:00Z</time>
      </trkpt>
      <trkpt lat="47.33964" lon="-0.72032">
        <ele>60.7</ele>
        <time>2011-04-16T20:19:08Z</time>
      </trkpt>
      <trkpt lat="47.33956" lon="-0.72008">
        <ele>63.58</ele>
        <time>2011-04-16T20:19:17Z</time>
      </trkpt>
      <trkpt lat="47.33946" lon="-0.71985">
        <ele>65.03</ele>
        <time>2011-04-16T20:19:26Z</time>
      </trkpt>
      <trkpt lat="47.33938" lon="-0.71967">
        <ele>66.95</ele>
        <time>2011-04-16T20:19:33Z</time>
      </trkpt>
      <trkpt lat="47.33934" lon="-0.71955">
        <ele>67.91</ele>
        <time>2011-04-16T20:19:38Z</time>
      </trkpt>
      <trkpt lat="47.33934" lon="-0.71953">
        <ele>68.39</ele>
        <time>2011-04-16T20:19:39Z</time>
      </trkpt>
      <trkpt lat="47.33934" lon="-0.71951">
        <ele>69.35</ele>
        <time>2011-04-16T20:19:40Z</time>
      </trkpt>
      <trkpt lat="47.33933" lon="-0.71949">
        <ele>69.35</ele>
        <time>2011-04-16T20:19:41Z</time>
      </trkpt>
      <trkpt lat="47.33932" lon="-0.71948">
        <ele>69.35</ele>
        <time>2011-04-16T20:19:42Z</time>
      </trkpt>
      <trkpt lat="47.33931" lon="-0.71946">
        <ele>69.35</ele>
        <time>2011-04-16T20:19:43Z</time>
      </trkpt>
      <trkpt lat="47.3393" lon="-0.71944">
        <ele>69.83</ele>
        <time>2011-04-16T20:19:45Z</time>
      </trkpt>
      <trkpt lat="47.33928" lon="-0.7194">
        <ele>69.83</ele>
        <time>2011-04-16T20:19:48Z</time>
      </trkpt>
      <trkpt lat="47.33929" lon="-0.71938">
        <ele>69.83</ele>
        <time>2011-04-16T20:19:54Z</time>
      </trkpt>
      <trkpt lat="47.3393" lon="-0.71936">
        <ele>69.83</ele>
        <time>2011-04-16T20:19:59Z</time>
      </trkpt>
      <trkpt lat="47.33929" lon="-0.71937">
        <ele>70.79</ele>
        <time>2011-04-16T20:26:21Z</time>
      </trkpt>
      <trkpt lat="47.33929" lon="-0.71937">
        <ele>70.79</ele>
        <time>2011-04-16T20:26:43Z</time>
      </trkpt>
      <trkpt lat="47.3393" lon="-0.71939">
        <ele>71.27</ele>
        <time>2011-04-16T20:26:44Z</time>
      </trkpt>
      <trkpt lat="47.33931" lon="-0.7194">
        <ele>70.79</ele>
        <time>2011-04-16T20:26:45Z</time>
      </trkpt>
      <trkpt lat="47.33933" lon="-0.71941">
        <ele>70.79</ele>
        <time>2011-04-16T20:26:46Z</time>
      </trkpt>
      <trkpt lat="47.33935" lon="-0.71941">
        <ele>70.31</ele>
        <time>2011-04-16T20:26:47Z</time>
      </trkpt>
      <trkpt lat="47.33937" lon="-0.7194">
        <ele>70.79</ele>
        <time>2011-04-16T20:26:48Z</time>
      </trkpt>
      <trkpt lat="47.33946" lon="-0.71935">
        <ele>70.79</ele>
        <time>2011-04-16T20:26:54Z</time>
      </trkpt>
      <trkpt lat="47.3396" lon="-0.71924">
        <ele>71.27</ele>
        <time>2011-04-16T20:27:02Z</time>
      </trkpt>
      <trkpt lat="47.33978" lon="-0.71909">
        <ele>71.27</ele>
        <time>2011-04-16T20:27:10Z</time>
      </trkpt>
      <trkpt lat="47.34" lon="-0.71889">
        <ele>71.27</ele>
        <time>2011-04-16T20:27:18Z</time>
      </trkpt>
      <trkpt lat="47.34" lon="-0.71884">
        <ele>70.79</ele>
        <time>2011-04-16T20:27:19Z</time>
      </trkpt>
      <trkpt lat="47.34" lon="-0.71879">
        <ele>71.27</ele>
        <time>2011-04-16T20:27:20Z</time>
      </trkpt>
      <trkpt lat="47.33998" lon="-0.71875">
        <ele>71.27</ele>
        <time>2011-04-16T20:27:21Z</time>
      </trkpt>
      <trkpt lat="47.33997" lon="-0.71871">
        <ele>70.79</ele>
        <time>2011-04-16T20:27:22Z</time>
      </trkpt>
      <trkpt lat="47.33995" lon="-0.71866">
        <ele>71.27</ele>
        <time>2011-04-16T20:27:23Z</time>
      </trkpt>
      <trkpt lat="47.33983" lon="-0.71824">
        <ele>70.79</ele>
        <time>2011-04-16T20:27:32Z</time>
      </trkpt>
      <trkpt lat="47.33968" lon="-0.71777">
        <ele>71.76</ele>
        <time>2011-04-16T20:27:42Z</time>
      </trkpt>
      <trkpt lat="47.33955" lon="-0.71742">
        <ele>71.27</ele>
        <time>2011-04-16T20:27:50Z</time>
      </trkpt>
      <trkpt lat="47.33944" lon="-0.71704">
        <ele>71.76</ele>
        <time>2011-04-16T20:27:58Z</time>
      </trkpt>
      <trkpt lat="47.33941" lon="-0.7167">
        <ele>72.24</ele>
        <time>2011-04-16T20:28:05Z</time>
      </trkpt>
      <trkpt lat="47.33938" lon="-0.71621">
        <ele>71.27</ele>
        <time>2011-04-16T20:28:14Z</time>
      </trkpt>
      <trkpt lat="47.33925" lon="-0.71573">
        <ele>71.27</ele>
        <time>2011-04-16T20:28:23Z</time>
      </trkpt>
      <trkpt lat="47.33904" lon="-0.71527">
        <ele>71.76</ele>
        <time>2011-04-16T20:28:33Z</time>
      </trkpt>
      <trkpt lat="47.33891" lon="-0.71485">
        <ele>70.31</ele>
        <time>2011-04-16T20:28:40Z</time>
      </trkpt>
      <trkpt lat="47.33888" lon="-0.7148">
        <ele>69.35</ele>
        <time>2011-04-16T20:28:41Z</time>
      </trkpt>
      <trkpt lat="47.33886" lon="-0.71474">
        <ele>69.83</ele>
        <time>2011-04-16T20:28:42Z</time>
      </trkpt>
      <trkpt lat="47.33868" lon="-0.71446">
        <ele>68.39</ele>
        <time>2011-04-16T20:28:49Z</time>
      </trkpt>
      <trkpt lat="47.33868" lon="-0.71444">
        <ele>68.39</ele>
        <time>2011-04-16T20:28:50Z</time>
      </trkpt>
      <trkpt lat="47.33876" lon="-0.71431">
        <ele>68.39</ele>
        <time>2011-04-16T20:28:55Z</time>
      </trkpt>
      <trkpt lat="47.33895" lon="-0.71403">
        <ele>68.39</ele>
        <time>2011-04-16T20:29:03Z</time>
      </trkpt>
      <trkpt lat="47.33907" lon="-0.71388">
        <ele>67.43</ele>
        <time>2011-04-16T20:29:08Z</time>
      </trkpt>
      <trkpt lat="47.33921" lon="-0.71394">
        <ele>67.91</ele>
        <time>2011-04-16T20:29:12Z</time>
      </trkpt>
      <trkpt lat="47.33944" lon="-0.71428">
        <ele>68.39</ele>
        <time>2011-04-16T20:29:20Z</time>
      </trkpt>
      <trkpt lat="47.3395" lon="-0.71435">
        <ele>68.87</ele>
        <time>2011-04-16T20:29:22Z</time>
      </trkpt>
      <trkpt lat="47.33967" lon="-0.71424">
        <ele>68.87</ele>
        <time>2011-04-16T20:29:27Z</time>
      </trkpt>
      <trkpt lat="47.34004" lon="-0.71389">
        <ele>66.47</ele>
        <time>2011-04-16T20:29:36Z</time>
      </trkpt>
      <trkpt lat="47.34007" lon="-0.71391">
        <ele>66.95</ele>
        <time>2011-04-16T20:29:37Z</time>
      </trkpt>
      <trkpt lat="47.34009" lon="-0.71394">
        <ele>66.47</ele>
        <time>2011-04-16T20:29:38Z</time>
      </trkpt>
      <trkpt lat="47.3402" lon="-0.71421">
        <ele>65.51</ele>
        <time>2011-04-16T20:29:44Z</time>
      </trkpt>
      <trkpt lat="47.34027" lon="-0.71434">
        <ele>65.99</ele>
        <time>2011-04-16T20:29:48Z</time>
      </trkpt>
      <trkpt lat="47.3403" lon="-0.71435">
        <ele>65.51</ele>
        <time>2011-04-16T20:29:49Z</time>
      </trkpt>
      <trkpt lat="47.34033" lon="-0.71435">
        <ele>65.51</ele>
        <time>2011-04-16T20:29:50Z</time>
      </trkpt>
      <trkpt lat="47.34035" lon="-0.71434">
        <ele>65.03</ele>
        <time>2011-04-16T20:29:51Z</time>
      </trkpt>
      <trkpt lat="47.34038" lon="-0.71433">
        <ele>65.51</ele>
        <time>2011-04-16T20:29:52Z</time>
      </trkpt>
      <trkpt lat="47.34041" lon="-0.71433">
        <ele>65.03</ele>
        <time>2011-04-16T20:29:53Z</time>
      </trkpt>
      <trkpt lat="47.34044" lon="-0.71435">
        <ele>65.03</ele>
        <time>2011-04-16T20:29:54Z</time>
      </trkpt>
      <trkpt lat="47.34046" lon="-0.71438">
        <ele>65.03</ele>
        <time>2011-04-16T20:29:55Z</time>
      </trkpt>
      <trkpt lat="47.34053" lon="-0.71446">
        <ele>64.55</ele>
        <time>2011-04-16T20:29:58Z</time>
      </trkpt>
      <trkpt lat="47.34055" lon="-0.71444">
        <ele>63.58</ele>
        <time>2011-04-16T20:29:59Z</time>
      </trkpt>
      <trkpt lat="47.34076" lon="-0.7143">
        <ele>62.62</ele>
        <time>2011-04-16T20:30:04Z</time>
      </trkpt>
      <trkpt lat="47.34113" lon="-0.71404">
        <ele>59.26</ele>
        <time>2011-04-16T20:30:11Z</time>
      </trkpt>
      <trkpt lat="47.34119" lon="-0.714">
        <ele>59.26</ele>
        <time>2011-04-16T20:30:12Z</time>
      </trkpt>
      <trkpt lat="47.34141" lon="-0.71386">
        <ele>55.89</ele>
        <time>2011-04-16T20:30:16Z</time>
      </trkpt>
      <trkpt lat="47.34148" lon="-0.71382">
        <ele>54.93</ele>
        <time>2011-04-16T20:30:18Z</time>
      </trkpt>
      <trkpt lat="47.34171" lon="-0.71371">
        <ele>56.37</ele>
        <time>2011-04-16T20:30:25Z</time>
      </trkpt>
      <trkpt lat="47.34175" lon="-0.7137">
        <ele>56.37</ele>
        <time>2011-04-16T20:30:27Z</time>
      </trkpt>
      <trkpt lat="47.34177" lon="-0.7137">
        <ele>57.82</ele>
        <time>2011-04-16T20:30:28Z</time>
      </trkpt>
      <trkpt lat="47.34178" lon="-0.7137">
        <ele>57.34</ele>
        <time>2011-04-16T20:30:29Z</time>
      </trkpt>
      <trkpt lat="47.34179" lon="-0.71369">
        <ele>58.3</ele>
        <time>2011-04-16T20:30:30Z</time>
      </trkpt>
      <trkpt lat="47.3418" lon="-0.71368">
        <ele>58.3</ele>
        <time>2011-04-16T20:30:31Z</time>
      </trkpt>
      <trkpt lat="47.34182" lon="-0.71366">
        <ele>58.78</ele>
        <time>2011-04-16T20:30:32Z</time>
      </trkpt>
      <trkpt lat="47.34183" lon="-0.71364">
        <ele>60.22</ele>
        <time>2011-04-16T20:30:33Z</time>
      </trkpt>
      <trkpt lat="47.34184" lon="-0.71363">
        <ele>60.22</ele>
        <time>2011-04-16T20:30:34Z</time>
      </trkpt>
      <trkpt lat="47.34184" lon="-0.71361">
        <ele>59.74</ele>
        <time>2011-04-16T20:30:35Z</time>
      </trkpt>
      <trkpt lat="47.34185" lon="-0.7136">
        <ele>60.22</ele>
        <time>2011-04-16T20:30:36Z</time>
      </trkpt>
      <trkpt lat="47.34185" lon="-0.71359">
        <ele>60.7</ele>
        <time>2011-04-16T20:30:37Z</time>
      </trkpt>
      <trkpt lat="47.34185" lon="-0.71357">
        <ele>60.7</ele>
        <time>2011-04-16T20:30:38Z</time>
      </trkpt>
      <trkpt lat="47.34186" lon="-0.71356">
        <ele>60.7</ele>
        <time>2011-04-16T20:30:44Z</time>
      </trkpt>
      <trkpt lat="47.34187" lon="-0.71352">
        <ele>60.7</ele>
        <time>2011-04-16T20:30:52Z</time>
      </trkpt>
      <trkpt lat="47.34188" lon="-0.7135">
        <ele>60.7</ele>
        <time>2011-04-16T20:30:54Z</time>
      </trkpt>
      <trkpt lat="47.34189" lon="-0.71347">
        <ele>60.22</ele>
        <time>2011-04-16T20:30:59Z</time>
      </trkpt>
      <trkpt lat="47.34189" lon="-0.71347">
        <ele>61.18</ele>
        <time>2011-04-16T20:31:22Z</time>
      </trkpt>
      <trkpt lat="47.34189" lon="-0.71347">
        <ele>60.7</ele>
        <time>2011-04-16T20:31:43Z</time>
      </trkpt>
      <trkpt lat="47.34189" lon="-0.71348">
        <ele>60.7</ele>
        <time>2011-04-16T20:32:01Z</time>
      </trkpt>
      <trkpt lat="47.34185" lon="-0.71357">
        <ele>60.7</ele>
        <time>2011-04-16T20:32:07Z</time>
      </trkpt>
      <trkpt lat="47.34185" lon="-0.71358">
        <ele>59.74</ele>
        <time>2011-04-16T20:32:11Z</time>
      </trkpt>
      <trkpt lat="47.34184" lon="-0.71358">
        <ele>60.22</ele>
        <time>2011-04-16T20:37:43Z</time>
      </trkpt>
      <trkpt lat="47.34184" lon="-0.71358">
        <ele>61.66</ele>
        <time>2011-04-16T20:39:05Z</time>
      </trkpt>
      <trkpt lat="47.34186" lon="-0.71357">
        <ele>61.18</ele>
        <time>2011-04-16T20:39:13Z</time>
      </trkpt>
      <trkpt lat="47.34186" lon="-0.71357">
        <ele>62.14</ele>
        <time>2011-04-16T20:39:24Z</time>
      </trkpt>
      <trkpt lat="47.34186" lon="-0.71356">
        <ele>61.66</ele>
        <time>2011-04-16T20:39:31Z</time>
      </trkpt>
      <trkpt lat="47.34186" lon="-0.71355">
        <ele>61.66</ele>
        <time>2011-04-16T20:39:34Z</time>
      </trkpt>
      <trkpt lat="47.34189" lon="-0.71347">
        <ele>62.14</ele>
        <time>2011-04-16T20:39:40Z</time>
      </trkpt>
      <trkpt lat="47.3419" lon="-0.71344">
        <ele>61.66</ele>
        <time>2011-04-16T20:39:42Z</time>
      </trkpt>
      <trkpt lat="47.34192" lon="-0.71342">
        <ele>61.66</ele>
        <time>2011-04-16T20:39:45Z</time>
      </trkpt>
      <trkpt lat="47.342" lon="-0.71323">
        <ele>62.62</ele>
        <time>2011-04-16T20:39:53Z</time>
      </trkpt>
      <trkpt lat="47.34207" lon="-0.71308">
        <ele>63.58</ele>
        <time>2011-04-16T20:39:58Z</time>
      </trkpt>
      <trkpt lat="47.34207" lon="-0.71306">
        <ele>63.58</ele>
        <time>2011-04-16T20:39:59Z</time>
      </trkpt>
      <trkpt lat="47.34208" lon="-0.71302">
        <ele>64.07</ele>
        <time>2011-04-16T20:40:00Z</time>
      </trkpt>
      <trkpt lat="47.34207" lon="-0.71297">
        <ele>63.1</ele>
        <time>2011-04-16T20:40:01Z</time>
      </trkpt>
      <trkpt lat="47.34207" lon="-0.71291">
        <ele>62.62</ele>
        <time>2011-04-16T20:40:02Z</time>
      </trkpt>
      <trkpt lat="47.34207" lon="-0.71286">
        <ele>61.66</ele>
        <time>2011-04-16T20:40:03Z</time>
      </trkpt>
      <trkpt lat="47.34208" lon="-0.7128">
        <ele>61.18</ele>
        <time>2011-04-16T20:40:04Z</time>
      </trkpt>
      <trkpt lat="47.3421" lon="-0.71267">
        <ele>58.78</ele>
        <time>2011-04-16T20:40:07Z</time>
      </trkpt>
      <trkpt lat="47.34212" lon="-0.71263">
        <ele>58.78</ele>
        <time>2011-04-16T20:40:08Z</time>
      </trkpt>
      <trkpt lat="47.34214" lon="-0.7126">
        <ele>57.82</ele>
        <time>2011-04-16T20:40:09Z</time>
      </trkpt>
      <trkpt lat="47.34217" lon="-0.71257">
        <ele>57.34</ele>
        <time>2011-04-16T20:40:10Z</time>
      </trkpt>
      <trkpt lat="47.34219" lon="-0.71254">
        <ele>55.89</ele>
        <time>2011-04-16T20:40:11Z</time>
      </trkpt>
      <trkpt lat="47.34228" lon="-0.71243">
        <ele>54.93</ele>
        <time>2011-04-16T20:40:16Z</time>
      </trkpt>
      <trkpt lat="47.34228" lon="-0.7124">
        <ele>54.45</ele>
        <time>2011-04-16T20:40:17Z</time>
      </trkpt>
      <trkpt lat="47.34234" lon="-0.71217">
        <ele>53.49</ele>
        <time>2011-04-16T20:40:23Z</time>
      </trkpt>
      <trkpt lat="47.34242" lon="-0.71203">
        <ele>54.93</ele>
        <time>2011-04-16T20:40:28Z</time>
      </trkpt>
      <trkpt lat="47.34244" lon="-0.71203">
        <ele>55.89</ele>
        <time>2011-04-16T20:40:29Z</time>
      </trkpt>
      <trkpt lat="47.34245" lon="-0.71202">
        <ele>55.89</ele>
        <time>2011-04-16T20:40:30Z</time>
      </trkpt>
      <trkpt lat="47.34246" lon="-0.71202">
        <ele>56.37</ele>
        <time>2011-04-16T20:40:31Z</time>
      </trkpt>
      <trkpt lat="47.34247" lon="-0.71196">
        <ele>57.34</ele>
        <time>2011-04-16T20:40:37Z</time>
      </trkpt>
      <trkpt lat="47.34248" lon="-0.71193">
        <ele>57.82</ele>
        <time>2011-04-16T20:40:43Z</time>
      </trkpt>
      <trkpt lat="47.34249" lon="-0.7119">
        <ele>58.78</ele>
        <time>2011-04-16T20:40:50Z</time>
      </trkpt>
      <trkpt lat="47.34249" lon="-0.71186">
        <ele>58.3</ele>
        <time>2011-04-16T20:40:56Z</time>
      </trkpt>
      <trkpt lat="47.3425" lon="-0.71183">
        <ele>58.3</ele>
        <time>2011-04-16T20:40:58Z</time>
      </trkpt>
      <trkpt lat="47.3425" lon="-0.71179">
        <ele>59.26</ele>
        <time>2011-04-16T20:41:02Z</time>
      </trkpt>
      <trkpt lat="47.34251" lon="-0.71168">
        <ele>58.78</ele>
        <time>2011-04-16T20:41:09Z</time>
      </trkpt>
      <trkpt lat="47.34253" lon="-0.71162">
        <ele>59.26</ele>
        <time>2011-04-16T20:41:13Z</time>
      </trkpt>
      <trkpt lat="47.34254" lon="-0.71159">
        <ele>59.26</ele>
        <time>2011-04-16T20:41:15Z</time>
      </trkpt>
      <trkpt lat="47.34257" lon="-0.71157">
        <ele>61.18</ele>
        <time>2011-04-16T20:41:22Z</time>
      </trkpt>
      <trkpt lat="47.34257" lon="-0.71154">
        <ele>60.22</ele>
        <time>2011-04-16T20:41:30Z</time>
      </trkpt>
      <trkpt lat="47.34256" lon="-0.71153">
        <ele>59.26</ele>
        <time>2011-04-16T20:41:41Z</time>
      </trkpt>
      <trkpt lat="47.34256" lon="-0.71153">
        <ele>59.26</ele>
        <time>2011-04-16T20:42:12Z</time>
      </trkpt>
      <trkpt lat="47.34256" lon="-0.71153">
        <ele>62.14</ele>
        <time>2011-04-16T20:43:25Z</time>
      </trkpt>
      <trkpt lat="47.34257" lon="-0.71153">
        <ele>61.18</ele>
        <time>2011-04-16T20:43:30Z</time>
      </trkpt>
      <trkpt lat="47.34258" lon="-0.71152">
        <ele>60.7</ele>
        <time>2011-04-16T20:43:36Z</time>
      </trkpt>
      <trkpt lat="47.3426" lon="-0.71149">
        <ele>61.18</ele>
        <time>2011-04-16T20:43:45Z</time>
      </trkpt>
      <trkpt lat="47.34273" lon="-0.71137">
        <ele>61.66</ele>
        <time>2011-04-16T20:43:53Z</time>
      </trkpt>
      <trkpt lat="47.34275" lon="-0.71133">
        <ele>61.66</ele>
        <time>2011-04-16T20:43:54Z</time>
      </trkpt>
      <trkpt lat="47.34276" lon="-0.71129">
        <ele>60.22</ele>
        <time>2011-04-16T20:43:55Z</time>
      </trkpt>
      <trkpt lat="47.34278" lon="-0.71123">
        <ele>59.74</ele>
        <time>2011-04-16T20:43:56Z</time>
      </trkpt>
      <trkpt lat="47.3428" lon="-0.71117">
        <ele>59.26</ele>
        <time>2011-04-16T20:43:57Z</time>
      </trkpt>
      <trkpt lat="47.34282" lon="-0.71111">
        <ele>58.78</ele>
        <time>2011-04-16T20:43:58Z</time>
      </trkpt>
      <trkpt lat="47.3429" lon="-0.71093">
        <ele>55.41</ele>
        <time>2011-04-16T20:44:01Z</time>
      </trkpt>
      <trkpt lat="47.34296" lon="-0.71077">
        <ele>52.05</ele>
        <time>2011-04-16T20:44:04Z</time>
      </trkpt>
      <trkpt lat="47.343" lon="-0.71069">
        <ele>51.57</ele>
        <time>2011-04-16T20:44:06Z</time>
      </trkpt>
      <trkpt lat="47.34308" lon="-0.71057">
        <ele>47.24</ele>
        <time>2011-04-16T20:44:10Z</time>
      </trkpt>
      <trkpt lat="47.34317" lon="-0.71047">
        <ele>42.92</ele>
        <time>2011-04-16T20:44:14Z</time>
      </trkpt>
      <trkpt lat="47.34327" lon="-0.71037">
        <ele>40.03</ele>
        <time>2011-04-16T20:44:18Z</time>
      </trkpt>
      <trkpt lat="47.34333" lon="-0.71037">
        <ele>38.59</ele>
        <time>2011-04-16T20:44:20Z</time>
      </trkpt>
      <trkpt lat="47.34336" lon="-0.7104">
        <ele>38.59</ele>
        <time>2011-04-16T20:44:21Z</time>
      </trkpt>
      <trkpt lat="47.34338" lon="-0.71043">
        <ele>38.11</ele>
        <time>2011-04-16T20:44:22Z</time>
      </trkpt>
      <trkpt lat="47.3434" lon="-0.71047">
        <ele>38.59</ele>
        <time>2011-04-16T20:44:23Z</time>
      </trkpt>
      <trkpt lat="47.34343" lon="-0.71057">
        <ele>39.07</ele>
        <time>2011-04-16T20:44:26Z</time>
      </trkpt>
      <trkpt lat="47.34354" lon="-0.71074">
        <ele>38.11</ele>
        <time>2011-04-16T20:44:32Z</time>
      </trkpt>
      <trkpt lat="47.3436" lon="-0.71083">
        <ele>37.15</ele>
        <time>2011-04-16T20:44:36Z</time>
      </trkpt>
      <trkpt lat="47.34367" lon="-0.71091">
        <ele>35.71</ele>
        <time>2011-04-16T20:44:39Z</time>
      </trkpt>
      <trkpt lat="47.34377" lon="-0.71093">
        <ele>35.23</ele>
        <time>2011-04-16T20:44:47Z</time>
      </trkpt>
      <trkpt lat="47.34377" lon="-0.71093">
        <ele>35.71</ele>
        <time>2011-04-16T20:45:01Z</time>
      </trkpt>
      <trkpt lat="47.34377" lon="-0.71079">
        <ele>35.23</ele>
        <time>2011-04-16T20:45:07Z</time>
      </trkpt>
      <trkpt lat="47.34372" lon="-0.71054">
        <ele>37.15</ele>
        <time>2011-04-16T20:45:14Z</time>
      </trkpt>
      <trkpt lat="47.34369" lon="-0.71041">
        <ele>36.67</ele>
        <time>2011-04-16T20:45:19Z</time>
      </trkpt>
      <trkpt lat="47.34372" lon="-0.71033">
        <ele>35.23</ele>
        <time>2011-04-16T20:45:22Z</time>
      </trkpt>
      <trkpt lat="47.34371" lon="-0.71023">
        <ele>34.26</ele>
        <time>2011-04-16T20:45:26Z</time>
      </trkpt>
      <trkpt lat="47.34365" lon="-0.71005">
        <ele>32.34</ele>
        <time>2011-04-16T20:45:34Z</time>
      </trkpt>
      <trkpt lat="47.34363" lon="-0.70998">
        <ele>30.9</ele>
        <time>2011-04-16T20:45:36Z</time>
      </trkpt>
      <trkpt lat="47.34362" lon="-0.70995">
        <ele>30.42</ele>
        <time>2011-04-16T20:45:37Z</time>
      </trkpt>
      <trkpt lat="47.34358" lon="-0.70985">
        <ele>27.05</ele>
        <time>2011-04-16T20:45:42Z</time>
      </trkpt>
      <trkpt lat="47.34357" lon="-0.70982">
        <ele>26.57</ele>
        <time>2011-04-16T20:45:44Z</time>
      </trkpt>
      <trkpt lat="47.34357" lon="-0.70978">
        <ele>24.17</ele>
        <time>2011-04-16T20:45:47Z</time>
      </trkpt>
      <trkpt lat="47.34352" lon="-0.70979">
        <ele>23.21</ele>
        <time>2011-04-16T20:45:50Z</time>
      </trkpt>
      <trkpt lat="47.34343" lon="-0.70982">
        <ele>21.29</ele>
        <time>2011-04-16T20:45:55Z</time>
      </trkpt>
      <trkpt lat="47.34342" lon="-0.7098">
        <ele>20.81</ele>
        <time>2011-04-16T20:45:57Z</time>
      </trkpt>
      <trkpt lat="47.34334" lon="-0.70969">
        <ele>18.4</ele>
        <time>2011-04-16T20:46:01Z</time>
      </trkpt>
      <trkpt lat="47.34325" lon="-0.70945">
        <ele>16</ele>
        <time>2011-04-16T20:46:06Z</time>
      </trkpt>
      <trkpt lat="47.34323" lon="-0.70942">
        <ele>15.52</ele>
        <time>2011-04-16T20:46:07Z</time>
      </trkpt>
      <trkpt lat="47.34325" lon="-0.70926">
        <ele>15.52</ele>
        <time>2011-04-16T20:46:13Z</time>
      </trkpt>
      <trkpt lat="47.34338" lon="-0.70914">
        <ele>15.04</ele>
        <time>2011-04-16T20:46:19Z</time>
      </trkpt>
      <trkpt lat="47.34361" lon="-0.70893">
        <ele>14.56</ele>
        <time>2011-04-16T20:46:27Z</time>
      </trkpt>
      <trkpt lat="47.34384" lon="-0.70879">
        <ele>14.56</ele>
        <time>2011-04-16T20:46:34Z</time>
      </trkpt>
      <trkpt lat="47.34397" lon="-0.70877">
        <ele>13.6</ele>
        <time>2011-04-16T20:46:38Z</time>
      </trkpt>
      <trkpt lat="47.34398" lon="-0.70858">
        <ele>13.6</ele>
        <time>2011-04-16T20:46:43Z</time>
      </trkpt>
      <trkpt lat="47.34398" lon="-0.70841">
        <ele>12.63</ele>
        <time>2011-04-16T20:46:46Z</time>
      </trkpt>
      <trkpt lat="47.34397" lon="-0.70834">
        <ele>12.63</ele>
        <time>2011-04-16T20:46:47Z</time>
      </trkpt>
      <trkpt lat="47.34394" lon="-0.70774">
        <ele>12.63</ele>
        <time>2011-04-16T20:46:55Z</time>
      </trkpt>
      <trkpt lat="47.3439" lon="-0.70742">
        <ele>13.12</ele>
        <time>2011-04-16T20:46:59Z</time>
      </trkpt>
      <trkpt lat="47.34385" lon="-0.70722">
        <ele>13.12</ele>
        <time>2011-04-16T20:47:02Z</time>
      </trkpt>
      <trkpt lat="47.34384" lon="-0.70715">
        <ele>12.15</ele>
        <time>2011-04-16T20:47:03Z</time>
      </trkpt>
      <trkpt lat="47.34384" lon="-0.70707">
        <ele>12.63</ele>
        <time>2011-04-16T20:47:04Z</time>
      </trkpt>
      <trkpt lat="47.34384" lon="-0.70699">
        <ele>12.15</ele>
        <time>2011-04-16T20:47:05Z</time>
      </trkpt>
      <trkpt lat="47.34385" lon="-0.70692">
        <ele>12.15</ele>
        <time>2011-04-16T20:47:06Z</time>
      </trkpt>
      <trkpt lat="47.34389" lon="-0.70624">
        <ele>12.15</ele>
        <time>2011-04-16T20:47:15Z</time>
      </trkpt>
      <trkpt lat="47.34389" lon="-0.70602">
        <ele>12.15</ele>
        <time>2011-04-16T20:47:18Z</time>
      </trkpt>
      <trkpt lat="47.34389" lon="-0.70595">
        <ele>13.12</ele>
        <time>2011-04-16T20:47:19Z</time>
      </trkpt>
      <trkpt lat="47.34389" lon="-0.70588">
        <ele>12.63</ele>
        <time>2011-04-16T20:47:20Z</time>
      </trkpt>
      <trkpt lat="47.34388" lon="-0.70538">
        <ele>13.12</ele>
        <time>2011-04-16T20:47:26Z</time>
      </trkpt>
      <trkpt lat="47.34387" lon="-0.70531">
        <ele>14.08</ele>
        <time>2011-04-16T20:47:27Z</time>
      </trkpt>
      <trkpt lat="47.34386" lon="-0.70524">
        <ele>13.6</ele>
        <time>2011-04-16T20:47:28Z</time>
      </trkpt>
      <trkpt lat="47.34387" lon="-0.70517">
        <ele>14.08</ele>
        <time>2011-04-16T20:47:29Z</time>
      </trkpt>
      <trkpt lat="47.34387" lon="-0.7051">
        <ele>13.6</ele>
        <time>2011-04-16T20:47:30Z</time>
      </trkpt>
      <trkpt lat="47.34387" lon="-0.70502">
        <ele>13.6</ele>
        <time>2011-04-16T20:47:31Z</time>
      </trkpt>
      <trkpt lat="47.34388" lon="-0.70484">
        <ele>12.63</ele>
        <time>2011-04-16T20:47:33Z</time>
      </trkpt>
      <trkpt lat="47.34388" lon="-0.70475">
        <ele>13.12</ele>
        <time>2011-04-16T20:47:34Z</time>
      </trkpt>
      <trkpt lat="47.34388" lon="-0.70466">
        <ele>13.12</ele>
        <time>2011-04-16T20:47:35Z</time>
      </trkpt>
      <trkpt lat="47.34389" lon="-0.70457">
        <ele>12.15</ele>
        <time>2011-04-16T20:47:36Z</time>
      </trkpt>
      <trkpt lat="47.34389" lon="-0.70446">
        <ele>12.15</ele>
        <time>2011-04-16T20:47:37Z</time>
      </trkpt>
      <trkpt lat="47.3439" lon="-0.70436">
        <ele>12.15</ele>
        <time>2011-04-16T20:47:38Z</time>
      </trkpt>
      <trkpt lat="47.34391" lon="-0.70427">
        <ele>11.67</ele>
        <time>2011-04-16T20:47:39Z</time>
      </trkpt>
      <trkpt lat="47.34394" lon="-0.7039">
        <ele>11.67</ele>
        <time>2011-04-16T20:47:43Z</time>
      </trkpt>
      <trkpt lat="47.34402" lon="-0.7033">
        <ele>11.67</ele>
        <time>2011-04-16T20:47:50Z</time>
      </trkpt>
      <trkpt lat="47.34402" lon="-0.70322">
        <ele>11.67</ele>
        <time>2011-04-16T20:47:51Z</time>
      </trkpt>
      <trkpt lat="47.34401" lon="-0.70296">
        <ele>11.67</ele>
        <time>2011-04-16T20:47:54Z</time>
      </trkpt>
      <trkpt lat="47.34402" lon="-0.70278">
        <ele>11.19</ele>
        <time>2011-04-16T20:47:56Z</time>
      </trkpt>
      <trkpt lat="47.34403" lon="-0.7027">
        <ele>11.67</ele>
        <time>2011-04-16T20:47:57Z</time>
      </trkpt>
      <trkpt lat="47.34404" lon="-0.70238">
        <ele>11.19</ele>
        <time>2011-04-16T20:48:01Z</time>
      </trkpt>
      <trkpt lat="47.34406" lon="-0.70223">
        <ele>11.67</ele>
        <time>2011-04-16T20:48:03Z</time>
      </trkpt>
      <trkpt lat="47.34406" lon="-0.70216">
        <ele>11.67</ele>
        <time>2011-04-16T20:48:04Z</time>
      </trkpt>
      <trkpt lat="47.34406" lon="-0.70209">
        <ele>11.67</ele>
        <time>2011-04-16T20:48:05Z</time>
      </trkpt>
      <trkpt lat="47.3441" lon="-0.70178">
        <ele>12.63</ele>
        <time>2011-04-16T20:48:10Z</time>
      </trkpt>
      <trkpt lat="47.3441" lon="-0.7017">
        <ele>12.63</ele>
        <time>2011-04-16T20:48:11Z</time>
      </trkpt>
      <trkpt lat="47.34412" lon="-0.70163">
        <ele>12.63</ele>
        <time>2011-04-16T20:48:12Z</time>
      </trkpt>
      <trkpt lat="47.34412" lon="-0.70156">
        <ele>13.12</ele>
        <time>2011-04-16T20:48:13Z</time>
      </trkpt>
      <trkpt lat="47.34413" lon="-0.70149">
        <ele>13.12</ele>
        <time>2011-04-16T20:48:14Z</time>
      </trkpt>
      <trkpt lat="47.34414" lon="-0.70142">
        <ele>13.12</ele>
        <time>2011-04-16T20:48:15Z</time>
      </trkpt>
      <trkpt lat="47.34415" lon="-0.70136">
        <ele>13.6</ele>
        <time>2011-04-16T20:48:16Z</time>
      </trkpt>
      <trkpt lat="47.34417" lon="-0.70129">
        <ele>13.6</ele>
        <time>2011-04-16T20:48:17Z</time>
      </trkpt>
      <trkpt lat="47.34419" lon="-0.70123">
        <ele>14.08</ele>
        <time>2011-04-16T20:48:18Z</time>
      </trkpt>
      <trkpt lat="47.3442" lon="-0.70116">
        <ele>13.6</ele>
        <time>2011-04-16T20:48:19Z</time>
      </trkpt>
      <trkpt lat="47.34423" lon="-0.70102">
        <ele>13.6</ele>
        <time>2011-04-16T20:48:21Z</time>
      </trkpt>
      <trkpt lat="47.34432" lon="-0.70073">
        <ele>13.6</ele>
        <time>2011-04-16T20:48:25Z</time>
      </trkpt>
      <trkpt lat="47.34435" lon="-0.70066">
        <ele>13.12</ele>
        <time>2011-04-16T20:48:26Z</time>
      </trkpt>
      <trkpt lat="47.34437" lon="-0.70059">
        <ele>13.6</ele>
        <time>2011-04-16T20:48:27Z</time>
      </trkpt>
      <trkpt lat="47.34439" lon="-0.70051">
        <ele>13.12</ele>
        <time>2011-04-16T20:48:28Z</time>
      </trkpt>
      <trkpt lat="47.34442" lon="-0.70043">
        <ele>13.12</ele>
        <time>2011-04-16T20:48:29Z</time>
      </trkpt>
      <trkpt lat="47.34442" lon="-0.70035">
        <ele>13.12</ele>
        <time>2011-04-16T20:48:30Z</time>
      </trkpt>
      <trkpt lat="47.34442" lon="-0.70027">
        <ele>12.63</ele>
        <time>2011-04-16T20:48:31Z</time>
      </trkpt>
      <trkpt lat="47.34442" lon="-0.70019">
        <ele>13.12</ele>
        <time>2011-04-16T20:48:32Z</time>
      </trkpt>
      <trkpt lat="47.34443" lon="-0.69982">
        <ele>12.63</ele>
        <time>2011-04-16T20:48:37Z</time>
      </trkpt>
      <trkpt lat="47.34453" lon="-0.6993">
        <ele>12.63</ele>
        <time>2011-04-16T20:48:44Z</time>
      </trkpt>
      <trkpt lat="47.34455" lon="-0.69923">
        <ele>12.63</ele>
        <time>2011-04-16T20:48:45Z</time>
      </trkpt>
      <trkpt lat="47.34464" lon="-0.69886">
        <ele>13.6</ele>
        <time>2011-04-16T20:48:52Z</time>
      </trkpt>
      <trkpt lat="47.34467" lon="-0.69861">
        <ele>12.63</ele>
        <time>2011-04-16T20:48:56Z</time>
      </trkpt>
      <trkpt lat="47.34473" lon="-0.69823">
        <ele>12.63</ele>
        <time>2011-04-16T20:49:02Z</time>
      </trkpt>
      <trkpt lat="47.34481" lon="-0.69785">
        <ele>11.19</ele>
        <time>2011-04-16T20:49:08Z</time>
      </trkpt>
      <trkpt lat="47.34481" lon="-0.69778">
        <ele>11.19</ele>
        <time>2011-04-16T20:49:09Z</time>
      </trkpt>
      <trkpt lat="47.34482" lon="-0.69772">
        <ele>11.67</ele>
        <time>2011-04-16T20:49:10Z</time>
      </trkpt>
      <trkpt lat="47.34482" lon="-0.69767">
        <ele>11.67</ele>
        <time>2011-04-16T20:49:11Z</time>
      </trkpt>
      <trkpt lat="47.34482" lon="-0.69763">
        <ele>12.15</ele>
        <time>2011-04-16T20:49:12Z</time>
      </trkpt>
      <trkpt lat="47.34482" lon="-0.69758">
        <ele>11.67</ele>
        <time>2011-04-16T20:49:13Z</time>
      </trkpt>
      <trkpt lat="47.34482" lon="-0.69753">
        <ele>12.15</ele>
        <time>2011-04-16T20:49:14Z</time>
      </trkpt>
      <trkpt lat="47.34482" lon="-0.69748">
        <ele>11.19</ele>
        <time>2011-04-16T20:49:15Z</time>
      </trkpt>
      <trkpt lat="47.34483" lon="-0.69731">
        <ele>10.71</ele>
        <time>2011-04-16T20:49:17Z</time>
      </trkpt>
      <trkpt lat="47.34486" lon="-0.69688">
        <ele>10.23</ele>
        <time>2011-04-16T20:49:22Z</time>
      </trkpt>
      <trkpt lat="47.34485" lon="-0.69681">
        <ele>10.23</ele>
        <time>2011-04-16T20:49:23Z</time>
      </trkpt>
      <trkpt lat="47.34486" lon="-0.69673">
        <ele>10.23</ele>
        <time>2011-04-16T20:49:24Z</time>
      </trkpt>
      <trkpt lat="47.34486" lon="-0.69666">
        <ele>9.75</ele>
        <time>2011-04-16T20:49:25Z</time>
      </trkpt>
      <trkpt lat="47.34486" lon="-0.69657">
        <ele>10.23</ele>
        <time>2011-04-16T20:49:26Z</time>
      </trkpt>
      <trkpt lat="47.34487" lon="-0.6965">
        <ele>10.23</ele>
        <time>2011-04-16T20:49:27Z</time>
      </trkpt>
      <trkpt lat="47.34488" lon="-0.69642">
        <ele>10.23</ele>
        <time>2011-04-16T20:49:28Z</time>
      </trkpt>
      <trkpt lat="47.34489" lon="-0.69627">
        <ele>10.23</ele>
        <time>2011-04-16T20:49:30Z</time>
      </trkpt>
      <trkpt lat="47.34491" lon="-0.69597">
        <ele>9.27</ele>
        <time>2011-04-16T20:49:34Z</time>
      </trkpt>
      <trkpt lat="47.34492" lon="-0.69589">
        <ele>9.75</ele>
        <time>2011-04-16T20:49:35Z</time>
      </trkpt>
      <trkpt lat="47.34492" lon="-0.69581">
        <ele>9.75</ele>
        <time>2011-04-16T20:49:36Z</time>
      </trkpt>
      <trkpt lat="47.34493" lon="-0.69574">
        <ele>10.23</ele>
        <time>2011-04-16T20:49:37Z</time>
      </trkpt>
      <trkpt lat="47.34494" lon="-0.69567">
        <ele>9.75</ele>
        <time>2011-04-16T20:49:38Z</time>
      </trkpt>
      <trkpt lat="47.34495" lon="-0.6956">
        <ele>10.23</ele>
        <time>2011-04-16T20:49:39Z</time>
      </trkpt>
      <trkpt lat="47.34497" lon="-0.69554">
        <ele>9.75</ele>
        <time>2011-04-16T20:49:40Z</time>
      </trkpt>
      <trkpt lat="47.34506" lon="-0.6953">
        <ele>10.23</ele>
        <time>2011-04-16T20:49:44Z</time>
      </trkpt>
      <trkpt lat="47.34508" lon="-0.69523">
        <ele>10.71</ele>
        <time>2011-04-16T20:49:45Z</time>
      </trkpt>
      <trkpt lat="47.34512" lon="-0.69511">
        <ele>10.71</ele>
        <time>2011-04-16T20:49:47Z</time>
      </trkpt>
      <trkpt lat="47.34515" lon="-0.69505">
        <ele>9.75</ele>
        <time>2011-04-16T20:49:48Z</time>
      </trkpt>
      <trkpt lat="47.34523" lon="-0.6947">
        <ele>11.19</ele>
        <time>2011-04-16T20:49:54Z</time>
      </trkpt>
      <trkpt lat="47.34532" lon="-0.69441">
        <ele>10.71</ele>
        <time>2011-04-16T20:49:59Z</time>
      </trkpt>
      <trkpt lat="47.34534" lon="-0.69435">
        <ele>11.19</ele>
        <time>2011-04-16T20:50:00Z</time>
      </trkpt>
      <trkpt lat="47.34536" lon="-0.69429">
        <ele>10.71</ele>
        <time>2011-04-16T20:50:01Z</time>
      </trkpt>
      <trkpt lat="47.34554" lon="-0.69365">
        <ele>10.71</ele>
        <time>2011-04-16T20:50:10Z</time>
      </trkpt>
      <trkpt lat="47.34556" lon="-0.69343">
        <ele>9.75</ele>
        <time>2011-04-16T20:50:13Z</time>
      </trkpt>
      <trkpt lat="47.34557" lon="-0.69337">
        <ele>10.23</ele>
        <time>2011-04-16T20:50:14Z</time>
      </trkpt>
      <trkpt lat="47.34556" lon="-0.6933">
        <ele>10.23</ele>
        <time>2011-04-16T20:50:15Z</time>
      </trkpt>
      <trkpt lat="47.34555" lon="-0.69323">
        <ele>9.75</ele>
        <time>2011-04-16T20:50:16Z</time>
      </trkpt>
      <trkpt lat="47.34553" lon="-0.69318">
        <ele>10.23</ele>
        <time>2011-04-16T20:50:17Z</time>
      </trkpt>
      <trkpt lat="47.34551" lon="-0.69313">
        <ele>10.23</ele>
        <time>2011-04-16T20:50:18Z</time>
      </trkpt>
      <trkpt lat="47.34548" lon="-0.69309">
        <ele>10.23</ele>
        <time>2011-04-16T20:50:19Z</time>
      </trkpt>
      <trkpt lat="47.34545" lon="-0.69305">
        <ele>10.23</ele>
        <time>2011-04-16T20:50:20Z</time>
      </trkpt>
      <trkpt lat="47.34543" lon="-0.693">
        <ele>10.71</ele>
        <time>2011-04-16T20:50:21Z</time>
      </trkpt>
      <trkpt lat="47.34542" lon="-0.69295">
        <ele>11.19</ele>
        <time>2011-04-16T20:50:22Z</time>
      </trkpt>
      <trkpt lat="47.34542" lon="-0.6929">
        <ele>10.71</ele>
        <time>2011-04-16T20:50:23Z</time>
      </trkpt>
      <trkpt lat="47.34542" lon="-0.69285">
        <ele>11.19</ele>
        <time>2011-04-16T20:50:24Z</time>
      </trkpt>
      <trkpt lat="47.34543" lon="-0.6928">
        <ele>11.19</ele>
        <time>2011-04-16T20:50:25Z</time>
      </trkpt>
      <trkpt lat="47.34543" lon="-0.69233">
        <ele>12.15</ele>
        <time>2011-04-16T20:50:33Z</time>
      </trkpt>
      <trkpt lat="47.34542" lon="-0.69227">
        <ele>11.67</ele>
        <time>2011-04-16T20:50:34Z</time>
      </trkpt>
      <trkpt lat="47.34542" lon="-0.6922">
        <ele>12.15</ele>
        <time>2011-04-16T20:50:35Z</time>
      </trkpt>
      <trkpt lat="47.34537" lon="-0.69171">
        <ele>11.67</ele>
        <time>2011-04-16T20:50:42Z</time>
      </trkpt>
      <trkpt lat="47.34536" lon="-0.69164">
        <ele>11.19</ele>
        <time>2011-04-16T20:50:43Z</time>
      </trkpt>
      <trkpt lat="47.34533" lon="-0.69136">
        <ele>11.67</ele>
        <time>2011-04-16T20:50:47Z</time>
      </trkpt>
      <trkpt lat="47.34532" lon="-0.69129">
        <ele>11.67</ele>
        <time>2011-04-16T20:50:48Z</time>
      </trkpt>
      <trkpt lat="47.34529" lon="-0.69101">
        <ele>11.19</ele>
        <time>2011-04-16T20:50:52Z</time>
      </trkpt>
      <trkpt lat="47.34528" lon="-0.6907">
        <ele>11.19</ele>
        <time>2011-04-16T20:50:57Z</time>
      </trkpt>
      <trkpt lat="47.34527" lon="-0.69049">
        <ele>11.67</ele>
        <time>2011-04-16T20:51:00Z</time>
      </trkpt>
      <trkpt lat="47.34525" lon="-0.69034">
        <ele>11.67</ele>
        <time>2011-04-16T20:51:02Z</time>
      </trkpt>
      <trkpt lat="47.34525" lon="-0.69027">
        <ele>11.67</ele>
        <time>2011-04-16T20:51:03Z</time>
      </trkpt>
      <trkpt lat="47.34523" lon="-0.68989">
        <ele>11.67</ele>
        <time>2011-04-16T20:51:08Z</time>
      </trkpt>
      <trkpt lat="47.34522" lon="-0.68946">
        <ele>11.67</ele>
        <time>2011-04-16T20:51:14Z</time>
      </trkpt>
      <trkpt lat="47.34526" lon="-0.68908">
        <ele>12.15</ele>
        <time>2011-04-16T20:51:19Z</time>
      </trkpt>
      <trkpt lat="47.34529" lon="-0.689">
        <ele>12.15</ele>
        <time>2011-04-16T20:51:20Z</time>
      </trkpt>
      <trkpt lat="47.34558" lon="-0.68837">
        <ele>11.67</ele>
        <time>2011-04-16T20:51:29Z</time>
      </trkpt>
      <trkpt lat="47.34565" lon="-0.68824">
        <ele>12.15</ele>
        <time>2011-04-16T20:51:31Z</time>
      </trkpt>
      <trkpt lat="47.34575" lon="-0.68804">
        <ele>11.67</ele>
        <time>2011-04-16T20:51:34Z</time>
      </trkpt>
      <trkpt lat="47.346" lon="-0.68738">
        <ele>10.23</ele>
        <time>2011-04-16T20:51:43Z</time>
      </trkpt>
      <trkpt lat="47.34608" lon="-0.68716">
        <ele>10.23</ele>
        <time>2011-04-16T20:51:46Z</time>
      </trkpt>
      <trkpt lat="47.34628" lon="-0.68664">
        <ele>10.23</ele>
        <time>2011-04-16T20:51:53Z</time>
      </trkpt>
      <trkpt lat="47.34633" lon="-0.68648">
        <ele>9.75</ele>
        <time>2011-04-16T20:51:55Z</time>
      </trkpt>
      <trkpt lat="47.34636" lon="-0.6864">
        <ele>9.27</ele>
        <time>2011-04-16T20:51:56Z</time>
      </trkpt>
      <trkpt lat="47.34656" lon="-0.68573">
        <ele>9.75</ele>
        <time>2011-04-16T20:52:04Z</time>
      </trkpt>
      <trkpt lat="47.34665" lon="-0.68524">
        <ele>9.27</ele>
        <time>2011-04-16T20:52:10Z</time>
      </trkpt>
      <trkpt lat="47.34665" lon="-0.68516">
        <ele>9.27</ele>
        <time>2011-04-16T20:52:11Z</time>
      </trkpt>
      <trkpt lat="47.34664" lon="-0.68508">
        <ele>9.75</ele>
        <time>2011-04-16T20:52:12Z</time>
      </trkpt>
      <trkpt lat="47.34662" lon="-0.68473">
        <ele>9.75</ele>
        <time>2011-04-16T20:52:17Z</time>
      </trkpt>
      <trkpt lat="47.3466" lon="-0.6846">
        <ele>9.27</ele>
        <time>2011-04-16T20:52:19Z</time>
      </trkpt>
      <trkpt lat="47.34659" lon="-0.68454">
        <ele>9.27</ele>
        <time>2011-04-16T20:52:20Z</time>
      </trkpt>
      <trkpt lat="47.34652" lon="-0.6843">
        <ele>8.79</ele>
        <time>2011-04-16T20:52:24Z</time>
      </trkpt>
      <trkpt lat="47.34645" lon="-0.68408">
        <ele>9.27</ele>
        <time>2011-04-16T20:52:27Z</time>
      </trkpt>
      <trkpt lat="47.34643" lon="-0.684">
        <ele>9.27</ele>
        <time>2011-04-16T20:52:28Z</time>
      </trkpt>
      <trkpt lat="47.34637" lon="-0.68376">
        <ele>9.27</ele>
        <time>2011-04-16T20:52:31Z</time>
      </trkpt>
      <trkpt lat="47.34636" lon="-0.68368">
        <ele>9.27</ele>
        <time>2011-04-16T20:52:32Z</time>
      </trkpt>
      <trkpt lat="47.34627" lon="-0.68318">
        <ele>9.27</ele>
        <time>2011-04-16T20:52:38Z</time>
      </trkpt>
      <trkpt lat="47.34627" lon="-0.6831">
        <ele>9.75</ele>
        <time>2011-04-16T20:52:39Z</time>
      </trkpt>
      <trkpt lat="47.34625" lon="-0.68267">
        <ele>9.27</ele>
        <time>2011-04-16T20:52:44Z</time>
      </trkpt>
      <trkpt lat="47.34625" lon="-0.6825">
        <ele>9.27</ele>
        <time>2011-04-16T20:52:46Z</time>
      </trkpt>
      <trkpt lat="47.34627" lon="-0.68243">
        <ele>9.75</ele>
        <time>2011-04-16T20:52:47Z</time>
      </trkpt>
      <trkpt lat="47.3463" lon="-0.68229">
        <ele>9.75</ele>
        <time>2011-04-16T20:52:49Z</time>
      </trkpt>
      <trkpt lat="47.34631" lon="-0.68221">
        <ele>10.23</ele>
        <time>2011-04-16T20:52:50Z</time>
      </trkpt>
      <trkpt lat="47.34631" lon="-0.68213">
        <ele>10.23</ele>
        <time>2011-04-16T20:52:51Z</time>
      </trkpt>
      <trkpt lat="47.34641" lon="-0.68166">
        <ele>9.75</ele>
        <time>2011-04-16T20:52:57Z</time>
      </trkpt>
      <trkpt lat="47.34647" lon="-0.68146">
        <ele>8.79</ele>
        <time>2011-04-16T20:53:00Z</time>
      </trkpt>
      <trkpt lat="47.34648" lon="-0.68138">
        <ele>8.79</ele>
        <time>2011-04-16T20:53:01Z</time>
      </trkpt>
      <trkpt lat="47.34649" lon="-0.6813">
        <ele>9.27</ele>
        <time>2011-04-16T20:53:02Z</time>
      </trkpt>
      <trkpt lat="47.3465" lon="-0.68122">
        <ele>9.27</ele>
        <time>2011-04-16T20:53:03Z</time>
      </trkpt>
      <trkpt lat="47.34652" lon="-0.68114">
        <ele>9.27</ele>
        <time>2011-04-16T20:53:04Z</time>
      </trkpt>
      <trkpt lat="47.34667" lon="-0.68053">
        <ele>9.27</ele>
        <time>2011-04-16T20:53:12Z</time>
      </trkpt>
      <trkpt lat="47.34668" lon="-0.68045">
        <ele>8.79</ele>
        <time>2011-04-16T20:53:13Z</time>
      </trkpt>
      <trkpt lat="47.3467" lon="-0.68038">
        <ele>8.31</ele>
        <time>2011-04-16T20:53:14Z</time>
      </trkpt>
      <trkpt lat="47.34673" lon="-0.68015">
        <ele>8.31</ele>
        <time>2011-04-16T20:53:17Z</time>
      </trkpt>
      <trkpt lat="47.34674" lon="-0.68008">
        <ele>8.31</ele>
        <time>2011-04-16T20:53:18Z</time>
      </trkpt>
      <trkpt lat="47.34675" lon="-0.68">
        <ele>7.83</ele>
        <time>2011-04-16T20:53:19Z</time>
      </trkpt>
      <trkpt lat="47.34676" lon="-0.67992">
        <ele>7.83</ele>
        <time>2011-04-16T20:53:20Z</time>
      </trkpt>
      <trkpt lat="47.34679" lon="-0.67984">
        <ele>8.79</ele>
        <time>2011-04-16T20:53:21Z</time>
      </trkpt>
      <trkpt lat="47.3468" lon="-0.67977">
        <ele>8.31</ele>
        <time>2011-04-16T20:53:22Z</time>
      </trkpt>
      <trkpt lat="47.34681" lon="-0.6797">
        <ele>8.79</ele>
        <time>2011-04-16T20:53:23Z</time>
      </trkpt>
      <trkpt lat="47.34682" lon="-0.67963">
        <ele>8.79</ele>
        <time>2011-04-16T20:53:24Z</time>
      </trkpt>
      <trkpt lat="47.34683" lon="-0.67949">
        <ele>8.31</ele>
        <time>2011-04-16T20:53:26Z</time>
      </trkpt>
      <trkpt lat="47.34684" lon="-0.67942">
        <ele>8.31</ele>
        <time>2011-04-16T20:53:27Z</time>
      </trkpt>
      <trkpt lat="47.34685" lon="-0.67935">
        <ele>8.31</ele>
        <time>2011-04-16T20:53:28Z</time>
      </trkpt>
      <trkpt lat="47.34687" lon="-0.67927">
        <ele>8.79</ele>
        <time>2011-04-16T20:53:29Z</time>
      </trkpt>
      <trkpt lat="47.3469" lon="-0.6792">
        <ele>8.31</ele>
        <time>2011-04-16T20:53:30Z</time>
      </trkpt>
      <trkpt lat="47.34692" lon="-0.67913">
        <ele>7.83</ele>
        <time>2011-04-16T20:53:31Z</time>
      </trkpt>
      <trkpt lat="47.34695" lon="-0.67906">
        <ele>7.83</ele>
        <time>2011-04-16T20:53:32Z</time>
      </trkpt>
      <trkpt lat="47.34698" lon="-0.67899">
        <ele>8.31</ele>
        <time>2011-04-16T20:53:33Z</time>
      </trkpt>
      <trkpt lat="47.34703" lon="-0.67884">
        <ele>8.79</ele>
        <time>2011-04-16T20:53:35Z</time>
      </trkpt>
      <trkpt lat="47.34706" lon="-0.67877">
        <ele>8.31</ele>
        <time>2011-04-16T20:53:36Z</time>
      </trkpt>
      <trkpt lat="47.34714" lon="-0.67857">
        <ele>8.79</ele>
        <time>2011-04-16T20:53:39Z</time>
      </trkpt>
      <trkpt lat="47.34719" lon="-0.67843">
        <ele>8.79</ele>
        <time>2011-04-16T20:53:41Z</time>
      </trkpt>
      <trkpt lat="47.34743" lon="-0.67791">
        <ele>8.31</ele>
        <time>2011-04-16T20:53:49Z</time>
      </trkpt>
      <trkpt lat="47.34755" lon="-0.67761">
        <ele>8.79</ele>
        <time>2011-04-16T20:53:55Z</time>
      </trkpt>
      <trkpt lat="47.34768" lon="-0.67736">
        <ele>8.31</ele>
        <time>2011-04-16T20:54:00Z</time>
      </trkpt>
      <trkpt lat="47.34778" lon="-0.67719">
        <ele>7.83</ele>
        <time>2011-04-16T20:54:04Z</time>
      </trkpt>
      <trkpt lat="47.34791" lon="-0.67687">
        <ele>7.83</ele>
        <time>2011-04-16T20:54:10Z</time>
      </trkpt>
      <trkpt lat="47.34794" lon="-0.6768">
        <ele>8.31</ele>
        <time>2011-04-16T20:54:11Z</time>
      </trkpt>
      <trkpt lat="47.34796" lon="-0.67673">
        <ele>7.83</ele>
        <time>2011-04-16T20:54:12Z</time>
      </trkpt>
      <trkpt lat="47.34799" lon="-0.67665">
        <ele>7.35</ele>
        <time>2011-04-16T20:54:13Z</time>
      </trkpt>
      <trkpt lat="47.34802" lon="-0.67657">
        <ele>7.83</ele>
        <time>2011-04-16T20:54:14Z</time>
      </trkpt>
      <trkpt lat="47.34804" lon="-0.6765">
        <ele>7.83</ele>
        <time>2011-04-16T20:54:15Z</time>
      </trkpt>
      <trkpt lat="47.34805" lon="-0.67644">
        <ele>7.83</ele>
        <time>2011-04-16T20:54:16Z</time>
      </trkpt>
      <trkpt lat="47.34805" lon="-0.67637">
        <ele>7.83</ele>
        <time>2011-04-16T20:54:17Z</time>
      </trkpt>
      <trkpt lat="47.34801" lon="-0.67593">
        <ele>7.35</ele>
        <time>2011-04-16T20:54:23Z</time>
      </trkpt>
      <trkpt lat="47.34801" lon="-0.67585">
        <ele>7.35</ele>
        <time>2011-04-16T20:54:24Z</time>
      </trkpt>
      <trkpt lat="47.34796" lon="-0.67538">
        <ele>8.31</ele>
        <time>2011-04-16T20:54:30Z</time>
      </trkpt>
      <trkpt lat="47.34796" lon="-0.67531">
        <ele>8.31</ele>
        <time>2011-04-16T20:54:31Z</time>
      </trkpt>
      <trkpt lat="47.34795" lon="-0.67493">
        <ele>7.83</ele>
        <time>2011-04-16T20:54:36Z</time>
      </trkpt>
      <trkpt lat="47.34795" lon="-0.67486">
        <ele>7.83</ele>
        <time>2011-04-16T20:54:37Z</time>
      </trkpt>
      <trkpt lat="47.34796" lon="-0.67479">
        <ele>7.83</ele>
        <time>2011-04-16T20:54:38Z</time>
      </trkpt>
      <trkpt lat="47.34798" lon="-0.67473">
        <ele>7.83</ele>
        <time>2011-04-16T20:54:39Z</time>
      </trkpt>
      <trkpt lat="47.348" lon="-0.67467">
        <ele>8.31</ele>
        <time>2011-04-16T20:54:40Z</time>
      </trkpt>
      <trkpt lat="47.34801" lon="-0.67461">
        <ele>8.31</ele>
        <time>2011-04-16T20:54:41Z</time>
      </trkpt>
      <trkpt lat="47.34803" lon="-0.67455">
        <ele>7.83</ele>
        <time>2011-04-16T20:54:42Z</time>
      </trkpt>
      <trkpt lat="47.34805" lon="-0.67449">
        <ele>8.31</ele>
        <time>2011-04-16T20:54:43Z</time>
      </trkpt>
      <trkpt lat="47.34807" lon="-0.67443">
        <ele>8.31</ele>
        <time>2011-04-16T20:54:44Z</time>
      </trkpt>
      <trkpt lat="47.3481" lon="-0.67438">
        <ele>7.83</ele>
        <time>2011-04-16T20:54:45Z</time>
      </trkpt>
      <trkpt lat="47.34813" lon="-0.67433">
        <ele>8.31</ele>
        <time>2011-04-16T20:54:46Z</time>
      </trkpt>
      <trkpt lat="47.34816" lon="-0.67427">
        <ele>8.31</ele>
        <time>2011-04-16T20:54:47Z</time>
      </trkpt>
      <trkpt lat="47.34818" lon="-0.67421">
        <ele>8.79</ele>
        <time>2011-04-16T20:54:48Z</time>
      </trkpt>
      <trkpt lat="47.34821" lon="-0.67407">
        <ele>8.79</ele>
        <time>2011-04-16T20:54:50Z</time>
      </trkpt>
      <trkpt lat="47.34821" lon="-0.674">
        <ele>8.31</ele>
        <time>2011-04-16T20:54:51Z</time>
      </trkpt>
      <trkpt lat="47.34821" lon="-0.67394">
        <ele>8.79</ele>
        <time>2011-04-16T20:54:52Z</time>
      </trkpt>
      <trkpt lat="47.3482" lon="-0.67387">
        <ele>8.31</ele>
        <time>2011-04-16T20:54:53Z</time>
      </trkpt>
      <trkpt lat="47.34818" lon="-0.67381">
        <ele>8.31</ele>
        <time>2011-04-16T20:54:54Z</time>
      </trkpt>
      <trkpt lat="47.34816" lon="-0.67376">
        <ele>8.79</ele>
        <time>2011-04-16T20:54:55Z</time>
      </trkpt>
      <trkpt lat="47.34813" lon="-0.67371">
        <ele>8.31</ele>
        <time>2011-04-16T20:54:56Z</time>
      </trkpt>
      <trkpt lat="47.3481" lon="-0.67368">
        <ele>8.31</ele>
        <time>2011-04-16T20:54:57Z</time>
      </trkpt>
      <trkpt lat="47.34808" lon="-0.67365">
        <ele>8.79</ele>
        <time>2011-04-16T20:54:58Z</time>
      </trkpt>
      <trkpt lat="47.34804" lon="-0.67364">
        <ele>9.27</ele>
        <time>2011-04-16T20:54:59Z</time>
      </trkpt>
      <trkpt lat="47.348" lon="-0.67363">
        <ele>9.27</ele>
        <time>2011-04-16T20:55:00Z</time>
      </trkpt>
      <trkpt lat="47.34797" lon="-0.67364">
        <ele>8.79</ele>
        <time>2011-04-16T20:55:01Z</time>
      </trkpt>
      <trkpt lat="47.34788" lon="-0.67373">
        <ele>9.75</ele>
        <time>2011-04-16T20:55:05Z</time>
      </trkpt>
      <trkpt lat="47.34775" lon="-0.67383">
        <ele>11.19</ele>
        <time>2011-04-16T20:55:12Z</time>
      </trkpt>
      <trkpt lat="47.34763" lon="-0.67398">
        <ele>12.15</ele>
        <time>2011-04-16T20:55:19Z</time>
      </trkpt>
      <trkpt lat="47.34745" lon="-0.67409">
        <ele>11.19</ele>
        <time>2011-04-16T20:55:24Z</time>
      </trkpt>
      <trkpt lat="47.34741" lon="-0.67412">
        <ele>11.67</ele>
        <time>2011-04-16T20:55:25Z</time>
      </trkpt>
      <trkpt lat="47.34738" lon="-0.67416">
        <ele>11.19</ele>
        <time>2011-04-16T20:55:26Z</time>
      </trkpt>
      <trkpt lat="47.34735" lon="-0.6742">
        <ele>10.71</ele>
        <time>2011-04-16T20:55:27Z</time>
      </trkpt>
      <trkpt lat="47.34732" lon="-0.67424">
        <ele>11.19</ele>
        <time>2011-04-16T20:55:28Z</time>
      </trkpt>
      <trkpt lat="47.34708" lon="-0.67459">
        <ele>12.15</ele>
        <time>2011-04-16T20:55:37Z</time>
      </trkpt>
      <trkpt lat="47.34694" lon="-0.67479">
        <ele>13.6</ele>
        <time>2011-04-16T20:55:43Z</time>
      </trkpt>
      <trkpt lat="47.34691" lon="-0.67482">
        <ele>14.08</ele>
        <time>2011-04-16T20:55:44Z</time>
      </trkpt>
      <trkpt lat="47.34689" lon="-0.67486">
        <ele>14.56</ele>
        <time>2011-04-16T20:55:45Z</time>
      </trkpt>
      <trkpt lat="47.34687" lon="-0.67488">
        <ele>14.56</ele>
        <time>2011-04-16T20:55:46Z</time>
      </trkpt>
      <trkpt lat="47.3467" lon="-0.67507">
        <ele>16.48</ele>
        <time>2011-04-16T20:55:54Z</time>
      </trkpt>
      <trkpt lat="47.34654" lon="-0.67526">
        <ele>18.4</ele>
        <time>2011-04-16T20:56:01Z</time>
      </trkpt>
      <trkpt lat="47.34638" lon="-0.67542">
        <ele>20.32</ele>
        <time>2011-04-16T20:56:08Z</time>
      </trkpt>
      <trkpt lat="47.34621" lon="-0.67561">
        <ele>20.81</ele>
        <time>2011-04-16T20:56:16Z</time>
      </trkpt>
      <trkpt lat="47.34605" lon="-0.67569">
        <ele>22.25</ele>
        <time>2011-04-16T20:56:23Z</time>
      </trkpt>
      <trkpt lat="47.34588" lon="-0.67566">
        <ele>23.21</ele>
        <time>2011-04-16T20:56:30Z</time>
      </trkpt>
      <trkpt lat="47.34566" lon="-0.67565">
        <ele>25.61</ele>
        <time>2011-04-16T20:56:39Z</time>
      </trkpt>
      <trkpt lat="47.34543" lon="-0.67566">
        <ele>27.05</ele>
        <time>2011-04-16T20:56:48Z</time>
      </trkpt>
      <trkpt lat="47.34539" lon="-0.67566">
        <ele>28.02</ele>
        <time>2011-04-16T20:56:50Z</time>
      </trkpt>
      <trkpt lat="47.34538" lon="-0.67566">
        <ele>27.53</ele>
        <time>2011-04-16T20:56:51Z</time>
      </trkpt>
      <trkpt lat="47.34525" lon="-0.67561">
        <ele>29.46</ele>
        <time>2011-04-16T20:56:57Z</time>
      </trkpt>
      <trkpt lat="47.34511" lon="-0.67555">
        <ele>29.46</ele>
        <time>2011-04-16T20:57:03Z</time>
      </trkpt>
      <trkpt lat="47.34495" lon="-0.67547">
        <ele>30.9</ele>
        <time>2011-04-16T20:57:09Z</time>
      </trkpt>
      <trkpt lat="47.34481" lon="-0.67544">
        <ele>31.86</ele>
        <time>2011-04-16T20:57:15Z</time>
      </trkpt>
      <trkpt lat="47.34477" lon="-0.67543">
        <ele>32.34</ele>
        <time>2011-04-16T20:57:17Z</time>
      </trkpt>
      <trkpt lat="47.34475" lon="-0.67542">
        <ele>32.82</ele>
        <time>2011-04-16T20:57:18Z</time>
      </trkpt>
      <trkpt lat="47.34456" lon="-0.67535">
        <ele>34.26</ele>
        <time>2011-04-16T20:57:25Z</time>
      </trkpt>
      <trkpt lat="47.34441" lon="-0.67529">
        <ele>35.71</ele>
        <time>2011-04-16T20:57:30Z</time>
      </trkpt>
      <trkpt lat="47.34424" lon="-0.67525">
        <ele>36.19</ele>
        <time>2011-04-16T20:57:36Z</time>
      </trkpt>
      <trkpt lat="47.34411" lon="-0.67523">
        <ele>37.15</ele>
        <time>2011-04-16T20:57:41Z</time>
      </trkpt>
      <trkpt lat="47.34394" lon="-0.67528">
        <ele>38.59</ele>
        <time>2011-04-16T20:57:48Z</time>
      </trkpt>
      <trkpt lat="47.34375" lon="-0.67535">
        <ele>40.03</ele>
        <time>2011-04-16T20:57:55Z</time>
      </trkpt>
      <trkpt lat="47.34358" lon="-0.67542">
        <ele>40.99</ele>
        <time>2011-04-16T20:58:02Z</time>
      </trkpt>
      <trkpt lat="47.34338" lon="-0.67548">
        <ele>41.95</ele>
        <time>2011-04-16T20:58:10Z</time>
      </trkpt>
      <trkpt lat="47.34323" lon="-0.67549">
        <ele>43.4</ele>
        <time>2011-04-16T20:58:16Z</time>
      </trkpt>
      <trkpt lat="47.34305" lon="-0.67544">
        <ele>44.36</ele>
        <time>2011-04-16T20:58:23Z</time>
      </trkpt>
      <trkpt lat="47.34289" lon="-0.6754">
        <ele>45.8</ele>
        <time>2011-04-16T20:58:30Z</time>
      </trkpt>
      <trkpt lat="47.34272" lon="-0.67537">
        <ele>46.76</ele>
        <time>2011-04-16T20:58:37Z</time>
      </trkpt>
      <trkpt lat="47.34254" lon="-0.67532">
        <ele>48.2</ele>
        <time>2011-04-16T20:58:44Z</time>
      </trkpt>
      <trkpt lat="47.34235" lon="-0.6753">
        <ele>49.16</ele>
        <time>2011-04-16T20:58:51Z</time>
      </trkpt>
      <trkpt lat="47.3422" lon="-0.6753">
        <ele>50.61</ele>
        <time>2011-04-16T20:58:57Z</time>
      </trkpt>
      <trkpt lat="47.34202" lon="-0.67526">
        <ele>52.05</ele>
        <time>2011-04-16T20:59:04Z</time>
      </trkpt>
      <trkpt lat="47.34186" lon="-0.67523">
        <ele>53.01</ele>
        <time>2011-04-16T20:59:10Z</time>
      </trkpt>
      <trkpt lat="47.34169" lon="-0.67526">
        <ele>54.45</ele>
        <time>2011-04-16T20:59:16Z</time>
      </trkpt>
      <trkpt lat="47.34152" lon="-0.6753">
        <ele>55.89</ele>
        <time>2011-04-16T20:59:22Z</time>
      </trkpt>
      <trkpt lat="47.34136" lon="-0.67532">
        <ele>56.86</ele>
        <time>2011-04-16T20:59:28Z</time>
      </trkpt>
      <trkpt lat="47.3412" lon="-0.67535">
        <ele>58.3</ele>
        <time>2011-04-16T20:59:34Z</time>
      </trkpt>
      <trkpt lat="47.34105" lon="-0.67537">
        <ele>59.26</ele>
        <time>2011-04-16T20:59:40Z</time>
      </trkpt>
      <trkpt lat="47.3409" lon="-0.67541">
        <ele>60.22</ele>
        <time>2011-04-16T20:59:46Z</time>
      </trkpt>
      <trkpt lat="47.34072" lon="-0.67544">
        <ele>61.66</ele>
        <time>2011-04-16T20:59:53Z</time>
      </trkpt>
      <trkpt lat="47.34052" lon="-0.67548">
        <ele>63.1</ele>
        <time>2011-04-16T21:00:00Z</time>
      </trkpt>
      <trkpt lat="47.34034" lon="-0.67559">
        <ele>64.55</ele>
        <time>2011-04-16T21:00:07Z</time>
      </trkpt>
      <trkpt lat="47.34027" lon="-0.67577">
        <ele>65.99</ele>
        <time>2011-04-16T21:00:13Z</time>
      </trkpt>
      <trkpt lat="47.34014" lon="-0.67594">
        <ele>67.43</ele>
        <time>2011-04-16T21:00:20Z</time>
      </trkpt>
      <trkpt lat="47.33996" lon="-0.67592">
        <ele>68.87</ele>
        <time>2011-04-16T21:00:26Z</time>
      </trkpt>
      <trkpt lat="47.33971" lon="-0.6759">
        <ele>71.27</ele>
        <time>2011-04-16T21:00:34Z</time>
      </trkpt>
      <trkpt lat="47.33962" lon="-0.67591">
        <ele>72.72</ele>
        <time>2011-04-16T21:00:39Z</time>
      </trkpt>
      <trkpt lat="47.33961" lon="-0.67593">
        <ele>71.76</ele>
        <time>2011-04-16T21:00:40Z</time>
      </trkpt>
      <trkpt lat="47.3396" lon="-0.67595">
        <ele>72.72</ele>
        <time>2011-04-16T21:00:41Z</time>
      </trkpt>
      <trkpt lat="47.33959" lon="-0.67597">
        <ele>73.2</ele>
        <time>2011-04-16T21:00:42Z</time>
      </trkpt>
      <trkpt lat="47.3396" lon="-0.676">
        <ele>72.72</ele>
        <time>2011-04-16T21:00:43Z</time>
      </trkpt>
      <trkpt lat="47.3396" lon="-0.67602">
        <ele>73.2</ele>
        <time>2011-04-16T21:00:44Z</time>
      </trkpt>
      <trkpt lat="47.33961" lon="-0.67605">
        <ele>72.72</ele>
        <time>2011-04-16T21:00:45Z</time>
      </trkpt>
      <trkpt lat="47.33962" lon="-0.67608">
        <ele>72.72</ele>
        <time>2011-04-16T21:00:46Z</time>
      </trkpt>
      <trkpt lat="47.33963" lon="-0.67611">
        <ele>72.72</ele>
        <time>2011-04-16T21:00:47Z</time>
      </trkpt>
      <trkpt lat="47.33971" lon="-0.67639">
        <ele>73.2</ele>
        <time>2011-04-16T21:00:56Z</time>
      </trkpt>
      <trkpt lat="47.3397" lon="-0.6766">
        <ele>73.68</ele>
        <time>2011-04-16T21:01:02Z</time>
      </trkpt>
      <trkpt lat="47.33957" lon="-0.67674">
        <ele>74.16</ele>
        <time>2011-04-16T21:01:08Z</time>
      </trkpt>
      <trkpt lat="47.33936" lon="-0.67686">
        <ele>74.64</ele>
        <time>2011-04-16T21:01:15Z</time>
      </trkpt>
      <trkpt lat="47.33911" lon="-0.67694">
        <ele>76.08</ele>
        <time>2011-04-16T21:01:23Z</time>
      </trkpt>
      <trkpt lat="47.33894" lon="-0.67705">
        <ele>76.56</ele>
        <time>2011-04-16T21:01:29Z</time>
      </trkpt>
      <trkpt lat="47.33876" lon="-0.67721">
        <ele>78</ele>
        <time>2011-04-16T21:01:35Z</time>
      </trkpt>
      <trkpt lat="47.33853" lon="-0.67733">
        <ele>78.48</ele>
        <time>2011-04-16T21:01:42Z</time>
      </trkpt>
      <trkpt lat="47.33841" lon="-0.67739">
        <ele>78.48</ele>
        <time>2011-04-16T21:01:46Z</time>
      </trkpt>
      <trkpt lat="47.33834" lon="-0.67743">
        <ele>78.48</ele>
        <time>2011-04-16T21:01:48Z</time>
      </trkpt>
      <trkpt lat="47.33814" lon="-0.6775">
        <ele>79.93</ele>
        <time>2011-04-16T21:01:53Z</time>
      </trkpt>
      <trkpt lat="47.33786" lon="-0.67746">
        <ele>80.89</ele>
        <time>2011-04-16T21:02:00Z</time>
      </trkpt>
      <trkpt lat="47.33774" lon="-0.67746">
        <ele>81.37</ele>
        <time>2011-04-16T21:02:03Z</time>
      </trkpt>
      <trkpt lat="47.3377" lon="-0.67748">
        <ele>81.37</ele>
        <time>2011-04-16T21:02:04Z</time>
      </trkpt>
      <trkpt lat="47.33767" lon="-0.67749">
        <ele>81.85</ele>
        <time>2011-04-16T21:02:05Z</time>
      </trkpt>
      <trkpt lat="47.33755" lon="-0.67761">
        <ele>81.85</ele>
        <time>2011-04-16T21:02:09Z</time>
      </trkpt>
      <trkpt lat="47.33753" lon="-0.67765">
        <ele>82.33</ele>
        <time>2011-04-16T21:02:10Z</time>
      </trkpt>
      <trkpt lat="47.3375" lon="-0.67764">
        <ele>82.33</ele>
        <time>2011-04-16T21:02:11Z</time>
      </trkpt>
      <trkpt lat="47.33747" lon="-0.67762">
        <ele>82.33</ele>
        <time>2011-04-16T21:02:12Z</time>
      </trkpt>
      <trkpt lat="47.33745" lon="-0.67759">
        <ele>81.85</ele>
        <time>2011-04-16T21:02:13Z</time>
      </trkpt>
      <trkpt lat="47.33743" lon="-0.67755">
        <ele>81.85</ele>
        <time>2011-04-16T21:02:14Z</time>
      </trkpt>
      <trkpt lat="47.33741" lon="-0.67751">
        <ele>82.33</ele>
        <time>2011-04-16T21:02:15Z</time>
      </trkpt>
      <trkpt lat="47.33739" lon="-0.67747">
        <ele>82.33</ele>
        <time>2011-04-16T21:02:16Z</time>
      </trkpt>
      <trkpt lat="47.33726" lon="-0.67723">
        <ele>81.85</ele>
        <time>2011-04-16T21:02:22Z</time>
      </trkpt>
      <trkpt lat="47.33708" lon="-0.67698">
        <ele>81.85</ele>
        <time>2011-04-16T21:02:29Z</time>
      </trkpt>
      <trkpt lat="47.33689" lon="-0.6767">
        <ele>81.37</ele>
        <time>2011-04-16T21:02:36Z</time>
      </trkpt>
      <trkpt lat="47.33662" lon="-0.67627">
        <ele>80.41</ele>
        <time>2011-04-16T21:02:44Z</time>
      </trkpt>
      <trkpt lat="47.33638" lon="-0.67577">
        <ele>79.45</ele>
        <time>2011-04-16T21:02:51Z</time>
      </trkpt>
      <trkpt lat="47.33617" lon="-0.67539">
        <ele>80.41</ele>
        <time>2011-04-16T21:02:57Z</time>
      </trkpt>
      <trkpt lat="47.33596" lon="-0.675">
        <ele>82.81</ele>
        <time>2011-04-16T21:03:05Z</time>
      </trkpt>
      <trkpt lat="47.33594" lon="-0.67496">
        <ele>82.81</ele>
        <time>2011-04-16T21:03:06Z</time>
      </trkpt>
      <trkpt lat="47.3358" lon="-0.67462">
        <ele>84.25</ele>
        <time>2011-04-16T21:03:13Z</time>
      </trkpt>
      <trkpt lat="47.33571" lon="-0.67434">
        <ele>84.73</ele>
        <time>2011-04-16T21:03:19Z</time>
      </trkpt>
      <trkpt lat="47.33569" lon="-0.67428">
        <ele>85.21</ele>
        <time>2011-04-16T21:03:20Z</time>
      </trkpt>
      <trkpt lat="47.33558" lon="-0.67389">
        <ele>86.18</ele>
        <time>2011-04-16T21:03:28Z</time>
      </trkpt>
      <trkpt lat="47.33545" lon="-0.67355">
        <ele>87.14</ele>
        <time>2011-04-16T21:03:35Z</time>
      </trkpt>
      <trkpt lat="47.33541" lon="-0.67353">
        <ele>87.62</ele>
        <time>2011-04-16T21:03:36Z</time>
      </trkpt>
      <trkpt lat="47.33538" lon="-0.67352">
        <ele>87.62</ele>
        <time>2011-04-16T21:03:37Z</time>
      </trkpt>
      <trkpt lat="47.33534" lon="-0.67352">
        <ele>87.62</ele>
        <time>2011-04-16T21:03:38Z</time>
      </trkpt>
      <trkpt lat="47.33531" lon="-0.6735">
        <ele>88.1</ele>
        <time>2011-04-16T21:03:39Z</time>
      </trkpt>
      <trkpt lat="47.33527" lon="-0.67348">
        <ele>88.1</ele>
        <time>2011-04-16T21:03:40Z</time>
      </trkpt>
      <trkpt lat="47.33513" lon="-0.6733">
        <ele>88.1</ele>
        <time>2011-04-16T21:03:45Z</time>
      </trkpt>
      <trkpt lat="47.33489" lon="-0.67279">
        <ele>88.58</ele>
        <time>2011-04-16T21:03:54Z</time>
      </trkpt>
      <trkpt lat="47.3346" lon="-0.67215">
        <ele>86.66</ele>
        <time>2011-04-16T21:04:03Z</time>
      </trkpt>
      <trkpt lat="47.33425" lon="-0.67141">
        <ele>85.21</ele>
        <time>2011-04-16T21:04:13Z</time>
      </trkpt>
      <trkpt lat="47.33409" lon="-0.67101">
        <ele>85.21</ele>
        <time>2011-04-16T21:04:19Z</time>
      </trkpt>
      <trkpt lat="47.33397" lon="-0.67069">
        <ele>86.66</ele>
        <time>2011-04-16T21:04:24Z</time>
      </trkpt>
      <trkpt lat="47.33395" lon="-0.67062">
        <ele>85.69</ele>
        <time>2011-04-16T21:04:25Z</time>
      </trkpt>
      <trkpt lat="47.33375" lon="-0.67002">
        <ele>86.66</ele>
        <time>2011-04-16T21:04:34Z</time>
      </trkpt>
      <trkpt lat="47.33356" lon="-0.66929">
        <ele>85.69</ele>
        <time>2011-04-16T21:04:44Z</time>
      </trkpt>
      <trkpt lat="47.33353" lon="-0.66922">
        <ele>85.69</ele>
        <time>2011-04-16T21:04:45Z</time>
      </trkpt>
      <trkpt lat="47.33329" lon="-0.66843">
        <ele>84.73</ele>
        <time>2011-04-16T21:04:55Z</time>
      </trkpt>
      <trkpt lat="47.33319" lon="-0.66801">
        <ele>82.81</ele>
        <time>2011-04-16T21:05:00Z</time>
      </trkpt>
      <trkpt lat="47.33319" lon="-0.66793">
        <ele>81.85</ele>
        <time>2011-04-16T21:05:01Z</time>
      </trkpt>
      <trkpt lat="47.33321" lon="-0.66786">
        <ele>81.85</ele>
        <time>2011-04-16T21:05:02Z</time>
      </trkpt>
      <trkpt lat="47.33324" lon="-0.66779">
        <ele>81.37</ele>
        <time>2011-04-16T21:05:03Z</time>
      </trkpt>
      <trkpt lat="47.33328" lon="-0.66775">
        <ele>81.37</ele>
        <time>2011-04-16T21:05:04Z</time>
      </trkpt>
      <trkpt lat="47.33333" lon="-0.66771">
        <ele>81.37</ele>
        <time>2011-04-16T21:05:05Z</time>
      </trkpt>
      <trkpt lat="47.33338" lon="-0.66767">
        <ele>80.89</ele>
        <time>2011-04-16T21:05:06Z</time>
      </trkpt>
      <trkpt lat="47.33344" lon="-0.66764">
        <ele>80.89</ele>
        <time>2011-04-16T21:05:07Z</time>
      </trkpt>
      <trkpt lat="47.33385" lon="-0.66736">
        <ele>79.93</ele>
        <time>2011-04-16T21:05:15Z</time>
      </trkpt>
      <trkpt lat="47.33396" lon="-0.6673">
        <ele>79.93</ele>
        <time>2011-04-16T21:05:17Z</time>
      </trkpt>
      <trkpt lat="47.33401" lon="-0.66725">
        <ele>79.45</ele>
        <time>2011-04-16T21:05:18Z</time>
      </trkpt>
      <trkpt lat="47.33405" lon="-0.66719">
        <ele>79.45</ele>
        <time>2011-04-16T21:05:19Z</time>
      </trkpt>
      <trkpt lat="47.33408" lon="-0.66712">
        <ele>78.48</ele>
        <time>2011-04-16T21:05:20Z</time>
      </trkpt>
      <trkpt lat="47.33411" lon="-0.66704">
        <ele>78.48</ele>
        <time>2011-04-16T21:05:21Z</time>
      </trkpt>
      <trkpt lat="47.33415" lon="-0.66696">
        <ele>78</ele>
        <time>2011-04-16T21:05:22Z</time>
      </trkpt>
      <trkpt lat="47.33419" lon="-0.6669">
        <ele>78</ele>
        <time>2011-04-16T21:05:23Z</time>
      </trkpt>
      <trkpt lat="47.33424" lon="-0.66685">
        <ele>78</ele>
        <time>2011-04-16T21:05:24Z</time>
      </trkpt>
      <trkpt lat="47.33458" lon="-0.66651">
        <ele>77.52</ele>
        <time>2011-04-16T21:05:31Z</time>
      </trkpt>
      <trkpt lat="47.33462" lon="-0.66647">
        <ele>77.04</ele>
        <time>2011-04-16T21:05:32Z</time>
      </trkpt>
      <trkpt lat="47.33464" lon="-0.66642">
        <ele>76.56</ele>
        <time>2011-04-16T21:05:33Z</time>
      </trkpt>
      <trkpt lat="47.33464" lon="-0.66637">
        <ele>76.08</ele>
        <time>2011-04-16T21:05:34Z</time>
      </trkpt>
      <trkpt lat="47.33463" lon="-0.66632">
        <ele>76.08</ele>
        <time>2011-04-16T21:05:35Z</time>
      </trkpt>
      <trkpt lat="47.33461" lon="-0.66627">
        <ele>75.6</ele>
        <time>2011-04-16T21:05:36Z</time>
      </trkpt>
      <trkpt lat="47.33455" lon="-0.66615">
        <ele>76.56</ele>
        <time>2011-04-16T21:05:38Z</time>
      </trkpt>
      <trkpt lat="47.33453" lon="-0.66609">
        <ele>76.08</ele>
        <time>2011-04-16T21:05:39Z</time>
      </trkpt>
      <trkpt lat="47.3343" lon="-0.66548">
        <ele>73.68</ele>
        <time>2011-04-16T21:05:47Z</time>
      </trkpt>
      <trkpt lat="47.33427" lon="-0.66539">
        <ele>72.72</ele>
        <time>2011-04-16T21:05:48Z</time>
      </trkpt>
      <trkpt lat="47.33426" lon="-0.66529">
        <ele>71.76</ele>
        <time>2011-04-16T21:05:49Z</time>
      </trkpt>
      <trkpt lat="47.33417" lon="-0.66479">
        <ele>69.83</ele>
        <time>2011-04-16T21:05:54Z</time>
      </trkpt>
      <trkpt lat="47.33413" lon="-0.66471">
        <ele>68.87</ele>
        <time>2011-04-16T21:05:55Z</time>
      </trkpt>
      <trkpt lat="47.33409" lon="-0.66464">
        <ele>68.87</ele>
        <time>2011-04-16T21:05:56Z</time>
      </trkpt>
      <trkpt lat="47.33382" lon="-0.66425">
        <ele>65.03</ele>
        <time>2011-04-16T21:06:01Z</time>
      </trkpt>
      <trkpt lat="47.33378" lon="-0.66417">
        <ele>65.03</ele>
        <time>2011-04-16T21:06:02Z</time>
      </trkpt>
      <trkpt lat="47.33374" lon="-0.66409">
        <ele>63.58</ele>
        <time>2011-04-16T21:06:03Z</time>
      </trkpt>
      <trkpt lat="47.3336" lon="-0.66382">
        <ele>60.22</ele>
        <time>2011-04-16T21:06:07Z</time>
      </trkpt>
      <trkpt lat="47.33346" lon="-0.66362">
        <ele>56.86</ele>
        <time>2011-04-16T21:06:10Z</time>
      </trkpt>
      <trkpt lat="47.33338" lon="-0.66348">
        <ele>54.93</ele>
        <time>2011-04-16T21:06:12Z</time>
      </trkpt>
      <trkpt lat="47.33334" lon="-0.66341">
        <ele>53.49</ele>
        <time>2011-04-16T21:06:13Z</time>
      </trkpt>
      <trkpt lat="47.33329" lon="-0.66335">
        <ele>53.49</ele>
        <time>2011-04-16T21:06:14Z</time>
      </trkpt>
      <trkpt lat="47.33325" lon="-0.66329">
        <ele>52.05</ele>
        <time>2011-04-16T21:06:15Z</time>
      </trkpt>
      <trkpt lat="47.33321" lon="-0.66324">
        <ele>51.57</ele>
        <time>2011-04-16T21:06:16Z</time>
      </trkpt>
      <trkpt lat="47.33312" lon="-0.66313">
        <ele>50.13</ele>
        <time>2011-04-16T21:06:18Z</time>
      </trkpt>
      <trkpt lat="47.33308" lon="-0.66308">
        <ele>49.65</ele>
        <time>2011-04-16T21:06:19Z</time>
      </trkpt>
      <trkpt lat="47.33295" lon="-0.66292">
        <ele>46.76</ele>
        <time>2011-04-16T21:06:22Z</time>
      </trkpt>
      <trkpt lat="47.33284" lon="-0.66275">
        <ele>43.4</ele>
        <time>2011-04-16T21:06:25Z</time>
      </trkpt>
      <trkpt lat="47.33273" lon="-0.66256">
        <ele>39.55</ele>
        <time>2011-04-16T21:06:28Z</time>
      </trkpt>
      <trkpt lat="47.33266" lon="-0.66242">
        <ele>37.63</ele>
        <time>2011-04-16T21:06:30Z</time>
      </trkpt>
      <trkpt lat="47.3325" lon="-0.66215">
        <ele>34.74</ele>
        <time>2011-04-16T21:06:34Z</time>
      </trkpt>
      <trkpt lat="47.33246" lon="-0.6621">
        <ele>33.78</ele>
        <time>2011-04-16T21:06:35Z</time>
      </trkpt>
      <trkpt lat="47.33242" lon="-0.66208">
        <ele>33.3</ele>
        <time>2011-04-16T21:06:36Z</time>
      </trkpt>
      <trkpt lat="47.33238" lon="-0.66209">
        <ele>33.3</ele>
        <time>2011-04-16T21:06:37Z</time>
      </trkpt>
      <trkpt lat="47.33233" lon="-0.66212">
        <ele>32.82</ele>
        <time>2011-04-16T21:06:38Z</time>
      </trkpt>
      <trkpt lat="47.33228" lon="-0.66216">
        <ele>32.82</ele>
        <time>2011-04-16T21:06:39Z</time>
      </trkpt>
      <trkpt lat="47.33224" lon="-0.66221">
        <ele>32.34</ele>
        <time>2011-04-16T21:06:40Z</time>
      </trkpt>
      <trkpt lat="47.33216" lon="-0.66232">
        <ele>31.38</ele>
        <time>2011-04-16T21:06:42Z</time>
      </trkpt>
      <trkpt lat="47.33187" lon="-0.66276">
        <ele>29.94</ele>
        <time>2011-04-16T21:06:49Z</time>
      </trkpt>
      <trkpt lat="47.3318" lon="-0.66288">
        <ele>29.46</ele>
        <time>2011-04-16T21:06:51Z</time>
      </trkpt>
      <trkpt lat="47.33179" lon="-0.66294">
        <ele>30.42</ele>
        <time>2011-04-16T21:06:52Z</time>
      </trkpt>
      <trkpt lat="47.33178" lon="-0.663">
        <ele>28.98</ele>
        <time>2011-04-16T21:06:53Z</time>
      </trkpt>
      <trkpt lat="47.33178" lon="-0.66305">
        <ele>28.98</ele>
        <time>2011-04-16T21:06:54Z</time>
      </trkpt>
      <trkpt lat="47.3318" lon="-0.66307">
        <ele>29.94</ele>
        <time>2011-04-16T21:06:55Z</time>
      </trkpt>
      <trkpt lat="47.33182" lon="-0.66308">
        <ele>30.42</ele>
        <time>2011-04-16T21:06:56Z</time>
      </trkpt>
      <trkpt lat="47.33183" lon="-0.6631">
        <ele>29.94</ele>
        <time>2011-04-16T21:06:57Z</time>
      </trkpt>
      <trkpt lat="47.33184" lon="-0.66312">
        <ele>29.94</ele>
        <time>2011-04-16T21:06:58Z</time>
      </trkpt>
      <trkpt lat="47.33185" lon="-0.66315">
        <ele>30.42</ele>
        <time>2011-04-16T21:06:59Z</time>
      </trkpt>
      <trkpt lat="47.33186" lon="-0.66318">
        <ele>30.9</ele>
        <time>2011-04-16T21:07:00Z</time>
      </trkpt>
      <trkpt lat="47.33187" lon="-0.66322">
        <ele>30.42</ele>
        <time>2011-04-16T21:07:01Z</time>
      </trkpt>
      <trkpt lat="47.33186" lon="-0.66325">
        <ele>30.9</ele>
        <time>2011-04-16T21:07:02Z</time>
      </trkpt>
      <trkpt lat="47.33184" lon="-0.66329">
        <ele>30.9</ele>
        <time>2011-04-16T21:07:03Z</time>
      </trkpt>
      <trkpt lat="47.33183" lon="-0.66333">
        <ele>31.38</ele>
        <time>2011-04-16T21:07:04Z</time>
      </trkpt>
      <trkpt lat="47.33174" lon="-0.6635">
        <ele>30.9</ele>
        <time>2011-04-16T21:07:08Z</time>
      </trkpt>
      <trkpt lat="47.33149" lon="-0.66382">
        <ele>29.94</ele>
        <time>2011-04-16T21:07:16Z</time>
      </trkpt>
      <trkpt lat="47.33114" lon="-0.6641">
        <ele>28.02</ele>
        <time>2011-04-16T21:07:25Z</time>
      </trkpt>
      <trkpt lat="47.3311" lon="-0.66413">
        <ele>28.02</ele>
        <time>2011-04-16T21:07:26Z</time>
      </trkpt>
      <trkpt lat="47.33097" lon="-0.66414">
        <ele>25.61</ele>
        <time>2011-04-16T21:07:30Z</time>
      </trkpt>
      <trkpt lat="47.33095" lon="-0.66411">
        <ele>25.61</ele>
        <time>2011-04-16T21:07:31Z</time>
      </trkpt>
      <trkpt lat="47.33094" lon="-0.66406">
        <ele>25.13</ele>
        <time>2011-04-16T21:07:32Z</time>
      </trkpt>
      <trkpt lat="47.33092" lon="-0.664">
        <ele>25.13</ele>
        <time>2011-04-16T21:07:33Z</time>
      </trkpt>
      <trkpt lat="47.3309" lon="-0.66394">
        <ele>24.65</ele>
        <time>2011-04-16T21:07:34Z</time>
      </trkpt>
      <trkpt lat="47.33088" lon="-0.66389">
        <ele>25.13</ele>
        <time>2011-04-16T21:07:35Z</time>
      </trkpt>
      <trkpt lat="47.33086" lon="-0.66383">
        <ele>25.13</ele>
        <time>2011-04-16T21:07:36Z</time>
      </trkpt>
      <trkpt lat="47.33084" lon="-0.66376">
        <ele>25.13</ele>
        <time>2011-04-16T21:07:37Z</time>
      </trkpt>
      <trkpt lat="47.33073" lon="-0.66346">
        <ele>24.65</ele>
        <time>2011-04-16T21:07:42Z</time>
      </trkpt>
      <trkpt lat="47.33072" lon="-0.6634">
        <ele>25.13</ele>
        <time>2011-04-16T21:07:43Z</time>
      </trkpt>
      <trkpt lat="47.33065" lon="-0.66286">
        <ele>26.57</ele>
        <time>2011-04-16T21:07:52Z</time>
      </trkpt>
      <trkpt lat="47.3306" lon="-0.66263">
        <ele>28.02</ele>
        <time>2011-04-16T21:07:57Z</time>
      </trkpt>
      <trkpt lat="47.33054" lon="-0.66236">
        <ele>30.42</ele>
        <time>2011-04-16T21:08:04Z</time>
      </trkpt>
      <trkpt lat="47.33055" lon="-0.66219">
        <ele>32.82</ele>
        <time>2011-04-16T21:08:10Z</time>
      </trkpt>
      <trkpt lat="47.33063" lon="-0.66206">
        <ele>34.74</ele>
        <time>2011-04-16T21:08:16Z</time>
      </trkpt>
      <trkpt lat="47.33065" lon="-0.66199">
        <ele>36.19</ele>
        <time>2011-04-16T21:08:19Z</time>
      </trkpt>
      <trkpt lat="47.33065" lon="-0.66197">
        <ele>35.71</ele>
        <time>2011-04-16T21:08:20Z</time>
      </trkpt>
      <trkpt lat="47.33064" lon="-0.66196">
        <ele>36.67</ele>
        <time>2011-04-16T21:08:21Z</time>
      </trkpt>
      <trkpt lat="47.33063" lon="-0.66197">
        <ele>36.67</ele>
        <time>2011-04-16T21:08:22Z</time>
      </trkpt>
      <trkpt lat="47.33061" lon="-0.66198">
        <ele>36.67</ele>
        <time>2011-04-16T21:08:23Z</time>
      </trkpt>
      <trkpt lat="47.33058" lon="-0.66199">
        <ele>36.67</ele>
        <time>2011-04-16T21:08:24Z</time>
      </trkpt>
      <trkpt lat="47.33056" lon="-0.662">
        <ele>36.19</ele>
        <time>2011-04-16T21:08:25Z</time>
      </trkpt>
      <trkpt lat="47.33053" lon="-0.66201">
        <ele>36.67</ele>
        <time>2011-04-16T21:08:26Z</time>
      </trkpt>
      <trkpt lat="47.33051" lon="-0.66202">
        <ele>36.67</ele>
        <time>2011-04-16T21:08:27Z</time>
      </trkpt>
      <trkpt lat="47.33022" lon="-0.66205">
        <ele>35.71</ele>
        <time>2011-04-16T21:08:35Z</time>
      </trkpt>
      <trkpt lat="47.32986" lon="-0.66206">
        <ele>33.3</ele>
        <time>2011-04-16T21:08:41Z</time>
      </trkpt>
      <trkpt lat="47.32954" lon="-0.66206">
        <ele>31.38</ele>
        <time>2011-04-16T21:08:46Z</time>
      </trkpt>
      <trkpt lat="47.32941" lon="-0.66203">
        <ele>31.38</ele>
        <time>2011-04-16T21:08:48Z</time>
      </trkpt>
      <trkpt lat="47.32935" lon="-0.66203">
        <ele>30.42</ele>
        <time>2011-04-16T21:08:49Z</time>
      </trkpt>
      <trkpt lat="47.32928" lon="-0.66203">
        <ele>30.42</ele>
        <time>2011-04-16T21:08:50Z</time>
      </trkpt>
      <trkpt lat="47.32902" lon="-0.66206">
        <ele>28.98</ele>
        <time>2011-04-16T21:08:54Z</time>
      </trkpt>
      <trkpt lat="47.32889" lon="-0.6621">
        <ele>27.53</ele>
        <time>2011-04-16T21:08:56Z</time>
      </trkpt>
      <trkpt lat="47.32881" lon="-0.6621">
        <ele>27.05</ele>
        <time>2011-04-16T21:08:57Z</time>
      </trkpt>
      <trkpt lat="47.3282" lon="-0.66216">
        <ele>22.73</ele>
        <time>2011-04-16T21:09:05Z</time>
      </trkpt>
      <trkpt lat="47.32812" lon="-0.66217">
        <ele>23.21</ele>
        <time>2011-04-16T21:09:06Z</time>
      </trkpt>
      <trkpt lat="47.32766" lon="-0.66229">
        <ele>20.32</ele>
        <time>2011-04-16T21:09:13Z</time>
      </trkpt>
      <trkpt lat="47.3276" lon="-0.66232">
        <ele>20.32</ele>
        <time>2011-04-16T21:09:14Z</time>
      </trkpt>
      <trkpt lat="47.32743" lon="-0.66241">
        <ele>19.84</ele>
        <time>2011-04-16T21:09:17Z</time>
      </trkpt>
      <trkpt lat="47.32737" lon="-0.66245">
        <ele>19.36</ele>
        <time>2011-04-16T21:09:18Z</time>
      </trkpt>
      <trkpt lat="47.32732" lon="-0.6625">
        <ele>19.36</ele>
        <time>2011-04-16T21:09:19Z</time>
      </trkpt>
      <trkpt lat="47.32693" lon="-0.66289">
        <ele>17.92</ele>
        <time>2011-04-16T21:09:27Z</time>
      </trkpt>
      <trkpt lat="47.32646" lon="-0.66323">
        <ele>16.48</ele>
        <time>2011-04-16T21:09:36Z</time>
      </trkpt>
      <trkpt lat="47.3262" lon="-0.66338">
        <ele>16</ele>
        <time>2011-04-16T21:09:41Z</time>
      </trkpt>
      <trkpt lat="47.32611" lon="-0.66345">
        <ele>15.52</ele>
        <time>2011-04-16T21:09:43Z</time>
      </trkpt>
      <trkpt lat="47.32606" lon="-0.66347">
        <ele>15.52</ele>
        <time>2011-04-16T21:09:44Z</time>
      </trkpt>
      <trkpt lat="47.32602" lon="-0.66345">
        <ele>15.52</ele>
        <time>2011-04-16T21:09:45Z</time>
      </trkpt>
      <trkpt lat="47.32599" lon="-0.66341">
        <ele>15.04</ele>
        <time>2011-04-16T21:09:46Z</time>
      </trkpt>
      <trkpt lat="47.32596" lon="-0.66335">
        <ele>16</ele>
        <time>2011-04-16T21:09:47Z</time>
      </trkpt>
      <trkpt lat="47.32593" lon="-0.66328">
        <ele>15.52</ele>
        <time>2011-04-16T21:09:48Z</time>
      </trkpt>
      <trkpt lat="47.32592" lon="-0.66322">
        <ele>16</ele>
        <time>2011-04-16T21:09:49Z</time>
      </trkpt>
      <trkpt lat="47.32589" lon="-0.66316">
        <ele>15.04</ele>
        <time>2011-04-16T21:09:50Z</time>
      </trkpt>
      <trkpt lat="47.32587" lon="-0.66311">
        <ele>16</ele>
        <time>2011-04-16T21:09:51Z</time>
      </trkpt>
      <trkpt lat="47.32584" lon="-0.66305">
        <ele>16.48</ele>
        <time>2011-04-16T21:09:52Z</time>
      </trkpt>
      <trkpt lat="47.32582" lon="-0.66299">
        <ele>16</ele>
        <time>2011-04-16T21:09:53Z</time>
      </trkpt>
      <trkpt lat="47.3256" lon="-0.66249">
        <ele>17.44</ele>
        <time>2011-04-16T21:10:02Z</time>
      </trkpt>
      <trkpt lat="47.32544" lon="-0.66217">
        <ele>18.88</ele>
        <time>2011-04-16T21:10:09Z</time>
      </trkpt>
      <trkpt lat="47.3254" lon="-0.66216">
        <ele>18.88</ele>
        <time>2011-04-16T21:10:10Z</time>
      </trkpt>
      <trkpt lat="47.32537" lon="-0.66219">
        <ele>18.88</ele>
        <time>2011-04-16T21:10:11Z</time>
      </trkpt>
      <trkpt lat="47.32534" lon="-0.66223">
        <ele>18.88</ele>
        <time>2011-04-16T21:10:12Z</time>
      </trkpt>
      <trkpt lat="47.32531" lon="-0.66228">
        <ele>18.4</ele>
        <time>2011-04-16T21:10:13Z</time>
      </trkpt>
      <trkpt lat="47.32529" lon="-0.66233">
        <ele>17.92</ele>
        <time>2011-04-16T21:10:14Z</time>
      </trkpt>
      <trkpt lat="47.32527" lon="-0.66241">
        <ele>17.92</ele>
        <time>2011-04-16T21:10:15Z</time>
      </trkpt>
      <trkpt lat="47.32525" lon="-0.66248">
        <ele>17.44</ele>
        <time>2011-04-16T21:10:16Z</time>
      </trkpt>
      <trkpt lat="47.32519" lon="-0.66312">
        <ele>16.48</ele>
        <time>2011-04-16T21:10:23Z</time>
      </trkpt>
      <trkpt lat="47.32514" lon="-0.66383">
        <ele>14.08</ele>
        <time>2011-04-16T21:10:30Z</time>
      </trkpt>
      <trkpt lat="47.32513" lon="-0.664">
        <ele>13.6</ele>
        <time>2011-04-16T21:10:32Z</time>
      </trkpt>
      <trkpt lat="47.32515" lon="-0.66409">
        <ele>13.6</ele>
        <time>2011-04-16T21:10:33Z</time>
      </trkpt>
      <trkpt lat="47.32519" lon="-0.66415">
        <ele>13.12</ele>
        <time>2011-04-16T21:10:34Z</time>
      </trkpt>
      <trkpt lat="47.32523" lon="-0.6642">
        <ele>13.12</ele>
        <time>2011-04-16T21:10:35Z</time>
      </trkpt>
      <trkpt lat="47.32527" lon="-0.66425">
        <ele>13.12</ele>
        <time>2011-04-16T21:10:36Z</time>
      </trkpt>
      <trkpt lat="47.32555" lon="-0.66457">
        <ele>13.6</ele>
        <time>2011-04-16T21:10:44Z</time>
      </trkpt>
      <trkpt lat="47.32557" lon="-0.6646">
        <ele>13.6</ele>
        <time>2011-04-16T21:10:45Z</time>
      </trkpt>
      <trkpt lat="47.32558" lon="-0.66463">
        <ele>13.6</ele>
        <time>2011-04-16T21:10:46Z</time>
      </trkpt>
      <trkpt lat="47.32558" lon="-0.66466">
        <ele>13.6</ele>
        <time>2011-04-16T21:10:47Z</time>
      </trkpt>
      <trkpt lat="47.32557" lon="-0.66469">
        <ele>13.6</ele>
        <time>2011-04-16T21:10:48Z</time>
      </trkpt>
      <trkpt lat="47.32557" lon="-0.66469">
        <ele>14.08</ele>
        <time>2011-04-16T21:10:53Z</time>
      </trkpt>
      <trkpt lat="47.32556" lon="-0.66468">
        <ele>13.12</ele>
        <time>2011-04-16T21:11:13Z</time>
      </trkpt>
      <trkpt lat="47.32556" lon="-0.66467">
        <ele>13.6</ele>
        <time>2011-04-16T21:11:20Z</time>
      </trkpt>
      <trkpt lat="47.32556" lon="-0.66467">
        <ele>14.56</ele>
        <time>2011-04-16T21:13:54Z</time>
      </trkpt>
      <trkpt lat="47.32557" lon="-0.66465">
        <ele>14.08</ele>
        <time>2011-04-16T21:14:01Z</time>
      </trkpt>
      <trkpt lat="47.32563" lon="-0.66471">
        <ele>14.56</ele>
        <time>2011-04-16T21:14:06Z</time>
      </trkpt>
      <trkpt lat="47.3258" lon="-0.66499">
        <ele>14.56</ele>
        <time>2011-04-16T21:14:15Z</time>
      </trkpt>
      <trkpt lat="47.32595" lon="-0.66527">
        <ele>14.56</ele>
        <time>2011-04-16T21:14:22Z</time>
      </trkpt>
      <trkpt lat="47.32617" lon="-0.66565">
        <ele>14.56</ele>
        <time>2011-04-16T21:14:31Z</time>
      </trkpt>
      <trkpt lat="47.32642" lon="-0.66618">
        <ele>13.12</ele>
        <time>2011-04-16T21:14:42Z</time>
      </trkpt>
      <trkpt lat="47.32639" lon="-0.66635">
        <ele>14.08</ele>
        <time>2011-04-16T21:14:47Z</time>
      </trkpt>
      <trkpt lat="47.32637" lon="-0.66636">
        <ele>13.6</ele>
        <time>2011-04-16T21:14:48Z</time>
      </trkpt>
      <trkpt lat="47.32636" lon="-0.66638">
        <ele>13.6</ele>
        <time>2011-04-16T21:14:49Z</time>
      </trkpt>
      <trkpt lat="47.32624" lon="-0.66652">
        <ele>13.6</ele>
        <time>2011-04-16T21:14:57Z</time>
      </trkpt>
      <trkpt lat="47.32605" lon="-0.66678">
        <ele>13.12</ele>
        <time>2011-04-16T21:15:05Z</time>
      </trkpt>
      <trkpt lat="47.32594" lon="-0.667">
        <ele>13.6</ele>
        <time>2011-04-16T21:15:10Z</time>
      </trkpt>
      <trkpt lat="47.32594" lon="-0.66705">
        <ele>14.08</ele>
        <time>2011-04-16T21:15:11Z</time>
      </trkpt>
      <trkpt lat="47.32595" lon="-0.66709">
        <ele>14.08</ele>
        <time>2011-04-16T21:15:12Z</time>
      </trkpt>
      <trkpt lat="47.32596" lon="-0.66713">
        <ele>14.08</ele>
        <time>2011-04-16T21:15:13Z</time>
      </trkpt>
      <trkpt lat="47.32597" lon="-0.66717">
        <ele>14.56</ele>
        <time>2011-04-16T21:15:14Z</time>
      </trkpt>
      <trkpt lat="47.32597" lon="-0.66721">
        <ele>14.56</ele>
        <time>2011-04-16T21:15:15Z</time>
      </trkpt>
      <trkpt lat="47.32597" lon="-0.66725">
        <ele>14.08</ele>
        <time>2011-04-16T21:15:16Z</time>
      </trkpt>
      <trkpt lat="47.32597" lon="-0.66729">
        <ele>14.08</ele>
        <time>2011-04-16T21:15:17Z</time>
      </trkpt>
      <trkpt lat="47.32596" lon="-0.66732">
        <ele>14.56</ele>
        <time>2011-04-16T21:15:18Z</time>
      </trkpt>
      <trkpt lat="47.32594" lon="-0.66759">
        <ele>14.08</ele>
        <time>2011-04-16T21:15:26Z</time>
      </trkpt>
      <trkpt lat="47.32593" lon="-0.6676">
        <ele>13.6</ele>
        <time>2011-04-16T21:15:34Z</time>
      </trkpt>
      <trkpt lat="47.32593" lon="-0.6676">
        <ele>13.6</ele>
        <time>2011-04-16T21:15:59Z</time>
      </trkpt>
      <trkpt lat="47.32593" lon="-0.66759">
        <ele>14.56</ele>
        <time>2011-04-16T21:16:08Z</time>
      </trkpt>
      <trkpt lat="47.32593" lon="-0.66759">
        <ele>14.56</ele>
        <time>2011-04-16T21:16:40Z</time>
      </trkpt>
      <trkpt lat="47.32593" lon="-0.66759">
        <ele>14.08</ele>
        <time>2011-04-16T21:16:52Z</time>
      </trkpt>
      <trkpt lat="47.32593" lon="-0.66759">
        <ele>14.56</ele>
        <time>2011-04-16T21:17:23Z</time>
      </trkpt>
      <trkpt lat="47.32593" lon="-0.66759">
        <ele>15.52</ele>
        <time>2011-04-16T21:18:54Z</time>
      </trkpt>
      <trkpt lat="47.32593" lon="-0.66759">
        <ele>15.04</ele>
        <time>2011-04-16T21:19:04Z</time>
      </trkpt>
      <trkpt lat="47.32594" lon="-0.66761">
        <ele>16.96</ele>
        <time>2011-04-16T21:19:11Z</time>
      </trkpt>
      <trkpt lat="47.32595" lon="-0.66763">
        <ele>15.52</ele>
        <time>2011-04-16T21:19:14Z</time>
      </trkpt>
      <trkpt lat="47.32595" lon="-0.66763">
        <ele>15.52</ele>
        <time>2011-04-16T21:19:32Z</time>
      </trkpt>
      <trkpt lat="47.32595" lon="-0.66763">
        <ele>15.52</ele>
        <time>2011-04-16T21:19:47Z</time>
      </trkpt>
      <trkpt lat="47.32595" lon="-0.66763">
        <ele>13.6</ele>
        <time>2011-04-16T21:19:50Z</time>
      </trkpt>
      <trkpt lat="47.32595" lon="-0.66763">
        <ele>22.25</ele>
        <time>2011-04-16T22:31:15Z</time>
      </trkpt>
      <trkpt lat="47.32595" lon="-0.66763">
        <ele>12.63</ele>
        <time>2011-04-16T22:31:16Z</time>
      </trkpt>
      <trkpt lat="47.32595" lon="-0.66763">
        <ele>12.63</ele>
        <time>2011-04-16T22:31:17Z</time>
      </trkpt>
      <trkpt lat="47.32593" lon="-0.66755">
        <ele>11.19</ele>
        <time>2011-04-16T22:31:22Z</time>
      </trkpt>
      <trkpt lat="47.3259" lon="-0.66755">
        <ele>7.83</ele>
        <time>2011-04-16T22:31:25Z</time>
      </trkpt>
      <trkpt lat="47.32591" lon="-0.66756">
        <ele>11.19</ele>
        <time>2011-04-16T22:31:26Z</time>
      </trkpt>
      <trkpt lat="47.32592" lon="-0.66755">
        <ele>13.6</ele>
        <time>2011-04-16T22:31:30Z</time>
      </trkpt>
    </trkseg>
  </trk>
</gpx>